<?xml version="1.0" encoding="utf-8"?>
<gpx xmlns:xsi="http://www.w3.org/2001/XMLSchema-instance" xmlns:xsd="http://www.w3.org/2001/XMLSchema" version="1.1" creator="Shapelink.com" xmlns="http://www.topografix.com/GPX/1/1" xmlns:gpxtpx="http://www.garmin.com/xmlschemas/TrackPointExtension/v1">
  <metadata>
    <name>Kører 28.54 km, 2011-07-07</name>
    <desc></desc>
    <author><name>Jojje Borssén</name></author> 
    <time>2011-07-07T08:03:46Z</time>
  </metadata>
  <trk>
    <name>Kører 28.54 km, 2011-07-07</name>
    <trkseg>
      <trkpt lat="63.050292" lon="12.545836">
        <ele>1128.06</ele>
        <time>2011-07-07T08:03:46Z</time>
      </trkpt>
      <trkpt lat="63.050319" lon="12.545812">
        <ele>1128.03</ele>
        <time>2011-07-07T08:03:48Z</time>
      </trkpt>
      <trkpt lat="63.050364" lon="12.545803">
        <ele>1130.4</ele>
        <time>2011-07-07T08:03:51Z</time>
      </trkpt>
      <trkpt lat="63.050481" lon="12.545841">
        <ele>1130.14</ele>
        <time>2011-07-07T08:03:57Z</time>
      </trkpt>
      <trkpt lat="63.050619" lon="12.546">
        <ele>1131.35</ele>
        <time>2011-07-07T08:04:04Z</time>
      </trkpt>
      <trkpt lat="63.050758" lon="12.54613">
        <ele>1131.93</ele>
        <time>2011-07-07T08:04:10Z</time>
      </trkpt>
      <trkpt lat="63.050906" lon="12.546296">
        <ele>1132.2</ele>
        <time>2011-07-07T08:04:17Z</time>
      </trkpt>
      <trkpt lat="63.050962" lon="12.546322">
        <ele>1132.86</ele>
        <time>2011-07-07T08:04:21Z</time>
      </trkpt>
      <trkpt lat="63.051111" lon="12.546395">
        <ele>1134.01</ele>
        <time>2011-07-07T08:04:28Z</time>
      </trkpt>
      <trkpt lat="63.051201" lon="12.546406">
        <ele>1135.1</ele>
        <time>2011-07-07T08:04:33Z</time>
      </trkpt>
      <trkpt lat="63.05136" lon="12.546464">
        <ele>1135.95</ele>
        <time>2011-07-07T08:04:43Z</time>
      </trkpt>
      <trkpt lat="63.051462" lon="12.54648">
        <ele>1136.91</ele>
        <time>2011-07-07T08:04:51Z</time>
      </trkpt>
      <trkpt lat="63.051514" lon="12.546532">
        <ele>1138.29</ele>
        <time>2011-07-07T08:04:58Z</time>
      </trkpt>
      <trkpt lat="63.051521" lon="12.546533">
        <ele>1138.63</ele>
        <time>2011-07-07T08:04:59Z</time>
      </trkpt>
      <trkpt lat="63.051591" lon="12.546563">
        <ele>1139.41</ele>
        <time>2011-07-07T08:05:04Z</time>
      </trkpt>
      <trkpt lat="63.051653" lon="12.546591">
        <ele>1140.62</ele>
        <time>2011-07-07T08:05:13Z</time>
      </trkpt>
      <trkpt lat="63.0517" lon="12.546607">
        <ele>1141.06</ele>
        <time>2011-07-07T08:05:18Z</time>
      </trkpt>
      <trkpt lat="63.051795" lon="12.546629">
        <ele>1141.97</ele>
        <time>2011-07-07T08:05:26Z</time>
      </trkpt>
      <trkpt lat="63.051884" lon="12.546679">
        <ele>1142.64</ele>
        <time>2011-07-07T08:05:33Z</time>
      </trkpt>
      <trkpt lat="63.051924" lon="12.546748">
        <ele>1143.04</ele>
        <time>2011-07-07T08:05:37Z</time>
      </trkpt>
      <trkpt lat="63.051959" lon="12.546783">
        <ele>1143.18</ele>
        <time>2011-07-07T08:05:41Z</time>
      </trkpt>
      <trkpt lat="63.051983" lon="12.546806">
        <ele>1143.28</ele>
        <time>2011-07-07T08:05:43Z</time>
      </trkpt>
      <trkpt lat="63.052052" lon="12.546852">
        <ele>1143.44</ele>
        <time>2011-07-07T08:05:49Z</time>
      </trkpt>
      <trkpt lat="63.052061" lon="12.546873">
        <ele>1143.5</ele>
        <time>2011-07-07T08:05:50Z</time>
      </trkpt>
      <trkpt lat="63.052086" lon="12.546948">
        <ele>1143.68</ele>
        <time>2011-07-07T08:05:53Z</time>
      </trkpt>
      <trkpt lat="63.052104" lon="12.546983">
        <ele>1143.64</ele>
        <time>2011-07-07T08:05:55Z</time>
      </trkpt>
      <trkpt lat="63.052133" lon="12.54709">
        <ele>1143.64</ele>
        <time>2011-07-07T08:06:00Z</time>
      </trkpt>
      <trkpt lat="63.052191" lon="12.547243">
        <ele>1143.91</ele>
        <time>2011-07-07T08:06:07Z</time>
      </trkpt>
      <trkpt lat="63.052225" lon="12.54736">
        <ele>1143.79</ele>
        <time>2011-07-07T08:06:12Z</time>
      </trkpt>
      <trkpt lat="63.052278" lon="12.547601">
        <ele>1143.28</ele>
        <time>2011-07-07T08:06:21Z</time>
      </trkpt>
      <trkpt lat="63.052284" lon="12.547633">
        <ele>1143.25</ele>
        <time>2011-07-07T08:06:22Z</time>
      </trkpt>
      <trkpt lat="63.052363" lon="12.547716">
        <ele>1142.97</ele>
        <time>2011-07-07T08:06:29Z</time>
      </trkpt>
      <trkpt lat="63.052375" lon="12.547721">
        <ele>1143.04</ele>
        <time>2011-07-07T08:06:30Z</time>
      </trkpt>
      <trkpt lat="63.052425" lon="12.547781">
        <ele>1143.6</ele>
        <time>2011-07-07T08:06:34Z</time>
      </trkpt>
      <trkpt lat="63.052446" lon="12.547811">
        <ele>1144.1</ele>
        <time>2011-07-07T08:06:36Z</time>
      </trkpt>
      <trkpt lat="63.052519" lon="12.547877">
        <ele>1145.2</ele>
        <time>2011-07-07T08:06:42Z</time>
      </trkpt>
      <trkpt lat="63.052537" lon="12.54789">
        <ele>1145.58</ele>
        <time>2011-07-07T08:06:44Z</time>
      </trkpt>
      <trkpt lat="63.052603" lon="12.548">
        <ele>1146.38</ele>
        <time>2011-07-07T08:06:51Z</time>
      </trkpt>
      <trkpt lat="63.052648" lon="12.548024">
        <ele>1146.89</ele>
        <time>2011-07-07T08:06:56Z</time>
      </trkpt>
      <trkpt lat="63.052737" lon="12.54802">
        <ele>1147.78</ele>
        <time>2011-07-07T08:07:03Z</time>
      </trkpt>
      <trkpt lat="63.052793" lon="12.548001">
        <ele>1148.67</ele>
        <time>2011-07-07T08:07:10Z</time>
      </trkpt>
      <trkpt lat="63.052886" lon="12.547962">
        <ele>1149.4</ele>
        <time>2011-07-07T08:07:18Z</time>
      </trkpt>
      <trkpt lat="63.052952" lon="12.547852">
        <ele>1150.88</ele>
        <time>2011-07-07T08:07:25Z</time>
      </trkpt>
      <trkpt lat="63.052999" lon="12.547743">
        <ele>1151.67</ele>
        <time>2011-07-07T08:07:29Z</time>
      </trkpt>
      <trkpt lat="63.053068" lon="12.547644">
        <ele>1152.95</ele>
        <time>2011-07-07T08:07:34Z</time>
      </trkpt>
      <trkpt lat="63.053117" lon="12.547537">
        <ele>1153.51</ele>
        <time>2011-07-07T08:07:39Z</time>
      </trkpt>
      <trkpt lat="63.053174" lon="12.547455">
        <ele>1154.35</ele>
        <time>2011-07-07T08:07:46Z</time>
      </trkpt>
      <trkpt lat="63.053202" lon="12.547406">
        <ele>1154.96</ele>
        <time>2011-07-07T08:07:49Z</time>
      </trkpt>
      <trkpt lat="63.053309" lon="12.547412">
        <ele>1155.95</ele>
        <time>2011-07-07T08:07:56Z</time>
      </trkpt>
      <trkpt lat="63.05338" lon="12.547473">
        <ele>1156.29</ele>
        <time>2011-07-07T08:08:01Z</time>
      </trkpt>
      <trkpt lat="63.053478" lon="12.547543">
        <ele>1156.49</ele>
        <time>2011-07-07T08:08:08Z</time>
      </trkpt>
      <trkpt lat="63.053581" lon="12.547657">
        <ele>1157.05</ele>
        <time>2011-07-07T08:08:16Z</time>
      </trkpt>
      <trkpt lat="63.053672" lon="12.547768">
        <ele>1157.43</ele>
        <time>2011-07-07T08:08:24Z</time>
      </trkpt>
      <trkpt lat="63.053768" lon="12.547879">
        <ele>1157.92</ele>
        <time>2011-07-07T08:08:29Z</time>
      </trkpt>
      <trkpt lat="63.053874" lon="12.548058">
        <ele>1158.34</ele>
        <time>2011-07-07T08:08:35Z</time>
      </trkpt>
      <trkpt lat="63.053942" lon="12.548156">
        <ele>1158.59</ele>
        <time>2011-07-07T08:08:39Z</time>
      </trkpt>
      <trkpt lat="63.054032" lon="12.54833">
        <ele>1158.77</ele>
        <time>2011-07-07T08:08:45Z</time>
      </trkpt>
      <trkpt lat="63.054121" lon="12.548388">
        <ele>1158.68</ele>
        <time>2011-07-07T08:08:51Z</time>
      </trkpt>
      <trkpt lat="63.054151" lon="12.548442">
        <ele>1158.43</ele>
        <time>2011-07-07T08:08:56Z</time>
      </trkpt>
      <trkpt lat="63.054166" lon="12.548512">
        <ele>1158.56</ele>
        <time>2011-07-07T08:09:00Z</time>
      </trkpt>
      <trkpt lat="63.054267" lon="12.548635">
        <ele>1159.74</ele>
        <time>2011-07-07T08:09:06Z</time>
      </trkpt>
      <trkpt lat="63.054392" lon="12.548753">
        <ele>1160.82</ele>
        <time>2011-07-07T08:09:12Z</time>
      </trkpt>
      <trkpt lat="63.05441" lon="12.548784">
        <ele>1161.05</ele>
        <time>2011-07-07T08:09:13Z</time>
      </trkpt>
      <trkpt lat="63.05454" lon="12.548948">
        <ele>1163.09</ele>
        <time>2011-07-07T08:09:21Z</time>
      </trkpt>
      <trkpt lat="63.054628" lon="12.549074">
        <ele>1163.79</ele>
        <time>2011-07-07T08:09:29Z</time>
      </trkpt>
      <trkpt lat="63.054733" lon="12.549231">
        <ele>1164.86</ele>
        <time>2011-07-07T08:09:37Z</time>
      </trkpt>
      <trkpt lat="63.054795" lon="12.549378">
        <ele>1165.13</ele>
        <time>2011-07-07T08:09:41Z</time>
      </trkpt>
      <trkpt lat="63.054899" lon="12.549543">
        <ele>1165.94</ele>
        <time>2011-07-07T08:09:47Z</time>
      </trkpt>
      <trkpt lat="63.054942" lon="12.549553">
        <ele>1166.49</ele>
        <time>2011-07-07T08:09:50Z</time>
      </trkpt>
      <trkpt lat="63.054963" lon="12.549576">
        <ele>1166.54</ele>
        <time>2011-07-07T08:09:52Z</time>
      </trkpt>
      <trkpt lat="63.054995" lon="12.549689">
        <ele>1167.29</ele>
        <time>2011-07-07T08:09:58Z</time>
      </trkpt>
      <trkpt lat="63.055044" lon="12.549879">
        <ele>1167.96</ele>
        <time>2011-07-07T08:10:04Z</time>
      </trkpt>
      <trkpt lat="63.055088" lon="12.549933">
        <ele>1167.98</ele>
        <time>2011-07-07T08:10:06Z</time>
      </trkpt>
      <trkpt lat="63.055203" lon="12.550153">
        <ele>1168.68</ele>
        <time>2011-07-07T08:10:13Z</time>
      </trkpt>
      <trkpt lat="63.055285" lon="12.55033">
        <ele>1169.53</ele>
        <time>2011-07-07T08:10:18Z</time>
      </trkpt>
      <trkpt lat="63.055391" lon="12.550492">
        <ele>1170.02</ele>
        <time>2011-07-07T08:10:23Z</time>
      </trkpt>
      <trkpt lat="63.055468" lon="12.550582">
        <ele>1170.47</ele>
        <time>2011-07-07T08:10:27Z</time>
      </trkpt>
      <trkpt lat="63.055581" lon="12.550823">
        <ele>1170.39</ele>
        <time>2011-07-07T08:10:34Z</time>
      </trkpt>
      <trkpt lat="63.055647" lon="12.550953">
        <ele>1169.93</ele>
        <time>2011-07-07T08:10:38Z</time>
      </trkpt>
      <trkpt lat="63.055722" lon="12.551099">
        <ele>1170.1</ele>
        <time>2011-07-07T08:10:43Z</time>
      </trkpt>
      <trkpt lat="63.055765" lon="12.551213">
        <ele>1170.18</ele>
        <time>2011-07-07T08:10:46Z</time>
      </trkpt>
      <trkpt lat="63.055839" lon="12.551289">
        <ele>1170.21</ele>
        <time>2011-07-07T08:10:50Z</time>
      </trkpt>
      <trkpt lat="63.055909" lon="12.551557">
        <ele>1170.33</ele>
        <time>2011-07-07T08:10:56Z</time>
      </trkpt>
      <trkpt lat="63.055943" lon="12.551671">
        <ele>1170.03</ele>
        <time>2011-07-07T08:11:01Z</time>
      </trkpt>
      <trkpt lat="63.055976" lon="12.551789">
        <ele>1169.92</ele>
        <time>2011-07-07T08:11:07Z</time>
      </trkpt>
      <trkpt lat="63.056036" lon="12.551862">
        <ele>1170.4</ele>
        <time>2011-07-07T08:11:14Z</time>
      </trkpt>
      <trkpt lat="63.056075" lon="12.551943">
        <ele>1171.6</ele>
        <time>2011-07-07T08:11:21Z</time>
      </trkpt>
      <trkpt lat="63.056137" lon="12.552024">
        <ele>1172.27</ele>
        <time>2011-07-07T08:11:27Z</time>
      </trkpt>
      <trkpt lat="63.056201" lon="12.552081">
        <ele>1172.49</ele>
        <time>2011-07-07T08:11:32Z</time>
      </trkpt>
      <trkpt lat="63.056252" lon="12.552176">
        <ele>1172.21</ele>
        <time>2011-07-07T08:11:38Z</time>
      </trkpt>
      <trkpt lat="63.05626" lon="12.552188">
        <ele>1172.25</ele>
        <time>2011-07-07T08:11:39Z</time>
      </trkpt>
      <trkpt lat="63.056301" lon="12.552204">
        <ele>1172.07</ele>
        <time>2011-07-07T08:11:43Z</time>
      </trkpt>
      <trkpt lat="63.056348" lon="12.552271">
        <ele>1172.28</ele>
        <time>2011-07-07T08:11:49Z</time>
      </trkpt>
      <trkpt lat="63.056436" lon="12.552332">
        <ele>1174.39</ele>
        <time>2011-07-07T08:11:58Z</time>
      </trkpt>
      <trkpt lat="63.056492" lon="12.552399">
        <ele>1175.41</ele>
        <time>2011-07-07T08:12:03Z</time>
      </trkpt>
      <trkpt lat="63.056517" lon="12.552454">
        <ele>1177.62</ele>
        <time>2011-07-07T08:12:09Z</time>
      </trkpt>
      <trkpt lat="63.056564" lon="12.552516">
        <ele>1178.2</ele>
        <time>2011-07-07T08:12:15Z</time>
      </trkpt>
      <trkpt lat="63.056576" lon="12.552526">
        <ele>1178.43</ele>
        <time>2011-07-07T08:12:16Z</time>
      </trkpt>
      <trkpt lat="63.056661" lon="12.552569">
        <ele>1179.55</ele>
        <time>2011-07-07T08:12:24Z</time>
      </trkpt>
      <trkpt lat="63.056738" lon="12.552698">
        <ele>1179.94</ele>
        <time>2011-07-07T08:12:30Z</time>
      </trkpt>
      <trkpt lat="63.056811" lon="12.55283">
        <ele>1180.72</ele>
        <time>2011-07-07T08:12:36Z</time>
      </trkpt>
      <trkpt lat="63.056845" lon="12.552904">
        <ele>1181.59</ele>
        <time>2011-07-07T08:12:40Z</time>
      </trkpt>
      <trkpt lat="63.056913" lon="12.553037">
        <ele>1182.47</ele>
        <time>2011-07-07T08:12:47Z</time>
      </trkpt>
      <trkpt lat="63.056928" lon="12.553042">
        <ele>1182.87</ele>
        <time>2011-07-07T08:12:50Z</time>
      </trkpt>
      <trkpt lat="63.057001" lon="12.553122">
        <ele>1182.74</ele>
        <time>2011-07-07T08:13:00Z</time>
      </trkpt>
      <trkpt lat="63.057082" lon="12.553192">
        <ele>1183.58</ele>
        <time>2011-07-07T08:13:05Z</time>
      </trkpt>
      <trkpt lat="63.05716" lon="12.553346">
        <ele>1185.65</ele>
        <time>2011-07-07T08:13:13Z</time>
      </trkpt>
      <trkpt lat="63.057264" lon="12.553467">
        <ele>1186.4</ele>
        <time>2011-07-07T08:13:21Z</time>
      </trkpt>
      <trkpt lat="63.057363" lon="12.553607">
        <ele>1186.84</ele>
        <time>2011-07-07T08:13:29Z</time>
      </trkpt>
      <trkpt lat="63.057449" lon="12.553805">
        <ele>1187.45</ele>
        <time>2011-07-07T08:13:35Z</time>
      </trkpt>
      <trkpt lat="63.057525" lon="12.553977">
        <ele>1188.69</ele>
        <time>2011-07-07T08:13:40Z</time>
      </trkpt>
      <trkpt lat="63.057638" lon="12.554154">
        <ele>1189.22</ele>
        <time>2011-07-07T08:13:46Z</time>
      </trkpt>
      <trkpt lat="63.057772" lon="12.55428">
        <ele>1190.04</ele>
        <time>2011-07-07T08:13:52Z</time>
      </trkpt>
      <trkpt lat="63.057874" lon="12.554444">
        <ele>1191.55</ele>
        <time>2011-07-07T08:13:58Z</time>
      </trkpt>
      <trkpt lat="63.057959" lon="12.554512">
        <ele>1191.87</ele>
        <time>2011-07-07T08:14:02Z</time>
      </trkpt>
      <trkpt lat="63.058045" lon="12.5547">
        <ele>1192.02</ele>
        <time>2011-07-07T08:14:07Z</time>
      </trkpt>
      <trkpt lat="63.058125" lon="12.554777">
        <ele>1193.75</ele>
        <time>2011-07-07T08:14:13Z</time>
      </trkpt>
      <trkpt lat="63.058216" lon="12.554952">
        <ele>1194.88</ele>
        <time>2011-07-07T08:14:22Z</time>
      </trkpt>
      <trkpt lat="63.058269" lon="12.555124">
        <ele>1196.02</ele>
        <time>2011-07-07T08:14:29Z</time>
      </trkpt>
      <trkpt lat="63.058339" lon="12.555312">
        <ele>1196.81</ele>
        <time>2011-07-07T08:14:36Z</time>
      </trkpt>
      <trkpt lat="63.058376" lon="12.555509">
        <ele>1197.97</ele>
        <time>2011-07-07T08:14:44Z</time>
      </trkpt>
      <trkpt lat="63.058453" lon="12.555674">
        <ele>1199.46</ele>
        <time>2011-07-07T08:14:53Z</time>
      </trkpt>
      <trkpt lat="63.058508" lon="12.555834">
        <ele>1201.2</ele>
        <time>2011-07-07T08:15:00Z</time>
      </trkpt>
      <trkpt lat="63.058592" lon="12.55603">
        <ele>1201.71</ele>
        <time>2011-07-07T08:15:08Z</time>
      </trkpt>
      <trkpt lat="63.058668" lon="12.556194">
        <ele>1202.49</ele>
        <time>2011-07-07T08:15:17Z</time>
      </trkpt>
      <trkpt lat="63.058716" lon="12.556447">
        <ele>1203.02</ele>
        <time>2011-07-07T08:15:26Z</time>
      </trkpt>
      <trkpt lat="63.058788" lon="12.556624">
        <ele>1203.76</ele>
        <time>2011-07-07T08:15:32Z</time>
      </trkpt>
      <trkpt lat="63.058849" lon="12.556871">
        <ele>1204.72</ele>
        <time>2011-07-07T08:15:38Z</time>
      </trkpt>
      <trkpt lat="63.058903" lon="12.557167">
        <ele>1206.13</ele>
        <time>2011-07-07T08:15:45Z</time>
      </trkpt>
      <trkpt lat="63.058964" lon="12.557362">
        <ele>1206.81</ele>
        <time>2011-07-07T08:15:53Z</time>
      </trkpt>
      <trkpt lat="63.059019" lon="12.557526">
        <ele>1207.68</ele>
        <time>2011-07-07T08:15:59Z</time>
      </trkpt>
      <trkpt lat="63.059098" lon="12.557759">
        <ele>1208.02</ele>
        <time>2011-07-07T08:16:05Z</time>
      </trkpt>
      <trkpt lat="63.059168" lon="12.558012">
        <ele>1209.39</ele>
        <time>2011-07-07T08:16:12Z</time>
      </trkpt>
      <trkpt lat="63.059205" lon="12.558211">
        <ele>1210.05</ele>
        <time>2011-07-07T08:16:19Z</time>
      </trkpt>
      <trkpt lat="63.059265" lon="12.55845">
        <ele>1210.46</ele>
        <time>2011-07-07T08:16:27Z</time>
      </trkpt>
      <trkpt lat="63.059297" lon="12.558629">
        <ele>1210.6</ele>
        <time>2011-07-07T08:16:33Z</time>
      </trkpt>
      <trkpt lat="63.059344" lon="12.558801">
        <ele>1211.45</ele>
        <time>2011-07-07T08:16:40Z</time>
      </trkpt>
      <trkpt lat="63.059428" lon="12.559066">
        <ele>1212.6</ele>
        <time>2011-07-07T08:16:50Z</time>
      </trkpt>
      <trkpt lat="63.059457" lon="12.559138">
        <ele>1212.69</ele>
        <time>2011-07-07T08:16:53Z</time>
      </trkpt>
      <trkpt lat="63.059497" lon="12.559243">
        <ele>1213.47</ele>
        <time>2011-07-07T08:16:57Z</time>
      </trkpt>
      <trkpt lat="63.059585" lon="12.559499">
        <ele>1214.11</ele>
        <time>2011-07-07T08:17:07Z</time>
      </trkpt>
      <trkpt lat="63.059636" lon="12.559677">
        <ele>1214.4</ele>
        <time>2011-07-07T08:17:12Z</time>
      </trkpt>
      <trkpt lat="63.059713" lon="12.559933">
        <ele>1215.17</ele>
        <time>2011-07-07T08:17:18Z</time>
      </trkpt>
      <trkpt lat="63.059797" lon="12.560276">
        <ele>1216.06</ele>
        <time>2011-07-07T08:17:26Z</time>
      </trkpt>
      <trkpt lat="63.059899" lon="12.560561">
        <ele>1216.04</ele>
        <time>2011-07-07T08:17:33Z</time>
      </trkpt>
      <trkpt lat="63.059951" lon="12.560819">
        <ele>1216.16</ele>
        <time>2011-07-07T08:17:39Z</time>
      </trkpt>
      <trkpt lat="63.060019" lon="12.560979">
        <ele>1216.41</ele>
        <time>2011-07-07T08:17:44Z</time>
      </trkpt>
      <trkpt lat="63.060118" lon="12.561187">
        <ele>1216.12</ele>
        <time>2011-07-07T08:17:50Z</time>
      </trkpt>
      <trkpt lat="63.060254" lon="12.561433">
        <ele>1215.14</ele>
        <time>2011-07-07T08:17:57Z</time>
      </trkpt>
      <trkpt lat="63.060362" lon="12.561677">
        <ele>1214.85</ele>
        <time>2011-07-07T08:18:03Z</time>
      </trkpt>
      <trkpt lat="63.060463" lon="12.561905">
        <ele>1214.95</ele>
        <time>2011-07-07T08:18:09Z</time>
      </trkpt>
      <trkpt lat="63.060571" lon="12.562101">
        <ele>1214.95</ele>
        <time>2011-07-07T08:18:15Z</time>
      </trkpt>
      <trkpt lat="63.060695" lon="12.562276">
        <ele>1213.9</ele>
        <time>2011-07-07T08:18:21Z</time>
      </trkpt>
      <trkpt lat="63.060831" lon="12.562495">
        <ele>1213.08</ele>
        <time>2011-07-07T08:18:28Z</time>
      </trkpt>
      <trkpt lat="63.060942" lon="12.56275">
        <ele>1212.67</ele>
        <time>2011-07-07T08:18:35Z</time>
      </trkpt>
      <trkpt lat="63.061004" lon="12.562918">
        <ele>1212.57</ele>
        <time>2011-07-07T08:18:40Z</time>
      </trkpt>
      <trkpt lat="63.061093" lon="12.563083">
        <ele>1212.29</ele>
        <time>2011-07-07T08:18:48Z</time>
      </trkpt>
      <trkpt lat="63.06118" lon="12.563263">
        <ele>1211.99</ele>
        <time>2011-07-07T08:18:53Z</time>
      </trkpt>
      <trkpt lat="63.061312" lon="12.563492">
        <ele>1210.72</ele>
        <time>2011-07-07T08:19:00Z</time>
      </trkpt>
      <trkpt lat="63.061371" lon="12.563627">
        <ele>1209.91</ele>
        <time>2011-07-07T08:19:06Z</time>
      </trkpt>
      <trkpt lat="63.061392" lon="12.563763">
        <ele>1208.95</ele>
        <time>2011-07-07T08:19:14Z</time>
      </trkpt>
      <trkpt lat="63.061388" lon="12.5638">
        <ele>1208.15</ele>
        <time>2011-07-07T08:19:18Z</time>
      </trkpt>
      <trkpt lat="63.061527" lon="12.563837">
        <ele>1208.01</ele>
        <time>2011-07-07T08:22:07Z</time>
      </trkpt>
      <trkpt lat="63.061596" lon="12.563954">
        <ele>1207.21</ele>
        <time>2011-07-07T08:22:15Z</time>
      </trkpt>
      <trkpt lat="63.061656" lon="12.564108">
        <ele>1206.46</ele>
        <time>2011-07-07T08:22:21Z</time>
      </trkpt>
      <trkpt lat="63.061708" lon="12.56421">
        <ele>1206.08</ele>
        <time>2011-07-07T08:22:27Z</time>
      </trkpt>
      <trkpt lat="63.061774" lon="12.564371">
        <ele>1206.03</ele>
        <time>2011-07-07T08:22:35Z</time>
      </trkpt>
      <trkpt lat="63.061854" lon="12.564471">
        <ele>1205.07</ele>
        <time>2011-07-07T08:22:40Z</time>
      </trkpt>
      <trkpt lat="63.061921" lon="12.564702">
        <ele>1204.38</ele>
        <time>2011-07-07T08:22:45Z</time>
      </trkpt>
      <trkpt lat="63.062012" lon="12.564946">
        <ele>1203.17</ele>
        <time>2011-07-07T08:22:51Z</time>
      </trkpt>
      <trkpt lat="63.062108" lon="12.565157">
        <ele>1201.64</ele>
        <time>2011-07-07T08:22:56Z</time>
      </trkpt>
      <trkpt lat="63.062248" lon="12.565382">
        <ele>1200.57</ele>
        <time>2011-07-07T08:23:03Z</time>
      </trkpt>
      <trkpt lat="63.06237" lon="12.56558">
        <ele>1199.22</ele>
        <time>2011-07-07T08:23:09Z</time>
      </trkpt>
      <trkpt lat="63.06248" lon="12.565832">
        <ele>1198.38</ele>
        <time>2011-07-07T08:23:16Z</time>
      </trkpt>
      <trkpt lat="63.062542" lon="12.566017">
        <ele>1197.01</ele>
        <time>2011-07-07T08:23:24Z</time>
      </trkpt>
      <trkpt lat="63.062573" lon="12.566306">
        <ele>1196.08</ele>
        <time>2011-07-07T08:23:31Z</time>
      </trkpt>
      <trkpt lat="63.062592" lon="12.566508">
        <ele>1195.36</ele>
        <time>2011-07-07T08:23:38Z</time>
      </trkpt>
      <trkpt lat="63.062643" lon="12.566706">
        <ele>1193.69</ele>
        <time>2011-07-07T08:23:44Z</time>
      </trkpt>
      <trkpt lat="63.062717" lon="12.567067">
        <ele>1191.55</ele>
        <time>2011-07-07T08:23:51Z</time>
      </trkpt>
      <trkpt lat="63.062737" lon="12.567236">
        <ele>1190.85</ele>
        <time>2011-07-07T08:23:54Z</time>
      </trkpt>
      <trkpt lat="63.06276" lon="12.567412">
        <ele>1189.56</ele>
        <time>2011-07-07T08:23:58Z</time>
      </trkpt>
      <trkpt lat="63.062762" lon="12.567462">
        <ele>1189.43</ele>
        <time>2011-07-07T08:23:59Z</time>
      </trkpt>
      <trkpt lat="63.062801" lon="12.567732">
        <ele>1188.06</ele>
        <time>2011-07-07T08:24:05Z</time>
      </trkpt>
      <trkpt lat="63.06287" lon="12.567978">
        <ele>1186.39</ele>
        <time>2011-07-07T08:24:11Z</time>
      </trkpt>
      <trkpt lat="63.062979" lon="12.568098">
        <ele>1185.39</ele>
        <time>2011-07-07T08:24:16Z</time>
      </trkpt>
      <trkpt lat="63.063125" lon="12.568225">
        <ele>1184.06</ele>
        <time>2011-07-07T08:24:22Z</time>
      </trkpt>
      <trkpt lat="63.063254" lon="12.568402">
        <ele>1182.88</ele>
        <time>2011-07-07T08:24:28Z</time>
      </trkpt>
      <trkpt lat="63.063357" lon="12.568633">
        <ele>1181.87</ele>
        <time>2011-07-07T08:24:34Z</time>
      </trkpt>
      <trkpt lat="63.063474" lon="12.568824">
        <ele>1180.82</ele>
        <time>2011-07-07T08:24:40Z</time>
      </trkpt>
      <trkpt lat="63.063582" lon="12.568927">
        <ele>1179.81</ele>
        <time>2011-07-07T08:24:47Z</time>
      </trkpt>
      <trkpt lat="63.063693" lon="12.56901">
        <ele>1178.92</ele>
        <time>2011-07-07T08:24:52Z</time>
      </trkpt>
      <trkpt lat="63.063784" lon="12.569083">
        <ele>1177.21</ele>
        <time>2011-07-07T08:24:57Z</time>
      </trkpt>
      <trkpt lat="63.063885" lon="12.569186">
        <ele>1175.1</ele>
        <time>2011-07-07T08:25:03Z</time>
      </trkpt>
      <trkpt lat="63.063896" lon="12.56921">
        <ele>1174.8</ele>
        <time>2011-07-07T08:25:04Z</time>
      </trkpt>
      <trkpt lat="63.06398" lon="12.569378">
        <ele>1172.22</ele>
        <time>2011-07-07T08:25:09Z</time>
      </trkpt>
      <trkpt lat="63.064078" lon="12.569469">
        <ele>1170.56</ele>
        <time>2011-07-07T08:25:13Z</time>
      </trkpt>
      <trkpt lat="63.064267" lon="12.569723">
        <ele>1168.77</ele>
        <time>2011-07-07T08:25:21Z</time>
      </trkpt>
      <trkpt lat="63.064387" lon="12.569927">
        <ele>1167.97</ele>
        <time>2011-07-07T08:25:27Z</time>
      </trkpt>
      <trkpt lat="63.064502" lon="12.57017">
        <ele>1166.54</ele>
        <time>2011-07-07T08:25:33Z</time>
      </trkpt>
      <trkpt lat="63.064611" lon="12.570289">
        <ele>1165.24</ele>
        <time>2011-07-07T08:25:38Z</time>
      </trkpt>
      <trkpt lat="63.064767" lon="12.570457">
        <ele>1164.56</ele>
        <time>2011-07-07T08:25:45Z</time>
      </trkpt>
      <trkpt lat="63.064871" lon="12.570588">
        <ele>1164.47</ele>
        <time>2011-07-07T08:25:50Z</time>
      </trkpt>
      <trkpt lat="63.064978" lon="12.570765">
        <ele>1163.95</ele>
        <time>2011-07-07T08:25:55Z</time>
      </trkpt>
      <trkpt lat="63.065066" lon="12.57088">
        <ele>1163.41</ele>
        <time>2011-07-07T08:25:59Z</time>
      </trkpt>
      <trkpt lat="63.065121" lon="12.570959">
        <ele>1162.53</ele>
        <time>2011-07-07T08:26:03Z</time>
      </trkpt>
      <trkpt lat="63.065193" lon="12.571053">
        <ele>1161.83</ele>
        <time>2011-07-07T08:26:10Z</time>
      </trkpt>
      <trkpt lat="63.065297" lon="12.571104">
        <ele>1161.23</ele>
        <time>2011-07-07T08:26:18Z</time>
      </trkpt>
      <trkpt lat="63.065416" lon="12.571174">
        <ele>1160.57</ele>
        <time>2011-07-07T08:26:24Z</time>
      </trkpt>
      <trkpt lat="63.065587" lon="12.571321">
        <ele>1160.34</ele>
        <time>2011-07-07T08:26:31Z</time>
      </trkpt>
      <trkpt lat="63.06576" lon="12.571466">
        <ele>1158.54</ele>
        <time>2011-07-07T08:26:38Z</time>
      </trkpt>
      <trkpt lat="63.065851" lon="12.571548">
        <ele>1156.74</ele>
        <time>2011-07-07T08:26:43Z</time>
      </trkpt>
      <trkpt lat="63.065932" lon="12.571624">
        <ele>1154.57</ele>
        <time>2011-07-07T08:26:50Z</time>
      </trkpt>
      <trkpt lat="63.066004" lon="12.5717">
        <ele>1153.96</ele>
        <time>2011-07-07T08:26:55Z</time>
      </trkpt>
      <trkpt lat="63.066109" lon="12.571848">
        <ele>1152.95</ele>
        <time>2011-07-07T08:27:01Z</time>
      </trkpt>
      <trkpt lat="63.066227" lon="12.572058">
        <ele>1152.72</ele>
        <time>2011-07-07T08:27:07Z</time>
      </trkpt>
      <trkpt lat="63.066313" lon="12.572268">
        <ele>1153.12</ele>
        <time>2011-07-07T08:27:12Z</time>
      </trkpt>
      <trkpt lat="63.066437" lon="12.572446">
        <ele>1152.31</ele>
        <time>2011-07-07T08:27:18Z</time>
      </trkpt>
      <trkpt lat="63.066581" lon="12.572566">
        <ele>1151.34</ele>
        <time>2011-07-07T08:27:24Z</time>
      </trkpt>
      <trkpt lat="63.066718" lon="12.572665">
        <ele>1149.77</ele>
        <time>2011-07-07T08:27:29Z</time>
      </trkpt>
      <trkpt lat="63.066855" lon="12.572853">
        <ele>1149.29</ele>
        <time>2011-07-07T08:27:35Z</time>
      </trkpt>
      <trkpt lat="63.066992" lon="12.573036">
        <ele>1148.1</ele>
        <time>2011-07-07T08:27:41Z</time>
      </trkpt>
      <trkpt lat="63.067119" lon="12.573225">
        <ele>1147.08</ele>
        <time>2011-07-07T08:27:47Z</time>
      </trkpt>
      <trkpt lat="63.067286" lon="12.573434">
        <ele>1146.14</ele>
        <time>2011-07-07T08:27:54Z</time>
      </trkpt>
      <trkpt lat="63.067444" lon="12.573605">
        <ele>1145.21</ele>
        <time>2011-07-07T08:28:01Z</time>
      </trkpt>
      <trkpt lat="63.067561" lon="12.573728">
        <ele>1143.9</ele>
        <time>2011-07-07T08:28:06Z</time>
      </trkpt>
      <trkpt lat="63.067668" lon="12.573906">
        <ele>1143.28</ele>
        <time>2011-07-07T08:28:12Z</time>
      </trkpt>
      <trkpt lat="63.067759" lon="12.574038">
        <ele>1143.27</ele>
        <time>2011-07-07T08:28:17Z</time>
      </trkpt>
      <trkpt lat="63.06787" lon="12.574127">
        <ele>1142.34</ele>
        <time>2011-07-07T08:28:25Z</time>
      </trkpt>
      <trkpt lat="63.068006" lon="12.574157">
        <ele>1141</ele>
        <time>2011-07-07T08:28:30Z</time>
      </trkpt>
      <trkpt lat="63.068141" lon="12.574211">
        <ele>1140.25</ele>
        <time>2011-07-07T08:28:36Z</time>
      </trkpt>
      <trkpt lat="63.068282" lon="12.574291">
        <ele>1139.76</ele>
        <time>2011-07-07T08:28:43Z</time>
      </trkpt>
      <trkpt lat="63.068351" lon="12.574291">
        <ele>1139.05</ele>
        <time>2011-07-07T08:28:49Z</time>
      </trkpt>
      <trkpt lat="63.068452" lon="12.574274">
        <ele>1137.77</ele>
        <time>2011-07-07T08:28:55Z</time>
      </trkpt>
      <trkpt lat="63.06847" lon="12.574262">
        <ele>1137.41</ele>
        <time>2011-07-07T08:28:56Z</time>
      </trkpt>
      <trkpt lat="63.068503" lon="12.574252">
        <ele>1136.07</ele>
        <time>2011-07-07T08:29:01Z</time>
      </trkpt>
      <trkpt lat="63.068543" lon="12.574232">
        <ele>1136.45</ele>
        <time>2011-07-07T08:29:06Z</time>
      </trkpt>
      <trkpt lat="63.068636" lon="12.574237">
        <ele>1136.34</ele>
        <time>2011-07-07T08:29:14Z</time>
      </trkpt>
      <trkpt lat="63.06874" lon="12.574236">
        <ele>1136.01</ele>
        <time>2011-07-07T08:29:22Z</time>
      </trkpt>
      <trkpt lat="63.068851" lon="12.574208">
        <ele>1135.29</ele>
        <time>2011-07-07T08:29:30Z</time>
      </trkpt>
      <trkpt lat="63.068929" lon="12.574198">
        <ele>1135.91</ele>
        <time>2011-07-07T08:29:36Z</time>
      </trkpt>
      <trkpt lat="63.069031" lon="12.574147">
        <ele>1135.15</ele>
        <time>2011-07-07T08:29:43Z</time>
      </trkpt>
      <trkpt lat="63.069194" lon="12.574059">
        <ele>1135.2</ele>
        <time>2011-07-07T08:29:50Z</time>
      </trkpt>
      <trkpt lat="63.069329" lon="12.574052">
        <ele>1134.58</ele>
        <time>2011-07-07T08:29:56Z</time>
      </trkpt>
      <trkpt lat="63.069454" lon="12.573985">
        <ele>1134.31</ele>
        <time>2011-07-07T08:30:02Z</time>
      </trkpt>
      <trkpt lat="63.069588" lon="12.573942">
        <ele>1134.79</ele>
        <time>2011-07-07T08:30:09Z</time>
      </trkpt>
      <trkpt lat="63.069737" lon="12.573905">
        <ele>1133.65</ele>
        <time>2011-07-07T08:30:15Z</time>
      </trkpt>
      <trkpt lat="63.069836" lon="12.573891">
        <ele>1134.34</ele>
        <time>2011-07-07T08:30:20Z</time>
      </trkpt>
      <trkpt lat="63.069957" lon="12.573858">
        <ele>1134.12</ele>
        <time>2011-07-07T08:30:27Z</time>
      </trkpt>
      <trkpt lat="63.07005" lon="12.573788">
        <ele>1133.64</ele>
        <time>2011-07-07T08:30:34Z</time>
      </trkpt>
      <trkpt lat="63.070155" lon="12.573699">
        <ele>1132.84</ele>
        <time>2011-07-07T08:30:42Z</time>
      </trkpt>
      <trkpt lat="63.0703" lon="12.573634">
        <ele>1132.28</ele>
        <time>2011-07-07T08:30:48Z</time>
      </trkpt>
      <trkpt lat="63.070466" lon="12.573648">
        <ele>1132.52</ele>
        <time>2011-07-07T08:30:55Z</time>
      </trkpt>
      <trkpt lat="63.070603" lon="12.573609">
        <ele>1132.6</ele>
        <time>2011-07-07T08:31:00Z</time>
      </trkpt>
      <trkpt lat="63.070796" lon="12.573619">
        <ele>1132.41</ele>
        <time>2011-07-07T08:31:08Z</time>
      </trkpt>
      <trkpt lat="63.070984" lon="12.573697">
        <ele>1132.12</ele>
        <time>2011-07-07T08:31:16Z</time>
      </trkpt>
      <trkpt lat="63.071138" lon="12.573739">
        <ele>1131.6</ele>
        <time>2011-07-07T08:31:22Z</time>
      </trkpt>
      <trkpt lat="63.071265" lon="12.573773">
        <ele>1129.94</ele>
        <time>2011-07-07T08:31:27Z</time>
      </trkpt>
      <trkpt lat="63.071419" lon="12.573855">
        <ele>1128.64</ele>
        <time>2011-07-07T08:31:33Z</time>
      </trkpt>
      <trkpt lat="63.071554" lon="12.573905">
        <ele>1126.43</ele>
        <time>2011-07-07T08:31:38Z</time>
      </trkpt>
      <trkpt lat="63.07176" lon="12.574025">
        <ele>1125.54</ele>
        <time>2011-07-07T08:31:46Z</time>
      </trkpt>
      <trkpt lat="63.071965" lon="12.574131">
        <ele>1124.3</ele>
        <time>2011-07-07T08:31:54Z</time>
      </trkpt>
      <trkpt lat="63.072173" lon="12.574229">
        <ele>1122.71</ele>
        <time>2011-07-07T08:32:02Z</time>
      </trkpt>
      <trkpt lat="63.072365" lon="12.574272">
        <ele>1120.63</ele>
        <time>2011-07-07T08:32:10Z</time>
      </trkpt>
      <trkpt lat="63.072508" lon="12.574247">
        <ele>1118.58</ele>
        <time>2011-07-07T08:32:16Z</time>
      </trkpt>
      <trkpt lat="63.072609" lon="12.574236">
        <ele>1116.52</ele>
        <time>2011-07-07T08:32:21Z</time>
      </trkpt>
      <trkpt lat="63.072695" lon="12.574218">
        <ele>1115.03</ele>
        <time>2011-07-07T08:32:27Z</time>
      </trkpt>
      <trkpt lat="63.072762" lon="12.57419">
        <ele>1114.54</ele>
        <time>2011-07-07T08:32:33Z</time>
      </trkpt>
      <trkpt lat="63.072833" lon="12.574156">
        <ele>1113.65</ele>
        <time>2011-07-07T08:32:39Z</time>
      </trkpt>
      <trkpt lat="63.072955" lon="12.574152">
        <ele>1112.56</ele>
        <time>2011-07-07T08:32:47Z</time>
      </trkpt>
      <trkpt lat="63.073035" lon="12.57415">
        <ele>1112.04</ele>
        <time>2011-07-07T08:32:53Z</time>
      </trkpt>
      <trkpt lat="63.073092" lon="12.574168">
        <ele>1111.74</ele>
        <time>2011-07-07T08:32:57Z</time>
      </trkpt>
      <trkpt lat="63.07318" lon="12.574129">
        <ele>1111.11</ele>
        <time>2011-07-07T08:33:05Z</time>
      </trkpt>
      <trkpt lat="63.073305" lon="12.574098">
        <ele>1110.39</ele>
        <time>2011-07-07T08:33:14Z</time>
      </trkpt>
      <trkpt lat="63.073389" lon="12.574132">
        <ele>1110.19</ele>
        <time>2011-07-07T08:33:21Z</time>
      </trkpt>
      <trkpt lat="63.073424" lon="12.574123">
        <ele>1109.68</ele>
        <time>2011-07-07T08:33:24Z</time>
      </trkpt>
      <trkpt lat="63.073463" lon="12.574155">
        <ele>1109.25</ele>
        <time>2011-07-07T08:33:28Z</time>
      </trkpt>
      <trkpt lat="63.07355" lon="12.57418">
        <ele>1107.59</ele>
        <time>2011-07-07T08:33:35Z</time>
      </trkpt>
      <trkpt lat="63.073649" lon="12.574198">
        <ele>1106.58</ele>
        <time>2011-07-07T08:33:41Z</time>
      </trkpt>
      <trkpt lat="63.073743" lon="12.574202">
        <ele>1106.23</ele>
        <time>2011-07-07T08:33:48Z</time>
      </trkpt>
      <trkpt lat="63.073822" lon="12.574203">
        <ele>1105.91</ele>
        <time>2011-07-07T08:33:54Z</time>
      </trkpt>
      <trkpt lat="63.073916" lon="12.574192">
        <ele>1105.88</ele>
        <time>2011-07-07T08:34:01Z</time>
      </trkpt>
      <trkpt lat="63.073999" lon="12.574175">
        <ele>1105.57</ele>
        <time>2011-07-07T08:34:08Z</time>
      </trkpt>
      <trkpt lat="63.074113" lon="12.57424">
        <ele>1105.15</ele>
        <time>2011-07-07T08:34:15Z</time>
      </trkpt>
      <trkpt lat="63.07421" lon="12.574366">
        <ele>1103.74</ele>
        <time>2011-07-07T08:34:21Z</time>
      </trkpt>
      <trkpt lat="63.074305" lon="12.574553">
        <ele>1102.83</ele>
        <time>2011-07-07T08:34:26Z</time>
      </trkpt>
      <trkpt lat="63.07443" lon="12.574732">
        <ele>1101.58</ele>
        <time>2011-07-07T08:34:32Z</time>
      </trkpt>
      <trkpt lat="63.07461" lon="12.575003">
        <ele>1099.05</ele>
        <time>2011-07-07T08:34:41Z</time>
      </trkpt>
      <trkpt lat="63.07472" lon="12.575155">
        <ele>1097.31</ele>
        <time>2011-07-07T08:34:46Z</time>
      </trkpt>
      <trkpt lat="63.074829" lon="12.575296">
        <ele>1095.69</ele>
        <time>2011-07-07T08:34:51Z</time>
      </trkpt>
      <trkpt lat="63.07495" lon="12.575436">
        <ele>1093.97</ele>
        <time>2011-07-07T08:34:57Z</time>
      </trkpt>
      <trkpt lat="63.075052" lon="12.575576">
        <ele>1092.79</ele>
        <time>2011-07-07T08:35:02Z</time>
      </trkpt>
      <trkpt lat="63.075164" lon="12.575767">
        <ele>1090.77</ele>
        <time>2011-07-07T08:35:08Z</time>
      </trkpt>
      <trkpt lat="63.075312" lon="12.575957">
        <ele>1089.73</ele>
        <time>2011-07-07T08:35:15Z</time>
      </trkpt>
      <trkpt lat="63.075378" lon="12.576055">
        <ele>1089.09</ele>
        <time>2011-07-07T08:35:18Z</time>
      </trkpt>
      <trkpt lat="63.075423" lon="12.576227">
        <ele>1089.19</ele>
        <time>2011-07-07T08:35:22Z</time>
      </trkpt>
      <trkpt lat="63.075512" lon="12.57647">
        <ele>1089.11</ele>
        <time>2011-07-07T08:35:28Z</time>
      </trkpt>
      <trkpt lat="63.075594" lon="12.57664">
        <ele>1088.48</ele>
        <time>2011-07-07T08:35:33Z</time>
      </trkpt>
      <trkpt lat="63.075656" lon="12.576834">
        <ele>1087.42</ele>
        <time>2011-07-07T08:35:39Z</time>
      </trkpt>
      <trkpt lat="63.075723" lon="12.577022">
        <ele>1085.77</ele>
        <time>2011-07-07T08:35:44Z</time>
      </trkpt>
      <trkpt lat="63.075778" lon="12.577086">
        <ele>1084.77</ele>
        <time>2011-07-07T08:35:47Z</time>
      </trkpt>
      <trkpt lat="63.075822" lon="12.577296">
        <ele>1082.78</ele>
        <time>2011-07-07T08:35:53Z</time>
      </trkpt>
      <trkpt lat="63.075912" lon="12.577403">
        <ele>1080.3</ele>
        <time>2011-07-07T08:35:58Z</time>
      </trkpt>
      <trkpt lat="63.075997" lon="12.577631">
        <ele>1079.22</ele>
        <time>2011-07-07T08:36:04Z</time>
      </trkpt>
      <trkpt lat="63.076112" lon="12.577848">
        <ele>1077.16</ele>
        <time>2011-07-07T08:36:11Z</time>
      </trkpt>
      <trkpt lat="63.076191" lon="12.578042">
        <ele>1074.82</ele>
        <time>2011-07-07T08:36:16Z</time>
      </trkpt>
      <trkpt lat="63.076269" lon="12.578268">
        <ele>1072.75</ele>
        <time>2011-07-07T08:36:21Z</time>
      </trkpt>
      <trkpt lat="63.076329" lon="12.578369">
        <ele>1071.87</ele>
        <time>2011-07-07T08:36:25Z</time>
      </trkpt>
      <trkpt lat="63.076366" lon="12.578428">
        <ele>1071.15</ele>
        <time>2011-07-07T08:36:29Z</time>
      </trkpt>
      <trkpt lat="63.076404" lon="12.578562">
        <ele>1069.94</ele>
        <time>2011-07-07T08:36:34Z</time>
      </trkpt>
      <trkpt lat="63.076478" lon="12.578825">
        <ele>1067.84</ele>
        <time>2011-07-07T08:36:42Z</time>
      </trkpt>
      <trkpt lat="63.076606" lon="12.579156">
        <ele>1067.23</ele>
        <time>2011-07-07T08:36:49Z</time>
      </trkpt>
      <trkpt lat="63.07678" lon="12.579509">
        <ele>1066.86</ele>
        <time>2011-07-07T08:36:57Z</time>
      </trkpt>
      <trkpt lat="63.076896" lon="12.579832">
        <ele>1067.24</ele>
        <time>2011-07-07T08:37:04Z</time>
      </trkpt>
      <trkpt lat="63.076948" lon="12.57998">
        <ele>1066.65</ele>
        <time>2011-07-07T08:37:09Z</time>
      </trkpt>
      <trkpt lat="63.076975" lon="12.580101">
        <ele>1065.8</ele>
        <time>2011-07-07T08:37:15Z</time>
      </trkpt>
      <trkpt lat="63.07698" lon="12.580124">
        <ele>1065.82</ele>
        <time>2011-07-07T08:37:16Z</time>
      </trkpt>
      <trkpt lat="63.077045" lon="12.580249">
        <ele>1066.14</ele>
        <time>2011-07-07T08:37:22Z</time>
      </trkpt>
      <trkpt lat="63.077144" lon="12.580398">
        <ele>1065.67</ele>
        <time>2011-07-07T08:37:31Z</time>
      </trkpt>
      <trkpt lat="63.077207" lon="12.580569">
        <ele>1065.5</ele>
        <time>2011-07-07T08:37:38Z</time>
      </trkpt>
      <trkpt lat="63.077252" lon="12.580785">
        <ele>1065.93</ele>
        <time>2011-07-07T08:37:45Z</time>
      </trkpt>
      <trkpt lat="63.077392" lon="12.581097">
        <ele>1065.97</ele>
        <time>2011-07-07T08:37:53Z</time>
      </trkpt>
      <trkpt lat="63.077524" lon="12.581405">
        <ele>1065.04</ele>
        <time>2011-07-07T08:38:01Z</time>
      </trkpt>
      <trkpt lat="63.077577" lon="12.581555">
        <ele>1064.74</ele>
        <time>2011-07-07T08:38:07Z</time>
      </trkpt>
      <trkpt lat="63.077652" lon="12.581677">
        <ele>1065.14</ele>
        <time>2011-07-07T08:38:14Z</time>
      </trkpt>
      <trkpt lat="63.077702" lon="12.581738">
        <ele>1065.37</ele>
        <time>2011-07-07T08:38:18Z</time>
      </trkpt>
      <trkpt lat="63.077748" lon="12.581787">
        <ele>1065.74</ele>
        <time>2011-07-07T08:38:22Z</time>
      </trkpt>
      <trkpt lat="63.077778" lon="12.581888">
        <ele>1066.61</ele>
        <time>2011-07-07T08:38:27Z</time>
      </trkpt>
      <trkpt lat="63.077863" lon="12.582019">
        <ele>1068.96</ele>
        <time>2011-07-07T08:38:36Z</time>
      </trkpt>
      <trkpt lat="63.077949" lon="12.582111">
        <ele>1070.41</ele>
        <time>2011-07-07T08:38:43Z</time>
      </trkpt>
      <trkpt lat="63.077967" lon="12.582145">
        <ele>1070.94</ele>
        <time>2011-07-07T08:38:45Z</time>
      </trkpt>
      <trkpt lat="63.078018" lon="12.582197">
        <ele>1071.84</ele>
        <time>2011-07-07T08:38:50Z</time>
      </trkpt>
      <trkpt lat="63.078121" lon="12.582305">
        <ele>1072.36</ele>
        <time>2011-07-07T08:38:58Z</time>
      </trkpt>
      <trkpt lat="63.078185" lon="12.58249">
        <ele>1071.42</ele>
        <time>2011-07-07T08:39:02Z</time>
      </trkpt>
      <trkpt lat="63.078263" lon="12.582643">
        <ele>1071.99</ele>
        <time>2011-07-07T08:39:07Z</time>
      </trkpt>
      <trkpt lat="63.078275" lon="12.582726">
        <ele>1072.05</ele>
        <time>2011-07-07T08:39:09Z</time>
      </trkpt>
      <trkpt lat="63.078382" lon="12.582909">
        <ele>1070.06</ele>
        <time>2011-07-07T08:39:15Z</time>
      </trkpt>
      <trkpt lat="63.078481" lon="12.583082">
        <ele>1070.38</ele>
        <time>2011-07-07T08:39:21Z</time>
      </trkpt>
      <trkpt lat="63.078588" lon="12.583262">
        <ele>1070.63</ele>
        <time>2011-07-07T08:39:27Z</time>
      </trkpt>
      <trkpt lat="63.078691" lon="12.583478">
        <ele>1069.45</ele>
        <time>2011-07-07T08:39:33Z</time>
      </trkpt>
      <trkpt lat="63.078776" lon="12.583598">
        <ele>1067.93</ele>
        <time>2011-07-07T08:39:37Z</time>
      </trkpt>
      <trkpt lat="63.078794" lon="12.583642">
        <ele>1067.66</ele>
        <time>2011-07-07T08:39:38Z</time>
      </trkpt>
      <trkpt lat="63.078923" lon="12.583795">
        <ele>1066.2</ele>
        <time>2011-07-07T08:39:44Z</time>
      </trkpt>
      <trkpt lat="63.078995" lon="12.583978">
        <ele>1065.69</ele>
        <time>2011-07-07T08:39:48Z</time>
      </trkpt>
      <trkpt lat="63.079126" lon="12.584204">
        <ele>1065.01</ele>
        <time>2011-07-07T08:39:55Z</time>
      </trkpt>
      <trkpt lat="63.079179" lon="12.584316">
        <ele>1064.71</ele>
        <time>2011-07-07T08:40:01Z</time>
      </trkpt>
      <trkpt lat="63.07922" lon="12.584388">
        <ele>1064.68</ele>
        <time>2011-07-07T08:40:08Z</time>
      </trkpt>
      <trkpt lat="63.07922" lon="12.584392">
        <ele>1064.74</ele>
        <time>2011-07-07T08:40:09Z</time>
      </trkpt>
      <trkpt lat="63.079265" lon="12.584443">
        <ele>1064.32</ele>
        <time>2011-07-07T08:40:18Z</time>
      </trkpt>
      <trkpt lat="63.079337" lon="12.584603">
        <ele>1063.75</ele>
        <time>2011-07-07T08:40:24Z</time>
      </trkpt>
      <trkpt lat="63.079444" lon="12.584785">
        <ele>1063.23</ele>
        <time>2011-07-07T08:40:29Z</time>
      </trkpt>
      <trkpt lat="63.079539" lon="12.585008">
        <ele>1062.9</ele>
        <time>2011-07-07T08:40:34Z</time>
      </trkpt>
      <trkpt lat="63.079651" lon="12.585264">
        <ele>1062.53</ele>
        <time>2011-07-07T08:40:40Z</time>
      </trkpt>
      <trkpt lat="63.07978" lon="12.585484">
        <ele>1062.06</ele>
        <time>2011-07-07T08:40:46Z</time>
      </trkpt>
      <trkpt lat="63.079913" lon="12.585699">
        <ele>1061.49</ele>
        <time>2011-07-07T08:40:52Z</time>
      </trkpt>
      <trkpt lat="63.080075" lon="12.585946">
        <ele>1060.83</ele>
        <time>2011-07-07T08:40:59Z</time>
      </trkpt>
      <trkpt lat="63.080209" lon="12.586224">
        <ele>1060.48</ele>
        <time>2011-07-07T08:41:06Z</time>
      </trkpt>
      <trkpt lat="63.080313" lon="12.586399">
        <ele>1060.11</ele>
        <time>2011-07-07T08:41:11Z</time>
      </trkpt>
      <trkpt lat="63.080401" lon="12.586522">
        <ele>1059.69</ele>
        <time>2011-07-07T08:41:15Z</time>
      </trkpt>
      <trkpt lat="63.080518" lon="12.586785">
        <ele>1059.26</ele>
        <time>2011-07-07T08:41:22Z</time>
      </trkpt>
      <trkpt lat="63.080577" lon="12.586822">
        <ele>1058.9</ele>
        <time>2011-07-07T08:41:25Z</time>
      </trkpt>
      <trkpt lat="63.080616" lon="12.586866">
        <ele>1058.05</ele>
        <time>2011-07-07T08:41:30Z</time>
      </trkpt>
      <trkpt lat="63.080674" lon="12.587077">
        <ele>1057.72</ele>
        <time>2011-07-07T08:41:43Z</time>
      </trkpt>
      <trkpt lat="63.080737" lon="12.587173">
        <ele>1057.74</ele>
        <time>2011-07-07T08:41:48Z</time>
      </trkpt>
      <trkpt lat="63.080882" lon="12.587397">
        <ele>1057.75</ele>
        <time>2011-07-07T08:41:56Z</time>
      </trkpt>
      <trkpt lat="63.080989" lon="12.58756">
        <ele>1057.51</ele>
        <time>2011-07-07T08:42:02Z</time>
      </trkpt>
      <trkpt lat="63.081" lon="12.587583">
        <ele>1057.4</ele>
        <time>2011-07-07T08:42:03Z</time>
      </trkpt>
      <trkpt lat="63.081078" lon="12.587699">
        <ele>1057.16</ele>
        <time>2011-07-07T08:42:10Z</time>
      </trkpt>
      <trkpt lat="63.081162" lon="12.587805">
        <ele>1057.24</ele>
        <time>2011-07-07T08:42:14Z</time>
      </trkpt>
      <trkpt lat="63.081284" lon="12.588072">
        <ele>1057.33</ele>
        <time>2011-07-07T08:42:21Z</time>
      </trkpt>
      <trkpt lat="63.081343" lon="12.588183">
        <ele>1056.92</ele>
        <time>2011-07-07T08:42:26Z</time>
      </trkpt>
      <trkpt lat="63.081353" lon="12.588201">
        <ele>1056.96</ele>
        <time>2011-07-07T08:42:27Z</time>
      </trkpt>
      <trkpt lat="63.081415" lon="12.588421">
        <ele>1057.11</ele>
        <time>2011-07-07T08:42:35Z</time>
      </trkpt>
      <trkpt lat="63.081472" lon="12.588474">
        <ele>1057.21</ele>
        <time>2011-07-07T08:42:40Z</time>
      </trkpt>
      <trkpt lat="63.081564" lon="12.588657">
        <ele>1057.49</ele>
        <time>2011-07-07T08:42:49Z</time>
      </trkpt>
      <trkpt lat="63.081632" lon="12.588833">
        <ele>1057.06</ele>
        <time>2011-07-07T08:42:57Z</time>
      </trkpt>
      <trkpt lat="63.081735" lon="12.589003">
        <ele>1056.57</ele>
        <time>2011-07-07T08:43:06Z</time>
      </trkpt>
      <trkpt lat="63.081813" lon="12.589097">
        <ele>1055.85</ele>
        <time>2011-07-07T08:43:11Z</time>
      </trkpt>
      <trkpt lat="63.081893" lon="12.589203">
        <ele>1055.59</ele>
        <time>2011-07-07T08:43:18Z</time>
      </trkpt>
      <trkpt lat="63.081902" lon="12.589224">
        <ele>1055.68</ele>
        <time>2011-07-07T08:43:19Z</time>
      </trkpt>
      <trkpt lat="63.081964" lon="12.589415">
        <ele>1055.56</ele>
        <time>2011-07-07T08:43:27Z</time>
      </trkpt>
      <trkpt lat="63.082019" lon="12.589539">
        <ele>1055.13</ele>
        <time>2011-07-07T08:43:33Z</time>
      </trkpt>
      <trkpt lat="63.082088" lon="12.589633">
        <ele>1054.78</ele>
        <time>2011-07-07T08:43:39Z</time>
      </trkpt>
      <trkpt lat="63.082149" lon="12.589704">
        <ele>1054.24</ele>
        <time>2011-07-07T08:43:45Z</time>
      </trkpt>
      <trkpt lat="63.082179" lon="12.589766">
        <ele>1053.92</ele>
        <time>2011-07-07T08:43:49Z</time>
      </trkpt>
      <trkpt lat="63.082209" lon="12.589852">
        <ele>1053.93</ele>
        <time>2011-07-07T08:43:53Z</time>
      </trkpt>
      <trkpt lat="63.082276" lon="12.590003">
        <ele>1053.57</ele>
        <time>2011-07-07T08:44:00Z</time>
      </trkpt>
      <trkpt lat="63.082346" lon="12.590077">
        <ele>1053.59</ele>
        <time>2011-07-07T08:44:06Z</time>
      </trkpt>
      <trkpt lat="63.082374" lon="12.59012">
        <ele>1051.82</ele>
        <time>2011-07-07T08:44:09Z</time>
      </trkpt>
      <trkpt lat="63.082404" lon="12.590182">
        <ele>1052.38</ele>
        <time>2011-07-07T08:44:13Z</time>
      </trkpt>
      <trkpt lat="63.082415" lon="12.59021">
        <ele>1053.52</ele>
        <time>2011-07-07T08:44:15Z</time>
      </trkpt>
      <trkpt lat="63.08247" lon="12.590316">
        <ele>1052.37</ele>
        <time>2011-07-07T08:44:22Z</time>
      </trkpt>
      <trkpt lat="63.082489" lon="12.590375">
        <ele>1052.26</ele>
        <time>2011-07-07T08:44:25Z</time>
      </trkpt>
      <trkpt lat="63.082536" lon="12.590468">
        <ele>1054.12</ele>
        <time>2011-07-07T08:44:31Z</time>
      </trkpt>
      <trkpt lat="63.082608" lon="12.590529">
        <ele>1054.16</ele>
        <time>2011-07-07T08:44:38Z</time>
      </trkpt>
      <trkpt lat="63.082676" lon="12.59065">
        <ele>1053.55</ele>
        <time>2011-07-07T08:44:45Z</time>
      </trkpt>
      <trkpt lat="63.082709" lon="12.590709">
        <ele>1053.97</ele>
        <time>2011-07-07T08:44:48Z</time>
      </trkpt>
      <trkpt lat="63.082771" lon="12.590818">
        <ele>1053.82</ele>
        <time>2011-07-07T08:44:53Z</time>
      </trkpt>
      <trkpt lat="63.082855" lon="12.59096">
        <ele>1054.01</ele>
        <time>2011-07-07T08:45:00Z</time>
      </trkpt>
      <trkpt lat="63.08289" lon="12.591044">
        <ele>1054.1</ele>
        <time>2011-07-07T08:45:04Z</time>
      </trkpt>
      <trkpt lat="63.082944" lon="12.591136">
        <ele>1054.12</ele>
        <time>2011-07-07T08:45:10Z</time>
      </trkpt>
      <trkpt lat="63.083056" lon="12.591294">
        <ele>1053.78</ele>
        <time>2011-07-07T08:45:20Z</time>
      </trkpt>
      <trkpt lat="63.083122" lon="12.591418">
        <ele>1054.09</ele>
        <time>2011-07-07T08:45:26Z</time>
      </trkpt>
      <trkpt lat="63.083163" lon="12.591544">
        <ele>1054.13</ele>
        <time>2011-07-07T08:45:31Z</time>
      </trkpt>
      <trkpt lat="63.083245" lon="12.591686">
        <ele>1054.44</ele>
        <time>2011-07-07T08:45:38Z</time>
      </trkpt>
      <trkpt lat="63.083257" lon="12.591704">
        <ele>1054.52</ele>
        <time>2011-07-07T08:45:39Z</time>
      </trkpt>
      <trkpt lat="63.083295" lon="12.591792">
        <ele>1054.6</ele>
        <time>2011-07-07T08:45:43Z</time>
      </trkpt>
      <trkpt lat="63.083337" lon="12.591921">
        <ele>1054.65</ele>
        <time>2011-07-07T08:45:49Z</time>
      </trkpt>
      <trkpt lat="63.083414" lon="12.591998">
        <ele>1054.25</ele>
        <time>2011-07-07T08:45:56Z</time>
      </trkpt>
      <trkpt lat="63.083466" lon="12.592093">
        <ele>1054.07</ele>
        <time>2011-07-07T08:46:01Z</time>
      </trkpt>
      <trkpt lat="63.083543" lon="12.592274">
        <ele>1054.08</ele>
        <time>2011-07-07T08:46:10Z</time>
      </trkpt>
      <trkpt lat="63.083553" lon="12.592289">
        <ele>1053.95</ele>
        <time>2011-07-07T08:46:11Z</time>
      </trkpt>
      <trkpt lat="63.083634" lon="12.592361">
        <ele>1053.67</ele>
        <time>2011-07-07T08:46:18Z</time>
      </trkpt>
      <trkpt lat="63.083702" lon="12.592483">
        <ele>1053.9</ele>
        <time>2011-07-07T08:46:25Z</time>
      </trkpt>
      <trkpt lat="63.083729" lon="12.59257">
        <ele>1054.07</ele>
        <time>2011-07-07T08:46:29Z</time>
      </trkpt>
      <trkpt lat="63.083797" lon="12.592675">
        <ele>1054.1</ele>
        <time>2011-07-07T08:46:36Z</time>
      </trkpt>
      <trkpt lat="63.083878" lon="12.592793">
        <ele>1054.37</ele>
        <time>2011-07-07T08:46:43Z</time>
      </trkpt>
      <trkpt lat="63.083924" lon="12.592933">
        <ele>1054.61</ele>
        <time>2011-07-07T08:46:49Z</time>
      </trkpt>
      <trkpt lat="63.083982" lon="12.593098">
        <ele>1055.34</ele>
        <time>2011-07-07T08:46:56Z</time>
      </trkpt>
      <trkpt lat="63.08405" lon="12.593224">
        <ele>1055.43</ele>
        <time>2011-07-07T08:47:02Z</time>
      </trkpt>
      <trkpt lat="63.08413" lon="12.593417">
        <ele>1055.71</ele>
        <time>2011-07-07T08:47:08Z</time>
      </trkpt>
      <trkpt lat="63.084246" lon="12.593653">
        <ele>1056.11</ele>
        <time>2011-07-07T08:47:15Z</time>
      </trkpt>
      <trkpt lat="63.084347" lon="12.593869">
        <ele>1056.68</ele>
        <time>2011-07-07T08:47:22Z</time>
      </trkpt>
      <trkpt lat="63.084446" lon="12.594026">
        <ele>1056.85</ele>
        <time>2011-07-07T08:47:28Z</time>
      </trkpt>
      <trkpt lat="63.084566" lon="12.594261">
        <ele>1057.26</ele>
        <time>2011-07-07T08:47:35Z</time>
      </trkpt>
      <trkpt lat="63.084675" lon="12.594447">
        <ele>1057.01</ele>
        <time>2011-07-07T08:47:41Z</time>
      </trkpt>
      <trkpt lat="63.084759" lon="12.594598">
        <ele>1057.3</ele>
        <time>2011-07-07T08:47:46Z</time>
      </trkpt>
      <trkpt lat="63.084852" lon="12.594747">
        <ele>1056.95</ele>
        <time>2011-07-07T08:47:51Z</time>
      </trkpt>
      <trkpt lat="63.084951" lon="12.594962">
        <ele>1057.15</ele>
        <time>2011-07-07T08:47:57Z</time>
      </trkpt>
      <trkpt lat="63.08502" lon="12.595164">
        <ele>1057.08</ele>
        <time>2011-07-07T08:48:02Z</time>
      </trkpt>
      <trkpt lat="63.085062" lon="12.595389">
        <ele>1056.91</ele>
        <time>2011-07-07T08:48:07Z</time>
      </trkpt>
      <trkpt lat="63.085095" lon="12.595527">
        <ele>1056.64</ele>
        <time>2011-07-07T08:48:10Z</time>
      </trkpt>
      <trkpt lat="63.085193" lon="12.59565">
        <ele>1055.85</ele>
        <time>2011-07-07T08:48:16Z</time>
      </trkpt>
      <trkpt lat="63.085269" lon="12.595749">
        <ele>1055.92</ele>
        <time>2011-07-07T08:48:23Z</time>
      </trkpt>
      <trkpt lat="63.085357" lon="12.595846">
        <ele>1055.99</ele>
        <time>2011-07-07T08:48:29Z</time>
      </trkpt>
      <trkpt lat="63.08537" lon="12.595883">
        <ele>1056.04</ele>
        <time>2011-07-07T08:48:30Z</time>
      </trkpt>
      <trkpt lat="63.085465" lon="12.596136">
        <ele>1055.95</ele>
        <time>2011-07-07T08:48:37Z</time>
      </trkpt>
      <trkpt lat="63.085563" lon="12.596267">
        <ele>1056.16</ele>
        <time>2011-07-07T08:48:42Z</time>
      </trkpt>
      <trkpt lat="63.085644" lon="12.596387">
        <ele>1056.11</ele>
        <time>2011-07-07T08:48:48Z</time>
      </trkpt>
      <trkpt lat="63.08566" lon="12.596432">
        <ele>1056.14</ele>
        <time>2011-07-07T08:48:50Z</time>
      </trkpt>
      <trkpt lat="63.08576" lon="12.596567">
        <ele>1056.19</ele>
        <time>2011-07-07T08:48:59Z</time>
      </trkpt>
      <trkpt lat="63.085831" lon="12.596632">
        <ele>1055.94</ele>
        <time>2011-07-07T08:49:04Z</time>
      </trkpt>
      <trkpt lat="63.085893" lon="12.596836">
        <ele>1055.95</ele>
        <time>2011-07-07T08:49:09Z</time>
      </trkpt>
      <trkpt lat="63.086005" lon="12.597017">
        <ele>1055.3</ele>
        <time>2011-07-07T08:49:16Z</time>
      </trkpt>
      <trkpt lat="63.086092" lon="12.597189">
        <ele>1055.68</ele>
        <time>2011-07-07T08:49:22Z</time>
      </trkpt>
      <trkpt lat="63.086199" lon="12.597438">
        <ele>1056.57</ele>
        <time>2011-07-07T08:49:29Z</time>
      </trkpt>
      <trkpt lat="63.086311" lon="12.59764">
        <ele>1056.66</ele>
        <time>2011-07-07T08:49:35Z</time>
      </trkpt>
      <trkpt lat="63.086446" lon="12.597821">
        <ele>1056.74</ele>
        <time>2011-07-07T08:49:42Z</time>
      </trkpt>
      <trkpt lat="63.086514" lon="12.597952">
        <ele>1056.54</ele>
        <time>2011-07-07T08:49:46Z</time>
      </trkpt>
      <trkpt lat="63.086622" lon="12.598119">
        <ele>1056.3</ele>
        <time>2011-07-07T08:49:52Z</time>
      </trkpt>
      <trkpt lat="63.08671" lon="12.598324">
        <ele>1055.31</ele>
        <time>2011-07-07T08:49:58Z</time>
      </trkpt>
      <trkpt lat="63.086752" lon="12.598388">
        <ele>1054.88</ele>
        <time>2011-07-07T08:50:02Z</time>
      </trkpt>
      <trkpt lat="63.086866" lon="12.598595">
        <ele>1054.34</ele>
        <time>2011-07-07T08:50:12Z</time>
      </trkpt>
      <trkpt lat="63.086939" lon="12.598718">
        <ele>1055.28</ele>
        <time>2011-07-07T08:50:19Z</time>
      </trkpt>
      <trkpt lat="63.087031" lon="12.598829">
        <ele>1055.32</ele>
        <time>2011-07-07T08:50:26Z</time>
      </trkpt>
      <trkpt lat="63.087126" lon="12.598932">
        <ele>1056.44</ele>
        <time>2011-07-07T08:50:34Z</time>
      </trkpt>
      <trkpt lat="63.0872" lon="12.599078">
        <ele>1056.3</ele>
        <time>2011-07-07T08:50:41Z</time>
      </trkpt>
      <trkpt lat="63.087329" lon="12.599253">
        <ele>1056.59</ele>
        <time>2011-07-07T08:50:47Z</time>
      </trkpt>
      <trkpt lat="63.087357" lon="12.599342">
        <ele>1056.68</ele>
        <time>2011-07-07T08:50:49Z</time>
      </trkpt>
      <trkpt lat="63.087456" lon="12.59955">
        <ele>1057.54</ele>
        <time>2011-07-07T08:50:56Z</time>
      </trkpt>
      <trkpt lat="63.087491" lon="12.5996">
        <ele>1057.32</ele>
        <time>2011-07-07T08:50:58Z</time>
      </trkpt>
      <trkpt lat="63.087568" lon="12.599639">
        <ele>1056.61</ele>
        <time>2011-07-07T08:51:03Z</time>
      </trkpt>
      <trkpt lat="63.087597" lon="12.599781">
        <ele>1055.84</ele>
        <time>2011-07-07T08:51:07Z</time>
      </trkpt>
      <trkpt lat="63.087605" lon="12.599808">
        <ele>1055.7</ele>
        <time>2011-07-07T08:51:08Z</time>
      </trkpt>
      <trkpt lat="63.087661" lon="12.599959">
        <ele>1055.12</ele>
        <time>2011-07-07T08:51:15Z</time>
      </trkpt>
      <trkpt lat="63.087683" lon="12.600111">
        <ele>1054.94</ele>
        <time>2011-07-07T08:51:21Z</time>
      </trkpt>
      <trkpt lat="63.087695" lon="12.6002">
        <ele>1054.93</ele>
        <time>2011-07-07T08:51:24Z</time>
      </trkpt>
      <trkpt lat="63.087741" lon="12.600312">
        <ele>1054.63</ele>
        <time>2011-07-07T08:51:30Z</time>
      </trkpt>
      <trkpt lat="63.087806" lon="12.600434">
        <ele>1054.8</ele>
        <time>2011-07-07T08:51:38Z</time>
      </trkpt>
      <trkpt lat="63.087859" lon="12.6005">
        <ele>1055.13</ele>
        <time>2011-07-07T08:51:44Z</time>
      </trkpt>
      <trkpt lat="63.087903" lon="12.600615">
        <ele>1055.33</ele>
        <time>2011-07-07T08:51:51Z</time>
      </trkpt>
      <trkpt lat="63.087958" lon="12.600692">
        <ele>1055.48</ele>
        <time>2011-07-07T08:51:57Z</time>
      </trkpt>
      <trkpt lat="63.088027" lon="12.600816">
        <ele>1055.82</ele>
        <time>2011-07-07T08:52:04Z</time>
      </trkpt>
      <trkpt lat="63.088102" lon="12.600982">
        <ele>1055.09</ele>
        <time>2011-07-07T08:52:12Z</time>
      </trkpt>
      <trkpt lat="63.088156" lon="12.601096">
        <ele>1053.89</ele>
        <time>2011-07-07T08:52:18Z</time>
      </trkpt>
      <trkpt lat="63.088171" lon="12.601126">
        <ele>1053.5</ele>
        <time>2011-07-07T08:52:19Z</time>
      </trkpt>
      <trkpt lat="63.088274" lon="12.601318">
        <ele>1051.61</ele>
        <time>2011-07-07T08:52:26Z</time>
      </trkpt>
      <trkpt lat="63.088358" lon="12.601455">
        <ele>1051.52</ele>
        <time>2011-07-07T08:52:31Z</time>
      </trkpt>
      <trkpt lat="63.088442" lon="12.601617">
        <ele>1052.77</ele>
        <time>2011-07-07T08:52:37Z</time>
      </trkpt>
      <trkpt lat="63.088479" lon="12.601687">
        <ele>1053.94</ele>
        <time>2011-07-07T08:52:41Z</time>
      </trkpt>
      <trkpt lat="63.088562" lon="12.601857">
        <ele>1053.25</ele>
        <time>2011-07-07T08:52:50Z</time>
      </trkpt>
      <trkpt lat="63.088655" lon="12.601928">
        <ele>1051.75</ele>
        <time>2011-07-07T08:52:58Z</time>
      </trkpt>
      <trkpt lat="63.088715" lon="12.601992">
        <ele>1051.41</ele>
        <time>2011-07-07T08:53:05Z</time>
      </trkpt>
      <trkpt lat="63.088716" lon="12.601994">
        <ele>1051.19</ele>
        <time>2011-07-07T08:53:06Z</time>
      </trkpt>
      <trkpt lat="63.088737" lon="12.602023">
        <ele>1050.74</ele>
        <time>2011-07-07T08:53:14Z</time>
      </trkpt>
      <trkpt lat="63.088781" lon="12.602096">
        <ele>1050.02</ele>
        <time>2011-07-07T08:53:26Z</time>
      </trkpt>
      <trkpt lat="63.088829" lon="12.602156">
        <ele>1048.82</ele>
        <time>2011-07-07T08:53:33Z</time>
      </trkpt>
      <trkpt lat="63.088889" lon="12.602213">
        <ele>1046.79</ele>
        <time>2011-07-07T08:53:41Z</time>
      </trkpt>
      <trkpt lat="63.088901" lon="12.602214">
        <ele>1046.04</ele>
        <time>2011-07-07T08:53:44Z</time>
      </trkpt>
      <trkpt lat="63.088873" lon="12.602323">
        <ele>1044.94</ele>
        <time>2011-07-07T08:53:59Z</time>
      </trkpt>
      <trkpt lat="63.088936" lon="12.602387">
        <ele>1043.04</ele>
        <time>2011-07-07T08:54:05Z</time>
      </trkpt>
      <trkpt lat="63.089004" lon="12.602435">
        <ele>1041.4</ele>
        <time>2011-07-07T08:54:11Z</time>
      </trkpt>
      <trkpt lat="63.089107" lon="12.602542">
        <ele>1038.91</ele>
        <time>2011-07-07T08:54:20Z</time>
      </trkpt>
      <trkpt lat="63.089171" lon="12.602696">
        <ele>1038.1</ele>
        <time>2011-07-07T08:54:28Z</time>
      </trkpt>
      <trkpt lat="63.089189" lon="12.60274">
        <ele>1037.64</ele>
        <time>2011-07-07T08:54:32Z</time>
      </trkpt>
      <trkpt lat="63.089227" lon="12.6028">
        <ele>1037.36</ele>
        <time>2011-07-07T08:54:57Z</time>
      </trkpt>
      <trkpt lat="63.089315" lon="12.602962">
        <ele>1036.11</ele>
        <time>2011-07-07T08:55:06Z</time>
      </trkpt>
      <trkpt lat="63.089374" lon="12.603098">
        <ele>1035.25</ele>
        <time>2011-07-07T08:55:13Z</time>
      </trkpt>
      <trkpt lat="63.089386" lon="12.603128">
        <ele>1034.67</ele>
        <time>2011-07-07T08:55:16Z</time>
      </trkpt>
      <trkpt lat="63.089413" lon="12.603168">
        <ele>1034.32</ele>
        <time>2011-07-07T08:55:29Z</time>
      </trkpt>
      <trkpt lat="63.089485" lon="12.603253">
        <ele>1034.23</ele>
        <time>2011-07-07T08:55:36Z</time>
      </trkpt>
      <trkpt lat="63.089563" lon="12.603344">
        <ele>1033.97</ele>
        <time>2011-07-07T08:55:44Z</time>
      </trkpt>
      <trkpt lat="63.08967" lon="12.603366">
        <ele>1032.71</ele>
        <time>2011-07-07T08:55:52Z</time>
      </trkpt>
      <trkpt lat="63.089693" lon="12.603371">
        <ele>1032.49</ele>
        <time>2011-07-07T08:55:54Z</time>
      </trkpt>
      <trkpt lat="63.089744" lon="12.60347">
        <ele>1030.91</ele>
        <time>2011-07-07T08:56:01Z</time>
      </trkpt>
      <trkpt lat="63.089831" lon="12.603572">
        <ele>1029.22</ele>
        <time>2011-07-07T08:56:08Z</time>
      </trkpt>
      <trkpt lat="63.089941" lon="12.603717">
        <ele>1028.54</ele>
        <time>2011-07-07T08:56:18Z</time>
      </trkpt>
      <trkpt lat="63.089959" lon="12.60375">
        <ele>1028.39</ele>
        <time>2011-07-07T08:56:20Z</time>
      </trkpt>
      <trkpt lat="63.090001" lon="12.603888">
        <ele>1027.98</ele>
        <time>2011-07-07T08:56:27Z</time>
      </trkpt>
      <trkpt lat="63.090075" lon="12.604067">
        <ele>1028.37</ele>
        <time>2011-07-07T08:56:35Z</time>
      </trkpt>
      <trkpt lat="63.090115" lon="12.604133">
        <ele>1028.76</ele>
        <time>2011-07-07T08:56:39Z</time>
      </trkpt>
      <trkpt lat="63.090194" lon="12.604289">
        <ele>1028.88</ele>
        <time>2011-07-07T08:56:47Z</time>
      </trkpt>
      <trkpt lat="63.09026" lon="12.604415">
        <ele>1028.44</ele>
        <time>2011-07-07T08:56:54Z</time>
      </trkpt>
      <trkpt lat="63.090279" lon="12.604424">
        <ele>1027.97</ele>
        <time>2011-07-07T08:56:57Z</time>
      </trkpt>
      <trkpt lat="63.090352" lon="12.604478">
        <ele>1026.02</ele>
        <time>2011-07-07T08:57:03Z</time>
      </trkpt>
      <trkpt lat="63.09039" lon="12.604477">
        <ele>1025.36</ele>
        <time>2011-07-07T08:57:06Z</time>
      </trkpt>
      <trkpt lat="63.090442" lon="12.604523">
        <ele>1025.23</ele>
        <time>2011-07-07T08:57:11Z</time>
      </trkpt>
      <trkpt lat="63.090515" lon="12.604878">
        <ele>1025.7</ele>
        <time>2011-07-07T08:57:19Z</time>
      </trkpt>
      <trkpt lat="63.090595" lon="12.605126">
        <ele>1026.23</ele>
        <time>2011-07-07T08:57:25Z</time>
      </trkpt>
      <trkpt lat="63.090675" lon="12.605368">
        <ele>1026.76</ele>
        <time>2011-07-07T08:57:31Z</time>
      </trkpt>
      <trkpt lat="63.090687" lon="12.605407">
        <ele>1026.82</ele>
        <time>2011-07-07T08:57:32Z</time>
      </trkpt>
      <trkpt lat="63.090744" lon="12.605554">
        <ele>1027.01</ele>
        <time>2011-07-07T08:57:36Z</time>
      </trkpt>
      <trkpt lat="63.090828" lon="12.605834">
        <ele>1027.47</ele>
        <time>2011-07-07T08:57:43Z</time>
      </trkpt>
      <trkpt lat="63.09084" lon="12.605874">
        <ele>1027.53</ele>
        <time>2011-07-07T08:57:44Z</time>
      </trkpt>
      <trkpt lat="63.090915" lon="12.606026">
        <ele>1027.67</ele>
        <time>2011-07-07T08:57:49Z</time>
      </trkpt>
      <trkpt lat="63.091005" lon="12.606148">
        <ele>1026.62</ele>
        <time>2011-07-07T08:57:55Z</time>
      </trkpt>
      <trkpt lat="63.091102" lon="12.606353">
        <ele>1025.03</ele>
        <time>2011-07-07T08:58:01Z</time>
      </trkpt>
      <trkpt lat="63.091146" lon="12.606493">
        <ele>1024.34</ele>
        <time>2011-07-07T08:58:06Z</time>
      </trkpt>
      <trkpt lat="63.091147" lon="12.606523">
        <ele>1023.97</ele>
        <time>2011-07-07T08:58:07Z</time>
      </trkpt>
      <trkpt lat="63.091197" lon="12.606661">
        <ele>1023.05</ele>
        <time>2011-07-07T08:58:12Z</time>
      </trkpt>
      <trkpt lat="63.091302" lon="12.606826">
        <ele>1022.03</ele>
        <time>2011-07-07T08:58:22Z</time>
      </trkpt>
      <trkpt lat="63.091352" lon="12.606957">
        <ele>1020.26</ele>
        <time>2011-07-07T08:58:28Z</time>
      </trkpt>
      <trkpt lat="63.09136" lon="12.606977">
        <ele>1019.91</ele>
        <time>2011-07-07T08:58:29Z</time>
      </trkpt>
      <trkpt lat="63.0914" lon="12.607109">
        <ele>1018.77</ele>
        <time>2011-07-07T08:58:35Z</time>
      </trkpt>
      <trkpt lat="63.09143" lon="12.60733">
        <ele>1017.86</ele>
        <time>2011-07-07T08:58:43Z</time>
      </trkpt>
      <trkpt lat="63.09145" lon="12.607536">
        <ele>1017.51</ele>
        <time>2011-07-07T08:58:49Z</time>
      </trkpt>
      <trkpt lat="63.091458" lon="12.607575">
        <ele>1017.41</ele>
        <time>2011-07-07T08:58:50Z</time>
      </trkpt>
      <trkpt lat="63.0915" lon="12.607674">
        <ele>1016.73</ele>
        <time>2011-07-07T08:58:54Z</time>
      </trkpt>
      <trkpt lat="63.091581" lon="12.607858">
        <ele>1015.99</ele>
        <time>2011-07-07T08:59:03Z</time>
      </trkpt>
      <trkpt lat="63.091651" lon="12.607909">
        <ele>1015.96</ele>
        <time>2011-07-07T08:59:09Z</time>
      </trkpt>
      <trkpt lat="63.091741" lon="12.608053">
        <ele>1015.85</ele>
        <time>2011-07-07T08:59:17Z</time>
      </trkpt>
      <trkpt lat="63.091788" lon="12.608252">
        <ele>1015.09</ele>
        <time>2011-07-07T08:59:24Z</time>
      </trkpt>
      <trkpt lat="63.091841" lon="12.608351">
        <ele>1015.08</ele>
        <time>2011-07-07T08:59:30Z</time>
      </trkpt>
      <trkpt lat="63.091909" lon="12.608413">
        <ele>1015.16</ele>
        <time>2011-07-07T08:59:37Z</time>
      </trkpt>
      <trkpt lat="63.091949" lon="12.608471">
        <ele>1014.94</ele>
        <time>2011-07-07T08:59:41Z</time>
      </trkpt>
      <trkpt lat="63.091983" lon="12.608639">
        <ele>1015.34</ele>
        <time>2011-07-07T08:59:48Z</time>
      </trkpt>
      <trkpt lat="63.092015" lon="12.608738">
        <ele>1015.28</ele>
        <time>2011-07-07T08:59:53Z</time>
      </trkpt>
      <trkpt lat="63.09202" lon="12.608759">
        <ele>1015.27</ele>
        <time>2011-07-07T08:59:54Z</time>
      </trkpt>
      <trkpt lat="63.092025" lon="12.608813">
        <ele>1015.26</ele>
        <time>2011-07-07T08:59:56Z</time>
      </trkpt>
      <trkpt lat="63.092097" lon="12.609026">
        <ele>1015.92</ele>
        <time>2011-07-07T09:00:04Z</time>
      </trkpt>
      <trkpt lat="63.092162" lon="12.609217">
        <ele>1016.27</ele>
        <time>2011-07-07T09:00:09Z</time>
      </trkpt>
      <trkpt lat="63.092292" lon="12.609507">
        <ele>1016.1</ele>
        <time>2011-07-07T09:00:17Z</time>
      </trkpt>
      <trkpt lat="63.092356" lon="12.609623">
        <ele>1015.84</ele>
        <time>2011-07-07T09:00:23Z</time>
      </trkpt>
      <trkpt lat="63.09237" lon="12.609644">
        <ele>1015.89</ele>
        <time>2011-07-07T09:00:24Z</time>
      </trkpt>
      <trkpt lat="63.092426" lon="12.609763">
        <ele>1015.68</ele>
        <time>2011-07-07T09:00:31Z</time>
      </trkpt>
      <trkpt lat="63.092472" lon="12.609824">
        <ele>1015.89</ele>
        <time>2011-07-07T09:00:37Z</time>
      </trkpt>
      <trkpt lat="63.092512" lon="12.60982">
        <ele>1016.11</ele>
        <time>2011-07-07T09:00:41Z</time>
      </trkpt>
      <trkpt lat="63.092551" lon="12.609819">
        <ele>1016.3</ele>
        <time>2011-07-07T09:00:45Z</time>
      </trkpt>
      <trkpt lat="63.092632" lon="12.609776">
        <ele>1016.85</ele>
        <time>2011-07-07T09:00:53Z</time>
      </trkpt>
      <trkpt lat="63.092722" lon="12.60974">
        <ele>1017.19</ele>
        <time>2011-07-07T09:01:02Z</time>
      </trkpt>
      <trkpt lat="63.092795" lon="12.609704">
        <ele>1018.61</ele>
        <time>2011-07-07T09:01:08Z</time>
      </trkpt>
      <trkpt lat="63.092867" lon="12.609704">
        <ele>1019.15</ele>
        <time>2011-07-07T09:01:15Z</time>
      </trkpt>
      <trkpt lat="63.092942" lon="12.609778">
        <ele>1019.44</ele>
        <time>2011-07-07T09:01:22Z</time>
      </trkpt>
      <trkpt lat="63.092983" lon="12.60991">
        <ele>1019.42</ele>
        <time>2011-07-07T09:01:28Z</time>
      </trkpt>
      <trkpt lat="63.093049" lon="12.610146">
        <ele>1019.35</ele>
        <time>2011-07-07T09:01:34Z</time>
      </trkpt>
      <trkpt lat="63.093114" lon="12.610432">
        <ele>1019.25</ele>
        <time>2011-07-07T09:01:40Z</time>
      </trkpt>
      <trkpt lat="63.093171" lon="12.610668">
        <ele>1019.42</ele>
        <time>2011-07-07T09:01:45Z</time>
      </trkpt>
      <trkpt lat="63.093217" lon="12.610929">
        <ele>1020.2</ele>
        <time>2011-07-07T09:01:50Z</time>
      </trkpt>
      <trkpt lat="63.093268" lon="12.611302">
        <ele>1020.75</ele>
        <time>2011-07-07T09:01:57Z</time>
      </trkpt>
      <trkpt lat="63.093302" lon="12.611639">
        <ele>1020.11</ele>
        <time>2011-07-07T09:02:03Z</time>
      </trkpt>
      <trkpt lat="63.09333" lon="12.611834">
        <ele>1019.85</ele>
        <time>2011-07-07T09:02:07Z</time>
      </trkpt>
      <trkpt lat="63.093341" lon="12.611878">
        <ele>1019.93</ele>
        <time>2011-07-07T09:02:08Z</time>
      </trkpt>
      <trkpt lat="63.093345" lon="12.612039">
        <ele>1019.42</ele>
        <time>2011-07-07T09:02:12Z</time>
      </trkpt>
      <trkpt lat="63.093371" lon="12.612177">
        <ele>1019.41</ele>
        <time>2011-07-07T09:02:15Z</time>
      </trkpt>
      <trkpt lat="63.093334" lon="12.612443">
        <ele>1020.18</ele>
        <time>2011-07-07T09:02:21Z</time>
      </trkpt>
      <trkpt lat="63.093341" lon="12.612494">
        <ele>1020.59</ele>
        <time>2011-07-07T09:02:22Z</time>
      </trkpt>
      <trkpt lat="63.093417" lon="12.612758">
        <ele>1022.45</ele>
        <time>2011-07-07T09:02:28Z</time>
      </trkpt>
      <trkpt lat="63.093509" lon="12.613079">
        <ele>1022.04</ele>
        <time>2011-07-07T09:02:35Z</time>
      </trkpt>
      <trkpt lat="63.093526" lon="12.613187">
        <ele>1021.8</ele>
        <time>2011-07-07T09:02:37Z</time>
      </trkpt>
      <trkpt lat="63.093542" lon="12.613294">
        <ele>1021.75</ele>
        <time>2011-07-07T09:02:41Z</time>
      </trkpt>
      <trkpt lat="63.093576" lon="12.613331">
        <ele>1022.37</ele>
        <time>2011-07-07T09:02:44Z</time>
      </trkpt>
      <trkpt lat="63.093654" lon="12.613503">
        <ele>1023.47</ele>
        <time>2011-07-07T09:02:52Z</time>
      </trkpt>
      <trkpt lat="63.093659" lon="12.613529">
        <ele>1023.53</ele>
        <time>2011-07-07T09:02:53Z</time>
      </trkpt>
      <trkpt lat="63.093733" lon="12.613646">
        <ele>1024.47</ele>
        <time>2011-07-07T09:03:00Z</time>
      </trkpt>
      <trkpt lat="63.093744" lon="12.613666">
        <ele>1024.66</ele>
        <time>2011-07-07T09:03:01Z</time>
      </trkpt>
      <trkpt lat="63.093792" lon="12.613747">
        <ele>1024.98</ele>
        <time>2011-07-07T09:03:05Z</time>
      </trkpt>
      <trkpt lat="63.093811" lon="12.613858">
        <ele>1025.38</ele>
        <time>2011-07-07T09:03:09Z</time>
      </trkpt>
      <trkpt lat="63.093883" lon="12.614042">
        <ele>1026.37</ele>
        <time>2011-07-07T09:03:17Z</time>
      </trkpt>
      <trkpt lat="63.093966" lon="12.614234">
        <ele>1027.2</ele>
        <time>2011-07-07T09:03:25Z</time>
      </trkpt>
      <trkpt lat="63.093999" lon="12.614375">
        <ele>1027.31</ele>
        <time>2011-07-07T09:03:30Z</time>
      </trkpt>
      <trkpt lat="63.094012" lon="12.614575">
        <ele>1028.25</ele>
        <time>2011-07-07T09:03:38Z</time>
      </trkpt>
      <trkpt lat="63.094042" lon="12.614749">
        <ele>1029.4</ele>
        <time>2011-07-07T09:03:45Z</time>
      </trkpt>
      <trkpt lat="63.094113" lon="12.614944">
        <ele>1030.57</ele>
        <time>2011-07-07T09:03:53Z</time>
      </trkpt>
      <trkpt lat="63.094193" lon="12.615153">
        <ele>1030.99</ele>
        <time>2011-07-07T09:04:01Z</time>
      </trkpt>
      <trkpt lat="63.094279" lon="12.615348">
        <ele>1031.15</ele>
        <time>2011-07-07T09:04:07Z</time>
      </trkpt>
      <trkpt lat="63.094374" lon="12.615548">
        <ele>1031.96</ele>
        <time>2011-07-07T09:04:13Z</time>
      </trkpt>
      <trkpt lat="63.09445" lon="12.615725">
        <ele>1033.22</ele>
        <time>2011-07-07T09:04:18Z</time>
      </trkpt>
      <trkpt lat="63.094534" lon="12.615989">
        <ele>1035.32</ele>
        <time>2011-07-07T09:04:25Z</time>
      </trkpt>
      <trkpt lat="63.094615" lon="12.616174">
        <ele>1035.49</ele>
        <time>2011-07-07T09:04:30Z</time>
      </trkpt>
      <trkpt lat="63.094704" lon="12.616452">
        <ele>1035.8</ele>
        <time>2011-07-07T09:04:36Z</time>
      </trkpt>
      <trkpt lat="63.094778" lon="12.616716">
        <ele>1036.54</ele>
        <time>2011-07-07T09:04:42Z</time>
      </trkpt>
      <trkpt lat="63.094854" lon="12.616939">
        <ele>1036.48</ele>
        <time>2011-07-07T09:04:47Z</time>
      </trkpt>
      <trkpt lat="63.094963" lon="12.617243">
        <ele>1037.07</ele>
        <time>2011-07-07T09:04:54Z</time>
      </trkpt>
      <trkpt lat="63.095051" lon="12.617484">
        <ele>1037.29</ele>
        <time>2011-07-07T09:05:00Z</time>
      </trkpt>
      <trkpt lat="63.095089" lon="12.617779">
        <ele>1038.13</ele>
        <time>2011-07-07T09:05:06Z</time>
      </trkpt>
      <trkpt lat="63.095215" lon="12.618106">
        <ele>1039.11</ele>
        <time>2011-07-07T09:05:14Z</time>
      </trkpt>
      <trkpt lat="63.095272" lon="12.618288">
        <ele>1040.27</ele>
        <time>2011-07-07T09:05:21Z</time>
      </trkpt>
      <trkpt lat="63.095323" lon="12.618505">
        <ele>1041.75</ele>
        <time>2011-07-07T09:05:29Z</time>
      </trkpt>
      <trkpt lat="63.095377" lon="12.618701">
        <ele>1042.19</ele>
        <time>2011-07-07T09:05:35Z</time>
      </trkpt>
      <trkpt lat="63.095446" lon="12.618982">
        <ele>1042.9</ele>
        <time>2011-07-07T09:05:41Z</time>
      </trkpt>
      <trkpt lat="63.095531" lon="12.619265">
        <ele>1042.56</ele>
        <time>2011-07-07T09:05:47Z</time>
      </trkpt>
      <trkpt lat="63.095583" lon="12.619482">
        <ele>1042.81</ele>
        <time>2011-07-07T09:05:52Z</time>
      </trkpt>
      <trkpt lat="63.095592" lon="12.619509">
        <ele>1042.79</ele>
        <time>2011-07-07T09:05:53Z</time>
      </trkpt>
      <trkpt lat="63.095649" lon="12.619702">
        <ele>1042.73</ele>
        <time>2011-07-07T09:06:01Z</time>
      </trkpt>
      <trkpt lat="63.095691" lon="12.619827">
        <ele>1042.66</ele>
        <time>2011-07-07T09:06:06Z</time>
      </trkpt>
      <trkpt lat="63.095718" lon="12.619966">
        <ele>1042.46</ele>
        <time>2011-07-07T09:06:11Z</time>
      </trkpt>
      <trkpt lat="63.095759" lon="12.620114">
        <ele>1042.57</ele>
        <time>2011-07-07T09:06:17Z</time>
      </trkpt>
      <trkpt lat="63.095771" lon="12.62025">
        <ele>1042.37</ele>
        <time>2011-07-07T09:06:22Z</time>
      </trkpt>
      <trkpt lat="63.095825" lon="12.620378">
        <ele>1043.29</ele>
        <time>2011-07-07T09:06:28Z</time>
      </trkpt>
      <trkpt lat="63.095856" lon="12.62048">
        <ele>1043.62</ele>
        <time>2011-07-07T09:06:31Z</time>
      </trkpt>
      <trkpt lat="63.09596" lon="12.620769">
        <ele>1044.35</ele>
        <time>2011-07-07T09:06:38Z</time>
      </trkpt>
      <trkpt lat="63.096038" lon="12.621032">
        <ele>1044.99</ele>
        <time>2011-07-07T09:06:44Z</time>
      </trkpt>
      <trkpt lat="63.096094" lon="12.621276">
        <ele>1044.89</ele>
        <time>2011-07-07T09:06:49Z</time>
      </trkpt>
      <trkpt lat="63.096154" lon="12.6215">
        <ele>1045.2</ele>
        <time>2011-07-07T09:06:54Z</time>
      </trkpt>
      <trkpt lat="63.096167" lon="12.621602">
        <ele>1045.05</ele>
        <time>2011-07-07T09:06:56Z</time>
      </trkpt>
      <trkpt lat="63.096299" lon="12.621939">
        <ele>1045.56</ele>
        <time>2011-07-07T09:07:04Z</time>
      </trkpt>
      <trkpt lat="63.096352" lon="12.622151">
        <ele>1046.7</ele>
        <time>2011-07-07T09:07:10Z</time>
      </trkpt>
      <trkpt lat="63.096398" lon="12.622347">
        <ele>1046.51</ele>
        <time>2011-07-07T09:07:17Z</time>
      </trkpt>
      <trkpt lat="63.096463" lon="12.622483">
        <ele>1048.12</ele>
        <time>2011-07-07T09:07:24Z</time>
      </trkpt>
      <trkpt lat="63.096519" lon="12.622652">
        <ele>1047.54</ele>
        <time>2011-07-07T09:07:29Z</time>
      </trkpt>
      <trkpt lat="63.096596" lon="12.622835">
        <ele>1046.64</ele>
        <time>2011-07-07T09:07:35Z</time>
      </trkpt>
      <trkpt lat="63.096603" lon="12.6229">
        <ele>1046.47</ele>
        <time>2011-07-07T09:07:38Z</time>
      </trkpt>
      <trkpt lat="63.096651" lon="12.623067">
        <ele>1046.97</ele>
        <time>2011-07-07T09:07:46Z</time>
      </trkpt>
      <trkpt lat="63.096717" lon="12.623223">
        <ele>1047.49</ele>
        <time>2011-07-07T09:07:54Z</time>
      </trkpt>
      <trkpt lat="63.096783" lon="12.623408">
        <ele>1048.46</ele>
        <time>2011-07-07T09:08:02Z</time>
      </trkpt>
      <trkpt lat="63.096831" lon="12.623586">
        <ele>1049.18</ele>
        <time>2011-07-07T09:08:09Z</time>
      </trkpt>
      <trkpt lat="63.096881" lon="12.623731">
        <ele>1049</ele>
        <time>2011-07-07T09:08:15Z</time>
      </trkpt>
      <trkpt lat="63.096977" lon="12.623875">
        <ele>1049.44</ele>
        <time>2011-07-07T09:08:23Z</time>
      </trkpt>
      <trkpt lat="63.097011" lon="12.623925">
        <ele>1049.52</ele>
        <time>2011-07-07T09:08:26Z</time>
      </trkpt>
      <trkpt lat="63.097058" lon="12.624086">
        <ele>1049.78</ele>
        <time>2011-07-07T09:08:33Z</time>
      </trkpt>
      <trkpt lat="63.09711" lon="12.624323">
        <ele>1049.91</ele>
        <time>2011-07-07T09:08:42Z</time>
      </trkpt>
      <trkpt lat="63.09715" lon="12.624452">
        <ele>1049.38</ele>
        <time>2011-07-07T09:08:49Z</time>
      </trkpt>
      <trkpt lat="63.097188" lon="12.624618">
        <ele>1050.77</ele>
        <time>2011-07-07T09:08:57Z</time>
      </trkpt>
      <trkpt lat="63.097241" lon="12.624789">
        <ele>1051.18</ele>
        <time>2011-07-07T09:09:05Z</time>
      </trkpt>
      <trkpt lat="63.097296" lon="12.625007">
        <ele>1051.98</ele>
        <time>2011-07-07T09:09:13Z</time>
      </trkpt>
      <trkpt lat="63.097353" lon="12.625207">
        <ele>1051.76</ele>
        <time>2011-07-07T09:09:21Z</time>
      </trkpt>
      <trkpt lat="63.097409" lon="12.62537">
        <ele>1052.32</ele>
        <time>2011-07-07T09:09:29Z</time>
      </trkpt>
      <trkpt lat="63.097435" lon="12.625468">
        <ele>1053.41</ele>
        <time>2011-07-07T09:09:34Z</time>
      </trkpt>
      <trkpt lat="63.097498" lon="12.625553">
        <ele>1053.76</ele>
        <time>2011-07-07T09:09:40Z</time>
      </trkpt>
      <trkpt lat="63.097534" lon="12.625695">
        <ele>1054.22</ele>
        <time>2011-07-07T09:09:46Z</time>
      </trkpt>
      <trkpt lat="63.097563" lon="12.625822">
        <ele>1054.69</ele>
        <time>2011-07-07T09:09:51Z</time>
      </trkpt>
      <trkpt lat="63.097619" lon="12.626001">
        <ele>1055.69</ele>
        <time>2011-07-07T09:09:59Z</time>
      </trkpt>
      <trkpt lat="63.097643" lon="12.62605">
        <ele>1056.77</ele>
        <time>2011-07-07T09:10:02Z</time>
      </trkpt>
      <trkpt lat="63.09768" lon="12.626191">
        <ele>1056.94</ele>
        <time>2011-07-07T09:10:08Z</time>
      </trkpt>
      <trkpt lat="63.097755" lon="12.626409">
        <ele>1057.5</ele>
        <time>2011-07-07T09:10:17Z</time>
      </trkpt>
      <trkpt lat="63.097825" lon="12.626545">
        <ele>1057.67</ele>
        <time>2011-07-07T09:10:21Z</time>
      </trkpt>
      <trkpt lat="63.097912" lon="12.626794">
        <ele>1059.02</ele>
        <time>2011-07-07T09:10:27Z</time>
      </trkpt>
      <trkpt lat="63.097991" lon="12.62707">
        <ele>1059.34</ele>
        <time>2011-07-07T09:10:33Z</time>
      </trkpt>
      <trkpt lat="63.09809" lon="12.627351">
        <ele>1059.94</ele>
        <time>2011-07-07T09:10:40Z</time>
      </trkpt>
      <trkpt lat="63.098154" lon="12.627562">
        <ele>1059.35</ele>
        <time>2011-07-07T09:10:45Z</time>
      </trkpt>
      <trkpt lat="63.098234" lon="12.627751">
        <ele>1059.25</ele>
        <time>2011-07-07T09:10:50Z</time>
      </trkpt>
      <trkpt lat="63.098329" lon="12.627978">
        <ele>1060.15</ele>
        <time>2011-07-07T09:10:56Z</time>
      </trkpt>
      <trkpt lat="63.098411" lon="12.628213">
        <ele>1060.6</ele>
        <time>2011-07-07T09:11:02Z</time>
      </trkpt>
      <trkpt lat="63.098474" lon="12.628414">
        <ele>1061.51</ele>
        <time>2011-07-07T09:11:07Z</time>
      </trkpt>
      <trkpt lat="63.098546" lon="12.628574">
        <ele>1062.4</ele>
        <time>2011-07-07T09:11:12Z</time>
      </trkpt>
      <trkpt lat="63.098616" lon="12.628749">
        <ele>1063.35</ele>
        <time>2011-07-07T09:11:17Z</time>
      </trkpt>
      <trkpt lat="63.098672" lon="12.628889">
        <ele>1064.32</ele>
        <time>2011-07-07T09:11:24Z</time>
      </trkpt>
      <trkpt lat="63.098715" lon="12.629026">
        <ele>1064.86</ele>
        <time>2011-07-07T09:11:30Z</time>
      </trkpt>
      <trkpt lat="63.098794" lon="12.629179">
        <ele>1065.27</ele>
        <time>2011-07-07T09:11:40Z</time>
      </trkpt>
      <trkpt lat="63.098852" lon="12.629347">
        <ele>1066.2</ele>
        <time>2011-07-07T09:11:48Z</time>
      </trkpt>
      <trkpt lat="63.098897" lon="12.629473">
        <ele>1066.57</ele>
        <time>2011-07-07T09:11:55Z</time>
      </trkpt>
      <trkpt lat="63.098949" lon="12.629674">
        <ele>1067.86</ele>
        <time>2011-07-07T09:12:04Z</time>
      </trkpt>
      <trkpt lat="63.098977" lon="12.629831">
        <ele>1069.46</ele>
        <time>2011-07-07T09:12:11Z</time>
      </trkpt>
      <trkpt lat="63.099056" lon="12.630015">
        <ele>1070.81</ele>
        <time>2011-07-07T09:12:19Z</time>
      </trkpt>
      <trkpt lat="63.099125" lon="12.630206">
        <ele>1072.41</ele>
        <time>2011-07-07T09:12:27Z</time>
      </trkpt>
      <trkpt lat="63.099165" lon="12.630469">
        <ele>1073.17</ele>
        <time>2011-07-07T09:12:36Z</time>
      </trkpt>
      <trkpt lat="63.099294" lon="12.630648">
        <ele>1074.2</ele>
        <time>2011-07-07T09:12:43Z</time>
      </trkpt>
      <trkpt lat="63.099312" lon="12.630679">
        <ele>1074.55</ele>
        <time>2011-07-07T09:12:44Z</time>
      </trkpt>
      <trkpt lat="63.099439" lon="12.630957">
        <ele>1075.44</ele>
        <time>2011-07-07T09:12:51Z</time>
      </trkpt>
      <trkpt lat="63.09951" lon="12.631209">
        <ele>1077.06</ele>
        <time>2011-07-07T09:12:58Z</time>
      </trkpt>
      <trkpt lat="63.099615" lon="12.631478">
        <ele>1078.31</ele>
        <time>2011-07-07T09:13:05Z</time>
      </trkpt>
      <trkpt lat="63.0997" lon="12.631779">
        <ele>1078.37</ele>
        <time>2011-07-07T09:13:12Z</time>
      </trkpt>
      <trkpt lat="63.099739" lon="12.631985">
        <ele>1078.69</ele>
        <time>2011-07-07T09:13:17Z</time>
      </trkpt>
      <trkpt lat="63.099759" lon="12.632067">
        <ele>1078.34</ele>
        <time>2011-07-07T09:13:19Z</time>
      </trkpt>
      <trkpt lat="63.099759" lon="12.632213">
        <ele>1077.53</ele>
        <time>2011-07-07T09:13:23Z</time>
      </trkpt>
      <trkpt lat="63.099763" lon="12.632475">
        <ele>1078.61</ele>
        <time>2011-07-07T09:13:29Z</time>
      </trkpt>
      <trkpt lat="63.099815" lon="12.632791">
        <ele>1079.58</ele>
        <time>2011-07-07T09:13:35Z</time>
      </trkpt>
      <trkpt lat="63.09989" lon="12.633038">
        <ele>1079.23</ele>
        <time>2011-07-07T09:13:41Z</time>
      </trkpt>
      <trkpt lat="63.099948" lon="12.633336">
        <ele>1077.67</ele>
        <time>2011-07-07T09:13:47Z</time>
      </trkpt>
      <trkpt lat="63.099957" lon="12.633558">
        <ele>1077.39</ele>
        <time>2011-07-07T09:13:53Z</time>
      </trkpt>
      <trkpt lat="63.099986" lon="12.633774">
        <ele>1077.53</ele>
        <time>2011-07-07T09:14:00Z</time>
      </trkpt>
      <trkpt lat="63.100032" lon="12.634002">
        <ele>1077.26</ele>
        <time>2011-07-07T09:14:08Z</time>
      </trkpt>
      <trkpt lat="63.100065" lon="12.634215">
        <ele>1076.71</ele>
        <time>2011-07-07T09:14:15Z</time>
      </trkpt>
      <trkpt lat="63.100106" lon="12.634494">
        <ele>1078.85</ele>
        <time>2011-07-07T09:14:22Z</time>
      </trkpt>
      <trkpt lat="63.100123" lon="12.634601">
        <ele>1079.68</ele>
        <time>2011-07-07T09:14:25Z</time>
      </trkpt>
      <trkpt lat="63.100167" lon="12.634823">
        <ele>1079</ele>
        <time>2011-07-07T09:14:30Z</time>
      </trkpt>
      <trkpt lat="63.100193" lon="12.635024">
        <ele>1079.8</ele>
        <time>2011-07-07T09:14:34Z</time>
      </trkpt>
      <trkpt lat="63.100252" lon="12.635301">
        <ele>1079.94</ele>
        <time>2011-07-07T09:14:40Z</time>
      </trkpt>
      <trkpt lat="63.100253" lon="12.63535">
        <ele>1079.74</ele>
        <time>2011-07-07T09:14:41Z</time>
      </trkpt>
      <trkpt lat="63.100258" lon="12.635609">
        <ele>1080.06</ele>
        <time>2011-07-07T09:14:46Z</time>
      </trkpt>
      <trkpt lat="63.100315" lon="12.635835">
        <ele>1079.4</ele>
        <time>2011-07-07T09:14:51Z</time>
      </trkpt>
      <trkpt lat="63.100369" lon="12.636222">
        <ele>1078.99</ele>
        <time>2011-07-07T09:14:58Z</time>
      </trkpt>
      <trkpt lat="63.1004" lon="12.636491">
        <ele>1078.61</ele>
        <time>2011-07-07T09:15:03Z</time>
      </trkpt>
      <trkpt lat="63.100433" lon="12.636788">
        <ele>1079.1</ele>
        <time>2011-07-07T09:15:09Z</time>
      </trkpt>
      <trkpt lat="63.100465" lon="12.637091">
        <ele>1080.89</ele>
        <time>2011-07-07T09:15:15Z</time>
      </trkpt>
      <trkpt lat="63.100549" lon="12.637456">
        <ele>1082.45</ele>
        <time>2011-07-07T09:15:22Z</time>
      </trkpt>
      <trkpt lat="63.100622" lon="12.637775">
        <ele>1083.8</ele>
        <time>2011-07-07T09:15:28Z</time>
      </trkpt>
      <trkpt lat="63.100708" lon="12.638145">
        <ele>1084.4</ele>
        <time>2011-07-07T09:15:35Z</time>
      </trkpt>
      <trkpt lat="63.100749" lon="12.638459">
        <ele>1084.69</ele>
        <time>2011-07-07T09:15:41Z</time>
      </trkpt>
      <trkpt lat="63.100846" lon="12.638812">
        <ele>1083.9</ele>
        <time>2011-07-07T09:15:48Z</time>
      </trkpt>
      <trkpt lat="63.100925" lon="12.639085">
        <ele>1083.98</ele>
        <time>2011-07-07T09:15:54Z</time>
      </trkpt>
      <trkpt lat="63.100988" lon="12.639402">
        <ele>1083.93</ele>
        <time>2011-07-07T09:16:00Z</time>
      </trkpt>
      <trkpt lat="63.101072" lon="12.639617">
        <ele>1083.77</ele>
        <time>2011-07-07T09:16:05Z</time>
      </trkpt>
      <trkpt lat="63.10117" lon="12.639811">
        <ele>1083.07</ele>
        <time>2011-07-07T09:16:10Z</time>
      </trkpt>
      <trkpt lat="63.101248" lon="12.640048">
        <ele>1083.29</ele>
        <time>2011-07-07T09:16:15Z</time>
      </trkpt>
      <trkpt lat="63.1013" lon="12.640214">
        <ele>1084.22</ele>
        <time>2011-07-07T09:16:22Z</time>
      </trkpt>
      <trkpt lat="63.101369" lon="12.640387">
        <ele>1083.98</ele>
        <time>2011-07-07T09:16:30Z</time>
      </trkpt>
      <trkpt lat="63.101437" lon="12.640555">
        <ele>1083.16</ele>
        <time>2011-07-07T09:16:39Z</time>
      </trkpt>
      <trkpt lat="63.101502" lon="12.640686">
        <ele>1083.19</ele>
        <time>2011-07-07T09:16:48Z</time>
      </trkpt>
      <trkpt lat="63.101513" lon="12.640687">
        <ele>1083.08</ele>
        <time>2011-07-07T09:16:52Z</time>
      </trkpt>
      <trkpt lat="63.101526" lon="12.640779">
        <ele>1082.39</ele>
        <time>2011-07-07T09:17:07Z</time>
      </trkpt>
      <trkpt lat="63.101568" lon="12.640836">
        <ele>1082.04</ele>
        <time>2011-07-07T09:17:14Z</time>
      </trkpt>
      <trkpt lat="63.101585" lon="12.640868">
        <ele>1082.22</ele>
        <time>2011-07-07T09:17:17Z</time>
      </trkpt>
      <trkpt lat="63.101633" lon="12.641045">
        <ele>1083.25</ele>
        <time>2011-07-07T09:17:26Z</time>
      </trkpt>
      <trkpt lat="63.101709" lon="12.641254">
        <ele>1083.86</ele>
        <time>2011-07-07T09:17:36Z</time>
      </trkpt>
      <trkpt lat="63.101767" lon="12.64144">
        <ele>1083.17</ele>
        <time>2011-07-07T09:17:45Z</time>
      </trkpt>
      <trkpt lat="63.101827" lon="12.641638">
        <ele>1082.53</ele>
        <time>2011-07-07T09:17:54Z</time>
      </trkpt>
      <trkpt lat="63.101878" lon="12.64181">
        <ele>1083.08</ele>
        <time>2011-07-07T09:18:02Z</time>
      </trkpt>
      <trkpt lat="63.101975" lon="12.642036">
        <ele>1083.07</ele>
        <time>2011-07-07T09:18:13Z</time>
      </trkpt>
      <trkpt lat="63.102056" lon="12.642212">
        <ele>1082.41</ele>
        <time>2011-07-07T09:18:22Z</time>
      </trkpt>
      <trkpt lat="63.102139" lon="12.642433">
        <ele>1081.17</ele>
        <time>2011-07-07T09:18:32Z</time>
      </trkpt>
      <trkpt lat="63.10221" lon="12.64262">
        <ele>1080.05</ele>
        <time>2011-07-07T09:18:38Z</time>
      </trkpt>
      <trkpt lat="63.102319" lon="12.642892">
        <ele>1079.01</ele>
        <time>2011-07-07T09:18:44Z</time>
      </trkpt>
      <trkpt lat="63.102406" lon="12.64313">
        <ele>1078.63</ele>
        <time>2011-07-07T09:18:49Z</time>
      </trkpt>
      <trkpt lat="63.102474" lon="12.643362">
        <ele>1078.58</ele>
        <time>2011-07-07T09:18:54Z</time>
      </trkpt>
      <trkpt lat="63.102564" lon="12.643589">
        <ele>1078.7</ele>
        <time>2011-07-07T09:19:00Z</time>
      </trkpt>
      <trkpt lat="63.102673" lon="12.64395">
        <ele>1078.63</ele>
        <time>2011-07-07T09:19:07Z</time>
      </trkpt>
      <trkpt lat="63.102765" lon="12.644237">
        <ele>1079.02</ele>
        <time>2011-07-07T09:19:13Z</time>
      </trkpt>
      <trkpt lat="63.102852" lon="12.644448">
        <ele>1079.22</ele>
        <time>2011-07-07T09:19:18Z</time>
      </trkpt>
      <trkpt lat="63.102981" lon="12.644768">
        <ele>1078.43</ele>
        <time>2011-07-07T09:19:25Z</time>
      </trkpt>
      <trkpt lat="63.103065" lon="12.645133">
        <ele>1078.61</ele>
        <time>2011-07-07T09:19:32Z</time>
      </trkpt>
      <trkpt lat="63.103174" lon="12.645408">
        <ele>1077.73</ele>
        <time>2011-07-07T09:19:38Z</time>
      </trkpt>
      <trkpt lat="63.103278" lon="12.645694">
        <ele>1078.71</ele>
        <time>2011-07-07T09:19:44Z</time>
      </trkpt>
      <trkpt lat="63.10335" lon="12.645937">
        <ele>1079.04</ele>
        <time>2011-07-07T09:19:49Z</time>
      </trkpt>
      <trkpt lat="63.103438" lon="12.64614">
        <ele>1079.27</ele>
        <time>2011-07-07T09:19:54Z</time>
      </trkpt>
      <trkpt lat="63.103551" lon="12.646467">
        <ele>1080.14</ele>
        <time>2011-07-07T09:20:01Z</time>
      </trkpt>
      <trkpt lat="63.103596" lon="12.646681">
        <ele>1079.86</ele>
        <time>2011-07-07T09:20:05Z</time>
      </trkpt>
      <trkpt lat="63.103746" lon="12.646983">
        <ele>1079.64</ele>
        <time>2011-07-07T09:20:12Z</time>
      </trkpt>
      <trkpt lat="63.103897" lon="12.647368">
        <ele>1080.94</ele>
        <time>2011-07-07T09:20:20Z</time>
      </trkpt>
      <trkpt lat="63.104035" lon="12.647739">
        <ele>1081.55</ele>
        <time>2011-07-07T09:20:28Z</time>
      </trkpt>
      <trkpt lat="63.104141" lon="12.648007">
        <ele>1081.33</ele>
        <time>2011-07-07T09:20:34Z</time>
      </trkpt>
      <trkpt lat="63.104243" lon="12.648293">
        <ele>1081.96</ele>
        <time>2011-07-07T09:20:40Z</time>
      </trkpt>
      <trkpt lat="63.104319" lon="12.648512">
        <ele>1082.35</ele>
        <time>2011-07-07T09:20:45Z</time>
      </trkpt>
      <trkpt lat="63.104407" lon="12.6487">
        <ele>1082.62</ele>
        <time>2011-07-07T09:20:50Z</time>
      </trkpt>
      <trkpt lat="63.104509" lon="12.648943">
        <ele>1082.56</ele>
        <time>2011-07-07T09:20:56Z</time>
      </trkpt>
      <trkpt lat="63.104576" lon="12.64907">
        <ele>1082.92</ele>
        <time>2011-07-07T09:21:01Z</time>
      </trkpt>
      <trkpt lat="63.104635" lon="12.649206">
        <ele>1083.89</ele>
        <time>2011-07-07T09:21:08Z</time>
      </trkpt>
      <trkpt lat="63.104731" lon="12.649389">
        <ele>1082.64</ele>
        <time>2011-07-07T09:21:15Z</time>
      </trkpt>
      <trkpt lat="63.104864" lon="12.64971">
        <ele>1082.87</ele>
        <time>2011-07-07T09:21:23Z</time>
      </trkpt>
      <trkpt lat="63.10496" lon="12.649963">
        <ele>1082.83</ele>
        <time>2011-07-07T09:21:29Z</time>
      </trkpt>
      <trkpt lat="63.105074" lon="12.650218">
        <ele>1083.46</ele>
        <time>2011-07-07T09:21:35Z</time>
      </trkpt>
      <trkpt lat="63.105184" lon="12.65046">
        <ele>1084.95</ele>
        <time>2011-07-07T09:21:41Z</time>
      </trkpt>
      <trkpt lat="63.105291" lon="12.650769">
        <ele>1085.82</ele>
        <time>2011-07-07T09:21:48Z</time>
      </trkpt>
      <trkpt lat="63.105379" lon="12.651071">
        <ele>1085.61</ele>
        <time>2011-07-07T09:21:54Z</time>
      </trkpt>
      <trkpt lat="63.105493" lon="12.651452">
        <ele>1086.07</ele>
        <time>2011-07-07T09:22:02Z</time>
      </trkpt>
      <trkpt lat="63.105518" lon="12.651547">
        <ele>1086.09</ele>
        <time>2011-07-07T09:22:04Z</time>
      </trkpt>
      <trkpt lat="63.10565" lon="12.651804">
        <ele>1085.34</ele>
        <time>2011-07-07T09:22:11Z</time>
      </trkpt>
      <trkpt lat="63.105746" lon="12.652058">
        <ele>1085.73</ele>
        <time>2011-07-07T09:22:17Z</time>
      </trkpt>
      <trkpt lat="63.105795" lon="12.652264">
        <ele>1085.72</ele>
        <time>2011-07-07T09:22:21Z</time>
      </trkpt>
      <trkpt lat="63.105861" lon="12.652469">
        <ele>1085.53</ele>
        <time>2011-07-07T09:22:25Z</time>
      </trkpt>
      <trkpt lat="63.10598" lon="12.65268">
        <ele>1086.78</ele>
        <time>2011-07-07T09:22:32Z</time>
      </trkpt>
      <trkpt lat="63.106085" lon="12.652979">
        <ele>1087.96</ele>
        <time>2011-07-07T09:22:39Z</time>
      </trkpt>
      <trkpt lat="63.10624" lon="12.653306">
        <ele>1088.06</ele>
        <time>2011-07-07T09:22:47Z</time>
      </trkpt>
      <trkpt lat="63.106303" lon="12.653472">
        <ele>1088.48</ele>
        <time>2011-07-07T09:22:52Z</time>
      </trkpt>
      <trkpt lat="63.106379" lon="12.653723">
        <ele>1089.15</ele>
        <time>2011-07-07T09:23:02Z</time>
      </trkpt>
      <trkpt lat="63.106471" lon="12.653936">
        <ele>1089.64</ele>
        <time>2011-07-07T09:23:12Z</time>
      </trkpt>
      <trkpt lat="63.106536" lon="12.654106">
        <ele>1090.61</ele>
        <time>2011-07-07T09:23:20Z</time>
      </trkpt>
      <trkpt lat="63.10662" lon="12.654277">
        <ele>1090.28</ele>
        <time>2011-07-07T09:23:28Z</time>
      </trkpt>
      <trkpt lat="63.106705" lon="12.654433">
        <ele>1090.21</ele>
        <time>2011-07-07T09:23:36Z</time>
      </trkpt>
      <trkpt lat="63.106783" lon="12.654616">
        <ele>1090.9</ele>
        <time>2011-07-07T09:23:45Z</time>
      </trkpt>
      <trkpt lat="63.106848" lon="12.6548">
        <ele>1090.87</ele>
        <time>2011-07-07T09:23:54Z</time>
      </trkpt>
      <trkpt lat="63.106913" lon="12.654975">
        <ele>1090.54</ele>
        <time>2011-07-07T09:24:02Z</time>
      </trkpt>
      <trkpt lat="63.106991" lon="12.655186">
        <ele>1090.74</ele>
        <time>2011-07-07T09:24:11Z</time>
      </trkpt>
      <trkpt lat="63.107052" lon="12.655343">
        <ele>1090.28</ele>
        <time>2011-07-07T09:24:18Z</time>
      </trkpt>
      <trkpt lat="63.107147" lon="12.655577">
        <ele>1090.55</ele>
        <time>2011-07-07T09:24:28Z</time>
      </trkpt>
      <trkpt lat="63.107238" lon="12.655751">
        <ele>1091.03</ele>
        <time>2011-07-07T09:24:37Z</time>
      </trkpt>
      <trkpt lat="63.107287" lon="12.65588">
        <ele>1092.05</ele>
        <time>2011-07-07T09:24:43Z</time>
      </trkpt>
      <trkpt lat="63.107355" lon="12.656061">
        <ele>1093.65</ele>
        <time>2011-07-07T09:24:52Z</time>
      </trkpt>
      <trkpt lat="63.107432" lon="12.656195">
        <ele>1093.07</ele>
        <time>2011-07-07T09:24:59Z</time>
      </trkpt>
      <trkpt lat="63.107496" lon="12.656409">
        <ele>1092.37</ele>
        <time>2011-07-07T09:25:04Z</time>
      </trkpt>
      <trkpt lat="63.10756" lon="12.656669">
        <ele>1092.28</ele>
        <time>2011-07-07T09:25:10Z</time>
      </trkpt>
      <trkpt lat="63.107649" lon="12.656934">
        <ele>1092.01</ele>
        <time>2011-07-07T09:25:17Z</time>
      </trkpt>
      <trkpt lat="63.107729" lon="12.657134">
        <ele>1090.4</ele>
        <time>2011-07-07T09:25:23Z</time>
      </trkpt>
      <trkpt lat="63.107817" lon="12.657331">
        <ele>1088.26</ele>
        <time>2011-07-07T09:25:29Z</time>
      </trkpt>
      <trkpt lat="63.107849" lon="12.657522">
        <ele>1087.54</ele>
        <time>2011-07-07T09:25:36Z</time>
      </trkpt>
      <trkpt lat="63.107897" lon="12.657673">
        <ele>1086.51</ele>
        <time>2011-07-07T09:25:40Z</time>
      </trkpt>
      <trkpt lat="63.107944" lon="12.657934">
        <ele>1085.3</ele>
        <time>2011-07-07T09:25:45Z</time>
      </trkpt>
      <trkpt lat="63.107979" lon="12.658218">
        <ele>1085.3</ele>
        <time>2011-07-07T09:25:51Z</time>
      </trkpt>
      <trkpt lat="63.108073" lon="12.658467">
        <ele>1084.64</ele>
        <time>2011-07-07T09:25:58Z</time>
      </trkpt>
      <trkpt lat="63.108141" lon="12.658639">
        <ele>1084</ele>
        <time>2011-07-07T09:26:03Z</time>
      </trkpt>
      <trkpt lat="63.108208" lon="12.658959">
        <ele>1083.94</ele>
        <time>2011-07-07T09:26:10Z</time>
      </trkpt>
      <trkpt lat="63.108247" lon="12.659184">
        <ele>1084.52</ele>
        <time>2011-07-07T09:26:16Z</time>
      </trkpt>
      <trkpt lat="63.108282" lon="12.659341">
        <ele>1084.07</ele>
        <time>2011-07-07T09:26:20Z</time>
      </trkpt>
      <trkpt lat="63.108376" lon="12.659415">
        <ele>1082.96</ele>
        <time>2011-07-07T09:26:25Z</time>
      </trkpt>
      <trkpt lat="63.108477" lon="12.659436">
        <ele>1082.09</ele>
        <time>2011-07-07T09:26:31Z</time>
      </trkpt>
      <trkpt lat="63.108529" lon="12.659568">
        <ele>1081.97</ele>
        <time>2011-07-07T09:26:36Z</time>
      </trkpt>
      <trkpt lat="63.108532" lon="12.659595">
        <ele>1082.19</ele>
        <time>2011-07-07T09:26:37Z</time>
      </trkpt>
      <trkpt lat="63.108583" lon="12.659843">
        <ele>1082.15</ele>
        <time>2011-07-07T09:26:46Z</time>
      </trkpt>
      <trkpt lat="63.108644" lon="12.660028">
        <ele>1082.52</ele>
        <time>2011-07-07T09:26:54Z</time>
      </trkpt>
      <trkpt lat="63.108706" lon="12.660164">
        <ele>1081.66</ele>
        <time>2011-07-07T09:27:01Z</time>
      </trkpt>
      <trkpt lat="63.108713" lon="12.660217">
        <ele>1081.17</ele>
        <time>2011-07-07T09:27:03Z</time>
      </trkpt>
      <trkpt lat="63.108767" lon="12.660347">
        <ele>1079.64</ele>
        <time>2011-07-07T09:27:07Z</time>
      </trkpt>
      <trkpt lat="63.108834" lon="12.660528">
        <ele>1079.27</ele>
        <time>2011-07-07T09:27:13Z</time>
      </trkpt>
      <trkpt lat="63.108903" lon="12.660662">
        <ele>1078.36</ele>
        <time>2011-07-07T09:27:20Z</time>
      </trkpt>
      <trkpt lat="63.108967" lon="12.660821">
        <ele>1077.86</ele>
        <time>2011-07-07T09:27:26Z</time>
      </trkpt>
      <trkpt lat="63.109045" lon="12.661068">
        <ele>1077.29</ele>
        <time>2011-07-07T09:27:31Z</time>
      </trkpt>
      <trkpt lat="63.109138" lon="12.661303">
        <ele>1077.32</ele>
        <time>2011-07-07T09:27:37Z</time>
      </trkpt>
      <trkpt lat="63.109183" lon="12.661584">
        <ele>1078.56</ele>
        <time>2011-07-07T09:27:43Z</time>
      </trkpt>
      <trkpt lat="63.109207" lon="12.661683">
        <ele>1079.06</ele>
        <time>2011-07-07T09:27:46Z</time>
      </trkpt>
      <trkpt lat="63.109234" lon="12.661884">
        <ele>1079.58</ele>
        <time>2011-07-07T09:27:54Z</time>
      </trkpt>
      <trkpt lat="63.109254" lon="12.661958">
        <ele>1078.79</ele>
        <time>2011-07-07T09:27:57Z</time>
      </trkpt>
      <trkpt lat="63.109345" lon="12.662076">
        <ele>1077.38</ele>
        <time>2011-07-07T09:28:05Z</time>
      </trkpt>
      <trkpt lat="63.109413" lon="12.662233">
        <ele>1076.27</ele>
        <time>2011-07-07T09:28:13Z</time>
      </trkpt>
      <trkpt lat="63.109458" lon="12.66239">
        <ele>1074.94</ele>
        <time>2011-07-07T09:28:20Z</time>
      </trkpt>
      <trkpt lat="63.109522" lon="12.662534">
        <ele>1073.66</ele>
        <time>2011-07-07T09:28:26Z</time>
      </trkpt>
      <trkpt lat="63.109547" lon="12.662699">
        <ele>1072.57</ele>
        <time>2011-07-07T09:28:31Z</time>
      </trkpt>
      <trkpt lat="63.109582" lon="12.662747">
        <ele>1072.08</ele>
        <time>2011-07-07T09:28:33Z</time>
      </trkpt>
      <trkpt lat="63.109636" lon="12.662934">
        <ele>1070.94</ele>
        <time>2011-07-07T09:28:39Z</time>
      </trkpt>
      <trkpt lat="63.109654" lon="12.663022">
        <ele>1070.14</ele>
        <time>2011-07-07T09:28:41Z</time>
      </trkpt>
      <trkpt lat="63.109723" lon="12.663225">
        <ele>1068.5</ele>
        <time>2011-07-07T09:28:46Z</time>
      </trkpt>
      <trkpt lat="63.10975" lon="12.663404">
        <ele>1067.24</ele>
        <time>2011-07-07T09:28:50Z</time>
      </trkpt>
      <trkpt lat="63.109873" lon="12.663709">
        <ele>1064.62</ele>
        <time>2011-07-07T09:28:58Z</time>
      </trkpt>
      <trkpt lat="63.109967" lon="12.663816">
        <ele>1062.76</ele>
        <time>2011-07-07T09:29:03Z</time>
      </trkpt>
      <trkpt lat="63.110032" lon="12.663918">
        <ele>1061.43</ele>
        <time>2011-07-07T09:29:06Z</time>
      </trkpt>
      <trkpt lat="63.110095" lon="12.664021">
        <ele>1060.95</ele>
        <time>2011-07-07T09:29:10Z</time>
      </trkpt>
      <trkpt lat="63.110174" lon="12.664186">
        <ele>1060.07</ele>
        <time>2011-07-07T09:29:14Z</time>
      </trkpt>
      <trkpt lat="63.110282" lon="12.664449">
        <ele>1058.93</ele>
        <time>2011-07-07T09:29:20Z</time>
      </trkpt>
      <trkpt lat="63.110395" lon="12.66473">
        <ele>1057.09</ele>
        <time>2011-07-07T09:29:27Z</time>
      </trkpt>
      <trkpt lat="63.110432" lon="12.664828">
        <ele>1056.21</ele>
        <time>2011-07-07T09:29:29Z</time>
      </trkpt>
      <trkpt lat="63.110538" lon="12.665037">
        <ele>1055.46</ele>
        <time>2011-07-07T09:29:34Z</time>
      </trkpt>
      <trkpt lat="63.110665" lon="12.665268">
        <ele>1055.76</ele>
        <time>2011-07-07T09:29:40Z</time>
      </trkpt>
      <trkpt lat="63.110767" lon="12.665544">
        <ele>1056.09</ele>
        <time>2011-07-07T09:29:46Z</time>
      </trkpt>
      <trkpt lat="63.110883" lon="12.665775">
        <ele>1055.91</ele>
        <time>2011-07-07T09:29:53Z</time>
      </trkpt>
      <trkpt lat="63.111037" lon="12.665956">
        <ele>1053.8</ele>
        <time>2011-07-07T09:30:01Z</time>
      </trkpt>
      <trkpt lat="63.111133" lon="12.666095">
        <ele>1052.38</ele>
        <time>2011-07-07T09:30:06Z</time>
      </trkpt>
      <trkpt lat="63.111253" lon="12.666328">
        <ele>1051.14</ele>
        <time>2011-07-07T09:30:13Z</time>
      </trkpt>
      <trkpt lat="63.111364" lon="12.666544">
        <ele>1049.97</ele>
        <time>2011-07-07T09:30:19Z</time>
      </trkpt>
      <trkpt lat="63.111463" lon="12.666695">
        <ele>1049.99</ele>
        <time>2011-07-07T09:30:25Z</time>
      </trkpt>
      <trkpt lat="63.111624" lon="12.666748">
        <ele>1047.19</ele>
        <time>2011-07-07T09:30:33Z</time>
      </trkpt>
      <trkpt lat="63.11169" lon="12.666828">
        <ele>1046.72</ele>
        <time>2011-07-07T09:30:38Z</time>
      </trkpt>
      <trkpt lat="63.111735" lon="12.666918">
        <ele>1045.74</ele>
        <time>2011-07-07T09:30:44Z</time>
      </trkpt>
      <trkpt lat="63.111749" lon="12.666965">
        <ele>1045.4</ele>
        <time>2011-07-07T09:30:46Z</time>
      </trkpt>
      <trkpt lat="63.11182" lon="12.667022">
        <ele>1044.14</ele>
        <time>2011-07-07T09:30:53Z</time>
      </trkpt>
      <trkpt lat="63.111889" lon="12.667171">
        <ele>1043.3</ele>
        <time>2011-07-07T09:31:00Z</time>
      </trkpt>
      <trkpt lat="63.111899" lon="12.667186">
        <ele>1043.15</ele>
        <time>2011-07-07T09:31:01Z</time>
      </trkpt>
      <trkpt lat="63.11199" lon="12.667159">
        <ele>1042.8</ele>
        <time>2011-07-07T09:31:08Z</time>
      </trkpt>
      <trkpt lat="63.112013" lon="12.667175">
        <ele>1042.91</ele>
        <time>2011-07-07T09:31:10Z</time>
      </trkpt>
      <trkpt lat="63.112109" lon="12.667199">
        <ele>1042.79</ele>
        <time>2011-07-07T09:31:18Z</time>
      </trkpt>
      <trkpt lat="63.112134" lon="12.667202">
        <ele>1042.87</ele>
        <time>2011-07-07T09:31:20Z</time>
      </trkpt>
      <trkpt lat="63.112168" lon="12.667275">
        <ele>1042.76</ele>
        <time>2011-07-07T09:31:24Z</time>
      </trkpt>
      <trkpt lat="63.11223" lon="12.667379">
        <ele>1041.04</ele>
        <time>2011-07-07T09:31:32Z</time>
      </trkpt>
      <trkpt lat="63.11225" lon="12.667433">
        <ele>1040.39</ele>
        <time>2011-07-07T09:31:35Z</time>
      </trkpt>
      <trkpt lat="63.112271" lon="12.667506">
        <ele>1039.85</ele>
        <time>2011-07-07T09:31:38Z</time>
      </trkpt>
      <trkpt lat="63.112265" lon="12.667717">
        <ele>1038.77</ele>
        <time>2011-07-07T09:31:45Z</time>
      </trkpt>
      <trkpt lat="63.112311" lon="12.667773">
        <ele>1037.69</ele>
        <time>2011-07-07T09:31:51Z</time>
      </trkpt>
      <trkpt lat="63.112341" lon="12.667808">
        <ele>1036.86</ele>
        <time>2011-07-07T09:31:54Z</time>
      </trkpt>
      <trkpt lat="63.112402" lon="12.667878">
        <ele>1036.51</ele>
        <time>2011-07-07T09:32:00Z</time>
      </trkpt>
      <trkpt lat="63.112424" lon="12.667939">
        <ele>1035.86</ele>
        <time>2011-07-07T09:32:03Z</time>
      </trkpt>
      <trkpt lat="63.11246" lon="12.668135">
        <ele>1035.23</ele>
        <time>2011-07-07T09:32:09Z</time>
      </trkpt>
      <trkpt lat="63.112493" lon="12.66827">
        <ele>1034.73</ele>
        <time>2011-07-07T09:32:12Z</time>
      </trkpt>
      <trkpt lat="63.11259" lon="12.668541">
        <ele>1033.05</ele>
        <time>2011-07-07T09:32:19Z</time>
      </trkpt>
      <trkpt lat="63.112608" lon="12.668606">
        <ele>1032.72</ele>
        <time>2011-07-07T09:32:21Z</time>
      </trkpt>
      <trkpt lat="63.112663" lon="12.668743">
        <ele>1031.48</ele>
        <time>2011-07-07T09:32:27Z</time>
      </trkpt>
      <trkpt lat="63.112654" lon="12.668842">
        <ele>1030.88</ele>
        <time>2011-07-07T09:32:31Z</time>
      </trkpt>
      <trkpt lat="63.112664" lon="12.668925">
        <ele>1030.48</ele>
        <time>2011-07-07T09:32:35Z</time>
      </trkpt>
      <trkpt lat="63.1127" lon="12.669018">
        <ele>1030.12</ele>
        <time>2011-07-07T09:32:40Z</time>
      </trkpt>
      <trkpt lat="63.112739" lon="12.669317">
        <ele>1029.82</ele>
        <time>2011-07-07T09:32:48Z</time>
      </trkpt>
      <trkpt lat="63.112811" lon="12.66954">
        <ele>1029.78</ele>
        <time>2011-07-07T09:32:53Z</time>
      </trkpt>
      <trkpt lat="63.11289" lon="12.669633">
        <ele>1030.16</ele>
        <time>2011-07-07T09:32:57Z</time>
      </trkpt>
      <trkpt lat="63.112981" lon="12.669807">
        <ele>1029.64</ele>
        <time>2011-07-07T09:33:02Z</time>
      </trkpt>
      <trkpt lat="63.113001" lon="12.669837">
        <ele>1029.31</ele>
        <time>2011-07-07T09:33:03Z</time>
      </trkpt>
      <trkpt lat="63.113159" lon="12.669964">
        <ele>1027.85</ele>
        <time>2011-07-07T09:33:10Z</time>
      </trkpt>
      <trkpt lat="63.113251" lon="12.670091">
        <ele>1027.73</ele>
        <time>2011-07-07T09:33:15Z</time>
      </trkpt>
      <trkpt lat="63.113381" lon="12.670148">
        <ele>1026.61</ele>
        <time>2011-07-07T09:33:21Z</time>
      </trkpt>
      <trkpt lat="63.1134" lon="12.670169">
        <ele>1026.5</ele>
        <time>2011-07-07T09:33:22Z</time>
      </trkpt>
      <trkpt lat="63.113438" lon="12.670209">
        <ele>1026.07</ele>
        <time>2011-07-07T09:33:24Z</time>
      </trkpt>
      <trkpt lat="63.113476" lon="12.670357">
        <ele>1024.43</ele>
        <time>2011-07-07T09:33:29Z</time>
      </trkpt>
      <trkpt lat="63.113487" lon="12.670383">
        <ele>1024.02</ele>
        <time>2011-07-07T09:33:30Z</time>
      </trkpt>
      <trkpt lat="63.113566" lon="12.670614">
        <ele>1022.09</ele>
        <time>2011-07-07T09:33:36Z</time>
      </trkpt>
      <trkpt lat="63.113633" lon="12.670781">
        <ele>1021.38</ele>
        <time>2011-07-07T09:33:40Z</time>
      </trkpt>
      <trkpt lat="63.113758" lon="12.671085">
        <ele>1020.59</ele>
        <time>2011-07-07T09:33:47Z</time>
      </trkpt>
      <trkpt lat="63.113838" lon="12.67132">
        <ele>1020.22</ele>
        <time>2011-07-07T09:33:52Z</time>
      </trkpt>
      <trkpt lat="63.113905" lon="12.6715">
        <ele>1020.42</ele>
        <time>2011-07-07T09:33:56Z</time>
      </trkpt>
      <trkpt lat="63.113933" lon="12.671591">
        <ele>1020.34</ele>
        <time>2011-07-07T09:33:58Z</time>
      </trkpt>
      <trkpt lat="63.113989" lon="12.67187">
        <ele>1019.65</ele>
        <time>2011-07-07T09:34:04Z</time>
      </trkpt>
      <trkpt lat="63.114006" lon="12.672015">
        <ele>1019.59</ele>
        <time>2011-07-07T09:34:10Z</time>
      </trkpt>
      <trkpt lat="63.114079" lon="12.672145">
        <ele>1017.93</ele>
        <time>2011-07-07T09:34:17Z</time>
      </trkpt>
      <trkpt lat="63.114125" lon="12.672373">
        <ele>1017.15</ele>
        <time>2011-07-07T09:34:26Z</time>
      </trkpt>
      <trkpt lat="63.114153" lon="12.67256">
        <ele>1016.21</ele>
        <time>2011-07-07T09:34:34Z</time>
      </trkpt>
      <trkpt lat="63.114185" lon="12.672734">
        <ele>1015.15</ele>
        <time>2011-07-07T09:34:41Z</time>
      </trkpt>
      <trkpt lat="63.114214" lon="12.672891">
        <ele>1013.95</ele>
        <time>2011-07-07T09:34:47Z</time>
      </trkpt>
      <trkpt lat="63.114278" lon="12.673036">
        <ele>1013.79</ele>
        <time>2011-07-07T09:34:55Z</time>
      </trkpt>
      <trkpt lat="63.11438" lon="12.673107">
        <ele>1014.05</ele>
        <time>2011-07-07T09:35:03Z</time>
      </trkpt>
      <trkpt lat="63.114484" lon="12.673196">
        <ele>1013.57</ele>
        <time>2011-07-07T09:35:11Z</time>
      </trkpt>
      <trkpt lat="63.114582" lon="12.673349">
        <ele>1013.94</ele>
        <time>2011-07-07T09:35:20Z</time>
      </trkpt>
      <trkpt lat="63.114664" lon="12.673526">
        <ele>1013.92</ele>
        <time>2011-07-07T09:35:26Z</time>
      </trkpt>
      <trkpt lat="63.114782" lon="12.67368">
        <ele>1013.36</ele>
        <time>2011-07-07T09:35:32Z</time>
      </trkpt>
      <trkpt lat="63.114864" lon="12.673768">
        <ele>1012.7</ele>
        <time>2011-07-07T09:35:36Z</time>
      </trkpt>
      <trkpt lat="63.114961" lon="12.674">
        <ele>1011.92</ele>
        <time>2011-07-07T09:35:42Z</time>
      </trkpt>
      <trkpt lat="63.115044" lon="12.674156">
        <ele>1011.06</ele>
        <time>2011-07-07T09:35:47Z</time>
      </trkpt>
      <trkpt lat="63.115076" lon="12.674212">
        <ele>1010.74</ele>
        <time>2011-07-07T09:35:49Z</time>
      </trkpt>
      <trkpt lat="63.115134" lon="12.674308">
        <ele>1009.64</ele>
        <time>2011-07-07T09:35:53Z</time>
      </trkpt>
      <trkpt lat="63.115274" lon="12.674476">
        <ele>1008.14</ele>
        <time>2011-07-07T09:36:00Z</time>
      </trkpt>
      <trkpt lat="63.115415" lon="12.674736">
        <ele>1007.55</ele>
        <time>2011-07-07T09:36:07Z</time>
      </trkpt>
      <trkpt lat="63.115471" lon="12.674875">
        <ele>1007.39</ele>
        <time>2011-07-07T09:36:11Z</time>
      </trkpt>
      <trkpt lat="63.115592" lon="12.674973">
        <ele>1006.95</ele>
        <time>2011-07-07T09:36:17Z</time>
      </trkpt>
      <trkpt lat="63.115716" lon="12.675099">
        <ele>1006.01</ele>
        <time>2011-07-07T09:36:23Z</time>
      </trkpt>
      <trkpt lat="63.115807" lon="12.675234">
        <ele>1004.24</ele>
        <time>2011-07-07T09:36:29Z</time>
      </trkpt>
      <trkpt lat="63.11587" lon="12.675336">
        <ele>1002.22</ele>
        <time>2011-07-07T09:36:34Z</time>
      </trkpt>
      <trkpt lat="63.115961" lon="12.675432">
        <ele>1000.84</ele>
        <time>2011-07-07T09:36:38Z</time>
      </trkpt>
      <trkpt lat="63.116016" lon="12.675462">
        <ele>1000.53</ele>
        <time>2011-07-07T09:36:40Z</time>
      </trkpt>
      <trkpt lat="63.116106" lon="12.675614">
        <ele>1001.13</ele>
        <time>2011-07-07T09:36:45Z</time>
      </trkpt>
      <trkpt lat="63.116155" lon="12.675702">
        <ele>1001.26</ele>
        <time>2011-07-07T09:36:48Z</time>
      </trkpt>
      <trkpt lat="63.11625" lon="12.67588">
        <ele>1000.2</ele>
        <time>2011-07-07T09:36:54Z</time>
      </trkpt>
      <trkpt lat="63.116365" lon="12.676048">
        <ele>998.406</ele>
        <time>2011-07-07T09:36:59Z</time>
      </trkpt>
      <trkpt lat="63.116479" lon="12.676251">
        <ele>998.199</ele>
        <time>2011-07-07T09:37:05Z</time>
      </trkpt>
      <trkpt lat="63.116587" lon="12.67644">
        <ele>997.132</ele>
        <time>2011-07-07T09:37:10Z</time>
      </trkpt>
      <trkpt lat="63.116715" lon="12.676686">
        <ele>996.277</ele>
        <time>2011-07-07T09:37:16Z</time>
      </trkpt>
      <trkpt lat="63.116803" lon="12.676945">
        <ele>995.758</ele>
        <time>2011-07-07T09:37:21Z</time>
      </trkpt>
      <trkpt lat="63.116906" lon="12.677166">
        <ele>995.111</ele>
        <time>2011-07-07T09:37:26Z</time>
      </trkpt>
      <trkpt lat="63.116924" lon="12.677212">
        <ele>995.091</ele>
        <time>2011-07-07T09:37:27Z</time>
      </trkpt>
      <trkpt lat="63.117096" lon="12.677442">
        <ele>995.244</ele>
        <time>2011-07-07T09:37:34Z</time>
      </trkpt>
      <trkpt lat="63.117188" lon="12.677566">
        <ele>995.435</ele>
        <time>2011-07-07T09:37:38Z</time>
      </trkpt>
      <trkpt lat="63.117326" lon="12.677737">
        <ele>997.047</ele>
        <time>2011-07-07T09:37:44Z</time>
      </trkpt>
      <trkpt lat="63.117436" lon="12.677863">
        <ele>997.515</ele>
        <time>2011-07-07T09:37:49Z</time>
      </trkpt>
      <trkpt lat="63.117547" lon="12.678022">
        <ele>997.876</ele>
        <time>2011-07-07T09:37:54Z</time>
      </trkpt>
      <trkpt lat="63.117606" lon="12.678101">
        <ele>998.173</ele>
        <time>2011-07-07T09:37:57Z</time>
      </trkpt>
      <trkpt lat="63.117728" lon="12.678391">
        <ele>997.827</ele>
        <time>2011-07-07T09:38:05Z</time>
      </trkpt>
      <trkpt lat="63.117804" lon="12.678647">
        <ele>997.066</ele>
        <time>2011-07-07T09:38:11Z</time>
      </trkpt>
      <trkpt lat="63.11788" lon="12.678798">
        <ele>997.009</ele>
        <time>2011-07-07T09:38:16Z</time>
      </trkpt>
      <trkpt lat="63.117898" lon="12.678821">
        <ele>997.025</ele>
        <time>2011-07-07T09:38:17Z</time>
      </trkpt>
      <trkpt lat="63.117959" lon="12.678998">
        <ele>997.088</ele>
        <time>2011-07-07T09:38:21Z</time>
      </trkpt>
      <trkpt lat="63.118033" lon="12.67924">
        <ele>997.628</ele>
        <time>2011-07-07T09:38:27Z</time>
      </trkpt>
      <trkpt lat="63.118074" lon="12.679479">
        <ele>997.688</ele>
        <time>2011-07-07T09:38:32Z</time>
      </trkpt>
      <trkpt lat="63.11811" lon="12.679622">
        <ele>998.121</ele>
        <time>2011-07-07T09:38:37Z</time>
      </trkpt>
      <trkpt lat="63.118158" lon="12.679777">
        <ele>998.052</ele>
        <time>2011-07-07T09:38:44Z</time>
      </trkpt>
      <trkpt lat="63.118196" lon="12.679943">
        <ele>997.092</ele>
        <time>2011-07-07T09:38:50Z</time>
      </trkpt>
      <trkpt lat="63.118237" lon="12.680139">
        <ele>997.127</ele>
        <time>2011-07-07T09:38:57Z</time>
      </trkpt>
      <trkpt lat="63.118293" lon="12.680351">
        <ele>997.404</ele>
        <time>2011-07-07T09:39:05Z</time>
      </trkpt>
      <trkpt lat="63.118364" lon="12.680626">
        <ele>996.914</ele>
        <time>2011-07-07T09:39:15Z</time>
      </trkpt>
      <trkpt lat="63.118458" lon="12.680868">
        <ele>997.087</ele>
        <time>2011-07-07T09:39:23Z</time>
      </trkpt>
      <trkpt lat="63.118535" lon="12.681132">
        <ele>997.453</ele>
        <time>2011-07-07T09:39:29Z</time>
      </trkpt>
      <trkpt lat="63.118624" lon="12.681395">
        <ele>997.897</ele>
        <time>2011-07-07T09:39:35Z</time>
      </trkpt>
      <trkpt lat="63.118712" lon="12.681579">
        <ele>997.248</ele>
        <time>2011-07-07T09:39:40Z</time>
      </trkpt>
      <trkpt lat="63.118813" lon="12.681765">
        <ele>996.462</ele>
        <time>2011-07-07T09:39:46Z</time>
      </trkpt>
      <trkpt lat="63.118898" lon="12.682046">
        <ele>995.991</ele>
        <time>2011-07-07T09:39:53Z</time>
      </trkpt>
      <trkpt lat="63.118927" lon="12.68213">
        <ele>995.781</ele>
        <time>2011-07-07T09:39:55Z</time>
      </trkpt>
      <trkpt lat="63.118977" lon="12.682287">
        <ele>995.623</ele>
        <time>2011-07-07T09:39:59Z</time>
      </trkpt>
      <trkpt lat="63.119102" lon="12.682449">
        <ele>995.383</ele>
        <time>2011-07-07T09:40:04Z</time>
      </trkpt>
      <trkpt lat="63.119203" lon="12.682544">
        <ele>995.93</ele>
        <time>2011-07-07T09:40:08Z</time>
      </trkpt>
      <trkpt lat="63.119316" lon="12.682749">
        <ele>996.949</ele>
        <time>2011-07-07T09:40:14Z</time>
      </trkpt>
      <trkpt lat="63.119361" lon="12.68297">
        <ele>997.813</ele>
        <time>2011-07-07T09:40:19Z</time>
      </trkpt>
      <trkpt lat="63.119384" lon="12.683063">
        <ele>997.531</ele>
        <time>2011-07-07T09:40:21Z</time>
      </trkpt>
      <trkpt lat="63.119491" lon="12.683397">
        <ele>996.996</ele>
        <time>2011-07-07T09:40:28Z</time>
      </trkpt>
      <trkpt lat="63.119562" lon="12.68364">
        <ele>996.447</ele>
        <time>2011-07-07T09:40:34Z</time>
      </trkpt>
      <trkpt lat="63.11958" lon="12.683691">
        <ele>996.323</ele>
        <time>2011-07-07T09:40:37Z</time>
      </trkpt>
      <trkpt lat="63.11959" lon="12.683745">
        <ele>996.471</ele>
        <time>2011-07-07T09:40:40Z</time>
      </trkpt>
      <trkpt lat="63.119636" lon="12.683877">
        <ele>996.212</ele>
        <time>2011-07-07T09:40:46Z</time>
      </trkpt>
      <trkpt lat="63.119693" lon="12.684038">
        <ele>996.085</ele>
        <time>2011-07-07T09:40:53Z</time>
      </trkpt>
      <trkpt lat="63.119748" lon="12.684135">
        <ele>996.294</ele>
        <time>2011-07-07T09:41:00Z</time>
      </trkpt>
      <trkpt lat="63.119818" lon="12.684278">
        <ele>996.489</ele>
        <time>2011-07-07T09:41:08Z</time>
      </trkpt>
      <trkpt lat="63.11986" lon="12.684465">
        <ele>996.622</ele>
        <time>2011-07-07T09:41:16Z</time>
      </trkpt>
      <trkpt lat="63.119914" lon="12.684622">
        <ele>995.843</ele>
        <time>2011-07-07T09:41:23Z</time>
      </trkpt>
      <trkpt lat="63.119955" lon="12.684755">
        <ele>995.02</ele>
        <time>2011-07-07T09:41:29Z</time>
      </trkpt>
      <trkpt lat="63.119958" lon="12.68477">
        <ele>994.995</ele>
        <time>2011-07-07T09:41:30Z</time>
      </trkpt>
      <trkpt lat="63.119963" lon="12.684811">
        <ele>995.213</ele>
        <time>2011-07-07T09:41:32Z</time>
      </trkpt>
      <trkpt lat="63.119968" lon="12.684903">
        <ele>995.205</ele>
        <time>2011-07-07T09:41:36Z</time>
      </trkpt>
      <trkpt lat="63.120011" lon="12.685113">
        <ele>994.414</ele>
        <time>2011-07-07T09:41:42Z</time>
      </trkpt>
      <trkpt lat="63.120108" lon="12.685369">
        <ele>993.586</ele>
        <time>2011-07-07T09:41:48Z</time>
      </trkpt>
      <trkpt lat="63.120173" lon="12.685509">
        <ele>993.766</ele>
        <time>2011-07-07T09:41:52Z</time>
      </trkpt>
      <trkpt lat="63.120231" lon="12.685786">
        <ele>993.842</ele>
        <time>2011-07-07T09:41:59Z</time>
      </trkpt>
      <trkpt lat="63.120265" lon="12.685886">
        <ele>993.391</ele>
        <time>2011-07-07T09:42:02Z</time>
      </trkpt>
      <trkpt lat="63.120334" lon="12.686138">
        <ele>992.475</ele>
        <time>2011-07-07T09:42:08Z</time>
      </trkpt>
      <trkpt lat="63.120435" lon="12.686354">
        <ele>993.191</ele>
        <time>2011-07-07T09:42:14Z</time>
      </trkpt>
      <trkpt lat="63.120505" lon="12.686564">
        <ele>992.515</ele>
        <time>2011-07-07T09:42:19Z</time>
      </trkpt>
      <trkpt lat="63.120551" lon="12.686924">
        <ele>991.516</ele>
        <time>2011-07-07T09:42:26Z</time>
      </trkpt>
      <trkpt lat="63.120553" lon="12.686977">
        <ele>991.344</ele>
        <time>2011-07-07T09:42:27Z</time>
      </trkpt>
      <trkpt lat="63.120613" lon="12.687217">
        <ele>989.832</ele>
        <time>2011-07-07T09:42:33Z</time>
      </trkpt>
      <trkpt lat="63.120622" lon="12.687395">
        <ele>988.947</ele>
        <time>2011-07-07T09:42:39Z</time>
      </trkpt>
      <trkpt lat="63.120636" lon="12.687571">
        <ele>987.877</ele>
        <time>2011-07-07T09:42:45Z</time>
      </trkpt>
      <trkpt lat="63.120655" lon="12.687713">
        <ele>986.746</ele>
        <time>2011-07-07T09:42:50Z</time>
      </trkpt>
      <trkpt lat="63.120695" lon="12.687929">
        <ele>984.557</ele>
        <time>2011-07-07T09:42:57Z</time>
      </trkpt>
      <trkpt lat="63.120742" lon="12.688118">
        <ele>983.749</ele>
        <time>2011-07-07T09:43:03Z</time>
      </trkpt>
      <trkpt lat="63.120782" lon="12.688278">
        <ele>983.909</ele>
        <time>2011-07-07T09:43:08Z</time>
      </trkpt>
      <trkpt lat="63.120813" lon="12.688462">
        <ele>983.324</ele>
        <time>2011-07-07T09:43:13Z</time>
      </trkpt>
      <trkpt lat="63.120833" lon="12.688577">
        <ele>983.227</ele>
        <time>2011-07-07T09:43:17Z</time>
      </trkpt>
      <trkpt lat="63.120875" lon="12.68881">
        <ele>983.006</ele>
        <time>2011-07-07T09:43:26Z</time>
      </trkpt>
      <trkpt lat="63.120939" lon="12.688973">
        <ele>983.044</ele>
        <time>2011-07-07T09:43:33Z</time>
      </trkpt>
      <trkpt lat="63.120997" lon="12.68919">
        <ele>983.031</ele>
        <time>2011-07-07T09:43:41Z</time>
      </trkpt>
      <trkpt lat="63.121046" lon="12.689393">
        <ele>982.539</ele>
        <time>2011-07-07T09:43:48Z</time>
      </trkpt>
      <trkpt lat="63.12113" lon="12.689639">
        <ele>982.577</ele>
        <time>2011-07-07T09:43:54Z</time>
      </trkpt>
      <trkpt lat="63.121193" lon="12.689948">
        <ele>982.815</ele>
        <time>2011-07-07T09:44:00Z</time>
      </trkpt>
      <trkpt lat="63.121246" lon="12.690281">
        <ele>982.689</ele>
        <time>2011-07-07T09:44:06Z</time>
      </trkpt>
      <trkpt lat="63.121292" lon="12.690477">
        <ele>982.411</ele>
        <time>2011-07-07T09:44:10Z</time>
      </trkpt>
      <trkpt lat="63.121361" lon="12.690783">
        <ele>982.408</ele>
        <time>2011-07-07T09:44:16Z</time>
      </trkpt>
      <trkpt lat="63.121473" lon="12.691197">
        <ele>982.577</ele>
        <time>2011-07-07T09:44:24Z</time>
      </trkpt>
      <trkpt lat="63.121574" lon="12.691481">
        <ele>981.838</ele>
        <time>2011-07-07T09:44:30Z</time>
      </trkpt>
      <trkpt lat="63.121609" lon="12.691613">
        <ele>981.649</ele>
        <time>2011-07-07T09:44:34Z</time>
      </trkpt>
      <trkpt lat="63.12167" lon="12.691829">
        <ele>981.796</ele>
        <time>2011-07-07T09:44:43Z</time>
      </trkpt>
      <trkpt lat="63.121717" lon="12.691953">
        <ele>981.091</ele>
        <time>2011-07-07T09:44:49Z</time>
      </trkpt>
      <trkpt lat="63.121744" lon="12.692039">
        <ele>981.057</ele>
        <time>2011-07-07T09:44:53Z</time>
      </trkpt>
      <trkpt lat="63.121756" lon="12.692087">
        <ele>981.07</ele>
        <time>2011-07-07T09:44:55Z</time>
      </trkpt>
      <trkpt lat="63.121809" lon="12.69227">
        <ele>981.205</ele>
        <time>2011-07-07T09:45:03Z</time>
      </trkpt>
      <trkpt lat="63.121838" lon="12.692327">
        <ele>980.976</ele>
        <time>2011-07-07T09:45:08Z</time>
      </trkpt>
      <trkpt lat="63.121861" lon="12.692078">
        <ele>980.385</ele>
        <time>2011-07-07T09:45:33Z</time>
      </trkpt>
      <trkpt lat="63.121898" lon="12.692202">
        <ele>980.836</ele>
        <time>2011-07-07T09:45:36Z</time>
      </trkpt>
      <trkpt lat="63.121884" lon="12.692232">
        <ele>980.621</ele>
        <time>2011-07-07T09:45:40Z</time>
      </trkpt>
      <trkpt lat="63.121837" lon="12.692098">
        <ele>980.219</ele>
        <time>2011-07-07T09:45:59Z</time>
      </trkpt>
      <trkpt lat="63.121873" lon="12.692264">
        <ele>981.007</ele>
        <time>2011-07-07T09:46:05Z</time>
      </trkpt>
      <trkpt lat="63.121875" lon="12.692277">
        <ele>980.875</ele>
        <time>2011-07-07T09:46:07Z</time>
      </trkpt>
      <trkpt lat="63.121835" lon="12.692142">
        <ele>980.027</ele>
        <time>2011-07-07T09:46:20Z</time>
      </trkpt>
      <trkpt lat="63.121881" lon="12.692305">
        <ele>981.139</ele>
        <time>2011-07-07T09:46:25Z</time>
      </trkpt>
      <trkpt lat="63.121886" lon="12.692294">
        <ele>981.078</ele>
        <time>2011-07-07T09:46:29Z</time>
      </trkpt>
      <trkpt lat="63.1219" lon="12.692389">
        <ele>981.157</ele>
        <time>2011-07-07T09:46:47Z</time>
      </trkpt>
      <trkpt lat="63.121954" lon="12.692644">
        <ele>981.077</ele>
        <time>2011-07-07T09:46:57Z</time>
      </trkpt>
      <trkpt lat="63.121986" lon="12.692798">
        <ele>980.942</ele>
        <time>2011-07-07T09:47:04Z</time>
      </trkpt>
      <trkpt lat="63.12202" lon="12.692931">
        <ele>981.027</ele>
        <time>2011-07-07T09:47:22Z</time>
      </trkpt>
      <trkpt lat="63.122019" lon="12.693065">
        <ele>980.863</ele>
        <time>2011-07-07T09:47:27Z</time>
      </trkpt>
      <trkpt lat="63.122059" lon="12.693301">
        <ele>979.734</ele>
        <time>2011-07-07T09:47:33Z</time>
      </trkpt>
      <trkpt lat="63.12211" lon="12.693553">
        <ele>978.417</ele>
        <time>2011-07-07T09:47:38Z</time>
      </trkpt>
      <trkpt lat="63.122169" lon="12.693828">
        <ele>977.389</ele>
        <time>2011-07-07T09:47:44Z</time>
      </trkpt>
      <trkpt lat="63.122227" lon="12.694089">
        <ele>975.49</ele>
        <time>2011-07-07T09:47:50Z</time>
      </trkpt>
      <trkpt lat="63.122274" lon="12.694307">
        <ele>974.508</ele>
        <time>2011-07-07T09:47:55Z</time>
      </trkpt>
      <trkpt lat="63.122293" lon="12.694592">
        <ele>972.779</ele>
        <time>2011-07-07T09:48:01Z</time>
      </trkpt>
      <trkpt lat="63.122315" lon="12.694747">
        <ele>971.172</ele>
        <time>2011-07-07T09:48:06Z</time>
      </trkpt>
      <trkpt lat="63.122338" lon="12.694925">
        <ele>969.542</ele>
        <time>2011-07-07T09:48:12Z</time>
      </trkpt>
      <trkpt lat="63.122367" lon="12.695052">
        <ele>968.65</ele>
        <time>2011-07-07T09:48:17Z</time>
      </trkpt>
      <trkpt lat="63.12238" lon="12.695212">
        <ele>967.158</ele>
        <time>2011-07-07T09:48:23Z</time>
      </trkpt>
      <trkpt lat="63.122379" lon="12.695244">
        <ele>966.912</ele>
        <time>2011-07-07T09:48:24Z</time>
      </trkpt>
      <trkpt lat="63.122386" lon="12.695309">
        <ele>966.073</ele>
        <time>2011-07-07T09:48:26Z</time>
      </trkpt>
      <trkpt lat="63.122403" lon="12.695499">
        <ele>964.296</ele>
        <time>2011-07-07T09:48:32Z</time>
      </trkpt>
      <trkpt lat="63.122423" lon="12.695659">
        <ele>963.818</ele>
        <time>2011-07-07T09:48:38Z</time>
      </trkpt>
      <trkpt lat="63.122427" lon="12.695683">
        <ele>963.664</ele>
        <time>2011-07-07T09:48:39Z</time>
      </trkpt>
      <trkpt lat="63.122452" lon="12.69586">
        <ele>960.47</ele>
        <time>2011-07-07T09:48:48Z</time>
      </trkpt>
      <trkpt lat="63.122443" lon="12.695997">
        <ele>958.324</ele>
        <time>2011-07-07T09:48:54Z</time>
      </trkpt>
      <trkpt lat="63.12245" lon="12.696149">
        <ele>956.12</ele>
        <time>2011-07-07T09:49:00Z</time>
      </trkpt>
      <trkpt lat="63.122433" lon="12.696304">
        <ele>954.306</ele>
        <time>2011-07-07T09:49:06Z</time>
      </trkpt>
      <trkpt lat="63.122439" lon="12.696356">
        <ele>953.926</ele>
        <time>2011-07-07T09:49:08Z</time>
      </trkpt>
      <trkpt lat="63.122521" lon="12.696653">
        <ele>951.889</ele>
        <time>2011-07-07T09:49:18Z</time>
      </trkpt>
      <trkpt lat="63.122574" lon="12.696766">
        <ele>951.396</ele>
        <time>2011-07-07T09:49:23Z</time>
      </trkpt>
      <trkpt lat="63.12262" lon="12.696877">
        <ele>950.736</ele>
        <time>2011-07-07T09:49:28Z</time>
      </trkpt>
      <trkpt lat="63.122709" lon="12.697053">
        <ele>950.119</ele>
        <time>2011-07-07T09:49:36Z</time>
      </trkpt>
      <trkpt lat="63.122778" lon="12.69719">
        <ele>949.578</ele>
        <time>2011-07-07T09:49:43Z</time>
      </trkpt>
      <trkpt lat="63.122868" lon="12.69733">
        <ele>948.901</ele>
        <time>2011-07-07T09:49:48Z</time>
      </trkpt>
      <trkpt lat="63.122962" lon="12.697518">
        <ele>947.825</ele>
        <time>2011-07-07T09:49:53Z</time>
      </trkpt>
      <trkpt lat="63.123097" lon="12.697675">
        <ele>946.901</ele>
        <time>2011-07-07T09:49:58Z</time>
      </trkpt>
      <trkpt lat="63.123271" lon="12.697884">
        <ele>946.588</ele>
        <time>2011-07-07T09:50:04Z</time>
      </trkpt>
      <trkpt lat="63.123382" lon="12.698031">
        <ele>947.159</ele>
        <time>2011-07-07T09:50:09Z</time>
      </trkpt>
      <trkpt lat="63.123442" lon="12.698121">
        <ele>947.508</ele>
        <time>2011-07-07T09:50:12Z</time>
      </trkpt>
      <trkpt lat="63.123523" lon="12.698354">
        <ele>946.69</ele>
        <time>2011-07-07T09:50:18Z</time>
      </trkpt>
      <trkpt lat="63.123651" lon="12.698472">
        <ele>945.959</ele>
        <time>2011-07-07T09:50:23Z</time>
      </trkpt>
      <trkpt lat="63.123738" lon="12.698533">
        <ele>946.201</ele>
        <time>2011-07-07T09:50:27Z</time>
      </trkpt>
      <trkpt lat="63.123825" lon="12.698534">
        <ele>946.745</ele>
        <time>2011-07-07T09:50:31Z</time>
      </trkpt>
      <trkpt lat="63.123844" lon="12.698549">
        <ele>947.68</ele>
        <time>2011-07-07T09:50:34Z</time>
      </trkpt>
      <trkpt lat="63.12387" lon="12.698534">
        <ele>947.873</ele>
        <time>2011-07-07T09:50:40Z</time>
      </trkpt>
      <trkpt lat="63.123918" lon="12.698682">
        <ele>947.569</ele>
        <time>2011-07-07T09:50:55Z</time>
      </trkpt>
      <trkpt lat="63.123981" lon="12.698768">
        <ele>947.017</ele>
        <time>2011-07-07T09:51:03Z</time>
      </trkpt>
      <trkpt lat="63.124009" lon="12.698875">
        <ele>946.456</ele>
        <time>2011-07-07T09:51:10Z</time>
      </trkpt>
      <trkpt lat="63.124017" lon="12.698908">
        <ele>945.951</ele>
        <time>2011-07-07T09:51:13Z</time>
      </trkpt>
      <trkpt lat="63.124027" lon="12.69897">
        <ele>945.418</ele>
        <time>2011-07-07T09:51:18Z</time>
      </trkpt>
      <trkpt lat="63.124044" lon="12.699133">
        <ele>944.069</ele>
        <time>2011-07-07T09:51:26Z</time>
      </trkpt>
      <trkpt lat="63.124044" lon="12.699154">
        <ele>943.819</ele>
        <time>2011-07-07T09:51:27Z</time>
      </trkpt>
      <trkpt lat="63.124087" lon="12.699308">
        <ele>941.894</ele>
        <time>2011-07-07T09:51:35Z</time>
      </trkpt>
      <trkpt lat="63.124092" lon="12.699333">
        <ele>941.748</ele>
        <time>2011-07-07T09:51:36Z</time>
      </trkpt>
      <trkpt lat="63.124151" lon="12.699478">
        <ele>940.819</ele>
        <time>2011-07-07T09:51:43Z</time>
      </trkpt>
      <trkpt lat="63.124191" lon="12.69965">
        <ele>939</ele>
        <time>2011-07-07T09:51:49Z</time>
      </trkpt>
      <trkpt lat="63.124206" lon="12.699721">
        <ele>937.559</ele>
        <time>2011-07-07T09:51:52Z</time>
      </trkpt>
      <trkpt lat="63.124245" lon="12.69988">
        <ele>935.367</ele>
        <time>2011-07-07T09:51:59Z</time>
      </trkpt>
      <trkpt lat="63.124275" lon="12.69996">
        <ele>934.227</ele>
        <time>2011-07-07T09:52:03Z</time>
      </trkpt>
      <trkpt lat="63.1243" lon="12.70006">
        <ele>933.255</ele>
        <time>2011-07-07T09:52:08Z</time>
      </trkpt>
      <trkpt lat="63.124349" lon="12.700243">
        <ele>931.416</ele>
        <time>2011-07-07T09:52:15Z</time>
      </trkpt>
      <trkpt lat="63.124356" lon="12.700261">
        <ele>931.13</ele>
        <time>2011-07-07T09:52:16Z</time>
      </trkpt>
      <trkpt lat="63.12438" lon="12.700402">
        <ele>929.115</ele>
        <time>2011-07-07T09:52:24Z</time>
      </trkpt>
      <trkpt lat="63.12441" lon="12.70051">
        <ele>927.377</ele>
        <time>2011-07-07T09:52:32Z</time>
      </trkpt>
      <trkpt lat="63.124421" lon="12.700542">
        <ele>926.722</ele>
        <time>2011-07-07T09:52:34Z</time>
      </trkpt>
      <trkpt lat="63.124493" lon="12.700731">
        <ele>924.333</ele>
        <time>2011-07-07T09:52:43Z</time>
      </trkpt>
      <trkpt lat="63.124577" lon="12.700899">
        <ele>923.698</ele>
        <time>2011-07-07T09:52:52Z</time>
      </trkpt>
      <trkpt lat="63.1246" lon="12.700931">
        <ele>923.504</ele>
        <time>2011-07-07T09:52:54Z</time>
      </trkpt>
      <trkpt lat="63.124653" lon="12.701022">
        <ele>922.462</ele>
        <time>2011-07-07T09:53:00Z</time>
      </trkpt>
      <trkpt lat="63.124701" lon="12.701088">
        <ele>921.56</ele>
        <time>2011-07-07T09:53:05Z</time>
      </trkpt>
      <trkpt lat="63.124755" lon="12.701146">
        <ele>920.426</ele>
        <time>2011-07-07T09:53:10Z</time>
      </trkpt>
      <trkpt lat="63.124817" lon="12.701276">
        <ele>918.791</ele>
        <time>2011-07-07T09:53:18Z</time>
      </trkpt>
      <trkpt lat="63.124835" lon="12.701331">
        <ele>918.241</ele>
        <time>2011-07-07T09:53:20Z</time>
      </trkpt>
      <trkpt lat="63.124828" lon="12.70144">
        <ele>917.008</ele>
        <time>2011-07-07T09:53:25Z</time>
      </trkpt>
      <trkpt lat="63.124857" lon="12.701586">
        <ele>915.857</ele>
        <time>2011-07-07T09:53:32Z</time>
      </trkpt>
      <trkpt lat="63.124874" lon="12.701663">
        <ele>915.781</ele>
        <time>2011-07-07T09:53:35Z</time>
      </trkpt>
      <trkpt lat="63.124887" lon="12.701796">
        <ele>914.624</ele>
        <time>2011-07-07T09:53:40Z</time>
      </trkpt>
      <trkpt lat="63.124893" lon="12.701878">
        <ele>913.785</ele>
        <time>2011-07-07T09:53:43Z</time>
      </trkpt>
      <trkpt lat="63.124882" lon="12.702048">
        <ele>911.214</ele>
        <time>2011-07-07T09:53:50Z</time>
      </trkpt>
      <trkpt lat="63.124859" lon="12.702195">
        <ele>908.856</ele>
        <time>2011-07-07T09:53:56Z</time>
      </trkpt>
      <trkpt lat="63.124848" lon="12.702247">
        <ele>908.033</ele>
        <time>2011-07-07T09:53:58Z</time>
      </trkpt>
      <trkpt lat="63.124808" lon="12.702376">
        <ele>906.265</ele>
        <time>2011-07-07T09:54:04Z</time>
      </trkpt>
      <trkpt lat="63.124746" lon="12.702454">
        <ele>904.127</ele>
        <time>2011-07-07T09:54:11Z</time>
      </trkpt>
      <trkpt lat="63.124703" lon="12.702498">
        <ele>903.203</ele>
        <time>2011-07-07T09:54:15Z</time>
      </trkpt>
      <trkpt lat="63.124667" lon="12.702629">
        <ele>901.527</ele>
        <time>2011-07-07T09:54:22Z</time>
      </trkpt>
      <trkpt lat="63.124661" lon="12.702651">
        <ele>900.652</ele>
        <time>2011-07-07T09:54:25Z</time>
      </trkpt>
      <trkpt lat="63.12464" lon="12.702725">
        <ele>900.044</ele>
        <time>2011-07-07T09:54:31Z</time>
      </trkpt>
      <trkpt lat="63.124592" lon="12.703014">
        <ele>897.933</ele>
        <time>2011-07-07T09:54:43Z</time>
      </trkpt>
      <trkpt lat="63.124656" lon="12.703241">
        <ele>897.22</ele>
        <time>2011-07-07T09:54:53Z</time>
      </trkpt>
      <trkpt lat="63.124692" lon="12.703321">
        <ele>897.128</ele>
        <time>2011-07-07T09:54:57Z</time>
      </trkpt>
      <trkpt lat="63.124723" lon="12.70348">
        <ele>896.648</ele>
        <time>2011-07-07T09:55:01Z</time>
      </trkpt>
      <trkpt lat="63.124725" lon="12.703698">
        <ele>895.917</ele>
        <time>2011-07-07T09:55:08Z</time>
      </trkpt>
      <trkpt lat="63.124734" lon="12.703751">
        <ele>895.595</ele>
        <time>2011-07-07T09:55:11Z</time>
      </trkpt>
      <trkpt lat="63.124796" lon="12.703997">
        <ele>892.751</ele>
        <time>2011-07-07T09:55:24Z</time>
      </trkpt>
      <trkpt lat="63.12483" lon="12.704278">
        <ele>890.373</ele>
        <time>2011-07-07T09:55:30Z</time>
      </trkpt>
      <trkpt lat="63.124835" lon="12.704487">
        <ele>888.86</ele>
        <time>2011-07-07T09:55:35Z</time>
      </trkpt>
      <trkpt lat="63.124823" lon="12.704563">
        <ele>888.209</ele>
        <time>2011-07-07T09:55:38Z</time>
      </trkpt>
      <trkpt lat="63.124891" lon="12.704642">
        <ele>887.237</ele>
        <time>2011-07-07T09:55:44Z</time>
      </trkpt>
      <trkpt lat="63.124903" lon="12.704663">
        <ele>887.17</ele>
        <time>2011-07-07T09:55:45Z</time>
      </trkpt>
      <trkpt lat="63.125059" lon="12.704897">
        <ele>885.3</ele>
        <time>2011-07-07T09:55:58Z</time>
      </trkpt>
      <trkpt lat="63.125078" lon="12.704944">
        <ele>884.904</ele>
        <time>2011-07-07T09:56:00Z</time>
      </trkpt>
      <trkpt lat="63.125084" lon="12.705135">
        <ele>884.003</ele>
        <time>2011-07-07T09:56:06Z</time>
      </trkpt>
      <trkpt lat="63.125077" lon="12.705208">
        <ele>883.622</ele>
        <time>2011-07-07T09:56:09Z</time>
      </trkpt>
      <trkpt lat="63.125069" lon="12.705409">
        <ele>881.051</ele>
        <time>2011-07-07T09:56:17Z</time>
      </trkpt>
      <trkpt lat="63.125073" lon="12.705473">
        <ele>881.013</ele>
        <time>2011-07-07T09:56:20Z</time>
      </trkpt>
      <trkpt lat="63.125079" lon="12.705665">
        <ele>879.842</ele>
        <time>2011-07-07T09:56:26Z</time>
      </trkpt>
      <trkpt lat="63.125056" lon="12.705843">
        <ele>878.376</ele>
        <time>2011-07-07T09:56:30Z</time>
      </trkpt>
      <trkpt lat="63.125053" lon="12.705887">
        <ele>877.965</ele>
        <time>2011-07-07T09:56:31Z</time>
      </trkpt>
      <trkpt lat="63.12502" lon="12.706273">
        <ele>875.044</ele>
        <time>2011-07-07T09:56:39Z</time>
      </trkpt>
      <trkpt lat="63.124996" lon="12.70653">
        <ele>873.897</ele>
        <time>2011-07-07T09:56:44Z</time>
      </trkpt>
      <trkpt lat="63.124986" lon="12.706694">
        <ele>873.198</ele>
        <time>2011-07-07T09:56:47Z</time>
      </trkpt>
      <trkpt lat="63.125017" lon="12.706932">
        <ele>871.499</ele>
        <time>2011-07-07T09:56:53Z</time>
      </trkpt>
      <trkpt lat="63.12501" lon="12.706983">
        <ele>871.215</ele>
        <time>2011-07-07T09:56:54Z</time>
      </trkpt>
      <trkpt lat="63.124981" lon="12.707236">
        <ele>869.637</ele>
        <time>2011-07-07T09:57:00Z</time>
      </trkpt>
      <trkpt lat="63.124961" lon="12.707452">
        <ele>868.329</ele>
        <time>2011-07-07T09:57:05Z</time>
      </trkpt>
      <trkpt lat="63.124971" lon="12.70765">
        <ele>866.192</ele>
        <time>2011-07-07T09:57:12Z</time>
      </trkpt>
      <trkpt lat="63.124982" lon="12.707709">
        <ele>865.825</ele>
        <time>2011-07-07T09:57:15Z</time>
      </trkpt>
      <trkpt lat="63.125045" lon="12.707951">
        <ele>867.743</ele>
        <time>2011-07-07T09:57:24Z</time>
      </trkpt>
      <trkpt lat="63.125095" lon="12.708119">
        <ele>867.764</ele>
        <time>2011-07-07T09:57:31Z</time>
      </trkpt>
      <trkpt lat="63.125121" lon="12.708219">
        <ele>867.639</ele>
        <time>2011-07-07T09:57:37Z</time>
      </trkpt>
      <trkpt lat="63.125123" lon="12.708222">
        <ele>867.68</ele>
        <time>2011-07-07T09:57:38Z</time>
      </trkpt>
      <trkpt lat="63.125187" lon="12.708373">
        <ele>868.098</ele>
        <time>2011-07-07T09:57:57Z</time>
      </trkpt>
      <trkpt lat="63.125273" lon="12.708543">
        <ele>868.549</ele>
        <time>2011-07-07T09:58:06Z</time>
      </trkpt>
      <trkpt lat="63.125346" lon="12.708713">
        <ele>868.627</ele>
        <time>2011-07-07T09:58:11Z</time>
      </trkpt>
      <trkpt lat="63.125357" lon="12.708754">
        <ele>868.511</ele>
        <time>2011-07-07T09:58:12Z</time>
      </trkpt>
      <trkpt lat="63.125373" lon="12.709082">
        <ele>866.592</ele>
        <time>2011-07-07T09:58:19Z</time>
      </trkpt>
      <trkpt lat="63.125369" lon="12.709296">
        <ele>865.075</ele>
        <time>2011-07-07T09:58:23Z</time>
      </trkpt>
      <trkpt lat="63.125398" lon="12.709688">
        <ele>862.276</ele>
        <time>2011-07-07T09:58:31Z</time>
      </trkpt>
      <trkpt lat="63.125444" lon="12.709956">
        <ele>860.531</ele>
        <time>2011-07-07T09:58:36Z</time>
      </trkpt>
      <trkpt lat="63.125434" lon="12.710135">
        <ele>859.476</ele>
        <time>2011-07-07T09:58:40Z</time>
      </trkpt>
      <trkpt lat="63.125457" lon="12.710409">
        <ele>858.744</ele>
        <time>2011-07-07T09:58:45Z</time>
      </trkpt>
      <trkpt lat="63.125465" lon="12.710561">
        <ele>858.862</ele>
        <time>2011-07-07T09:58:48Z</time>
      </trkpt>
      <trkpt lat="63.125551" lon="12.710802">
        <ele>858.271</ele>
        <time>2011-07-07T09:58:53Z</time>
      </trkpt>
      <trkpt lat="63.125574" lon="12.710867">
        <ele>858.173</ele>
        <time>2011-07-07T09:58:54Z</time>
      </trkpt>
      <trkpt lat="63.125684" lon="12.711075">
        <ele>857.523</ele>
        <time>2011-07-07T09:59:00Z</time>
      </trkpt>
      <trkpt lat="63.125711" lon="12.711128">
        <ele>856.822</ele>
        <time>2011-07-07T09:59:02Z</time>
      </trkpt>
      <trkpt lat="63.125822" lon="12.711283">
        <ele>854.632</ele>
        <time>2011-07-07T09:59:08Z</time>
      </trkpt>
      <trkpt lat="63.125882" lon="12.711342">
        <ele>854.294</ele>
        <time>2011-07-07T09:59:11Z</time>
      </trkpt>
      <trkpt lat="63.12596" lon="12.711511">
        <ele>856.925</ele>
        <time>2011-07-07T09:59:17Z</time>
      </trkpt>
      <trkpt lat="63.126014" lon="12.711625">
        <ele>856.692</ele>
        <time>2011-07-07T09:59:21Z</time>
      </trkpt>
      <trkpt lat="63.126132" lon="12.711787">
        <ele>854.493</ele>
        <time>2011-07-07T09:59:27Z</time>
      </trkpt>
      <trkpt lat="63.12628" lon="12.711905">
        <ele>853.623</ele>
        <time>2011-07-07T09:59:33Z</time>
      </trkpt>
      <trkpt lat="63.126374" lon="12.711996">
        <ele>852.367</ele>
        <time>2011-07-07T09:59:39Z</time>
      </trkpt>
      <trkpt lat="63.126514" lon="12.712111">
        <ele>850.788</ele>
        <time>2011-07-07T09:59:44Z</time>
      </trkpt>
      <trkpt lat="63.126536" lon="12.712109">
        <ele>850.854</ele>
        <time>2011-07-07T09:59:45Z</time>
      </trkpt>
      <trkpt lat="63.126599" lon="12.712162">
        <ele>851.383</ele>
        <time>2011-07-07T09:59:48Z</time>
      </trkpt>
      <trkpt lat="63.126676" lon="12.712121">
        <ele>849.576</ele>
        <time>2011-07-07T09:59:52Z</time>
      </trkpt>
      <trkpt lat="63.126706" lon="12.712079">
        <ele>848.618</ele>
        <time>2011-07-07T09:59:54Z</time>
      </trkpt>
      <trkpt lat="63.126781" lon="12.712146">
        <ele>848.018</ele>
        <time>2011-07-07T10:00:00Z</time>
      </trkpt>
      <trkpt lat="63.126847" lon="12.712306">
        <ele>847.116</ele>
        <time>2011-07-07T10:00:05Z</time>
      </trkpt>
      <trkpt lat="63.126903" lon="12.712362">
        <ele>846.638</ele>
        <time>2011-07-07T10:00:08Z</time>
      </trkpt>
      <trkpt lat="63.126962" lon="12.712588">
        <ele>845.766</ele>
        <time>2011-07-07T10:00:13Z</time>
      </trkpt>
      <trkpt lat="63.126997" lon="12.712938">
        <ele>844.64</ele>
        <time>2011-07-07T10:00:19Z</time>
      </trkpt>
      <trkpt lat="63.127043" lon="12.713237">
        <ele>845.766</ele>
        <time>2011-07-07T10:00:24Z</time>
      </trkpt>
      <trkpt lat="63.127119" lon="12.713398">
        <ele>846.633</ele>
        <time>2011-07-07T10:00:28Z</time>
      </trkpt>
      <trkpt lat="63.127213" lon="12.713743">
        <ele>846.554</ele>
        <time>2011-07-07T10:00:34Z</time>
      </trkpt>
      <trkpt lat="63.127302" lon="12.714089">
        <ele>846.645</ele>
        <time>2011-07-07T10:00:41Z</time>
      </trkpt>
      <trkpt lat="63.127314" lon="12.714152">
        <ele>846.724</ele>
        <time>2011-07-07T10:00:42Z</time>
      </trkpt>
      <trkpt lat="63.127332" lon="12.714382">
        <ele>846.851</ele>
        <time>2011-07-07T10:00:47Z</time>
      </trkpt>
      <trkpt lat="63.1274" lon="12.714718">
        <ele>846.059</ele>
        <time>2011-07-07T10:00:54Z</time>
      </trkpt>
      <trkpt lat="63.127413" lon="12.715043">
        <ele>843.844</ele>
        <time>2011-07-07T10:01:00Z</time>
      </trkpt>
      <trkpt lat="63.12741" lon="12.715086">
        <ele>843.464</ele>
        <time>2011-07-07T10:01:01Z</time>
      </trkpt>
      <trkpt lat="63.127418" lon="12.715412">
        <ele>841.962</ele>
        <time>2011-07-07T10:01:07Z</time>
      </trkpt>
      <trkpt lat="63.127436" lon="12.715671">
        <ele>841.191</ele>
        <time>2011-07-07T10:01:11Z</time>
      </trkpt>
      <trkpt lat="63.127444" lon="12.716011">
        <ele>840.865</ele>
        <time>2011-07-07T10:01:16Z</time>
      </trkpt>
      <trkpt lat="63.127499" lon="12.716337">
        <ele>839.834</ele>
        <time>2011-07-07T10:01:21Z</time>
      </trkpt>
      <trkpt lat="63.127534" lon="12.716653">
        <ele>838.839</ele>
        <time>2011-07-07T10:01:26Z</time>
      </trkpt>
      <trkpt lat="63.127528" lon="12.71715">
        <ele>837.97</ele>
        <time>2011-07-07T10:01:33Z</time>
      </trkpt>
      <trkpt lat="63.127549" lon="12.71748">
        <ele>837.326</ele>
        <time>2011-07-07T10:01:38Z</time>
      </trkpt>
      <trkpt lat="63.127617" lon="12.717843">
        <ele>835.235</ele>
        <time>2011-07-07T10:01:44Z</time>
      </trkpt>
      <trkpt lat="63.127675" lon="12.718148">
        <ele>834.29</ele>
        <time>2011-07-07T10:01:49Z</time>
      </trkpt>
      <trkpt lat="63.127728" lon="12.718483">
        <ele>832.716</ele>
        <time>2011-07-07T10:01:55Z</time>
      </trkpt>
      <trkpt lat="63.127743" lon="12.718674">
        <ele>831.77</ele>
        <time>2011-07-07T10:01:59Z</time>
      </trkpt>
      <trkpt lat="63.127775" lon="12.718931">
        <ele>831.234</ele>
        <time>2011-07-07T10:02:07Z</time>
      </trkpt>
      <trkpt lat="63.127765" lon="12.719127">
        <ele>830.213</ele>
        <time>2011-07-07T10:02:14Z</time>
      </trkpt>
      <trkpt lat="63.127783" lon="12.719308">
        <ele>829.4</ele>
        <time>2011-07-07T10:02:21Z</time>
      </trkpt>
      <trkpt lat="63.127794" lon="12.719601">
        <ele>828.193</ele>
        <time>2011-07-07T10:02:29Z</time>
      </trkpt>
      <trkpt lat="63.127781" lon="12.719863">
        <ele>827.627</ele>
        <time>2011-07-07T10:02:33Z</time>
      </trkpt>
      <trkpt lat="63.127766" lon="12.720182">
        <ele>827.684</ele>
        <time>2011-07-07T10:02:38Z</time>
      </trkpt>
      <trkpt lat="63.127754" lon="12.720561">
        <ele>826.979</ele>
        <time>2011-07-07T10:02:44Z</time>
      </trkpt>
      <trkpt lat="63.127752" lon="12.720903">
        <ele>825.939</ele>
        <time>2011-07-07T10:02:50Z</time>
      </trkpt>
      <trkpt lat="63.127751" lon="12.721033">
        <ele>825.488</ele>
        <time>2011-07-07T10:02:52Z</time>
      </trkpt>
      <trkpt lat="63.127831" lon="12.721347">
        <ele>824.106</ele>
        <time>2011-07-07T10:02:58Z</time>
      </trkpt>
      <trkpt lat="63.127923" lon="12.721656">
        <ele>823.015</ele>
        <time>2011-07-07T10:03:04Z</time>
      </trkpt>
      <trkpt lat="63.127955" lon="12.721963">
        <ele>822.182</ele>
        <time>2011-07-07T10:03:09Z</time>
      </trkpt>
      <trkpt lat="63.127993" lon="12.722468">
        <ele>821.088</ele>
        <time>2011-07-07T10:03:16Z</time>
      </trkpt>
      <trkpt lat="63.127994" lon="12.722736">
        <ele>821.444</ele>
        <time>2011-07-07T10:03:20Z</time>
      </trkpt>
      <trkpt lat="63.128013" lon="12.723041">
        <ele>821.677</ele>
        <time>2011-07-07T10:03:25Z</time>
      </trkpt>
      <trkpt lat="63.128047" lon="12.723385">
        <ele>820.746</ele>
        <time>2011-07-07T10:03:31Z</time>
      </trkpt>
      <trkpt lat="63.128146" lon="12.723773">
        <ele>819.275</ele>
        <time>2011-07-07T10:03:38Z</time>
      </trkpt>
      <trkpt lat="63.128182" lon="12.724015">
        <ele>818.394</ele>
        <time>2011-07-07T10:03:42Z</time>
      </trkpt>
      <trkpt lat="63.128197" lon="12.724296">
        <ele>816.64</ele>
        <time>2011-07-07T10:03:46Z</time>
      </trkpt>
      <trkpt lat="63.128233" lon="12.724621">
        <ele>815.703</ele>
        <time>2011-07-07T10:03:51Z</time>
      </trkpt>
      <trkpt lat="63.128258" lon="12.724797">
        <ele>815.64</ele>
        <time>2011-07-07T10:03:54Z</time>
      </trkpt>
      <trkpt lat="63.128319" lon="12.725098">
        <ele>813.947</ele>
        <time>2011-07-07T10:04:00Z</time>
      </trkpt>
      <trkpt lat="63.128335" lon="12.72535">
        <ele>812.986</ele>
        <time>2011-07-07T10:04:04Z</time>
      </trkpt>
      <trkpt lat="63.12833" lon="12.725557">
        <ele>812.87</ele>
        <time>2011-07-07T10:04:07Z</time>
      </trkpt>
      <trkpt lat="63.128345" lon="12.725838">
        <ele>813.627</ele>
        <time>2011-07-07T10:04:12Z</time>
      </trkpt>
      <trkpt lat="63.128415" lon="12.726101">
        <ele>812.945</ele>
        <time>2011-07-07T10:04:17Z</time>
      </trkpt>
      <trkpt lat="63.128444" lon="12.726352">
        <ele>813.045</ele>
        <time>2011-07-07T10:04:22Z</time>
      </trkpt>
      <trkpt lat="63.128444" lon="12.726494">
        <ele>813.431</ele>
        <time>2011-07-07T10:04:25Z</time>
      </trkpt>
      <trkpt lat="63.128467" lon="12.726726">
        <ele>812.19</ele>
        <time>2011-07-07T10:04:30Z</time>
      </trkpt>
      <trkpt lat="63.128479" lon="12.727057">
        <ele>812.125</ele>
        <time>2011-07-07T10:04:35Z</time>
      </trkpt>
      <trkpt lat="63.128462" lon="12.727419">
        <ele>812.853</ele>
        <time>2011-07-07T10:04:40Z</time>
      </trkpt>
      <trkpt lat="63.128455" lon="12.727722">
        <ele>812.763</ele>
        <time>2011-07-07T10:04:45Z</time>
      </trkpt>
      <trkpt lat="63.128445" lon="12.728039">
        <ele>809.078</ele>
        <time>2011-07-07T10:04:51Z</time>
      </trkpt>
      <trkpt lat="63.128443" lon="12.728365">
        <ele>805.941</ele>
        <time>2011-07-07T10:04:56Z</time>
      </trkpt>
      <trkpt lat="63.128439" lon="12.728478">
        <ele>805.193</ele>
        <time>2011-07-07T10:04:58Z</time>
      </trkpt>
      <trkpt lat="63.128396" lon="12.728831">
        <ele>804.58</ele>
        <time>2011-07-07T10:05:03Z</time>
      </trkpt>
      <trkpt lat="63.128364" lon="12.72927">
        <ele>804.975</ele>
        <time>2011-07-07T10:05:08Z</time>
      </trkpt>
      <trkpt lat="63.128365" lon="12.729436">
        <ele>805.289</ele>
        <time>2011-07-07T10:05:10Z</time>
      </trkpt>
      <trkpt lat="63.128324" lon="12.729789">
        <ele>806.232</ele>
        <time>2011-07-07T10:05:15Z</time>
      </trkpt>
      <trkpt lat="63.12833" lon="12.730037">
        <ele>808.434</ele>
        <time>2011-07-07T10:05:21Z</time>
      </trkpt>
      <trkpt lat="63.12834" lon="12.730155">
        <ele>810.097</ele>
        <time>2011-07-07T10:05:27Z</time>
      </trkpt>
      <trkpt lat="63.12834" lon="12.730166">
        <ele>810.29</ele>
        <time>2011-07-07T10:05:28Z</time>
      </trkpt>
      <trkpt lat="63.128327" lon="12.730735">
        <ele>809.915</ele>
        <time>2011-07-07T10:08:44Z</time>
      </trkpt>
      <trkpt lat="63.128269" lon="12.731063">
        <ele>808.944</ele>
        <time>2011-07-07T10:08:50Z</time>
      </trkpt>
      <trkpt lat="63.128191" lon="12.731459">
        <ele>809.687</ele>
        <time>2011-07-07T10:08:56Z</time>
      </trkpt>
      <trkpt lat="63.128161" lon="12.731704">
        <ele>810.526</ele>
        <time>2011-07-07T10:09:01Z</time>
      </trkpt>
      <trkpt lat="63.128158" lon="12.731924">
        <ele>810.287</ele>
        <time>2011-07-07T10:09:05Z</time>
      </trkpt>
      <trkpt lat="63.12813" lon="12.732142">
        <ele>809.684</ele>
        <time>2011-07-07T10:09:10Z</time>
      </trkpt>
      <trkpt lat="63.128115" lon="12.732399">
        <ele>806.999</ele>
        <time>2011-07-07T10:09:15Z</time>
      </trkpt>
      <trkpt lat="63.128109" lon="12.732452">
        <ele>806.173</ele>
        <time>2011-07-07T10:09:16Z</time>
      </trkpt>
      <trkpt lat="63.128057" lon="12.732678">
        <ele>805.39</ele>
        <time>2011-07-07T10:09:22Z</time>
      </trkpt>
      <trkpt lat="63.127987" lon="12.732904">
        <ele>804.255</ele>
        <time>2011-07-07T10:09:28Z</time>
      </trkpt>
      <trkpt lat="63.127971" lon="12.732942">
        <ele>803.929</ele>
        <time>2011-07-07T10:09:29Z</time>
      </trkpt>
      <trkpt lat="63.127891" lon="12.733191">
        <ele>802.717</ele>
        <time>2011-07-07T10:09:36Z</time>
      </trkpt>
      <trkpt lat="63.127815" lon="12.733442">
        <ele>801.17</ele>
        <time>2011-07-07T10:09:41Z</time>
      </trkpt>
      <trkpt lat="63.127679" lon="12.733871">
        <ele>800.297</ele>
        <time>2011-07-07T10:09:48Z</time>
      </trkpt>
      <trkpt lat="63.127662" lon="12.733932">
        <ele>799.896</ele>
        <time>2011-07-07T10:09:49Z</time>
      </trkpt>
      <trkpt lat="63.127594" lon="12.734207">
        <ele>799.52</ele>
        <time>2011-07-07T10:09:53Z</time>
      </trkpt>
      <trkpt lat="63.127558" lon="12.734339">
        <ele>799.956</ele>
        <time>2011-07-07T10:09:55Z</time>
      </trkpt>
      <trkpt lat="63.127514" lon="12.734639">
        <ele>802.381</ele>
        <time>2011-07-07T10:10:00Z</time>
      </trkpt>
      <trkpt lat="63.127472" lon="12.734978">
        <ele>802.218</ele>
        <time>2011-07-07T10:10:06Z</time>
      </trkpt>
      <trkpt lat="63.127453" lon="12.735112">
        <ele>801.605</ele>
        <time>2011-07-07T10:10:09Z</time>
      </trkpt>
      <trkpt lat="63.127427" lon="12.735329">
        <ele>800.06</ele>
        <time>2011-07-07T10:10:13Z</time>
      </trkpt>
      <trkpt lat="63.127376" lon="12.735589">
        <ele>799.392</ele>
        <time>2011-07-07T10:10:17Z</time>
      </trkpt>
      <trkpt lat="63.127274" lon="12.73583">
        <ele>798.841</ele>
        <time>2011-07-07T10:10:23Z</time>
      </trkpt>
      <trkpt lat="63.127193" lon="12.73594">
        <ele>798.767</ele>
        <time>2011-07-07T10:10:27Z</time>
      </trkpt>
      <trkpt lat="63.127125" lon="12.736119">
        <ele>798.683</ele>
        <time>2011-07-07T10:10:31Z</time>
      </trkpt>
      <trkpt lat="63.127064" lon="12.736416">
        <ele>796.825</ele>
        <time>2011-07-07T10:10:37Z</time>
      </trkpt>
      <trkpt lat="63.127038" lon="12.736521">
        <ele>796.163</ele>
        <time>2011-07-07T10:10:40Z</time>
      </trkpt>
      <trkpt lat="63.126991" lon="12.736779">
        <ele>794.596</ele>
        <time>2011-07-07T10:10:45Z</time>
      </trkpt>
      <trkpt lat="63.126974" lon="12.737113">
        <ele>793.924</ele>
        <time>2011-07-07T10:10:51Z</time>
      </trkpt>
      <trkpt lat="63.126973" lon="12.737501">
        <ele>793.225</ele>
        <time>2011-07-07T10:10:57Z</time>
      </trkpt>
      <trkpt lat="63.126985" lon="12.737734">
        <ele>793.257</ele>
        <time>2011-07-07T10:11:01Z</time>
      </trkpt>
      <trkpt lat="63.127002" lon="12.737825">
        <ele>793.289</ele>
        <time>2011-07-07T10:11:03Z</time>
      </trkpt>
      <trkpt lat="63.127045" lon="12.738173">
        <ele>793.279</ele>
        <time>2011-07-07T10:11:09Z</time>
      </trkpt>
      <trkpt lat="63.127072" lon="12.738288">
        <ele>793.218</ele>
        <time>2011-07-07T10:11:11Z</time>
      </trkpt>
      <trkpt lat="63.127079" lon="12.738645">
        <ele>793.537</ele>
        <time>2011-07-07T10:11:17Z</time>
      </trkpt>
      <trkpt lat="63.127086" lon="12.738718">
        <ele>793.666</ele>
        <time>2011-07-07T10:11:19Z</time>
      </trkpt>
      <trkpt lat="63.12708" lon="12.739032">
        <ele>792.42</ele>
        <time>2011-07-07T10:11:27Z</time>
      </trkpt>
      <trkpt lat="63.127043" lon="12.73934">
        <ele>792.278</ele>
        <time>2011-07-07T10:11:34Z</time>
      </trkpt>
      <trkpt lat="63.126992" lon="12.739699">
        <ele>791.504</ele>
        <time>2011-07-07T10:11:42Z</time>
      </trkpt>
      <trkpt lat="63.126989" lon="12.739759">
        <ele>791.207</ele>
        <time>2011-07-07T10:11:44Z</time>
      </trkpt>
      <trkpt lat="63.127015" lon="12.739978">
        <ele>790.926</ele>
        <time>2011-07-07T10:11:50Z</time>
      </trkpt>
      <trkpt lat="63.127059" lon="12.740141">
        <ele>790.793</ele>
        <time>2011-07-07T10:11:57Z</time>
      </trkpt>
      <trkpt lat="63.127088" lon="12.740239">
        <ele>791.133</ele>
        <time>2011-07-07T10:12:03Z</time>
      </trkpt>
      <trkpt lat="63.127095" lon="12.740263">
        <ele>791.216</ele>
        <time>2011-07-07T10:12:05Z</time>
      </trkpt>
      <trkpt lat="63.127151" lon="12.740402">
        <ele>792.518</ele>
        <time>2011-07-07T10:12:14Z</time>
      </trkpt>
      <trkpt lat="63.127191" lon="12.740465">
        <ele>794.147</ele>
        <time>2011-07-07T10:12:21Z</time>
      </trkpt>
      <trkpt lat="63.127267" lon="12.740463">
        <ele>795.668</ele>
        <time>2011-07-07T10:12:30Z</time>
      </trkpt>
      <trkpt lat="63.127336" lon="12.740474">
        <ele>796.455</ele>
        <time>2011-07-07T10:12:37Z</time>
      </trkpt>
      <trkpt lat="63.127455" lon="12.740473">
        <ele>793.697</ele>
        <time>2011-07-07T10:42:09Z</time>
      </trkpt>
      <trkpt lat="63.12746" lon="12.740479">
        <ele>793.624</ele>
        <time>2011-07-07T10:42:10Z</time>
      </trkpt>
      <trkpt lat="63.127475" lon="12.74053">
        <ele>793.891</ele>
        <time>2011-07-07T10:42:14Z</time>
      </trkpt>
      <trkpt lat="63.127496" lon="12.740591">
        <ele>793.749</ele>
        <time>2011-07-07T10:42:19Z</time>
      </trkpt>
      <trkpt lat="63.127505" lon="12.740673">
        <ele>793.51</ele>
        <time>2011-07-07T10:42:22Z</time>
      </trkpt>
      <trkpt lat="63.127537" lon="12.740747">
        <ele>793.634</ele>
        <time>2011-07-07T10:42:26Z</time>
      </trkpt>
      <trkpt lat="63.127571" lon="12.74092">
        <ele>793.566</ele>
        <time>2011-07-07T10:42:33Z</time>
      </trkpt>
      <trkpt lat="63.127615" lon="12.741102">
        <ele>794.204</ele>
        <time>2011-07-07T10:42:41Z</time>
      </trkpt>
      <trkpt lat="63.127653" lon="12.741194">
        <ele>794.79</ele>
        <time>2011-07-07T10:42:45Z</time>
      </trkpt>
      <trkpt lat="63.127691" lon="12.741327">
        <ele>795.226</ele>
        <time>2011-07-07T10:42:51Z</time>
      </trkpt>
      <trkpt lat="63.12777" lon="12.741546">
        <ele>796.063</ele>
        <time>2011-07-07T10:43:02Z</time>
      </trkpt>
      <trkpt lat="63.127821" lon="12.741733">
        <ele>796.853</ele>
        <time>2011-07-07T10:43:10Z</time>
      </trkpt>
      <trkpt lat="63.127887" lon="12.741909">
        <ele>796.834</ele>
        <time>2011-07-07T10:43:19Z</time>
      </trkpt>
      <trkpt lat="63.127904" lon="12.741957">
        <ele>797.268</ele>
        <time>2011-07-07T10:43:22Z</time>
      </trkpt>
      <trkpt lat="63.127978" lon="12.742127">
        <ele>797.243</ele>
        <time>2011-07-07T10:43:31Z</time>
      </trkpt>
      <trkpt lat="63.128108" lon="12.742263">
        <ele>798.344</ele>
        <time>2011-07-07T10:43:39Z</time>
      </trkpt>
      <trkpt lat="63.128243" lon="12.742444">
        <ele>800.438</ele>
        <time>2011-07-07T10:43:48Z</time>
      </trkpt>
      <trkpt lat="63.128356" lon="12.742581">
        <ele>800.482</ele>
        <time>2011-07-07T10:43:56Z</time>
      </trkpt>
      <trkpt lat="63.128461" lon="12.742724">
        <ele>801.011</ele>
        <time>2011-07-07T10:44:04Z</time>
      </trkpt>
      <trkpt lat="63.128525" lon="12.742868">
        <ele>801.062</ele>
        <time>2011-07-07T10:44:11Z</time>
      </trkpt>
      <trkpt lat="63.128535" lon="12.742889">
        <ele>801.299</ele>
        <time>2011-07-07T10:44:13Z</time>
      </trkpt>
      <trkpt lat="63.12855" lon="12.742952">
        <ele>801.8</ele>
        <time>2011-07-07T10:44:18Z</time>
      </trkpt>
      <trkpt lat="63.128577" lon="12.743002">
        <ele>802.173</ele>
        <time>2011-07-07T10:44:22Z</time>
      </trkpt>
      <trkpt lat="63.128662" lon="12.743096">
        <ele>803.134</ele>
        <time>2011-07-07T10:44:30Z</time>
      </trkpt>
      <trkpt lat="63.128692" lon="12.743172">
        <ele>803.528</ele>
        <time>2011-07-07T10:44:34Z</time>
      </trkpt>
      <trkpt lat="63.128746" lon="12.743311">
        <ele>803.646</ele>
        <time>2011-07-07T10:44:41Z</time>
      </trkpt>
      <trkpt lat="63.128755" lon="12.743487">
        <ele>804.943</ele>
        <time>2011-07-07T10:44:48Z</time>
      </trkpt>
      <trkpt lat="63.128778" lon="12.743527">
        <ele>805.178</ele>
        <time>2011-07-07T10:44:50Z</time>
      </trkpt>
      <trkpt lat="63.128819" lon="12.743578">
        <ele>805.552</ele>
        <time>2011-07-07T10:44:53Z</time>
      </trkpt>
      <trkpt lat="63.128838" lon="12.743758">
        <ele>806.59</ele>
        <time>2011-07-07T10:45:01Z</time>
      </trkpt>
      <trkpt lat="63.128851" lon="12.743919">
        <ele>807.575</ele>
        <time>2011-07-07T10:45:08Z</time>
      </trkpt>
      <trkpt lat="63.128864" lon="12.744055">
        <ele>809.145</ele>
        <time>2011-07-07T10:45:15Z</time>
      </trkpt>
      <trkpt lat="63.128906" lon="12.744187">
        <ele>810.759</ele>
        <time>2011-07-07T10:45:22Z</time>
      </trkpt>
      <trkpt lat="63.12894" lon="12.744219">
        <ele>811.505</ele>
        <time>2011-07-07T10:45:25Z</time>
      </trkpt>
      <trkpt lat="63.128953" lon="12.744237">
        <ele>812.08</ele>
        <time>2011-07-07T10:45:27Z</time>
      </trkpt>
      <trkpt lat="63.128971" lon="12.744366">
        <ele>813.594</ele>
        <time>2011-07-07T10:45:33Z</time>
      </trkpt>
      <trkpt lat="63.129006" lon="12.744481">
        <ele>814.614</ele>
        <time>2011-07-07T10:45:40Z</time>
      </trkpt>
      <trkpt lat="63.129021" lon="12.744521">
        <ele>815.118</ele>
        <time>2011-07-07T10:45:43Z</time>
      </trkpt>
      <trkpt lat="63.129048" lon="12.74463">
        <ele>816.614</ele>
        <time>2011-07-07T10:45:50Z</time>
      </trkpt>
      <trkpt lat="63.129083" lon="12.744742">
        <ele>818.356</ele>
        <time>2011-07-07T10:45:57Z</time>
      </trkpt>
      <trkpt lat="63.129103" lon="12.744804">
        <ele>819.463</ele>
        <time>2011-07-07T10:46:02Z</time>
      </trkpt>
      <trkpt lat="63.12914" lon="12.744917">
        <ele>821.017</ele>
        <time>2011-07-07T10:46:09Z</time>
      </trkpt>
      <trkpt lat="63.129173" lon="12.745037">
        <ele>823.037</ele>
        <time>2011-07-07T10:46:17Z</time>
      </trkpt>
      <trkpt lat="63.129216" lon="12.745216">
        <ele>824.533</ele>
        <time>2011-07-07T10:46:25Z</time>
      </trkpt>
      <trkpt lat="63.129231" lon="12.745259">
        <ele>824.938</ele>
        <time>2011-07-07T10:46:27Z</time>
      </trkpt>
      <trkpt lat="63.129293" lon="12.745496">
        <ele>825.762</ele>
        <time>2011-07-07T10:46:36Z</time>
      </trkpt>
      <trkpt lat="63.129358" lon="12.745722">
        <ele>826.77</ele>
        <time>2011-07-07T10:46:45Z</time>
      </trkpt>
      <trkpt lat="63.129406" lon="12.745869">
        <ele>827.55</ele>
        <time>2011-07-07T10:46:51Z</time>
      </trkpt>
      <trkpt lat="63.129432" lon="12.745912">
        <ele>828.443</ele>
        <time>2011-07-07T10:46:54Z</time>
      </trkpt>
      <trkpt lat="63.129452" lon="12.745974">
        <ele>829.188</ele>
        <time>2011-07-07T10:46:57Z</time>
      </trkpt>
      <trkpt lat="63.129523" lon="12.746122">
        <ele>830.308</ele>
        <time>2011-07-07T10:47:05Z</time>
      </trkpt>
      <trkpt lat="63.129531" lon="12.74614">
        <ele>830.378</ele>
        <time>2011-07-07T10:47:06Z</time>
      </trkpt>
      <trkpt lat="63.12963" lon="12.746307">
        <ele>831.961</ele>
        <time>2011-07-07T10:47:15Z</time>
      </trkpt>
      <trkpt lat="63.129666" lon="12.746425">
        <ele>832.813</ele>
        <time>2011-07-07T10:47:21Z</time>
      </trkpt>
      <trkpt lat="63.129692" lon="12.746496">
        <ele>833.411</ele>
        <time>2011-07-07T10:47:25Z</time>
      </trkpt>
      <trkpt lat="63.129714" lon="12.746751">
        <ele>834.876</ele>
        <time>2011-07-07T10:47:35Z</time>
      </trkpt>
      <trkpt lat="63.129742" lon="12.746947">
        <ele>835.69</ele>
        <time>2011-07-07T10:47:43Z</time>
      </trkpt>
      <trkpt lat="63.129781" lon="12.747086">
        <ele>836.905</ele>
        <time>2011-07-07T10:47:50Z</time>
      </trkpt>
      <trkpt lat="63.129844" lon="12.747256">
        <ele>837.791</ele>
        <time>2011-07-07T10:47:57Z</time>
      </trkpt>
      <trkpt lat="63.129885" lon="12.747506">
        <ele>838.872</ele>
        <time>2011-07-07T10:48:06Z</time>
      </trkpt>
      <trkpt lat="63.129909" lon="12.747678">
        <ele>839.407</ele>
        <time>2011-07-07T10:48:12Z</time>
      </trkpt>
      <trkpt lat="63.129934" lon="12.747905">
        <ele>840.184</ele>
        <time>2011-07-07T10:48:20Z</time>
      </trkpt>
      <trkpt lat="63.129956" lon="12.748182">
        <ele>840.958</ele>
        <time>2011-07-07T10:48:29Z</time>
      </trkpt>
      <trkpt lat="63.130104" lon="12.748468">
        <ele>841.045</ele>
        <time>2011-07-07T10:48:37Z</time>
      </trkpt>
      <trkpt lat="63.130152" lon="12.748684">
        <ele>841.019</ele>
        <time>2011-07-07T10:48:44Z</time>
      </trkpt>
      <trkpt lat="63.130181" lon="12.748889">
        <ele>840.363</ele>
        <time>2011-07-07T10:48:50Z</time>
      </trkpt>
      <trkpt lat="63.130188" lon="12.74912">
        <ele>840.846</ele>
        <time>2011-07-07T10:48:57Z</time>
      </trkpt>
      <trkpt lat="63.130191" lon="12.749386">
        <ele>840.824</ele>
        <time>2011-07-07T10:49:05Z</time>
      </trkpt>
      <trkpt lat="63.130216" lon="12.749737">
        <ele>840.861</ele>
        <time>2011-07-07T10:49:14Z</time>
      </trkpt>
      <trkpt lat="63.130263" lon="12.74983">
        <ele>841.006</ele>
        <time>2011-07-07T10:49:16Z</time>
      </trkpt>
      <trkpt lat="63.130297" lon="12.750104">
        <ele>841.177</ele>
        <time>2011-07-07T10:49:22Z</time>
      </trkpt>
      <trkpt lat="63.130316" lon="12.750374">
        <ele>841.88</ele>
        <time>2011-07-07T10:49:28Z</time>
      </trkpt>
      <trkpt lat="63.130361" lon="12.750688">
        <ele>842.225</ele>
        <time>2011-07-07T10:49:34Z</time>
      </trkpt>
      <trkpt lat="63.130396" lon="12.750816">
        <ele>841.795</ele>
        <time>2011-07-07T10:49:37Z</time>
      </trkpt>
      <trkpt lat="63.130439" lon="12.750955">
        <ele>841.538</ele>
        <time>2011-07-07T10:49:42Z</time>
      </trkpt>
      <trkpt lat="63.130496" lon="12.751161">
        <ele>841.961</ele>
        <time>2011-07-07T10:49:47Z</time>
      </trkpt>
      <trkpt lat="63.130501" lon="12.751365">
        <ele>841.874</ele>
        <time>2011-07-07T10:49:52Z</time>
      </trkpt>
      <trkpt lat="63.130508" lon="12.75169">
        <ele>842.333</ele>
        <time>2011-07-07T10:49:58Z</time>
      </trkpt>
      <trkpt lat="63.13054" lon="12.751998">
        <ele>842.678</ele>
        <time>2011-07-07T10:50:03Z</time>
      </trkpt>
      <trkpt lat="63.13061" lon="12.752295">
        <ele>843.284</ele>
        <time>2011-07-07T10:50:09Z</time>
      </trkpt>
      <trkpt lat="63.130648" lon="12.752472">
        <ele>843.974</ele>
        <time>2011-07-07T10:50:14Z</time>
      </trkpt>
      <trkpt lat="63.130672" lon="12.75267">
        <ele>844.888</ele>
        <time>2011-07-07T10:50:21Z</time>
      </trkpt>
      <trkpt lat="63.130695" lon="12.752875">
        <ele>845.373</ele>
        <time>2011-07-07T10:50:28Z</time>
      </trkpt>
      <trkpt lat="63.130724" lon="12.753107">
        <ele>845.761</ele>
        <time>2011-07-07T10:50:36Z</time>
      </trkpt>
      <trkpt lat="63.130743" lon="12.753199">
        <ele>845.891</ele>
        <time>2011-07-07T10:50:40Z</time>
      </trkpt>
      <trkpt lat="63.130804" lon="12.75336">
        <ele>845.817</ele>
        <time>2011-07-07T10:50:46Z</time>
      </trkpt>
      <trkpt lat="63.130825" lon="12.753491">
        <ele>846.306</ele>
        <time>2011-07-07T10:50:51Z</time>
      </trkpt>
      <trkpt lat="63.130854" lon="12.753596">
        <ele>846.268</ele>
        <time>2011-07-07T10:50:55Z</time>
      </trkpt>
      <trkpt lat="63.130876" lon="12.753898">
        <ele>847.028</ele>
        <time>2011-07-07T10:51:05Z</time>
      </trkpt>
      <trkpt lat="63.130913" lon="12.754116">
        <ele>847.041</ele>
        <time>2011-07-07T10:51:12Z</time>
      </trkpt>
      <trkpt lat="63.130944" lon="12.754323">
        <ele>847.054</ele>
        <time>2011-07-07T10:51:19Z</time>
      </trkpt>
      <trkpt lat="63.130985" lon="12.754587">
        <ele>848.063</ele>
        <time>2011-07-07T10:51:25Z</time>
      </trkpt>
      <trkpt lat="63.131048" lon="12.754963">
        <ele>848.57</ele>
        <time>2011-07-07T10:51:32Z</time>
      </trkpt>
      <trkpt lat="63.131116" lon="12.755328">
        <ele>848.898</ele>
        <time>2011-07-07T10:51:39Z</time>
      </trkpt>
      <trkpt lat="63.131146" lon="12.755536">
        <ele>848.807</ele>
        <time>2011-07-07T10:51:44Z</time>
      </trkpt>
      <trkpt lat="63.131179" lon="12.755852">
        <ele>848.364</ele>
        <time>2011-07-07T10:51:50Z</time>
      </trkpt>
      <trkpt lat="63.131194" lon="12.756162">
        <ele>847.613</ele>
        <time>2011-07-07T10:51:56Z</time>
      </trkpt>
      <trkpt lat="63.131235" lon="12.756411">
        <ele>848.103</ele>
        <time>2011-07-07T10:52:01Z</time>
      </trkpt>
      <trkpt lat="63.131275" lon="12.756704">
        <ele>847.876</ele>
        <time>2011-07-07T10:52:07Z</time>
      </trkpt>
      <trkpt lat="63.131274" lon="12.756996">
        <ele>848.172</ele>
        <time>2011-07-07T10:52:12Z</time>
      </trkpt>
      <trkpt lat="63.131288" lon="12.757263">
        <ele>848.899</ele>
        <time>2011-07-07T10:52:17Z</time>
      </trkpt>
      <trkpt lat="63.131327" lon="12.757437">
        <ele>849.631</ele>
        <time>2011-07-07T10:52:21Z</time>
      </trkpt>
      <trkpt lat="63.131369" lon="12.75762">
        <ele>849.545</ele>
        <time>2011-07-07T10:52:25Z</time>
      </trkpt>
      <trkpt lat="63.131379" lon="12.757802">
        <ele>849.741</ele>
        <time>2011-07-07T10:52:30Z</time>
      </trkpt>
      <trkpt lat="63.131389" lon="12.757905">
        <ele>849.324</ele>
        <time>2011-07-07T10:52:33Z</time>
      </trkpt>
      <trkpt lat="63.131431" lon="12.758214">
        <ele>848.736</ele>
        <time>2011-07-07T10:52:40Z</time>
      </trkpt>
      <trkpt lat="63.131434" lon="12.75849">
        <ele>849.256</ele>
        <time>2011-07-07T10:52:48Z</time>
      </trkpt>
      <trkpt lat="63.131457" lon="12.758788">
        <ele>849.118</ele>
        <time>2011-07-07T10:52:53Z</time>
      </trkpt>
      <trkpt lat="63.131481" lon="12.759107">
        <ele>849.183</ele>
        <time>2011-07-07T10:52:59Z</time>
      </trkpt>
      <trkpt lat="63.131486" lon="12.759165">
        <ele>849.32</ele>
        <time>2011-07-07T10:53:00Z</time>
      </trkpt>
      <trkpt lat="63.131551" lon="12.759593">
        <ele>850.348</ele>
        <time>2011-07-07T10:53:08Z</time>
      </trkpt>
      <trkpt lat="63.131615" lon="12.760004">
        <ele>850.957</ele>
        <time>2011-07-07T10:53:16Z</time>
      </trkpt>
      <trkpt lat="63.131665" lon="12.760346">
        <ele>850.735</ele>
        <time>2011-07-07T10:53:23Z</time>
      </trkpt>
      <trkpt lat="63.131695" lon="12.760649">
        <ele>850.754</ele>
        <time>2011-07-07T10:53:29Z</time>
      </trkpt>
      <trkpt lat="63.131715" lon="12.760878">
        <ele>850.298</ele>
        <time>2011-07-07T10:53:33Z</time>
      </trkpt>
      <trkpt lat="63.131746" lon="12.761129">
        <ele>849.448</ele>
        <time>2011-07-07T10:53:38Z</time>
      </trkpt>
      <trkpt lat="63.131778" lon="12.761339">
        <ele>849.04</ele>
        <time>2011-07-07T10:53:42Z</time>
      </trkpt>
      <trkpt lat="63.131797" lon="12.761512">
        <ele>849.171</ele>
        <time>2011-07-07T10:53:48Z</time>
      </trkpt>
      <trkpt lat="63.13181" lon="12.761685">
        <ele>848.967</ele>
        <time>2011-07-07T10:53:54Z</time>
      </trkpt>
      <trkpt lat="63.131821" lon="12.761921">
        <ele>847.834</ele>
        <time>2011-07-07T10:53:59Z</time>
      </trkpt>
      <trkpt lat="63.131827" lon="12.762218">
        <ele>847.279</ele>
        <time>2011-07-07T10:54:05Z</time>
      </trkpt>
      <trkpt lat="63.131834" lon="12.762492">
        <ele>846.637</ele>
        <time>2011-07-07T10:54:10Z</time>
      </trkpt>
      <trkpt lat="63.13184" lon="12.762884">
        <ele>846.553</ele>
        <time>2011-07-07T10:54:17Z</time>
      </trkpt>
      <trkpt lat="63.131808" lon="12.763208">
        <ele>846.05</ele>
        <time>2011-07-07T10:54:23Z</time>
      </trkpt>
      <trkpt lat="63.13182" lon="12.763478">
        <ele>845.897</ele>
        <time>2011-07-07T10:54:29Z</time>
      </trkpt>
      <trkpt lat="63.131821" lon="12.763638">
        <ele>845.25</ele>
        <time>2011-07-07T10:54:35Z</time>
      </trkpt>
      <trkpt lat="63.131812" lon="12.763814">
        <ele>844.811</ele>
        <time>2011-07-07T10:54:42Z</time>
      </trkpt>
      <trkpt lat="63.131746" lon="12.76393">
        <ele>843.861</ele>
        <time>2011-07-07T10:54:49Z</time>
      </trkpt>
      <trkpt lat="63.131715" lon="12.764135">
        <ele>844.595</ele>
        <time>2011-07-07T10:54:55Z</time>
      </trkpt>
      <trkpt lat="63.131682" lon="12.764364">
        <ele>843.441</ele>
        <time>2011-07-07T10:55:00Z</time>
      </trkpt>
      <trkpt lat="63.131705" lon="12.764566">
        <ele>842.323</ele>
        <time>2011-07-07T10:55:04Z</time>
      </trkpt>
      <trkpt lat="63.131689" lon="12.764853">
        <ele>840.976</ele>
        <time>2011-07-07T10:55:11Z</time>
      </trkpt>
      <trkpt lat="63.131706" lon="12.765024">
        <ele>840.313</ele>
        <time>2011-07-07T10:55:17Z</time>
      </trkpt>
      <trkpt lat="63.131721" lon="12.765221">
        <ele>840.242</ele>
        <time>2011-07-07T10:55:24Z</time>
      </trkpt>
      <trkpt lat="63.131737" lon="12.765449">
        <ele>839.792</ele>
        <time>2011-07-07T10:55:29Z</time>
      </trkpt>
      <trkpt lat="63.131766" lon="12.765929">
        <ele>839.681</ele>
        <time>2011-07-07T10:55:37Z</time>
      </trkpt>
      <trkpt lat="63.131805" lon="12.766198">
        <ele>839.598</ele>
        <time>2011-07-07T10:55:42Z</time>
      </trkpt>
      <trkpt lat="63.13183" lon="12.766486">
        <ele>838.567</ele>
        <time>2011-07-07T10:55:47Z</time>
      </trkpt>
      <trkpt lat="63.13185" lon="12.766797">
        <ele>837.568</ele>
        <time>2011-07-07T10:55:52Z</time>
      </trkpt>
      <trkpt lat="63.131853" lon="12.767234">
        <ele>836.272</ele>
        <time>2011-07-07T10:55:59Z</time>
      </trkpt>
      <trkpt lat="63.131858" lon="12.767649">
        <ele>835.042</ele>
        <time>2011-07-07T10:56:06Z</time>
      </trkpt>
      <trkpt lat="63.131871" lon="12.768034">
        <ele>833.523</ele>
        <time>2011-07-07T10:56:13Z</time>
      </trkpt>
      <trkpt lat="63.131913" lon="12.768396">
        <ele>831.768</ele>
        <time>2011-07-07T10:56:19Z</time>
      </trkpt>
      <trkpt lat="63.131949" lon="12.768671">
        <ele>830.587</ele>
        <time>2011-07-07T10:56:24Z</time>
      </trkpt>
      <trkpt lat="63.131978" lon="12.768999">
        <ele>830.077</ele>
        <time>2011-07-07T10:56:30Z</time>
      </trkpt>
      <trkpt lat="63.132009" lon="12.769263">
        <ele>828.136</ele>
        <time>2011-07-07T10:56:35Z</time>
      </trkpt>
      <trkpt lat="63.132026" lon="12.769401">
        <ele>825.669</ele>
        <time>2011-07-07T10:56:42Z</time>
      </trkpt>
      <trkpt lat="63.132036" lon="12.769655">
        <ele>824.651</ele>
        <time>2011-07-07T10:56:47Z</time>
      </trkpt>
      <trkpt lat="63.132067" lon="12.770047">
        <ele>823.288</ele>
        <time>2011-07-07T10:56:53Z</time>
      </trkpt>
      <trkpt lat="63.132096" lon="12.770286">
        <ele>822.132</ele>
        <time>2011-07-07T10:56:58Z</time>
      </trkpt>
      <trkpt lat="63.132116" lon="12.770504">
        <ele>821.415</ele>
        <time>2011-07-07T10:57:03Z</time>
      </trkpt>
      <trkpt lat="63.132141" lon="12.771019">
        <ele>820.624</ele>
        <time>2011-07-07T10:57:12Z</time>
      </trkpt>
      <trkpt lat="63.132177" lon="12.771341">
        <ele>820.051</ele>
        <time>2011-07-07T10:57:18Z</time>
      </trkpt>
      <trkpt lat="63.132188" lon="12.771381">
        <ele>819.773</ele>
        <time>2011-07-07T10:57:19Z</time>
      </trkpt>
      <trkpt lat="63.132228" lon="12.77177">
        <ele>819.135</ele>
        <time>2011-07-07T10:57:27Z</time>
      </trkpt>
      <trkpt lat="63.132235" lon="12.772014">
        <ele>818.335</ele>
        <time>2011-07-07T10:57:32Z</time>
      </trkpt>
      <trkpt lat="63.132251" lon="12.772374">
        <ele>817.539</ele>
        <time>2011-07-07T10:57:38Z</time>
      </trkpt>
      <trkpt lat="63.132248" lon="12.772634">
        <ele>817.295</ele>
        <time>2011-07-07T10:57:44Z</time>
      </trkpt>
      <trkpt lat="63.132264" lon="12.772851">
        <ele>817.356</ele>
        <time>2011-07-07T10:57:52Z</time>
      </trkpt>
      <trkpt lat="63.132265" lon="12.772956">
        <ele>816.969</ele>
        <time>2011-07-07T10:57:56Z</time>
      </trkpt>
      <trkpt lat="63.132298" lon="12.77326">
        <ele>816.317</ele>
        <time>2011-07-07T10:58:06Z</time>
      </trkpt>
      <trkpt lat="63.132306" lon="12.773451">
        <ele>816.241</ele>
        <time>2011-07-07T10:58:13Z</time>
      </trkpt>
      <trkpt lat="63.132335" lon="12.773594">
        <ele>816.075</ele>
        <time>2011-07-07T10:58:19Z</time>
      </trkpt>
      <trkpt lat="63.132363" lon="12.773863">
        <ele>815.345</ele>
        <time>2011-07-07T10:58:28Z</time>
      </trkpt>
      <trkpt lat="63.132389" lon="12.774075">
        <ele>814.924</ele>
        <time>2011-07-07T10:58:35Z</time>
      </trkpt>
      <trkpt lat="63.132435" lon="12.774167">
        <ele>814.36</ele>
        <time>2011-07-07T10:58:40Z</time>
      </trkpt>
      <trkpt lat="63.13247" lon="12.774393">
        <ele>814.091</ele>
        <time>2011-07-07T10:58:48Z</time>
      </trkpt>
      <trkpt lat="63.132485" lon="12.774464">
        <ele>813.844</ele>
        <time>2011-07-07T10:58:52Z</time>
      </trkpt>
      <trkpt lat="63.132566" lon="12.774697">
        <ele>813.694</ele>
        <time>2011-07-07T10:59:02Z</time>
      </trkpt>
      <trkpt lat="63.132587" lon="12.774809">
        <ele>813.305</ele>
        <time>2011-07-07T10:59:08Z</time>
      </trkpt>
      <trkpt lat="63.132611" lon="12.774951">
        <ele>812.828</ele>
        <time>2011-07-07T10:59:14Z</time>
      </trkpt>
      <trkpt lat="63.13266" lon="12.775118">
        <ele>812.481</ele>
        <time>2011-07-07T10:59:21Z</time>
      </trkpt>
      <trkpt lat="63.132695" lon="12.775246">
        <ele>812.276</ele>
        <time>2011-07-07T10:59:26Z</time>
      </trkpt>
      <trkpt lat="63.132735" lon="12.775527">
        <ele>811.822</ele>
        <time>2011-07-07T10:59:35Z</time>
      </trkpt>
      <trkpt lat="63.132699" lon="12.775673">
        <ele>811.365</ele>
        <time>2011-07-07T10:59:40Z</time>
      </trkpt>
      <trkpt lat="63.132671" lon="12.775892">
        <ele>809.974</ele>
        <time>2011-07-07T10:59:47Z</time>
      </trkpt>
      <trkpt lat="63.132658" lon="12.776014">
        <ele>809.706</ele>
        <time>2011-07-07T10:59:51Z</time>
      </trkpt>
      <trkpt lat="63.13265" lon="12.77612">
        <ele>809.534</ele>
        <time>2011-07-07T10:59:55Z</time>
      </trkpt>
      <trkpt lat="63.132637" lon="12.7762">
        <ele>809.331</ele>
        <time>2011-07-07T10:59:58Z</time>
      </trkpt>
      <trkpt lat="63.132643" lon="12.776304">
        <ele>808.77</ele>
        <time>2011-07-07T11:00:02Z</time>
      </trkpt>
      <trkpt lat="63.132673" lon="12.776545">
        <ele>808.424</ele>
        <time>2011-07-07T11:00:10Z</time>
      </trkpt>
      <trkpt lat="63.132705" lon="12.77674">
        <ele>807.879</ele>
        <time>2011-07-07T11:00:17Z</time>
      </trkpt>
      <trkpt lat="63.132736" lon="12.776932">
        <ele>807.018</ele>
        <time>2011-07-07T11:00:25Z</time>
      </trkpt>
      <trkpt lat="63.132779" lon="12.777095">
        <ele>805.916</ele>
        <time>2011-07-07T11:00:33Z</time>
      </trkpt>
      <trkpt lat="63.132795" lon="12.77726">
        <ele>804.199</ele>
        <time>2011-07-07T11:00:39Z</time>
      </trkpt>
      <trkpt lat="63.132832" lon="12.777437">
        <ele>803.043</ele>
        <time>2011-07-07T11:00:46Z</time>
      </trkpt>
      <trkpt lat="63.132848" lon="12.777504">
        <ele>802.862</ele>
        <time>2011-07-07T11:00:49Z</time>
      </trkpt>
      <trkpt lat="63.132896" lon="12.777691">
        <ele>802.188</ele>
        <time>2011-07-07T11:00:57Z</time>
      </trkpt>
      <trkpt lat="63.132929" lon="12.777852">
        <ele>801.559</ele>
        <time>2011-07-07T11:01:01Z</time>
      </trkpt>
      <trkpt lat="63.132997" lon="12.778039">
        <ele>801.216</ele>
        <time>2011-07-07T11:01:06Z</time>
      </trkpt>
      <trkpt lat="63.133077" lon="12.778265">
        <ele>801.136</ele>
        <time>2011-07-07T11:01:13Z</time>
      </trkpt>
      <trkpt lat="63.133174" lon="12.778556">
        <ele>800.55</ele>
        <time>2011-07-07T11:01:20Z</time>
      </trkpt>
      <trkpt lat="63.133211" lon="12.7788">
        <ele>799.945</ele>
        <time>2011-07-07T11:01:26Z</time>
      </trkpt>
      <trkpt lat="63.133223" lon="12.779025">
        <ele>798.58</ele>
        <time>2011-07-07T11:01:31Z</time>
      </trkpt>
      <trkpt lat="63.13322" lon="12.779359">
        <ele>798.16</ele>
        <time>2011-07-07T11:01:38Z</time>
      </trkpt>
      <trkpt lat="63.133263" lon="12.779575">
        <ele>797.699</ele>
        <time>2011-07-07T11:01:44Z</time>
      </trkpt>
      <trkpt lat="63.133297" lon="12.779692">
        <ele>797.675</ele>
        <time>2011-07-07T11:01:50Z</time>
      </trkpt>
      <trkpt lat="63.133336" lon="12.77987">
        <ele>798.413</ele>
        <time>2011-07-07T11:01:58Z</time>
      </trkpt>
      <trkpt lat="63.13337" lon="12.780025">
        <ele>797.777</ele>
        <time>2011-07-07T11:02:06Z</time>
      </trkpt>
      <trkpt lat="63.133365" lon="12.780014">
        <ele>797.389</ele>
        <time>2011-07-07T11:02:07Z</time>
      </trkpt>
      <trkpt lat="63.133354" lon="12.779951">
        <ele>796.204</ele>
        <time>2011-07-07T11:02:13Z</time>
      </trkpt>
      <trkpt lat="63.133354" lon="12.779944">
        <ele>795.938</ele>
        <time>2011-07-07T11:02:14Z</time>
      </trkpt>
      <trkpt lat="63.133414" lon="12.780021">
        <ele>796.473</ele>
        <time>2011-07-07T11:03:01Z</time>
      </trkpt>
      <trkpt lat="63.13347" lon="12.779998">
        <ele>797.484</ele>
        <time>2011-07-07T11:03:07Z</time>
      </trkpt>
      <trkpt lat="63.133508" lon="12.780025">
        <ele>797.514</ele>
        <time>2011-07-07T11:03:10Z</time>
      </trkpt>
      <trkpt lat="63.133532" lon="12.780026">
        <ele>797.489</ele>
        <time>2011-07-07T11:03:12Z</time>
      </trkpt>
      <trkpt lat="63.13359" lon="12.780131">
        <ele>797.216</ele>
        <time>2011-07-07T11:03:18Z</time>
      </trkpt>
      <trkpt lat="63.133598" lon="12.780151">
        <ele>797.184</ele>
        <time>2011-07-07T11:03:19Z</time>
      </trkpt>
      <trkpt lat="63.133639" lon="12.780253">
        <ele>797.168</ele>
        <time>2011-07-07T11:03:25Z</time>
      </trkpt>
      <trkpt lat="63.133709" lon="12.7803">
        <ele>797.032</ele>
        <time>2011-07-07T11:03:31Z</time>
      </trkpt>
      <trkpt lat="63.133802" lon="12.780337">
        <ele>796.956</ele>
        <time>2011-07-07T11:03:39Z</time>
      </trkpt>
      <trkpt lat="63.133881" lon="12.780516">
        <ele>797.085</ele>
        <time>2011-07-07T11:03:48Z</time>
      </trkpt>
      <trkpt lat="63.133941" lon="12.780641">
        <ele>797.222</ele>
        <time>2011-07-07T11:03:52Z</time>
      </trkpt>
      <trkpt lat="63.134046" lon="12.780908">
        <ele>797.393</ele>
        <time>2011-07-07T11:03:58Z</time>
      </trkpt>
      <trkpt lat="63.13419" lon="12.781145">
        <ele>796.855</ele>
        <time>2011-07-07T11:04:05Z</time>
      </trkpt>
      <trkpt lat="63.13427" lon="12.781256">
        <ele>796.614</ele>
        <time>2011-07-07T11:04:10Z</time>
      </trkpt>
      <trkpt lat="63.134393" lon="12.781422">
        <ele>796.242</ele>
        <time>2011-07-07T11:04:16Z</time>
      </trkpt>
      <trkpt lat="63.134464" lon="12.781592">
        <ele>796.828</ele>
        <time>2011-07-07T11:04:21Z</time>
      </trkpt>
      <trkpt lat="63.134522" lon="12.781732">
        <ele>796.79</ele>
        <time>2011-07-07T11:04:26Z</time>
      </trkpt>
      <trkpt lat="63.13463" lon="12.781823">
        <ele>795.937</ele>
        <time>2011-07-07T11:04:31Z</time>
      </trkpt>
      <trkpt lat="63.134721" lon="12.781858">
        <ele>795.738</ele>
        <time>2011-07-07T11:04:40Z</time>
      </trkpt>
      <trkpt lat="63.134821" lon="12.781947">
        <ele>796.44</ele>
        <time>2011-07-07T11:04:48Z</time>
      </trkpt>
      <trkpt lat="63.134865" lon="12.781991">
        <ele>796.858</ele>
        <time>2011-07-07T11:04:52Z</time>
      </trkpt>
      <trkpt lat="63.13491" lon="12.782042">
        <ele>797.257</ele>
        <time>2011-07-07T11:04:56Z</time>
      </trkpt>
      <trkpt lat="63.134987" lon="12.782151">
        <ele>798.262</ele>
        <time>2011-07-07T11:05:04Z</time>
      </trkpt>
      <trkpt lat="63.135036" lon="12.782169">
        <ele>798.912</ele>
        <time>2011-07-07T11:05:08Z</time>
      </trkpt>
      <trkpt lat="63.135113" lon="12.782242">
        <ele>800.032</ele>
        <time>2011-07-07T11:05:13Z</time>
      </trkpt>
      <trkpt lat="63.135134" lon="12.782261">
        <ele>800.225</ele>
        <time>2011-07-07T11:05:14Z</time>
      </trkpt>
      <trkpt lat="63.135299" lon="12.782438">
        <ele>801.803</ele>
        <time>2011-07-07T11:05:22Z</time>
      </trkpt>
      <trkpt lat="63.135381" lon="12.78263">
        <ele>802.474</ele>
        <time>2011-07-07T11:05:28Z</time>
      </trkpt>
      <trkpt lat="63.135416" lon="12.782753">
        <ele>802.786</ele>
        <time>2011-07-07T11:05:33Z</time>
      </trkpt>
      <trkpt lat="63.135441" lon="12.782824">
        <ele>802.232</ele>
        <time>2011-07-07T11:05:37Z</time>
      </trkpt>
      <trkpt lat="63.135553" lon="12.782909">
        <ele>799.821</ele>
        <time>2011-07-07T11:05:46Z</time>
      </trkpt>
      <trkpt lat="63.135608" lon="12.782952">
        <ele>799.272</ele>
        <time>2011-07-07T11:05:52Z</time>
      </trkpt>
      <trkpt lat="63.13565" lon="12.782962">
        <ele>799.327</ele>
        <time>2011-07-07T11:05:54Z</time>
      </trkpt>
      <trkpt lat="63.135667" lon="12.782991">
        <ele>799.276</ele>
        <time>2011-07-07T11:05:56Z</time>
      </trkpt>
      <trkpt lat="63.135705" lon="12.783237">
        <ele>799.185</ele>
        <time>2011-07-07T11:06:05Z</time>
      </trkpt>
      <trkpt lat="63.135724" lon="12.78348">
        <ele>798.784</ele>
        <time>2011-07-07T11:06:13Z</time>
      </trkpt>
      <trkpt lat="63.135734" lon="12.78356">
        <ele>798.82</ele>
        <time>2011-07-07T11:06:16Z</time>
      </trkpt>
      <trkpt lat="63.135772" lon="12.783715">
        <ele>799.061</ele>
        <time>2011-07-07T11:06:20Z</time>
      </trkpt>
      <trkpt lat="63.135799" lon="12.783791">
        <ele>799.323</ele>
        <time>2011-07-07T11:06:22Z</time>
      </trkpt>
      <trkpt lat="63.135841" lon="12.784083">
        <ele>799.847</ele>
        <time>2011-07-07T11:06:28Z</time>
      </trkpt>
      <trkpt lat="63.135958" lon="12.784373">
        <ele>799.683</ele>
        <time>2011-07-07T11:06:35Z</time>
      </trkpt>
      <trkpt lat="63.136038" lon="12.784622">
        <ele>800.44</ele>
        <time>2011-07-07T11:06:41Z</time>
      </trkpt>
      <trkpt lat="63.136076" lon="12.78493">
        <ele>801.138</ele>
        <time>2011-07-07T11:06:47Z</time>
      </trkpt>
      <trkpt lat="63.136096" lon="12.78508">
        <ele>801.375</ele>
        <time>2011-07-07T11:06:50Z</time>
      </trkpt>
      <trkpt lat="63.13612" lon="12.785343">
        <ele>802.171</ele>
        <time>2011-07-07T11:06:56Z</time>
      </trkpt>
      <trkpt lat="63.136142" lon="12.785558">
        <ele>802.835</ele>
        <time>2011-07-07T11:07:02Z</time>
      </trkpt>
      <trkpt lat="63.136188" lon="12.785711">
        <ele>803.668</ele>
        <time>2011-07-07T11:07:09Z</time>
      </trkpt>
      <trkpt lat="63.136224" lon="12.785876">
        <ele>804.517</ele>
        <time>2011-07-07T11:07:15Z</time>
      </trkpt>
      <trkpt lat="63.136283" lon="12.785998">
        <ele>804.252</ele>
        <time>2011-07-07T11:07:19Z</time>
      </trkpt>
      <trkpt lat="63.136375" lon="12.786221">
        <ele>804.445</ele>
        <time>2011-07-07T11:07:25Z</time>
      </trkpt>
      <trkpt lat="63.136436" lon="12.786384">
        <ele>804.956</ele>
        <time>2011-07-07T11:07:30Z</time>
      </trkpt>
      <trkpt lat="63.136496" lon="12.786525">
        <ele>805.282</ele>
        <time>2011-07-07T11:07:36Z</time>
      </trkpt>
      <trkpt lat="63.136605" lon="12.786666">
        <ele>805.76</ele>
        <time>2011-07-07T11:07:45Z</time>
      </trkpt>
      <trkpt lat="63.136683" lon="12.7868">
        <ele>805.375</ele>
        <time>2011-07-07T11:07:53Z</time>
      </trkpt>
      <trkpt lat="63.13671" lon="12.786957">
        <ele>805.3</ele>
        <time>2011-07-07T11:07:59Z</time>
      </trkpt>
      <trkpt lat="63.136741" lon="12.787201">
        <ele>805.252</ele>
        <time>2011-07-07T11:08:07Z</time>
      </trkpt>
      <trkpt lat="63.136775" lon="12.787354">
        <ele>805.81</ele>
        <time>2011-07-07T11:08:13Z</time>
      </trkpt>
      <trkpt lat="63.136781" lon="12.787417">
        <ele>806.06</ele>
        <time>2011-07-07T11:08:15Z</time>
      </trkpt>
      <trkpt lat="63.136811" lon="12.787561">
        <ele>806.401</ele>
        <time>2011-07-07T11:08:22Z</time>
      </trkpt>
      <trkpt lat="63.136814" lon="12.787579">
        <ele>806.418</ele>
        <time>2011-07-07T11:08:23Z</time>
      </trkpt>
      <trkpt lat="63.136837" lon="12.787639">
        <ele>806.817</ele>
        <time>2011-07-07T11:08:27Z</time>
      </trkpt>
      <trkpt lat="63.13686" lon="12.787711">
        <ele>807.359</ele>
        <time>2011-07-07T11:08:31Z</time>
      </trkpt>
      <trkpt lat="63.136913" lon="12.787908">
        <ele>808.62</ele>
        <time>2011-07-07T11:08:39Z</time>
      </trkpt>
      <trkpt lat="63.136964" lon="12.788091">
        <ele>808.64</ele>
        <time>2011-07-07T11:08:46Z</time>
      </trkpt>
      <trkpt lat="63.137019" lon="12.788359">
        <ele>809.641</ele>
        <time>2011-07-07T11:08:56Z</time>
      </trkpt>
      <trkpt lat="63.137024" lon="12.788525">
        <ele>809.626</ele>
        <time>2011-07-07T11:09:02Z</time>
      </trkpt>
      <trkpt lat="63.137029" lon="12.788816">
        <ele>809.891</ele>
        <time>2011-07-07T11:09:11Z</time>
      </trkpt>
      <trkpt lat="63.137022" lon="12.789034">
        <ele>810.911</ele>
        <time>2011-07-07T11:09:18Z</time>
      </trkpt>
      <trkpt lat="63.137024" lon="12.789247">
        <ele>810.919</ele>
        <time>2011-07-07T11:09:25Z</time>
      </trkpt>
      <trkpt lat="63.137034" lon="12.789453">
        <ele>809.999</ele>
        <time>2011-07-07T11:09:32Z</time>
      </trkpt>
      <trkpt lat="63.137062" lon="12.789561">
        <ele>809.984</ele>
        <time>2011-07-07T11:09:37Z</time>
      </trkpt>
      <trkpt lat="63.137055" lon="12.789769">
        <ele>811.445</ele>
        <time>2011-07-07T11:09:45Z</time>
      </trkpt>
      <trkpt lat="63.137055" lon="12.789823">
        <ele>811.992</ele>
        <time>2011-07-07T11:09:47Z</time>
      </trkpt>
      <trkpt lat="63.137095" lon="12.79006">
        <ele>813.532</ele>
        <time>2011-07-07T11:09:56Z</time>
      </trkpt>
      <trkpt lat="63.137128" lon="12.790244">
        <ele>815.387</ele>
        <time>2011-07-07T11:10:03Z</time>
      </trkpt>
      <trkpt lat="63.13717" lon="12.790399">
        <ele>816.393</ele>
        <time>2011-07-07T11:10:10Z</time>
      </trkpt>
      <trkpt lat="63.1372" lon="12.790571">
        <ele>817.414</ele>
        <time>2011-07-07T11:10:16Z</time>
      </trkpt>
      <trkpt lat="63.137203" lon="12.790602">
        <ele>817.334</ele>
        <time>2011-07-07T11:10:17Z</time>
      </trkpt>
      <trkpt lat="63.13723" lon="12.790712">
        <ele>817.234</ele>
        <time>2011-07-07T11:10:21Z</time>
      </trkpt>
      <trkpt lat="63.137278" lon="12.790892">
        <ele>817.463</ele>
        <time>2011-07-07T11:10:27Z</time>
      </trkpt>
      <trkpt lat="63.137334" lon="12.791087">
        <ele>818.262</ele>
        <time>2011-07-07T11:10:32Z</time>
      </trkpt>
      <trkpt lat="63.137379" lon="12.791229">
        <ele>819.289</ele>
        <time>2011-07-07T11:10:36Z</time>
      </trkpt>
      <trkpt lat="63.137397" lon="12.791404">
        <ele>819.565</ele>
        <time>2011-07-07T11:10:41Z</time>
      </trkpt>
      <trkpt lat="63.137433" lon="12.791465">
        <ele>819.83</ele>
        <time>2011-07-07T11:10:43Z</time>
      </trkpt>
      <trkpt lat="63.13749" lon="12.791624">
        <ele>819.76</ele>
        <time>2011-07-07T11:10:48Z</time>
      </trkpt>
      <trkpt lat="63.137523" lon="12.791804">
        <ele>818.865</ele>
        <time>2011-07-07T11:10:54Z</time>
      </trkpt>
      <trkpt lat="63.13753" lon="12.79183">
        <ele>818.713</ele>
        <time>2011-07-07T11:10:55Z</time>
      </trkpt>
      <trkpt lat="63.13756" lon="12.792087">
        <ele>818.448</ele>
        <time>2011-07-07T11:11:03Z</time>
      </trkpt>
      <trkpt lat="63.137566" lon="12.792221">
        <ele>818.406</ele>
        <time>2011-07-07T11:11:07Z</time>
      </trkpt>
      <trkpt lat="63.1376" lon="12.792417">
        <ele>820.108</ele>
        <time>2011-07-07T11:11:14Z</time>
      </trkpt>
      <trkpt lat="63.137626" lon="12.792614">
        <ele>820.276</ele>
        <time>2011-07-07T11:11:21Z</time>
      </trkpt>
      <trkpt lat="63.137664" lon="12.792854">
        <ele>821.781</ele>
        <time>2011-07-07T11:11:30Z</time>
      </trkpt>
      <trkpt lat="63.137713" lon="12.79292">
        <ele>822.234</ele>
        <time>2011-07-07T11:11:35Z</time>
      </trkpt>
      <trkpt lat="63.137751" lon="12.793115">
        <ele>822.922</ele>
        <time>2011-07-07T11:11:43Z</time>
      </trkpt>
      <trkpt lat="63.137828" lon="12.793269">
        <ele>823.493</ele>
        <time>2011-07-07T11:11:50Z</time>
      </trkpt>
      <trkpt lat="63.137929" lon="12.793466">
        <ele>824.755</ele>
        <time>2011-07-07T11:12:00Z</time>
      </trkpt>
      <trkpt lat="63.137999" lon="12.793631">
        <ele>825.546</ele>
        <time>2011-07-07T11:12:07Z</time>
      </trkpt>
      <trkpt lat="63.13801" lon="12.793646">
        <ele>825.717</ele>
        <time>2011-07-07T11:12:08Z</time>
      </trkpt>
      <trkpt lat="63.138021" lon="12.793698">
        <ele>826.132</ele>
        <time>2011-07-07T11:12:10Z</time>
      </trkpt>
      <trkpt lat="63.138077" lon="12.793818">
        <ele>826.399</ele>
        <time>2011-07-07T11:12:15Z</time>
      </trkpt>
      <trkpt lat="63.138145" lon="12.793957">
        <ele>827.183</ele>
        <time>2011-07-07T11:12:22Z</time>
      </trkpt>
      <trkpt lat="63.138211" lon="12.794272">
        <ele>827.349</ele>
        <time>2011-07-07T11:12:33Z</time>
      </trkpt>
      <trkpt lat="63.138225" lon="12.79446">
        <ele>827.948</ele>
        <time>2011-07-07T11:12:38Z</time>
      </trkpt>
      <trkpt lat="63.13825" lon="12.794752">
        <ele>828.047</ele>
        <time>2011-07-07T11:12:44Z</time>
      </trkpt>
      <trkpt lat="63.138318" lon="12.794957">
        <ele>827.776</ele>
        <time>2011-07-07T11:12:49Z</time>
      </trkpt>
      <trkpt lat="63.138397" lon="12.795194">
        <ele>828.323</ele>
        <time>2011-07-07T11:12:55Z</time>
      </trkpt>
      <trkpt lat="63.138419" lon="12.79525">
        <ele>828.515</ele>
        <time>2011-07-07T11:12:57Z</time>
      </trkpt>
      <trkpt lat="63.138426" lon="12.795415">
        <ele>828.378</ele>
        <time>2011-07-07T11:13:03Z</time>
      </trkpt>
      <trkpt lat="63.138389" lon="12.795612">
        <ele>827.121</ele>
        <time>2011-07-07T11:13:09Z</time>
      </trkpt>
      <trkpt lat="63.138365" lon="12.795898">
        <ele>826.304</ele>
        <time>2011-07-07T11:13:14Z</time>
      </trkpt>
      <trkpt lat="63.138314" lon="12.796299">
        <ele>825.197</ele>
        <time>2011-07-07T11:13:21Z</time>
      </trkpt>
      <trkpt lat="63.138298" lon="12.796339">
        <ele>825.233</ele>
        <time>2011-07-07T11:13:22Z</time>
      </trkpt>
      <trkpt lat="63.138267" lon="12.796729">
        <ele>825.128</ele>
        <time>2011-07-07T11:13:29Z</time>
      </trkpt>
      <trkpt lat="63.138274" lon="12.797028">
        <ele>826.009</ele>
        <time>2011-07-07T11:13:35Z</time>
      </trkpt>
      <trkpt lat="63.138299" lon="12.797331">
        <ele>825.859</ele>
        <time>2011-07-07T11:13:41Z</time>
      </trkpt>
      <trkpt lat="63.138295" lon="12.797512">
        <ele>826.06</ele>
        <time>2011-07-07T11:13:46Z</time>
      </trkpt>
      <trkpt lat="63.138297" lon="12.797646">
        <ele>826.182</ele>
        <time>2011-07-07T11:13:51Z</time>
      </trkpt>
      <trkpt lat="63.13833" lon="12.797809">
        <ele>826.619</ele>
        <time>2011-07-07T11:13:57Z</time>
      </trkpt>
      <trkpt lat="63.138364" lon="12.798075">
        <ele>827.995</ele>
        <time>2011-07-07T11:14:06Z</time>
      </trkpt>
      <trkpt lat="63.138387" lon="12.798267">
        <ele>829.607</ele>
        <time>2011-07-07T11:14:13Z</time>
      </trkpt>
      <trkpt lat="63.138435" lon="12.798524">
        <ele>830.898</ele>
        <time>2011-07-07T11:14:20Z</time>
      </trkpt>
      <trkpt lat="63.138498" lon="12.798754">
        <ele>831.29</ele>
        <time>2011-07-07T11:14:25Z</time>
      </trkpt>
      <trkpt lat="63.13863" lon="12.798996">
        <ele>832.13</ele>
        <time>2011-07-07T11:14:32Z</time>
      </trkpt>
      <trkpt lat="63.138679" lon="12.79911">
        <ele>832.374</ele>
        <time>2011-07-07T11:14:35Z</time>
      </trkpt>
      <trkpt lat="63.138732" lon="12.799374">
        <ele>832.32</ele>
        <time>2011-07-07T11:14:41Z</time>
      </trkpt>
      <trkpt lat="63.13878" lon="12.79961">
        <ele>832.064</ele>
        <time>2011-07-07T11:14:46Z</time>
      </trkpt>
      <trkpt lat="63.138826" lon="12.799785">
        <ele>831.895</ele>
        <time>2011-07-07T11:14:50Z</time>
      </trkpt>
      <trkpt lat="63.138842" lon="12.800056">
        <ele>831.839</ele>
        <time>2011-07-07T11:14:56Z</time>
      </trkpt>
      <trkpt lat="63.138836" lon="12.800129">
        <ele>831.761</ele>
        <time>2011-07-07T11:14:58Z</time>
      </trkpt>
      <trkpt lat="63.138845" lon="12.800382">
        <ele>832.663</ele>
        <time>2011-07-07T11:15:03Z</time>
      </trkpt>
      <trkpt lat="63.138921" lon="12.800791">
        <ele>833.618</ele>
        <time>2011-07-07T11:15:11Z</time>
      </trkpt>
      <trkpt lat="63.139012" lon="12.80107">
        <ele>834.204</ele>
        <time>2011-07-07T11:15:17Z</time>
      </trkpt>
      <trkpt lat="63.139085" lon="12.801259">
        <ele>834.819</ele>
        <time>2011-07-07T11:15:22Z</time>
      </trkpt>
      <trkpt lat="63.13916" lon="12.801486">
        <ele>835.408</ele>
        <time>2011-07-07T11:15:27Z</time>
      </trkpt>
      <trkpt lat="63.139174" lon="12.801533">
        <ele>835.467</ele>
        <time>2011-07-07T11:15:28Z</time>
      </trkpt>
      <trkpt lat="63.139185" lon="12.801664">
        <ele>835.241</ele>
        <time>2011-07-07T11:15:31Z</time>
      </trkpt>
      <trkpt lat="63.139289" lon="12.801954">
        <ele>834.127</ele>
        <time>2011-07-07T11:15:38Z</time>
      </trkpt>
      <trkpt lat="63.139355" lon="12.802179">
        <ele>833.759</ele>
        <time>2011-07-07T11:15:43Z</time>
      </trkpt>
      <trkpt lat="63.13937" lon="12.802227">
        <ele>833.572</ele>
        <time>2011-07-07T11:15:44Z</time>
      </trkpt>
      <trkpt lat="63.139467" lon="12.802564">
        <ele>833.478</ele>
        <time>2011-07-07T11:15:51Z</time>
      </trkpt>
      <trkpt lat="63.139516" lon="12.802723">
        <ele>833.536</ele>
        <time>2011-07-07T11:15:55Z</time>
      </trkpt>
      <trkpt lat="63.139569" lon="12.803068">
        <ele>834.063</ele>
        <time>2011-07-07T11:16:02Z</time>
      </trkpt>
      <trkpt lat="63.13962" lon="12.803324">
        <ele>834.354</ele>
        <time>2011-07-07T11:16:07Z</time>
      </trkpt>
      <trkpt lat="63.139684" lon="12.803471">
        <ele>834.381</ele>
        <time>2011-07-07T11:16:11Z</time>
      </trkpt>
      <trkpt lat="63.139722" lon="12.803534">
        <ele>834.468</ele>
        <time>2011-07-07T11:16:13Z</time>
      </trkpt>
      <trkpt lat="63.13978" lon="12.803833">
        <ele>834.225</ele>
        <time>2011-07-07T11:16:20Z</time>
      </trkpt>
      <trkpt lat="63.139799" lon="12.804211">
        <ele>834.559</ele>
        <time>2011-07-07T11:16:28Z</time>
      </trkpt>
      <trkpt lat="63.139849" lon="12.804403">
        <ele>835.338</ele>
        <time>2011-07-07T11:16:33Z</time>
      </trkpt>
      <trkpt lat="63.139911" lon="12.804606">
        <ele>835.628</ele>
        <time>2011-07-07T11:16:41Z</time>
      </trkpt>
      <trkpt lat="63.139949" lon="12.804801">
        <ele>835.566</ele>
        <time>2011-07-07T11:16:48Z</time>
      </trkpt>
      <trkpt lat="63.139988" lon="12.804971">
        <ele>835.782</ele>
        <time>2011-07-07T11:16:55Z</time>
      </trkpt>
      <trkpt lat="63.140044" lon="12.80514">
        <ele>836.084</ele>
        <time>2011-07-07T11:17:02Z</time>
      </trkpt>
      <trkpt lat="63.140083" lon="12.805289">
        <ele>836.429</ele>
        <time>2011-07-07T11:17:09Z</time>
      </trkpt>
      <trkpt lat="63.140088" lon="12.805498">
        <ele>837.207</ele>
        <time>2011-07-07T11:17:18Z</time>
      </trkpt>
      <trkpt lat="63.140062" lon="12.80571">
        <ele>838.48</ele>
        <time>2011-07-07T11:17:26Z</time>
      </trkpt>
      <trkpt lat="63.140056" lon="12.805906">
        <ele>838.878</ele>
        <time>2011-07-07T11:17:33Z</time>
      </trkpt>
      <trkpt lat="63.140021" lon="12.806117">
        <ele>838.875</ele>
        <time>2011-07-07T11:17:41Z</time>
      </trkpt>
      <trkpt lat="63.140008" lon="12.806194">
        <ele>839.163</ele>
        <time>2011-07-07T11:17:47Z</time>
      </trkpt>
      <trkpt lat="63.140007" lon="12.80625">
        <ele>838.981</ele>
        <time>2011-07-07T11:17:57Z</time>
      </trkpt>
      <trkpt lat="63.139972" lon="12.806451">
        <ele>838.797</ele>
        <time>2011-07-07T11:18:06Z</time>
      </trkpt>
      <trkpt lat="63.139934" lon="12.806669">
        <ele>837.957</ele>
        <time>2011-07-07T11:18:14Z</time>
      </trkpt>
      <trkpt lat="63.139919" lon="12.806962">
        <ele>837.061</ele>
        <time>2011-07-07T11:18:24Z</time>
      </trkpt>
      <trkpt lat="63.139907" lon="12.807129">
        <ele>836.447</ele>
        <time>2011-07-07T11:18:30Z</time>
      </trkpt>
      <trkpt lat="63.139841" lon="12.807446">
        <ele>835.988</ele>
        <time>2011-07-07T11:18:42Z</time>
      </trkpt>
      <trkpt lat="63.139781" lon="12.807704">
        <ele>836.576</ele>
        <time>2011-07-07T11:18:48Z</time>
      </trkpt>
      <trkpt lat="63.13972" lon="12.808027">
        <ele>837.365</ele>
        <time>2011-07-07T11:18:54Z</time>
      </trkpt>
      <trkpt lat="63.139715" lon="12.808141">
        <ele>837.861</ele>
        <time>2011-07-07T11:18:56Z</time>
      </trkpt>
      <trkpt lat="63.139677" lon="12.808454">
        <ele>838.697</ele>
        <time>2011-07-07T11:19:02Z</time>
      </trkpt>
      <trkpt lat="63.139645" lon="12.808584">
        <ele>838.618</ele>
        <time>2011-07-07T11:19:05Z</time>
      </trkpt>
      <trkpt lat="63.139562" lon="12.80894">
        <ele>837.807</ele>
        <time>2011-07-07T11:19:13Z</time>
      </trkpt>
      <trkpt lat="63.139508" lon="12.809182">
        <ele>836.658</ele>
        <time>2011-07-07T11:19:18Z</time>
      </trkpt>
      <trkpt lat="63.139483" lon="12.809273">
        <ele>836.438</ele>
        <time>2011-07-07T11:19:20Z</time>
      </trkpt>
      <trkpt lat="63.139442" lon="12.809494">
        <ele>835.845</ele>
        <time>2011-07-07T11:19:24Z</time>
      </trkpt>
      <trkpt lat="63.139334" lon="12.809716">
        <ele>833.883</ele>
        <time>2011-07-07T11:19:30Z</time>
      </trkpt>
      <trkpt lat="63.139265" lon="12.809926">
        <ele>834.089</ele>
        <time>2011-07-07T11:19:35Z</time>
      </trkpt>
      <trkpt lat="63.139224" lon="12.810042">
        <ele>833.444</ele>
        <time>2011-07-07T11:19:38Z</time>
      </trkpt>
      <trkpt lat="63.139136" lon="12.810169">
        <ele>831.842</ele>
        <time>2011-07-07T11:19:42Z</time>
      </trkpt>
      <trkpt lat="63.139066" lon="12.81034">
        <ele>831.279</ele>
        <time>2011-07-07T11:19:46Z</time>
      </trkpt>
      <trkpt lat="63.138977" lon="12.810608">
        <ele>830.118</ele>
        <time>2011-07-07T11:19:52Z</time>
      </trkpt>
      <trkpt lat="63.138902" lon="12.810826">
        <ele>827.992</ele>
        <time>2011-07-07T11:19:58Z</time>
      </trkpt>
      <trkpt lat="63.138836" lon="12.811059">
        <ele>825.63</ele>
        <time>2011-07-07T11:20:03Z</time>
      </trkpt>
      <trkpt lat="63.138754" lon="12.811353">
        <ele>823.418</ele>
        <time>2011-07-07T11:20:09Z</time>
      </trkpt>
      <trkpt lat="63.138676" lon="12.81156">
        <ele>822.573</ele>
        <time>2011-07-07T11:20:14Z</time>
      </trkpt>
      <trkpt lat="63.138578" lon="12.81174">
        <ele>821.123</ele>
        <time>2011-07-07T11:20:19Z</time>
      </trkpt>
      <trkpt lat="63.138467" lon="12.811958">
        <ele>820.086</ele>
        <time>2011-07-07T11:20:25Z</time>
      </trkpt>
      <trkpt lat="63.138395" lon="12.812123">
        <ele>818.791</ele>
        <time>2011-07-07T11:20:29Z</time>
      </trkpt>
      <trkpt lat="63.138366" lon="12.812367">
        <ele>817.744</ele>
        <time>2011-07-07T11:20:34Z</time>
      </trkpt>
      <trkpt lat="63.138327" lon="12.812671">
        <ele>816.432</ele>
        <time>2011-07-07T11:20:40Z</time>
      </trkpt>
      <trkpt lat="63.13833" lon="12.813025">
        <ele>814.578</ele>
        <time>2011-07-07T11:20:47Z</time>
      </trkpt>
      <trkpt lat="63.138331" lon="12.813119">
        <ele>813.237</ele>
        <time>2011-07-07T11:20:51Z</time>
      </trkpt>
      <trkpt lat="63.138345" lon="12.813208">
        <ele>812.383</ele>
        <time>2011-07-07T11:20:55Z</time>
      </trkpt>
      <trkpt lat="63.138412" lon="12.813499">
        <ele>811.513</ele>
        <time>2011-07-07T11:21:02Z</time>
      </trkpt>
      <trkpt lat="63.138442" lon="12.813823">
        <ele>810.333</ele>
        <time>2011-07-07T11:21:08Z</time>
      </trkpt>
      <trkpt lat="63.138394" lon="12.814299">
        <ele>809.41</ele>
        <time>2011-07-07T11:21:16Z</time>
      </trkpt>
      <trkpt lat="63.138352" lon="12.81463">
        <ele>809.364</ele>
        <time>2011-07-07T11:21:22Z</time>
      </trkpt>
      <trkpt lat="63.138351" lon="12.814793">
        <ele>810.069</ele>
        <time>2011-07-07T11:21:27Z</time>
      </trkpt>
      <trkpt lat="63.138318" lon="12.814942">
        <ele>809.101</ele>
        <time>2011-07-07T11:21:34Z</time>
      </trkpt>
      <trkpt lat="63.138259" lon="12.815096">
        <ele>807.031</ele>
        <time>2011-07-07T11:21:42Z</time>
      </trkpt>
      <trkpt lat="63.138249" lon="12.815134">
        <ele>806.818</ele>
        <time>2011-07-07T11:21:44Z</time>
      </trkpt>
      <trkpt lat="63.13822" lon="12.815257">
        <ele>805.741</ele>
        <time>2011-07-07T11:21:51Z</time>
      </trkpt>
      <trkpt lat="63.138206" lon="12.815284">
        <ele>805.293</ele>
        <time>2011-07-07T11:21:53Z</time>
      </trkpt>
      <trkpt lat="63.138156" lon="12.815333">
        <ele>803.626</ele>
        <time>2011-07-07T11:22:00Z</time>
      </trkpt>
      <trkpt lat="63.138121" lon="12.815428">
        <ele>801.958</ele>
        <time>2011-07-07T11:22:05Z</time>
      </trkpt>
      <trkpt lat="63.138039" lon="12.815515">
        <ele>799.974</ele>
        <time>2011-07-07T11:22:12Z</time>
      </trkpt>
      <trkpt lat="63.138021" lon="12.81558">
        <ele>799.611</ele>
        <time>2011-07-07T11:22:15Z</time>
      </trkpt>
      <trkpt lat="63.137984" lon="12.815691">
        <ele>799.12</ele>
        <time>2011-07-07T11:22:19Z</time>
      </trkpt>
      <trkpt lat="63.137936" lon="12.815747">
        <ele>798.593</ele>
        <time>2011-07-07T11:22:24Z</time>
      </trkpt>
      <trkpt lat="63.137878" lon="12.815855">
        <ele>796.644</ele>
        <time>2011-07-07T11:22:33Z</time>
      </trkpt>
      <trkpt lat="63.137834" lon="12.815926">
        <ele>795.615</ele>
        <time>2011-07-07T11:22:39Z</time>
      </trkpt>
      <trkpt lat="63.137815" lon="12.81595">
        <ele>795.159</ele>
        <time>2011-07-07T11:22:41Z</time>
      </trkpt>
      <trkpt lat="63.137769" lon="12.816151">
        <ele>792.886</ele>
        <time>2011-07-07T11:22:48Z</time>
      </trkpt>
      <trkpt lat="63.137744" lon="12.816318">
        <ele>791.326</ele>
        <time>2011-07-07T11:22:54Z</time>
      </trkpt>
      <trkpt lat="63.13773" lon="12.816424">
        <ele>790.372</ele>
        <time>2011-07-07T11:22:58Z</time>
      </trkpt>
      <trkpt lat="63.137713" lon="12.816507">
        <ele>789.593</ele>
        <time>2011-07-07T11:23:01Z</time>
      </trkpt>
      <trkpt lat="63.137679" lon="12.816596">
        <ele>788.429</ele>
        <time>2011-07-07T11:23:06Z</time>
      </trkpt>
      <trkpt lat="63.137661" lon="12.816808">
        <ele>786.615</ele>
        <time>2011-07-07T11:23:15Z</time>
      </trkpt>
      <trkpt lat="63.137668" lon="12.816883">
        <ele>785.252</ele>
        <time>2011-07-07T11:23:20Z</time>
      </trkpt>
      <trkpt lat="63.137699" lon="12.817015">
        <ele>782.634</ele>
        <time>2011-07-07T11:23:28Z</time>
      </trkpt>
      <trkpt lat="63.137703" lon="12.817045">
        <ele>781.79</ele>
        <time>2011-07-07T11:23:30Z</time>
      </trkpt>
      <trkpt lat="63.137712" lon="12.817124">
        <ele>780.4</ele>
        <time>2011-07-07T11:23:35Z</time>
      </trkpt>
      <trkpt lat="63.137718" lon="12.817303">
        <ele>778.972</ele>
        <time>2011-07-07T11:23:42Z</time>
      </trkpt>
      <trkpt lat="63.137683" lon="12.817454">
        <ele>777.412</ele>
        <time>2011-07-07T11:23:47Z</time>
      </trkpt>
      <trkpt lat="63.137668" lon="12.817512">
        <ele>776.566</ele>
        <time>2011-07-07T11:23:49Z</time>
      </trkpt>
      <trkpt lat="63.137633" lon="12.81758">
        <ele>775.393</ele>
        <time>2011-07-07T11:23:52Z</time>
      </trkpt>
      <trkpt lat="63.137594" lon="12.817719">
        <ele>773.696</ele>
        <time>2011-07-07T11:23:57Z</time>
      </trkpt>
      <trkpt lat="63.137504" lon="12.817993">
        <ele>772.234</ele>
        <time>2011-07-07T11:24:03Z</time>
      </trkpt>
      <trkpt lat="63.137464" lon="12.818238">
        <ele>771.607</ele>
        <time>2011-07-07T11:24:08Z</time>
      </trkpt>
      <trkpt lat="63.137429" lon="12.818494">
        <ele>771.037</ele>
        <time>2011-07-07T11:24:13Z</time>
      </trkpt>
      <trkpt lat="63.137394" lon="12.818666">
        <ele>770.685</ele>
        <time>2011-07-07T11:24:17Z</time>
      </trkpt>
      <trkpt lat="63.137317" lon="12.818809">
        <ele>769.394</ele>
        <time>2011-07-07T11:24:23Z</time>
      </trkpt>
      <trkpt lat="63.137299" lon="12.818836">
        <ele>769.202</ele>
        <time>2011-07-07T11:24:24Z</time>
      </trkpt>
      <trkpt lat="63.137216" lon="12.818978">
        <ele>768.208</ele>
        <time>2011-07-07T11:24:29Z</time>
      </trkpt>
      <trkpt lat="63.1372" lon="12.819006">
        <ele>768.053</ele>
        <time>2011-07-07T11:24:30Z</time>
      </trkpt>
      <trkpt lat="63.137153" lon="12.819251">
        <ele>766.287</ele>
        <time>2011-07-07T11:24:36Z</time>
      </trkpt>
      <trkpt lat="63.137059" lon="12.819528">
        <ele>764.006</ele>
        <time>2011-07-07T11:24:42Z</time>
      </trkpt>
      <trkpt lat="63.13701" lon="12.819813">
        <ele>762.369</ele>
        <time>2011-07-07T11:24:48Z</time>
      </trkpt>
      <trkpt lat="63.137012" lon="12.819859">
        <ele>762.112</ele>
        <time>2011-07-07T11:24:49Z</time>
      </trkpt>
      <trkpt lat="63.137003" lon="12.819948">
        <ele>761.756</ele>
        <time>2011-07-07T11:24:51Z</time>
      </trkpt>
      <trkpt lat="63.137018" lon="12.820151">
        <ele>760.904</ele>
        <time>2011-07-07T11:24:57Z</time>
      </trkpt>
      <trkpt lat="63.137032" lon="12.820383">
        <ele>760.399</ele>
        <time>2011-07-07T11:25:02Z</time>
      </trkpt>
      <trkpt lat="63.137023" lon="12.820461">
        <ele>759.54</ele>
        <time>2011-07-07T11:25:05Z</time>
      </trkpt>
      <trkpt lat="63.13701" lon="12.820528">
        <ele>758.823</ele>
        <time>2011-07-07T11:25:07Z</time>
      </trkpt>
      <trkpt lat="63.136981" lon="12.820755">
        <ele>757.006</ele>
        <time>2011-07-07T11:25:13Z</time>
      </trkpt>
      <trkpt lat="63.136965" lon="12.82096">
        <ele>755.369</ele>
        <time>2011-07-07T11:25:19Z</time>
      </trkpt>
      <trkpt lat="63.136972" lon="12.821102">
        <ele>753.904</ele>
        <time>2011-07-07T11:25:25Z</time>
      </trkpt>
      <trkpt lat="63.136973" lon="12.821177">
        <ele>753.275</ele>
        <time>2011-07-07T11:25:28Z</time>
      </trkpt>
      <trkpt lat="63.136973" lon="12.821267">
        <ele>752.908</ele>
        <time>2011-07-07T11:25:32Z</time>
      </trkpt>
      <trkpt lat="63.136977" lon="12.821401">
        <ele>752.194</ele>
        <time>2011-07-07T11:25:37Z</time>
      </trkpt>
      <trkpt lat="63.136978" lon="12.821568">
        <ele>749.924</ele>
        <time>2011-07-07T11:25:44Z</time>
      </trkpt>
      <trkpt lat="63.136973" lon="12.821691">
        <ele>748.908</ele>
        <time>2011-07-07T11:25:49Z</time>
      </trkpt>
      <trkpt lat="63.136998" lon="12.821789">
        <ele>747.894</ele>
        <time>2011-07-07T11:25:54Z</time>
      </trkpt>
      <trkpt lat="63.137012" lon="12.821915">
        <ele>747.245</ele>
        <time>2011-07-07T11:25:59Z</time>
      </trkpt>
      <trkpt lat="63.137017" lon="12.821962">
        <ele>746.866</ele>
        <time>2011-07-07T11:26:01Z</time>
      </trkpt>
      <trkpt lat="63.137046" lon="12.822112">
        <ele>745.513</ele>
        <time>2011-07-07T11:26:08Z</time>
      </trkpt>
      <trkpt lat="63.137051" lon="12.822205">
        <ele>745.042</ele>
        <time>2011-07-07T11:26:11Z</time>
      </trkpt>
      <trkpt lat="63.137082" lon="12.822285">
        <ele>744.224</ele>
        <time>2011-07-07T11:26:15Z</time>
      </trkpt>
      <trkpt lat="63.137088" lon="12.822298">
        <ele>744.097</ele>
        <time>2011-07-07T11:26:16Z</time>
      </trkpt>
      <trkpt lat="63.137137" lon="12.822489">
        <ele>742.957</ele>
        <time>2011-07-07T11:26:26Z</time>
      </trkpt>
      <trkpt lat="63.137172" lon="12.822749">
        <ele>741.793</ele>
        <time>2011-07-07T11:26:44Z</time>
      </trkpt>
      <trkpt lat="63.137166" lon="12.822811">
        <ele>740.991</ele>
        <time>2011-07-07T11:26:47Z</time>
      </trkpt>
      <trkpt lat="63.137145" lon="12.823044">
        <ele>739.152</ele>
        <time>2011-07-07T11:26:55Z</time>
      </trkpt>
      <trkpt lat="63.137134" lon="12.823171">
        <ele>738.545</ele>
        <time>2011-07-07T11:27:01Z</time>
      </trkpt>
      <trkpt lat="63.137133" lon="12.82324">
        <ele>738.536</ele>
        <time>2011-07-07T11:27:04Z</time>
      </trkpt>
      <trkpt lat="63.137117" lon="12.823371">
        <ele>738.242</ele>
        <time>2011-07-07T11:27:09Z</time>
      </trkpt>
      <trkpt lat="63.137113" lon="12.823538">
        <ele>736.176</ele>
        <time>2011-07-07T11:27:14Z</time>
      </trkpt>
      <trkpt lat="63.13711" lon="12.823618">
        <ele>735.406</ele>
        <time>2011-07-07T11:27:16Z</time>
      </trkpt>
      <trkpt lat="63.137074" lon="12.824009">
        <ele>735.567</ele>
        <time>2011-07-07T11:27:23Z</time>
      </trkpt>
      <trkpt lat="63.137049" lon="12.824297">
        <ele>734.196</ele>
        <time>2011-07-07T11:27:31Z</time>
      </trkpt>
      <trkpt lat="63.137041" lon="12.824424">
        <ele>731.718</ele>
        <time>2011-07-07T11:27:38Z</time>
      </trkpt>
      <trkpt lat="63.137035" lon="12.824473">
        <ele>730.948</ele>
        <time>2011-07-07T11:27:40Z</time>
      </trkpt>
      <trkpt lat="63.137033" lon="12.824506">
        <ele>730.797</ele>
        <time>2011-07-07T11:27:41Z</time>
      </trkpt>
      <trkpt lat="63.137027" lon="12.824652">
        <ele>729.928</ele>
        <time>2011-07-07T11:27:46Z</time>
      </trkpt>
      <trkpt lat="63.137009" lon="12.824852">
        <ele>728.367</ele>
        <time>2011-07-07T11:27:53Z</time>
      </trkpt>
      <trkpt lat="63.137007" lon="12.824892">
        <ele>727.67</ele>
        <time>2011-07-07T11:27:55Z</time>
      </trkpt>
      <trkpt lat="63.136994" lon="12.825059">
        <ele>725.665</ele>
        <time>2011-07-07T11:28:02Z</time>
      </trkpt>
      <trkpt lat="63.136991" lon="12.825162">
        <ele>724.547</ele>
        <time>2011-07-07T11:28:06Z</time>
      </trkpt>
      <trkpt lat="63.136989" lon="12.825327">
        <ele>722.674</ele>
        <time>2011-07-07T11:28:13Z</time>
      </trkpt>
      <trkpt lat="63.136986" lon="12.825344">
        <ele>722.457</ele>
        <time>2011-07-07T11:28:14Z</time>
      </trkpt>
      <trkpt lat="63.136979" lon="12.825444">
        <ele>721.73</ele>
        <time>2011-07-07T11:28:19Z</time>
      </trkpt>
      <trkpt lat="63.136964" lon="12.825506">
        <ele>720.861</ele>
        <time>2011-07-07T11:28:22Z</time>
      </trkpt>
      <trkpt lat="63.136939" lon="12.825623">
        <ele>720.054</ele>
        <time>2011-07-07T11:28:27Z</time>
      </trkpt>
      <trkpt lat="63.136903" lon="12.825863">
        <ele>719.049</ele>
        <time>2011-07-07T11:28:34Z</time>
      </trkpt>
      <trkpt lat="63.136894" lon="12.826072">
        <ele>717.294</ele>
        <time>2011-07-07T11:28:41Z</time>
      </trkpt>
      <trkpt lat="63.136907" lon="12.826117">
        <ele>717.017</ele>
        <time>2011-07-07T11:28:43Z</time>
      </trkpt>
      <trkpt lat="63.136923" lon="12.826223">
        <ele>715.982</ele>
        <time>2011-07-07T11:28:47Z</time>
      </trkpt>
      <trkpt lat="63.136919" lon="12.826412">
        <ele>714.382</ele>
        <time>2011-07-07T11:28:54Z</time>
      </trkpt>
      <trkpt lat="63.136891" lon="12.826633">
        <ele>712.269</ele>
        <time>2011-07-07T11:29:01Z</time>
      </trkpt>
      <trkpt lat="63.13686" lon="12.826834">
        <ele>710.36</ele>
        <time>2011-07-07T11:29:08Z</time>
      </trkpt>
      <trkpt lat="63.136864" lon="12.826871">
        <ele>710.05</ele>
        <time>2011-07-07T11:29:09Z</time>
      </trkpt>
      <trkpt lat="63.136884" lon="12.827101">
        <ele>708.654</ele>
        <time>2011-07-07T11:29:17Z</time>
      </trkpt>
      <trkpt lat="63.136887" lon="12.827126">
        <ele>708.469</ele>
        <time>2011-07-07T11:29:18Z</time>
      </trkpt>
      <trkpt lat="63.136906" lon="12.827428">
        <ele>704.798</ele>
        <time>2011-07-07T11:29:26Z</time>
      </trkpt>
      <trkpt lat="63.136912" lon="12.827515">
        <ele>703.975</ele>
        <time>2011-07-07T11:29:28Z</time>
      </trkpt>
      <trkpt lat="63.136903" lon="12.827782">
        <ele>701.811</ele>
        <time>2011-07-07T11:29:35Z</time>
      </trkpt>
      <trkpt lat="63.136899" lon="12.8279">
        <ele>700.585</ele>
        <time>2011-07-07T11:29:40Z</time>
      </trkpt>
      <trkpt lat="63.136901" lon="12.828007">
        <ele>699.153</ele>
        <time>2011-07-07T11:29:44Z</time>
      </trkpt>
      <trkpt lat="63.136885" lon="12.828194">
        <ele>697.705</ele>
        <time>2011-07-07T11:29:51Z</time>
      </trkpt>
      <trkpt lat="63.136889" lon="12.828397">
        <ele>696.559</ele>
        <time>2011-07-07T11:29:58Z</time>
      </trkpt>
      <trkpt lat="63.136885" lon="12.828562">
        <ele>695.635</ele>
        <time>2011-07-07T11:30:04Z</time>
      </trkpt>
      <trkpt lat="63.136892" lon="12.828779">
        <ele>695.233</ele>
        <time>2011-07-07T11:30:10Z</time>
      </trkpt>
      <trkpt lat="63.136893" lon="12.828935">
        <ele>694.88</ele>
        <time>2011-07-07T11:30:14Z</time>
      </trkpt>
      <trkpt lat="63.136909" lon="12.829354">
        <ele>694.127</ele>
        <time>2011-07-07T11:30:34Z</time>
      </trkpt>
      <trkpt lat="63.136904" lon="12.829446">
        <ele>694.817</ele>
        <time>2011-07-07T11:30:39Z</time>
      </trkpt>
      <trkpt lat="63.136885" lon="12.829585">
        <ele>695.722</ele>
        <time>2011-07-07T11:30:46Z</time>
      </trkpt>
      <trkpt lat="63.136857" lon="12.829714">
        <ele>696.416</ele>
        <time>2011-07-07T11:30:53Z</time>
      </trkpt>
      <trkpt lat="63.136848" lon="12.829747">
        <ele>696.604</ele>
        <time>2011-07-07T11:30:55Z</time>
      </trkpt>
      <trkpt lat="63.13685" lon="12.829871">
        <ele>696.916</ele>
        <time>2011-07-07T11:31:01Z</time>
      </trkpt>
      <trkpt lat="63.136836" lon="12.829908">
        <ele>697.109</ele>
        <time>2011-07-07T11:31:03Z</time>
      </trkpt>
      <trkpt lat="63.136811" lon="12.830022">
        <ele>697.455</ele>
        <time>2011-07-07T11:31:06Z</time>
      </trkpt>
      <trkpt lat="63.136743" lon="12.830169">
        <ele>697.668</ele>
        <time>2011-07-07T11:31:11Z</time>
      </trkpt>
      <trkpt lat="63.13665" lon="12.830397">
        <ele>696.992</ele>
        <time>2011-07-07T11:31:18Z</time>
      </trkpt>
      <trkpt lat="63.136599" lon="12.830489">
        <ele>696.624</ele>
        <time>2011-07-07T11:31:22Z</time>
      </trkpt>
      <trkpt lat="63.136536" lon="12.830792">
        <ele>696.923</ele>
        <time>2011-07-07T11:31:29Z</time>
      </trkpt>
      <trkpt lat="63.136529" lon="12.830832">
        <ele>697.014</ele>
        <time>2011-07-07T11:31:30Z</time>
      </trkpt>
      <trkpt lat="63.136453" lon="12.831119">
        <ele>697.334</ele>
        <time>2011-07-07T11:31:36Z</time>
      </trkpt>
      <trkpt lat="63.136403" lon="12.831349">
        <ele>696.147</ele>
        <time>2011-07-07T11:31:41Z</time>
      </trkpt>
      <trkpt lat="63.136313" lon="12.831532">
        <ele>696.181</ele>
        <time>2011-07-07T11:31:46Z</time>
      </trkpt>
      <trkpt lat="63.136235" lon="12.831812">
        <ele>696.077</ele>
        <time>2011-07-07T11:31:53Z</time>
      </trkpt>
      <trkpt lat="63.136177" lon="12.832">
        <ele>695.078</ele>
        <time>2011-07-07T11:31:57Z</time>
      </trkpt>
      <trkpt lat="63.136121" lon="12.832172">
        <ele>694.48</ele>
        <time>2011-07-07T11:32:01Z</time>
      </trkpt>
      <trkpt lat="63.136038" lon="12.832364">
        <ele>693.404</ele>
        <time>2011-07-07T11:32:06Z</time>
      </trkpt>
      <trkpt lat="63.136029" lon="12.832409">
        <ele>693.229</ele>
        <time>2011-07-07T11:32:07Z</time>
      </trkpt>
      <trkpt lat="63.135997" lon="12.83268">
        <ele>692.591</ele>
        <time>2011-07-07T11:32:14Z</time>
      </trkpt>
      <trkpt lat="63.135966" lon="12.832827">
        <ele>692.085</ele>
        <time>2011-07-07T11:32:19Z</time>
      </trkpt>
      <trkpt lat="63.13594" lon="12.833149">
        <ele>691.279</ele>
        <time>2011-07-07T11:32:27Z</time>
      </trkpt>
      <trkpt lat="63.135943" lon="12.833418">
        <ele>691.091</ele>
        <time>2011-07-07T11:32:33Z</time>
      </trkpt>
      <trkpt lat="63.135945" lon="12.833666">
        <ele>691.53</ele>
        <time>2011-07-07T11:32:39Z</time>
      </trkpt>
      <trkpt lat="63.136043" lon="12.834099">
        <ele>691.899</ele>
        <time>2011-07-07T11:32:48Z</time>
      </trkpt>
      <trkpt lat="63.136072" lon="12.834347">
        <ele>693.297</ele>
        <time>2011-07-07T11:32:55Z</time>
      </trkpt>
      <trkpt lat="63.136071" lon="12.834594">
        <ele>693.707</ele>
        <time>2011-07-07T11:33:00Z</time>
      </trkpt>
      <trkpt lat="63.136063" lon="12.83494">
        <ele>694.205</ele>
        <time>2011-07-07T11:33:06Z</time>
      </trkpt>
      <trkpt lat="63.136088" lon="12.835239">
        <ele>694.323</ele>
        <time>2011-07-07T11:33:11Z</time>
      </trkpt>
      <trkpt lat="63.136118" lon="12.83558">
        <ele>694.465</ele>
        <time>2011-07-07T11:33:17Z</time>
      </trkpt>
      <trkpt lat="63.136122" lon="12.8359">
        <ele>695.55</ele>
        <time>2011-07-07T11:33:23Z</time>
      </trkpt>
      <trkpt lat="63.136108" lon="12.836191">
        <ele>695.98</ele>
        <time>2011-07-07T11:33:29Z</time>
      </trkpt>
      <trkpt lat="63.136096" lon="12.836282">
        <ele>696.063</ele>
        <time>2011-07-07T11:33:31Z</time>
      </trkpt>
      <trkpt lat="63.136047" lon="12.836549">
        <ele>696.098</ele>
        <time>2011-07-07T11:33:37Z</time>
      </trkpt>
      <trkpt lat="63.136029" lon="12.836858">
        <ele>695.958</ele>
        <time>2011-07-07T11:33:43Z</time>
      </trkpt>
      <trkpt lat="63.13606" lon="12.837134">
        <ele>696.086</ele>
        <time>2011-07-07T11:33:49Z</time>
      </trkpt>
      <trkpt lat="63.136083" lon="12.837303">
        <ele>696.598</ele>
        <time>2011-07-07T11:33:53Z</time>
      </trkpt>
      <trkpt lat="63.136061" lon="12.837668">
        <ele>697.162</ele>
        <time>2011-07-07T11:34:00Z</time>
      </trkpt>
      <trkpt lat="63.136031" lon="12.838027">
        <ele>696.918</ele>
        <time>2011-07-07T11:34:06Z</time>
      </trkpt>
      <trkpt lat="63.136027" lon="12.838287">
        <ele>696.155</ele>
        <time>2011-07-07T11:34:11Z</time>
      </trkpt>
      <trkpt lat="63.135979" lon="12.838584">
        <ele>695.32</ele>
        <time>2011-07-07T11:34:17Z</time>
      </trkpt>
      <trkpt lat="63.135949" lon="12.838928">
        <ele>695.165</ele>
        <time>2011-07-07T11:34:23Z</time>
      </trkpt>
      <trkpt lat="63.135912" lon="12.8392">
        <ele>695.457</ele>
        <time>2011-07-07T11:34:29Z</time>
      </trkpt>
      <trkpt lat="63.135897" lon="12.839434">
        <ele>695.312</ele>
        <time>2011-07-07T11:34:37Z</time>
      </trkpt>
      <trkpt lat="63.135859" lon="12.83968">
        <ele>694.627</ele>
        <time>2011-07-07T11:34:42Z</time>
      </trkpt>
      <trkpt lat="63.135821" lon="12.839825">
        <ele>694.406</ele>
        <time>2011-07-07T11:34:45Z</time>
      </trkpt>
      <trkpt lat="63.135759" lon="12.840057">
        <ele>694.47</ele>
        <time>2011-07-07T11:34:51Z</time>
      </trkpt>
      <trkpt lat="63.135752" lon="12.840123">
        <ele>694.605</ele>
        <time>2011-07-07T11:34:53Z</time>
      </trkpt>
      <trkpt lat="63.135718" lon="12.840466">
        <ele>693.458</ele>
        <time>2011-07-07T11:35:00Z</time>
      </trkpt>
      <trkpt lat="63.135685" lon="12.840649">
        <ele>692.427</ele>
        <time>2011-07-07T11:35:05Z</time>
      </trkpt>
      <trkpt lat="63.135659" lon="12.840831">
        <ele>692.016</ele>
        <time>2011-07-07T11:35:11Z</time>
      </trkpt>
      <trkpt lat="63.135644" lon="12.840999">
        <ele>691.757</ele>
        <time>2011-07-07T11:35:17Z</time>
      </trkpt>
      <trkpt lat="63.135637" lon="12.841192">
        <ele>691.539</ele>
        <time>2011-07-07T11:35:24Z</time>
      </trkpt>
      <trkpt lat="63.135611" lon="12.841429">
        <ele>690.705</ele>
        <time>2011-07-07T11:35:31Z</time>
      </trkpt>
      <trkpt lat="63.135608" lon="12.841477">
        <ele>690.446</ele>
        <time>2011-07-07T11:35:35Z</time>
      </trkpt>
      <trkpt lat="63.135605" lon="12.841573">
        <ele>690.399</ele>
        <time>2011-07-07T11:35:42Z</time>
      </trkpt>
      <trkpt lat="63.135592" lon="12.841615">
        <ele>690.523</ele>
        <time>2011-07-07T11:35:47Z</time>
      </trkpt>
      <trkpt lat="63.13555" lon="12.841773">
        <ele>690.479</ele>
        <time>2011-07-07T11:35:55Z</time>
      </trkpt>
      <trkpt lat="63.135548" lon="12.841793">
        <ele>690.497</ele>
        <time>2011-07-07T11:35:56Z</time>
      </trkpt>
      <trkpt lat="63.135552" lon="12.841835">
        <ele>690.635</ele>
        <time>2011-07-07T11:35:59Z</time>
      </trkpt>
      <trkpt lat="63.135527" lon="12.841902">
        <ele>690.675</ele>
        <time>2011-07-07T11:36:02Z</time>
      </trkpt>
      <trkpt lat="63.135476" lon="12.842093">
        <ele>690.442</ele>
        <time>2011-07-07T11:36:09Z</time>
      </trkpt>
      <trkpt lat="63.135439" lon="12.84223">
        <ele>689.91</ele>
        <time>2011-07-07T11:36:15Z</time>
      </trkpt>
      <trkpt lat="63.135426" lon="12.842257">
        <ele>689.777</ele>
        <time>2011-07-07T11:36:17Z</time>
      </trkpt>
      <trkpt lat="63.135376" lon="12.842316">
        <ele>689.988</ele>
        <time>2011-07-07T11:36:22Z</time>
      </trkpt>
      <trkpt lat="63.135351" lon="12.842419">
        <ele>690.887</ele>
        <time>2011-07-07T11:36:25Z</time>
      </trkpt>
      <trkpt lat="63.135292" lon="12.842545">
        <ele>689.998</ele>
        <time>2011-07-07T11:36:29Z</time>
      </trkpt>
      <trkpt lat="63.135211" lon="12.842788">
        <ele>688.7</ele>
        <time>2011-07-07T11:36:35Z</time>
      </trkpt>
      <trkpt lat="63.135133" lon="12.84293">
        <ele>687.599</ele>
        <time>2011-07-07T11:36:40Z</time>
      </trkpt>
      <trkpt lat="63.135125" lon="12.84301">
        <ele>687.366</ele>
        <time>2011-07-07T11:36:43Z</time>
      </trkpt>
      <trkpt lat="63.135065" lon="12.843186">
        <ele>686.466</ele>
        <time>2011-07-07T11:36:49Z</time>
      </trkpt>
      <trkpt lat="63.135008" lon="12.843379">
        <ele>686.138</ele>
        <time>2011-07-07T11:36:54Z</time>
      </trkpt>
      <trkpt lat="63.134996" lon="12.84345">
        <ele>686.005</ele>
        <time>2011-07-07T11:36:56Z</time>
      </trkpt>
      <trkpt lat="63.135001" lon="12.84367">
        <ele>685.24</ele>
        <time>2011-07-07T11:37:01Z</time>
      </trkpt>
      <trkpt lat="63.134944" lon="12.843878">
        <ele>684.386</ele>
        <time>2011-07-07T11:37:07Z</time>
      </trkpt>
      <trkpt lat="63.134892" lon="12.843965">
        <ele>683.989</ele>
        <time>2011-07-07T11:37:10Z</time>
      </trkpt>
      <trkpt lat="63.134873" lon="12.84416">
        <ele>683.154</ele>
        <time>2011-07-07T11:37:15Z</time>
      </trkpt>
      <trkpt lat="63.134854" lon="12.844352">
        <ele>681.724</ele>
        <time>2011-07-07T11:37:20Z</time>
      </trkpt>
      <trkpt lat="63.134833" lon="12.844449">
        <ele>680.363</ele>
        <time>2011-07-07T11:37:23Z</time>
      </trkpt>
      <trkpt lat="63.134796" lon="12.844771">
        <ele>678.121</ele>
        <time>2011-07-07T11:37:30Z</time>
      </trkpt>
      <trkpt lat="63.13473" lon="12.845055">
        <ele>676.525</ele>
        <time>2011-07-07T11:37:35Z</time>
      </trkpt>
      <trkpt lat="63.13469" lon="12.845369">
        <ele>675.328</ele>
        <time>2011-07-07T11:37:40Z</time>
      </trkpt>
      <trkpt lat="63.134684" lon="12.845489">
        <ele>675.166</ele>
        <time>2011-07-07T11:37:42Z</time>
      </trkpt>
      <trkpt lat="63.134683" lon="12.845678">
        <ele>674.976</ele>
        <time>2011-07-07T11:37:46Z</time>
      </trkpt>
      <trkpt lat="63.134705" lon="12.84583">
        <ele>674.847</ele>
        <time>2011-07-07T11:37:49Z</time>
      </trkpt>
      <trkpt lat="63.134725" lon="12.846136">
        <ele>674.355</ele>
        <time>2011-07-07T11:37:55Z</time>
      </trkpt>
      <trkpt lat="63.134652" lon="12.8466">
        <ele>673.343</ele>
        <time>2011-07-07T11:38:03Z</time>
      </trkpt>
      <trkpt lat="63.134621" lon="12.847018">
        <ele>673.112</ele>
        <time>2011-07-07T11:38:09Z</time>
      </trkpt>
      <trkpt lat="63.134612" lon="12.84746">
        <ele>672.471</ele>
        <time>2011-07-07T11:38:16Z</time>
      </trkpt>
      <trkpt lat="63.134615" lon="12.847736">
        <ele>672.042</ele>
        <time>2011-07-07T11:38:21Z</time>
      </trkpt>
      <trkpt lat="63.134597" lon="12.848004">
        <ele>671.202</ele>
        <time>2011-07-07T11:38:26Z</time>
      </trkpt>
      <trkpt lat="63.134608" lon="12.848199">
        <ele>672.098</ele>
        <time>2011-07-07T11:38:33Z</time>
      </trkpt>
      <trkpt lat="63.134603" lon="12.848343">
        <ele>672.165</ele>
        <time>2011-07-07T11:38:39Z</time>
      </trkpt>
      <trkpt lat="63.134596" lon="12.84838">
        <ele>671.978</ele>
        <time>2011-07-07T11:38:41Z</time>
      </trkpt>
      <trkpt lat="63.134558" lon="12.848507">
        <ele>671.73</ele>
        <time>2011-07-07T11:38:48Z</time>
      </trkpt>
      <trkpt lat="63.134537" lon="12.848576">
        <ele>671.786</ele>
        <time>2011-07-07T11:38:51Z</time>
      </trkpt>
      <trkpt lat="63.134533" lon="12.848587">
        <ele>671.829</ele>
        <time>2011-07-07T11:38:52Z</time>
      </trkpt>
      <trkpt lat="63.134495" lon="12.848709">
        <ele>671.708</ele>
        <time>2011-07-07T11:38:57Z</time>
      </trkpt>
      <trkpt lat="63.134483" lon="12.84894">
        <ele>671.852</ele>
        <time>2011-07-07T11:39:05Z</time>
      </trkpt>
      <trkpt lat="63.134478" lon="12.849">
        <ele>671.304</ele>
        <time>2011-07-07T11:39:10Z</time>
      </trkpt>
      <trkpt lat="63.13445" lon="12.849132">
        <ele>671.274</ele>
        <time>2011-07-07T11:39:17Z</time>
      </trkpt>
      <trkpt lat="63.134449" lon="12.849156">
        <ele>671.154</ele>
        <time>2011-07-07T11:39:18Z</time>
      </trkpt>
      <trkpt lat="63.134402" lon="12.849393">
        <ele>670.902</ele>
        <time>2011-07-07T11:39:26Z</time>
      </trkpt>
      <trkpt lat="63.134385" lon="12.849462">
        <ele>670.647</ele>
        <time>2011-07-07T11:39:29Z</time>
      </trkpt>
      <trkpt lat="63.134339" lon="12.84964">
        <ele>670.008</ele>
        <time>2011-07-07T11:39:36Z</time>
      </trkpt>
      <trkpt lat="63.134321" lon="12.849816">
        <ele>669.59</ele>
        <time>2011-07-07T11:39:43Z</time>
      </trkpt>
      <trkpt lat="63.134287" lon="12.850002">
        <ele>668.472</ele>
        <time>2011-07-07T11:39:50Z</time>
      </trkpt>
      <trkpt lat="63.134283" lon="12.850057">
        <ele>668.136</ele>
        <time>2011-07-07T11:39:53Z</time>
      </trkpt>
      <trkpt lat="63.134258" lon="12.850176">
        <ele>667.103</ele>
        <time>2011-07-07T11:39:59Z</time>
      </trkpt>
      <trkpt lat="63.134222" lon="12.850306">
        <ele>666.17</ele>
        <time>2011-07-07T11:40:05Z</time>
      </trkpt>
      <trkpt lat="63.134196" lon="12.850377">
        <ele>665.727</ele>
        <time>2011-07-07T11:40:10Z</time>
      </trkpt>
      <trkpt lat="63.134188" lon="12.850411">
        <ele>665.885</ele>
        <time>2011-07-07T11:40:14Z</time>
      </trkpt>
      <trkpt lat="63.134154" lon="12.850491">
        <ele>665.401</ele>
        <time>2011-07-07T11:40:19Z</time>
      </trkpt>
      <trkpt lat="63.13408" lon="12.85068">
        <ele>665.444</ele>
        <time>2011-07-07T11:40:28Z</time>
      </trkpt>
      <trkpt lat="63.134018" lon="12.850863">
        <ele>665.889</ele>
        <time>2011-07-07T11:40:37Z</time>
      </trkpt>
      <trkpt lat="63.134002" lon="12.8509">
        <ele>665.44</ele>
        <time>2011-07-07T11:40:39Z</time>
      </trkpt>
      <trkpt lat="63.133931" lon="12.851071">
        <ele>664.718</ele>
        <time>2011-07-07T11:40:46Z</time>
      </trkpt>
      <trkpt lat="63.133917" lon="12.851133">
        <ele>664.424</ele>
        <time>2011-07-07T11:40:48Z</time>
      </trkpt>
      <trkpt lat="63.133884" lon="12.851253">
        <ele>663.665</ele>
        <time>2011-07-07T11:40:53Z</time>
      </trkpt>
      <trkpt lat="63.133847" lon="12.851404">
        <ele>663.47</ele>
        <time>2011-07-07T11:40:59Z</time>
      </trkpt>
      <trkpt lat="63.133794" lon="12.851593">
        <ele>663.737</ele>
        <time>2011-07-07T11:41:05Z</time>
      </trkpt>
      <trkpt lat="63.133736" lon="12.851734">
        <ele>663.31</ele>
        <time>2011-07-07T11:41:11Z</time>
      </trkpt>
      <trkpt lat="63.133698" lon="12.851826">
        <ele>663.307</ele>
        <time>2011-07-07T11:41:14Z</time>
      </trkpt>
      <trkpt lat="63.133642" lon="12.851964">
        <ele>662.768</ele>
        <time>2011-07-07T11:41:18Z</time>
      </trkpt>
      <trkpt lat="63.133634" lon="12.852008">
        <ele>662.63</ele>
        <time>2011-07-07T11:41:19Z</time>
      </trkpt>
      <trkpt lat="63.133576" lon="12.852181">
        <ele>662.479</ele>
        <time>2011-07-07T11:41:25Z</time>
      </trkpt>
      <trkpt lat="63.133568" lon="12.852208">
        <ele>662.486</ele>
        <time>2011-07-07T11:41:26Z</time>
      </trkpt>
      <trkpt lat="63.133533" lon="12.852397">
        <ele>661.429</ele>
        <time>2011-07-07T11:41:31Z</time>
      </trkpt>
      <trkpt lat="63.133492" lon="12.852593">
        <ele>660.583</ele>
        <time>2011-07-07T11:41:36Z</time>
      </trkpt>
      <trkpt lat="63.133459" lon="12.852864">
        <ele>658.207</ele>
        <time>2011-07-07T11:41:43Z</time>
      </trkpt>
      <trkpt lat="63.133418" lon="12.85294">
        <ele>657.29</ele>
        <time>2011-07-07T11:41:46Z</time>
      </trkpt>
      <trkpt lat="63.133383" lon="12.852989">
        <ele>656.422</ele>
        <time>2011-07-07T11:41:49Z</time>
      </trkpt>
      <trkpt lat="63.133324" lon="12.853128">
        <ele>655.648</ele>
        <time>2011-07-07T11:41:55Z</time>
      </trkpt>
      <trkpt lat="63.133266" lon="12.853278">
        <ele>654.839</ele>
        <time>2011-07-07T11:42:00Z</time>
      </trkpt>
      <trkpt lat="63.133197" lon="12.853465">
        <ele>654.373</ele>
        <time>2011-07-07T11:42:07Z</time>
      </trkpt>
      <trkpt lat="63.13317" lon="12.853526">
        <ele>654.227</ele>
        <time>2011-07-07T11:42:10Z</time>
      </trkpt>
      <trkpt lat="63.133157" lon="12.853604">
        <ele>653.848</ele>
        <time>2011-07-07T11:42:13Z</time>
      </trkpt>
      <trkpt lat="63.133096" lon="12.85378">
        <ele>652.907</ele>
        <time>2011-07-07T11:42:20Z</time>
      </trkpt>
      <trkpt lat="63.133061" lon="12.85389">
        <ele>652.98</ele>
        <time>2011-07-07T11:42:25Z</time>
      </trkpt>
      <trkpt lat="63.133051" lon="12.853927">
        <ele>652.983</ele>
        <time>2011-07-07T11:42:26Z</time>
      </trkpt>
      <trkpt lat="63.133014" lon="12.854032">
        <ele>651.908</ele>
        <time>2011-07-07T11:42:31Z</time>
      </trkpt>
      <trkpt lat="63.132973" lon="12.854259">
        <ele>651.033</ele>
        <time>2011-07-07T11:42:39Z</time>
      </trkpt>
      <trkpt lat="63.132987" lon="12.85449">
        <ele>650.005</ele>
        <time>2011-07-07T11:42:45Z</time>
      </trkpt>
      <trkpt lat="63.132991" lon="12.854688">
        <ele>649.684</ele>
        <time>2011-07-07T11:42:49Z</time>
      </trkpt>
      <trkpt lat="63.132979" lon="12.854845">
        <ele>649.341</ele>
        <time>2011-07-07T11:42:53Z</time>
      </trkpt>
      <trkpt lat="63.132983" lon="12.854921">
        <ele>649.082</ele>
        <time>2011-07-07T11:42:57Z</time>
      </trkpt>
      <trkpt lat="63.132975" lon="12.85496">
        <ele>648.915</ele>
        <time>2011-07-07T11:42:59Z</time>
      </trkpt>
      <trkpt lat="63.1329" lon="12.855137">
        <ele>648.434</ele>
        <time>2011-07-07T11:43:04Z</time>
      </trkpt>
      <trkpt lat="63.132873" lon="12.855232">
        <ele>647.917</ele>
        <time>2011-07-07T11:43:08Z</time>
      </trkpt>
      <trkpt lat="63.132856" lon="12.855272">
        <ele>647.839</ele>
        <time>2011-07-07T11:43:09Z</time>
      </trkpt>
      <trkpt lat="63.132817" lon="12.855477">
        <ele>647.838</ele>
        <time>2011-07-07T11:43:14Z</time>
      </trkpt>
      <trkpt lat="63.132723" lon="12.855702">
        <ele>647.35</ele>
        <time>2011-07-07T11:43:19Z</time>
      </trkpt>
      <trkpt lat="63.13263" lon="12.855963">
        <ele>647.647</ele>
        <time>2011-07-07T11:43:32Z</time>
      </trkpt>
      <trkpt lat="63.132594" lon="12.856032">
        <ele>647.594</ele>
        <time>2011-07-07T11:43:35Z</time>
      </trkpt>
      <trkpt lat="63.132526" lon="12.856224">
        <ele>647.524</ele>
        <time>2011-07-07T11:43:42Z</time>
      </trkpt>
      <trkpt lat="63.132485" lon="12.85634">
        <ele>646.938</ele>
        <time>2011-07-07T11:43:46Z</time>
      </trkpt>
      <trkpt lat="63.132426" lon="12.856523">
        <ele>645.731</ele>
        <time>2011-07-07T11:43:53Z</time>
      </trkpt>
      <trkpt lat="63.132394" lon="12.856686">
        <ele>644.944</ele>
        <time>2011-07-07T11:43:59Z</time>
      </trkpt>
      <trkpt lat="63.132362" lon="12.856809">
        <ele>643.863</ele>
        <time>2011-07-07T11:44:03Z</time>
      </trkpt>
      <trkpt lat="63.13229" lon="12.857">
        <ele>642.39</ele>
        <time>2011-07-07T11:44:10Z</time>
      </trkpt>
      <trkpt lat="63.132278" lon="12.85703">
        <ele>642.206</ele>
        <time>2011-07-07T11:44:11Z</time>
      </trkpt>
      <trkpt lat="63.132207" lon="12.857204">
        <ele>639.853</ele>
        <time>2011-07-07T11:44:17Z</time>
      </trkpt>
      <trkpt lat="63.132164" lon="12.857306">
        <ele>639.478</ele>
        <time>2011-07-07T11:44:21Z</time>
      </trkpt>
      <trkpt lat="63.132108" lon="12.8575">
        <ele>638.601</ele>
        <time>2011-07-07T11:44:28Z</time>
      </trkpt>
      <trkpt lat="63.132096" lon="12.857589">
        <ele>637.587</ele>
        <time>2011-07-07T11:44:31Z</time>
      </trkpt>
      <trkpt lat="63.13206" lon="12.857833">
        <ele>636.417</ele>
        <time>2011-07-07T11:44:37Z</time>
      </trkpt>
      <trkpt lat="63.13202" lon="12.858071">
        <ele>636.67</ele>
        <time>2011-07-07T11:44:42Z</time>
      </trkpt>
      <trkpt lat="63.132007" lon="12.85827">
        <ele>636.249</ele>
        <time>2011-07-07T11:44:46Z</time>
      </trkpt>
      <trkpt lat="63.132079" lon="12.858764">
        <ele>635.974</ele>
        <time>2011-07-07T11:44:55Z</time>
      </trkpt>
      <trkpt lat="63.132214" lon="12.859129">
        <ele>635.792</ele>
        <time>2011-07-07T11:45:04Z</time>
      </trkpt>
      <trkpt lat="63.132297" lon="12.859281">
        <ele>635.351</ele>
        <time>2011-07-07T11:45:12Z</time>
      </trkpt>
      <trkpt lat="63.132338" lon="12.859327">
        <ele>635.136</ele>
        <time>2011-07-07T11:45:16Z</time>
      </trkpt>
      <trkpt lat="63.132438" lon="12.859402">
        <ele>635.038</ele>
        <time>2011-07-07T11:45:21Z</time>
      </trkpt>
      <trkpt lat="63.132479" lon="12.859565">
        <ele>634.869</ele>
        <time>2011-07-07T11:45:27Z</time>
      </trkpt>
      <trkpt lat="63.132557" lon="12.859691">
        <ele>634.534</ele>
        <time>2011-07-07T11:45:33Z</time>
      </trkpt>
      <trkpt lat="63.132599" lon="12.859815">
        <ele>634.348</ele>
        <time>2011-07-07T11:45:38Z</time>
      </trkpt>
      <trkpt lat="63.132609" lon="12.859877">
        <ele>634.312</ele>
        <time>2011-07-07T11:45:40Z</time>
      </trkpt>
      <trkpt lat="63.132672" lon="12.860008">
        <ele>633.981</ele>
        <time>2011-07-07T11:45:46Z</time>
      </trkpt>
      <trkpt lat="63.13274" lon="12.860186">
        <ele>633.514</ele>
        <time>2011-07-07T11:45:54Z</time>
      </trkpt>
      <trkpt lat="63.132751" lon="12.860359">
        <ele>633.179</ele>
        <time>2011-07-07T11:45:58Z</time>
      </trkpt>
      <trkpt lat="63.132751" lon="12.860571">
        <ele>632.692</ele>
        <time>2011-07-07T11:46:03Z</time>
      </trkpt>
      <trkpt lat="63.132772" lon="12.860691">
        <ele>633.013</ele>
        <time>2011-07-07T11:46:07Z</time>
      </trkpt>
      <trkpt lat="63.13279" lon="12.860755">
        <ele>646.589</ele>
        <time>2011-07-07T11:46:09Z</time>
      </trkpt>
      <trkpt lat="63.132884" lon="12.860906">
        <ele>646.382</ele>
        <time>2011-07-07T11:46:13Z</time>
      </trkpt>
      <trkpt lat="63.132921" lon="12.86098">
        <ele>646.402</ele>
        <time>2011-07-07T11:46:15Z</time>
      </trkpt>
      <trkpt lat="63.133013" lon="12.861245">
        <ele>645.112</ele>
        <time>2011-07-07T11:46:21Z</time>
      </trkpt>
      <trkpt lat="63.133027" lon="12.861454">
        <ele>643.256</ele>
        <time>2011-07-07T11:46:26Z</time>
      </trkpt>
      <trkpt lat="63.133038" lon="12.861484">
        <ele>643.016</ele>
        <time>2011-07-07T11:46:27Z</time>
      </trkpt>
      <trkpt lat="63.133046" lon="12.861514">
        <ele>642.629</ele>
        <time>2011-07-07T11:46:28Z</time>
      </trkpt>
      <trkpt lat="63.133136" lon="12.861764">
        <ele>641.732</ele>
        <time>2011-07-07T11:46:34Z</time>
      </trkpt>
      <trkpt lat="63.133166" lon="12.861963">
        <ele>641.151</ele>
        <time>2011-07-07T11:46:40Z</time>
      </trkpt>
      <trkpt lat="63.133223" lon="12.862199">
        <ele>641.099</ele>
        <time>2011-07-07T11:46:46Z</time>
      </trkpt>
      <trkpt lat="63.133226" lon="12.86259">
        <ele>641.192</ele>
        <time>2011-07-07T11:46:54Z</time>
      </trkpt>
      <trkpt lat="63.133238" lon="12.862909">
        <ele>641.579</ele>
        <time>2011-07-07T11:47:03Z</time>
      </trkpt>
      <trkpt lat="63.133249" lon="12.863101">
        <ele>642.226</ele>
        <time>2011-07-07T11:47:10Z</time>
      </trkpt>
      <trkpt lat="63.133276" lon="12.863331">
        <ele>643.093</ele>
        <time>2011-07-07T11:47:18Z</time>
      </trkpt>
      <trkpt lat="63.133315" lon="12.863497">
        <ele>643.494</ele>
        <time>2011-07-07T11:47:25Z</time>
      </trkpt>
      <trkpt lat="63.13334" lon="12.863586">
        <ele>643.679</ele>
        <time>2011-07-07T11:47:28Z</time>
      </trkpt>
      <trkpt lat="63.133339" lon="12.863685">
        <ele>643.54</ele>
        <time>2011-07-07T11:47:31Z</time>
      </trkpt>
      <trkpt lat="63.13338" lon="12.863955">
        <ele>643.622</ele>
        <time>2011-07-07T11:47:38Z</time>
      </trkpt>
      <trkpt lat="63.133444" lon="12.864173">
        <ele>643.403</ele>
        <time>2011-07-07T11:47:44Z</time>
      </trkpt>
      <trkpt lat="63.133508" lon="12.864267">
        <ele>642.337</ele>
        <time>2011-07-07T11:47:48Z</time>
      </trkpt>
      <trkpt lat="63.133556" lon="12.864321">
        <ele>641.184</ele>
        <time>2011-07-07T11:47:51Z</time>
      </trkpt>
      <trkpt lat="63.133632" lon="12.864465">
        <ele>638.536</ele>
        <time>2011-07-07T11:47:57Z</time>
      </trkpt>
      <trkpt lat="63.133703" lon="12.864586">
        <ele>636.71</ele>
        <time>2011-07-07T11:48:01Z</time>
      </trkpt>
      <trkpt lat="63.13377" lon="12.864852">
        <ele>635.614</ele>
        <time>2011-07-07T11:48:08Z</time>
      </trkpt>
      <trkpt lat="63.133834" lon="12.865037">
        <ele>635.214</ele>
        <time>2011-07-07T11:48:13Z</time>
      </trkpt>
      <trkpt lat="63.133862" lon="12.865083">
        <ele>635.152</ele>
        <time>2011-07-07T11:48:15Z</time>
      </trkpt>
      <trkpt lat="63.133889" lon="12.865163">
        <ele>634.882</ele>
        <time>2011-07-07T11:48:18Z</time>
      </trkpt>
      <trkpt lat="63.133927" lon="12.865408">
        <ele>634.122</ele>
        <time>2011-07-07T11:48:24Z</time>
      </trkpt>
      <trkpt lat="63.133949" lon="12.865456">
        <ele>633.878</ele>
        <time>2011-07-07T11:48:27Z</time>
      </trkpt>
      <trkpt lat="63.133963" lon="12.865602">
        <ele>633.715</ele>
        <time>2011-07-07T11:48:32Z</time>
      </trkpt>
      <trkpt lat="63.133992" lon="12.865819">
        <ele>633.177</ele>
        <time>2011-07-07T11:48:40Z</time>
      </trkpt>
      <trkpt lat="63.134016" lon="12.86588">
        <ele>632.948</ele>
        <time>2011-07-07T11:48:43Z</time>
      </trkpt>
      <trkpt lat="63.134047" lon="12.86601">
        <ele>632.441</ele>
        <time>2011-07-07T11:48:48Z</time>
      </trkpt>
      <trkpt lat="63.134053" lon="12.866083">
        <ele>632.285</ele>
        <time>2011-07-07T11:48:51Z</time>
      </trkpt>
      <trkpt lat="63.134103" lon="12.866378">
        <ele>631.388</ele>
        <time>2011-07-07T11:49:11Z</time>
      </trkpt>
      <trkpt lat="63.134115" lon="12.866475">
        <ele>630.918</ele>
        <time>2011-07-07T11:49:17Z</time>
      </trkpt>
      <trkpt lat="63.134116" lon="12.866509">
        <ele>630.917</ele>
        <time>2011-07-07T11:49:19Z</time>
      </trkpt>
      <trkpt lat="63.13414" lon="12.866647">
        <ele>629.967</ele>
        <time>2011-07-07T11:49:25Z</time>
      </trkpt>
      <trkpt lat="63.134148" lon="12.86676">
        <ele>629.394</ele>
        <time>2011-07-07T11:49:30Z</time>
      </trkpt>
      <trkpt lat="63.134167" lon="12.866968">
        <ele>628.927</ele>
        <time>2011-07-07T11:49:38Z</time>
      </trkpt>
      <trkpt lat="63.134179" lon="12.867131">
        <ele>628.036</ele>
        <time>2011-07-07T11:49:45Z</time>
      </trkpt>
      <trkpt lat="63.134195" lon="12.867284">
        <ele>627.569</ele>
        <time>2011-07-07T11:49:52Z</time>
      </trkpt>
      <trkpt lat="63.134212" lon="12.867348">
        <ele>627.257</ele>
        <time>2011-07-07T11:49:56Z</time>
      </trkpt>
      <trkpt lat="63.134228" lon="12.867396">
        <ele>627.099</ele>
        <time>2011-07-07T11:49:59Z</time>
      </trkpt>
      <trkpt lat="63.134237" lon="12.867485">
        <ele>626.697</ele>
        <time>2011-07-07T11:50:03Z</time>
      </trkpt>
      <trkpt lat="63.134242" lon="12.867632">
        <ele>626.272</ele>
        <time>2011-07-07T11:50:09Z</time>
      </trkpt>
      <trkpt lat="63.134263" lon="12.867723">
        <ele>626.023</ele>
        <time>2011-07-07T11:50:14Z</time>
      </trkpt>
      <trkpt lat="63.134283" lon="12.867891">
        <ele>625.66</ele>
        <time>2011-07-07T11:50:21Z</time>
      </trkpt>
      <trkpt lat="63.134292" lon="12.868082">
        <ele>626.245</ele>
        <time>2011-07-07T11:50:30Z</time>
      </trkpt>
      <trkpt lat="63.134306" lon="12.86818">
        <ele>625.868</ele>
        <time>2011-07-07T11:50:35Z</time>
      </trkpt>
      <trkpt lat="63.134309" lon="12.868196">
        <ele>625.778</ele>
        <time>2011-07-07T11:50:36Z</time>
      </trkpt>
      <trkpt lat="63.134327" lon="12.868297">
        <ele>625.467</ele>
        <time>2011-07-07T11:50:40Z</time>
      </trkpt>
      <trkpt lat="63.134372" lon="12.868471">
        <ele>624.989</ele>
        <time>2011-07-07T11:50:45Z</time>
      </trkpt>
      <trkpt lat="63.134423" lon="12.868741">
        <ele>624.75</ele>
        <time>2011-07-07T11:50:51Z</time>
      </trkpt>
      <trkpt lat="63.13446" lon="12.868928">
        <ele>624.416</ele>
        <time>2011-07-07T11:50:56Z</time>
      </trkpt>
      <trkpt lat="63.134546" lon="12.869136">
        <ele>623.431</ele>
        <time>2011-07-07T11:51:01Z</time>
      </trkpt>
      <trkpt lat="63.134656" lon="12.869421">
        <ele>621.708</ele>
        <time>2011-07-07T11:51:06Z</time>
      </trkpt>
      <trkpt lat="63.134723" lon="12.869681">
        <ele>621.494</ele>
        <time>2011-07-07T11:51:11Z</time>
      </trkpt>
      <trkpt lat="63.134739" lon="12.869789">
        <ele>621.661</ele>
        <time>2011-07-07T11:51:13Z</time>
      </trkpt>
      <trkpt lat="63.134748" lon="12.869956">
        <ele>621.49</ele>
        <time>2011-07-07T11:51:16Z</time>
      </trkpt>
      <trkpt lat="63.134834" lon="12.870284">
        <ele>620.373</ele>
        <time>2011-07-07T11:51:22Z</time>
      </trkpt>
      <trkpt lat="63.134873" lon="12.870475">
        <ele>619.716</ele>
        <time>2011-07-07T11:51:25Z</time>
      </trkpt>
      <trkpt lat="63.134897" lon="12.870862">
        <ele>618.736</ele>
        <time>2011-07-07T11:51:32Z</time>
      </trkpt>
      <trkpt lat="63.134924" lon="12.87105">
        <ele>618.571</ele>
        <time>2011-07-07T11:51:36Z</time>
      </trkpt>
      <trkpt lat="63.134979" lon="12.87136">
        <ele>618.279</ele>
        <time>2011-07-07T11:51:42Z</time>
      </trkpt>
      <trkpt lat="63.135042" lon="12.871576">
        <ele>618.262</ele>
        <time>2011-07-07T11:51:47Z</time>
      </trkpt>
      <trkpt lat="63.135089" lon="12.871902">
        <ele>618.161</ele>
        <time>2011-07-07T11:51:52Z</time>
      </trkpt>
      <trkpt lat="63.135096" lon="12.871949">
        <ele>618.088</ele>
        <time>2011-07-07T11:51:53Z</time>
      </trkpt>
      <trkpt lat="63.135146" lon="12.872365">
        <ele>617.449</ele>
        <time>2011-07-07T11:52:00Z</time>
      </trkpt>
      <trkpt lat="63.13516" lon="12.872408">
        <ele>617.381</ele>
        <time>2011-07-07T11:52:01Z</time>
      </trkpt>
      <trkpt lat="63.135187" lon="12.872639">
        <ele>616.754</ele>
        <time>2011-07-07T11:52:05Z</time>
      </trkpt>
      <trkpt lat="63.135192" lon="12.872975">
        <ele>616.848</ele>
        <time>2011-07-07T11:52:12Z</time>
      </trkpt>
      <trkpt lat="63.135188" lon="12.873039">
        <ele>617.07</ele>
        <time>2011-07-07T11:52:14Z</time>
      </trkpt>
      <trkpt lat="63.135187" lon="12.873252">
        <ele>617.012</ele>
        <time>2011-07-07T11:52:19Z</time>
      </trkpt>
      <trkpt lat="63.135202" lon="12.873383">
        <ele>616.117</ele>
        <time>2011-07-07T11:52:22Z</time>
      </trkpt>
      <trkpt lat="63.135203" lon="12.873479">
        <ele>615.487</ele>
        <time>2011-07-07T11:52:24Z</time>
      </trkpt>
      <trkpt lat="63.135211" lon="12.873737">
        <ele>614.65</ele>
        <time>2011-07-07T11:52:30Z</time>
      </trkpt>
      <trkpt lat="63.135209" lon="12.873784">
        <ele>614.516</ele>
        <time>2011-07-07T11:52:31Z</time>
      </trkpt>
      <trkpt lat="63.135198" lon="12.874062">
        <ele>613.136</ele>
        <time>2011-07-07T11:52:37Z</time>
      </trkpt>
      <trkpt lat="63.135163" lon="12.874327">
        <ele>612.268</ele>
        <time>2011-07-07T11:52:42Z</time>
      </trkpt>
      <trkpt lat="63.135117" lon="12.87457">
        <ele>611.712</ele>
        <time>2011-07-07T11:52:47Z</time>
      </trkpt>
      <trkpt lat="63.135086" lon="12.874801">
        <ele>611.265</ele>
        <time>2011-07-07T11:52:51Z</time>
      </trkpt>
      <trkpt lat="63.135115" lon="12.875062">
        <ele>611.021</ele>
        <time>2011-07-07T11:52:55Z</time>
      </trkpt>
      <trkpt lat="63.135119" lon="12.875125">
        <ele>610.885</ele>
        <time>2011-07-07T11:52:56Z</time>
      </trkpt>
      <trkpt lat="63.135166" lon="12.875549">
        <ele>609.625</ele>
        <time>2011-07-07T11:53:03Z</time>
      </trkpt>
      <trkpt lat="63.135147" lon="12.875785">
        <ele>608.938</ele>
        <time>2011-07-07T11:53:08Z</time>
      </trkpt>
      <trkpt lat="63.135125" lon="12.876016">
        <ele>607.4</ele>
        <time>2011-07-07T11:53:14Z</time>
      </trkpt>
      <trkpt lat="63.135145" lon="12.876063">
        <ele>607.269</ele>
        <time>2011-07-07T11:53:15Z</time>
      </trkpt>
      <trkpt lat="63.135236" lon="12.876745">
        <ele>606.505</ele>
        <time>2011-07-07T11:54:06Z</time>
      </trkpt>
      <trkpt lat="63.13524" lon="12.87688">
        <ele>606.011</ele>
        <time>2011-07-07T11:54:13Z</time>
      </trkpt>
      <trkpt lat="63.135229" lon="12.877005">
        <ele>606.293</ele>
        <time>2011-07-07T11:54:19Z</time>
      </trkpt>
      <trkpt lat="63.135216" lon="12.877113">
        <ele>605.534</ele>
        <time>2011-07-07T11:54:23Z</time>
      </trkpt>
      <trkpt lat="63.13521" lon="12.877328">
        <ele>604.718</ele>
        <time>2011-07-07T11:54:30Z</time>
      </trkpt>
      <trkpt lat="63.13521" lon="12.877349">
        <ele>604.585</ele>
        <time>2011-07-07T11:54:31Z</time>
      </trkpt>
      <trkpt lat="63.135176" lon="12.877482">
        <ele>604.424</ele>
        <time>2011-07-07T11:54:37Z</time>
      </trkpt>
      <trkpt lat="63.135046" lon="12.87771">
        <ele>604.384</ele>
        <time>2011-07-07T11:54:47Z</time>
      </trkpt>
      <trkpt lat="63.134992" lon="12.877802">
        <ele>604.739</ele>
        <time>2011-07-07T11:54:51Z</time>
      </trkpt>
      <trkpt lat="63.134917" lon="12.877864">
        <ele>604.803</ele>
        <time>2011-07-07T11:54:56Z</time>
      </trkpt>
      <trkpt lat="63.1349" lon="12.877884">
        <ele>604.766</ele>
        <time>2011-07-07T11:54:57Z</time>
      </trkpt>
      <trkpt lat="63.1348" lon="12.877972">
        <ele>604.264</ele>
        <time>2011-07-07T11:55:03Z</time>
      </trkpt>
      <trkpt lat="63.134781" lon="12.877982">
        <ele>604.187</ele>
        <time>2011-07-07T11:55:04Z</time>
      </trkpt>
      <trkpt lat="63.134694" lon="12.877991">
        <ele>604.169</ele>
        <time>2011-07-07T11:55:09Z</time>
      </trkpt>
      <trkpt lat="63.134561" lon="12.878161">
        <ele>604.069</ele>
        <time>2011-07-07T11:55:15Z</time>
      </trkpt>
      <trkpt lat="63.134477" lon="12.878315">
        <ele>604.583</ele>
        <time>2011-07-07T11:55:20Z</time>
      </trkpt>
      <trkpt lat="63.134467" lon="12.878351">
        <ele>604.603</ele>
        <time>2011-07-07T11:55:21Z</time>
      </trkpt>
      <trkpt lat="63.134374" lon="12.87847">
        <ele>604.826</ele>
        <time>2011-07-07T11:55:28Z</time>
      </trkpt>
      <trkpt lat="63.134369" lon="12.878478">
        <ele>604.866</ele>
        <time>2011-07-07T11:55:29Z</time>
      </trkpt>
      <trkpt lat="63.134371" lon="12.87864">
        <ele>604.665</ele>
        <time>2011-07-07T11:55:34Z</time>
      </trkpt>
      <trkpt lat="63.134327" lon="12.878892">
        <ele>604.394</ele>
        <time>2011-07-07T11:55:39Z</time>
      </trkpt>
      <trkpt lat="63.134292" lon="12.87899">
        <ele>603.979</ele>
        <time>2011-07-07T11:55:41Z</time>
      </trkpt>
      <trkpt lat="63.134237" lon="12.879301">
        <ele>603.269</ele>
        <time>2011-07-07T11:55:46Z</time>
      </trkpt>
      <trkpt lat="63.134251" lon="12.879365">
        <ele>602.944</ele>
        <time>2011-07-07T11:55:48Z</time>
      </trkpt>
      <trkpt lat="63.134271" lon="12.879639">
        <ele>602.508</ele>
        <time>2011-07-07T11:55:55Z</time>
      </trkpt>
      <trkpt lat="63.134282" lon="12.879748">
        <ele>602.393</ele>
        <time>2011-07-07T11:55:57Z</time>
      </trkpt>
      <trkpt lat="63.134197" lon="12.880038">
        <ele>601.281</ele>
        <time>2011-07-07T11:56:03Z</time>
      </trkpt>
      <trkpt lat="63.134106" lon="12.880288">
        <ele>600.511</ele>
        <time>2011-07-07T11:56:08Z</time>
      </trkpt>
      <trkpt lat="63.133969" lon="12.880584">
        <ele>600.157</ele>
        <time>2011-07-07T11:56:16Z</time>
      </trkpt>
      <trkpt lat="63.133905" lon="12.880807">
        <ele>600.506</ele>
        <time>2011-07-07T11:56:24Z</time>
      </trkpt>
      <trkpt lat="63.133867" lon="12.880962">
        <ele>600.454</ele>
        <time>2011-07-07T11:56:30Z</time>
      </trkpt>
      <trkpt lat="63.133776" lon="12.881208">
        <ele>599.72</ele>
        <time>2011-07-07T11:56:39Z</time>
      </trkpt>
      <trkpt lat="63.133712" lon="12.8814">
        <ele>599.828</ele>
        <time>2011-07-07T11:56:46Z</time>
      </trkpt>
      <trkpt lat="63.133674" lon="12.881464">
        <ele>599.652</ele>
        <time>2011-07-07T11:56:50Z</time>
      </trkpt>
      <trkpt lat="63.133639" lon="12.881602">
        <ele>599.653</ele>
        <time>2011-07-07T11:56:57Z</time>
      </trkpt>
      <trkpt lat="63.133628" lon="12.881696">
        <ele>599.276</ele>
        <time>2011-07-07T11:57:02Z</time>
      </trkpt>
      <trkpt lat="63.133623" lon="12.881851">
        <ele>598.921</ele>
        <time>2011-07-07T11:57:08Z</time>
      </trkpt>
      <trkpt lat="63.13354" lon="12.882149">
        <ele>598.778</ele>
        <time>2011-07-07T11:57:15Z</time>
      </trkpt>
      <trkpt lat="63.133523" lon="12.882191">
        <ele>598.936</ele>
        <time>2011-07-07T11:57:16Z</time>
      </trkpt>
      <trkpt lat="63.133465" lon="12.882441">
        <ele>599.253</ele>
        <time>2011-07-07T11:57:22Z</time>
      </trkpt>
      <trkpt lat="63.133454" lon="12.88253">
        <ele>599.303</ele>
        <time>2011-07-07T11:57:24Z</time>
      </trkpt>
      <trkpt lat="63.13339" lon="12.882889">
        <ele>599.354</ele>
        <time>2011-07-07T11:57:33Z</time>
      </trkpt>
      <trkpt lat="63.133349" lon="12.883125">
        <ele>599.069</ele>
        <time>2011-07-07T11:57:38Z</time>
      </trkpt>
      <trkpt lat="63.133324" lon="12.883435">
        <ele>598.365</ele>
        <time>2011-07-07T11:57:44Z</time>
      </trkpt>
      <trkpt lat="63.133308" lon="12.883737">
        <ele>597.633</ele>
        <time>2011-07-07T11:57:50Z</time>
      </trkpt>
      <trkpt lat="63.133284" lon="12.883804">
        <ele>597.375</ele>
        <time>2011-07-07T11:57:52Z</time>
      </trkpt>
      <trkpt lat="63.133233" lon="12.884068">
        <ele>597.37</ele>
        <time>2011-07-07T11:58:03Z</time>
      </trkpt>
      <trkpt lat="63.133241" lon="12.884228">
        <ele>597.529</ele>
        <time>2011-07-07T11:58:09Z</time>
      </trkpt>
      <trkpt lat="63.133233" lon="12.884339">
        <ele>597.515</ele>
        <time>2011-07-07T11:58:13Z</time>
      </trkpt>
      <trkpt lat="63.133246" lon="12.884577">
        <ele>597.299</ele>
        <time>2011-07-07T11:58:20Z</time>
      </trkpt>
      <trkpt lat="63.133274" lon="12.88486">
        <ele>597.396</ele>
        <time>2011-07-07T11:58:28Z</time>
      </trkpt>
      <trkpt lat="63.133295" lon="12.885003">
        <ele>597.655</ele>
        <time>2011-07-07T11:58:31Z</time>
      </trkpt>
      <trkpt lat="63.133326" lon="12.885286">
        <ele>598.203</ele>
        <time>2011-07-07T11:58:37Z</time>
      </trkpt>
      <trkpt lat="63.133329" lon="12.885348">
        <ele>598.219</ele>
        <time>2011-07-07T11:58:38Z</time>
      </trkpt>
      <trkpt lat="63.133327" lon="12.885459">
        <ele>598.199</ele>
        <time>2011-07-07T11:58:40Z</time>
      </trkpt>
      <trkpt lat="63.133346" lon="12.885724">
        <ele>597.961</ele>
        <time>2011-07-07T11:58:45Z</time>
      </trkpt>
      <trkpt lat="63.133344" lon="12.886074">
        <ele>597.137</ele>
        <time>2011-07-07T11:58:51Z</time>
      </trkpt>
      <trkpt lat="63.133356" lon="12.886304">
        <ele>596.852</ele>
        <time>2011-07-07T11:58:55Z</time>
      </trkpt>
      <trkpt lat="63.133366" lon="12.886569">
        <ele>596.577</ele>
        <time>2011-07-07T11:59:00Z</time>
      </trkpt>
      <trkpt lat="63.133362" lon="12.886707">
        <ele>596.603</ele>
        <time>2011-07-07T11:59:03Z</time>
      </trkpt>
      <trkpt lat="63.133341" lon="12.886995">
        <ele>596.692</ele>
        <time>2011-07-07T11:59:11Z</time>
      </trkpt>
      <trkpt lat="63.13337" lon="12.887099">
        <ele>596.798</ele>
        <time>2011-07-07T11:59:15Z</time>
      </trkpt>
      <trkpt lat="63.133355" lon="12.887124">
        <ele>595.662</ele>
        <time>2011-07-07T11:59:19Z</time>
      </trkpt>
      <trkpt lat="63.133337" lon="12.887101">
        <ele>595.014</ele>
        <time>2011-07-07T11:59:22Z</time>
      </trkpt>
      <trkpt lat="63.133321" lon="12.887027">
        <ele>594.612</ele>
        <time>2011-07-07T12:00:14Z</time>
      </trkpt>
      <trkpt lat="63.133326" lon="12.887026">
        <ele>594.585</ele>
        <time>2011-07-07T12:00:15Z</time>
      </trkpt>
      <trkpt lat="63.133354" lon="12.887022">
        <ele>594.956</ele>
        <time>2011-07-07T12:00:21Z</time>
      </trkpt>
      <trkpt lat="63.133367" lon="12.88714">
        <ele>595.43</ele>
        <time>2011-07-07T12:00:31Z</time>
      </trkpt>
      <trkpt lat="63.13337" lon="12.887146">
        <ele>595.432</ele>
        <time>2011-07-07T12:00:32Z</time>
      </trkpt>
      <trkpt lat="63.133332" lon="12.887095">
        <ele>595.134</ele>
        <time>2011-07-07T12:00:42Z</time>
      </trkpt>
      <trkpt lat="63.133324" lon="12.887085">
        <ele>594.821</ele>
        <time>2011-07-07T12:00:44Z</time>
      </trkpt>
      <trkpt lat="63.133364" lon="12.887116">
        <ele>595.34</ele>
        <time>2011-07-07T12:01:08Z</time>
      </trkpt>
      <trkpt lat="63.133391" lon="12.887172">
        <ele>596.34</ele>
        <time>2011-07-07T12:01:20Z</time>
      </trkpt>
      <trkpt lat="63.133388" lon="12.88737">
        <ele>595.686</ele>
        <time>2011-07-07T12:01:29Z</time>
      </trkpt>
      <trkpt lat="63.133374" lon="12.887533">
        <ele>595.998</ele>
        <time>2011-07-07T12:01:35Z</time>
      </trkpt>
      <trkpt lat="63.133328" lon="12.887782">
        <ele>596.224</ele>
        <time>2011-07-07T12:01:42Z</time>
      </trkpt>
      <trkpt lat="63.133306" lon="12.888004">
        <ele>596.154</ele>
        <time>2011-07-07T12:01:47Z</time>
      </trkpt>
      <trkpt lat="63.13329" lon="12.888272">
        <ele>596.063</ele>
        <time>2011-07-07T12:01:52Z</time>
      </trkpt>
      <trkpt lat="63.133286" lon="12.888338">
        <ele>595.976</ele>
        <time>2011-07-07T12:01:54Z</time>
      </trkpt>
      <trkpt lat="63.13323" lon="12.888548">
        <ele>595.762</ele>
        <time>2011-07-07T12:02:00Z</time>
      </trkpt>
      <trkpt lat="63.133156" lon="12.888709">
        <ele>595.717</ele>
        <time>2011-07-07T12:02:06Z</time>
      </trkpt>
      <trkpt lat="63.133144" lon="12.888794">
        <ele>595.882</ele>
        <time>2011-07-07T12:02:08Z</time>
      </trkpt>
      <trkpt lat="63.133091" lon="12.888979">
        <ele>596.059</ele>
        <time>2011-07-07T12:02:16Z</time>
      </trkpt>
      <trkpt lat="63.133058" lon="12.889065">
        <ele>595.705</ele>
        <time>2011-07-07T12:02:19Z</time>
      </trkpt>
      <trkpt lat="63.133" lon="12.889266">
        <ele>595.631</ele>
        <time>2011-07-07T12:02:24Z</time>
      </trkpt>
      <trkpt lat="63.132964" lon="12.889488">
        <ele>595.839</ele>
        <time>2011-07-07T12:02:28Z</time>
      </trkpt>
      <trkpt lat="63.132954" lon="12.889706">
        <ele>596.505</ele>
        <time>2011-07-07T12:02:33Z</time>
      </trkpt>
      <trkpt lat="63.132976" lon="12.889921">
        <ele>598.009</ele>
        <time>2011-07-07T12:02:40Z</time>
      </trkpt>
      <trkpt lat="63.133061" lon="12.890152">
        <ele>598.336</ele>
        <time>2011-07-07T12:02:50Z</time>
      </trkpt>
      <trkpt lat="63.133125" lon="12.890367">
        <ele>598.259</ele>
        <time>2011-07-07T12:02:58Z</time>
      </trkpt>
      <trkpt lat="63.133164" lon="12.890525">
        <ele>598.35</ele>
        <time>2011-07-07T12:03:04Z</time>
      </trkpt>
      <trkpt lat="63.133188" lon="12.890729">
        <ele>598.916</ele>
        <time>2011-07-07T12:03:09Z</time>
      </trkpt>
      <trkpt lat="63.133159" lon="12.891017">
        <ele>599.026</ele>
        <time>2011-07-07T12:03:15Z</time>
      </trkpt>
      <trkpt lat="63.133109" lon="12.891368">
        <ele>599.476</ele>
        <time>2011-07-07T12:03:22Z</time>
      </trkpt>
      <trkpt lat="63.133071" lon="12.891732">
        <ele>600.71</ele>
        <time>2011-07-07T12:03:29Z</time>
      </trkpt>
      <trkpt lat="63.133059" lon="12.89197">
        <ele>600.542</ele>
        <time>2011-07-07T12:03:34Z</time>
      </trkpt>
      <trkpt lat="63.133029" lon="12.892258">
        <ele>600.876</ele>
        <time>2011-07-07T12:03:40Z</time>
      </trkpt>
      <trkpt lat="63.133042" lon="12.892599">
        <ele>600.803</ele>
        <time>2011-07-07T12:03:46Z</time>
      </trkpt>
      <trkpt lat="63.133039" lon="12.892834">
        <ele>600.46</ele>
        <time>2011-07-07T12:03:50Z</time>
      </trkpt>
      <trkpt lat="63.133008" lon="12.893093">
        <ele>600.179</ele>
        <time>2011-07-07T12:03:56Z</time>
      </trkpt>
      <trkpt lat="63.133" lon="12.893144">
        <ele>600.447</ele>
        <time>2011-07-07T12:03:57Z</time>
      </trkpt>
      <trkpt lat="63.132911" lon="12.8934">
        <ele>600.819</ele>
        <time>2011-07-07T12:04:04Z</time>
      </trkpt>
      <trkpt lat="63.132807" lon="12.893619">
        <ele>601.217</ele>
        <time>2011-07-07T12:04:11Z</time>
      </trkpt>
      <trkpt lat="63.132748" lon="12.893797">
        <ele>601.331</ele>
        <time>2011-07-07T12:04:16Z</time>
      </trkpt>
      <trkpt lat="63.132712" lon="12.893942">
        <ele>600.893</ele>
        <time>2011-07-07T12:04:20Z</time>
      </trkpt>
      <trkpt lat="63.132652" lon="12.894198">
        <ele>600.839</ele>
        <time>2011-07-07T12:04:26Z</time>
      </trkpt>
      <trkpt lat="63.132594" lon="12.894393">
        <ele>600.372</ele>
        <time>2011-07-07T12:04:31Z</time>
      </trkpt>
      <trkpt lat="63.132518" lon="12.894528">
        <ele>599.776</ele>
        <time>2011-07-07T12:04:35Z</time>
      </trkpt>
      <trkpt lat="63.132421" lon="12.894763">
        <ele>598.775</ele>
        <time>2011-07-07T12:04:41Z</time>
      </trkpt>
      <trkpt lat="63.132384" lon="12.895068">
        <ele>598.563</ele>
        <time>2011-07-07T12:04:47Z</time>
      </trkpt>
      <trkpt lat="63.132376" lon="12.89533">
        <ele>598.256</ele>
        <time>2011-07-07T12:04:53Z</time>
      </trkpt>
      <trkpt lat="63.132392" lon="12.895659">
        <ele>597.9</ele>
        <time>2011-07-07T12:04:58Z</time>
      </trkpt>
      <trkpt lat="63.132372" lon="12.895906">
        <ele>597.519</ele>
        <time>2011-07-07T12:05:03Z</time>
      </trkpt>
      <trkpt lat="63.132382" lon="12.896089">
        <ele>597.496</ele>
        <time>2011-07-07T12:05:07Z</time>
      </trkpt>
      <trkpt lat="63.132443" lon="12.896444">
        <ele>597.69</ele>
        <time>2011-07-07T12:05:13Z</time>
      </trkpt>
      <trkpt lat="63.132469" lon="12.896823">
        <ele>597.78</ele>
        <time>2011-07-07T12:05:19Z</time>
      </trkpt>
      <trkpt lat="63.132482" lon="12.897119">
        <ele>597.776</ele>
        <time>2011-07-07T12:05:25Z</time>
      </trkpt>
      <trkpt lat="63.132486" lon="12.897165">
        <ele>597.789</ele>
        <time>2011-07-07T12:05:26Z</time>
      </trkpt>
      <trkpt lat="63.132545" lon="12.89747">
        <ele>598.205</ele>
        <time>2011-07-07T12:05:33Z</time>
      </trkpt>
      <trkpt lat="63.132625" lon="12.897809">
        <ele>598.332</ele>
        <time>2011-07-07T12:05:39Z</time>
      </trkpt>
      <trkpt lat="63.132679" lon="12.898166">
        <ele>598.654</ele>
        <time>2011-07-07T12:05:45Z</time>
      </trkpt>
      <trkpt lat="63.132719" lon="12.898556">
        <ele>598.771</ele>
        <time>2011-07-07T12:05:51Z</time>
      </trkpt>
      <trkpt lat="63.132748" lon="12.898789">
        <ele>599.063</ele>
        <time>2011-07-07T12:05:56Z</time>
      </trkpt>
      <trkpt lat="63.132783" lon="12.898972">
        <ele>599.507</ele>
        <time>2011-07-07T12:06:01Z</time>
      </trkpt>
      <trkpt lat="63.132814" lon="12.899141">
        <ele>598.355</ele>
        <time>2011-07-07T12:06:06Z</time>
      </trkpt>
      <trkpt lat="63.132851" lon="12.89938">
        <ele>599.317</ele>
        <time>2011-07-07T12:06:13Z</time>
      </trkpt>
      <trkpt lat="63.132897" lon="12.89957">
        <ele>598.793</ele>
        <time>2011-07-07T12:06:20Z</time>
      </trkpt>
      <trkpt lat="63.132917" lon="12.899631">
        <ele>599.01</ele>
        <time>2011-07-07T12:06:22Z</time>
      </trkpt>
      <trkpt lat="63.132975" lon="12.899877">
        <ele>599.062</ele>
        <time>2011-07-07T12:06:30Z</time>
      </trkpt>
      <trkpt lat="63.133016" lon="12.900081">
        <ele>598.775</ele>
        <time>2011-07-07T12:06:35Z</time>
      </trkpt>
      <trkpt lat="63.133077" lon="12.900442">
        <ele>598.361</ele>
        <time>2011-07-07T12:06:42Z</time>
      </trkpt>
      <trkpt lat="63.13311" lon="12.900724">
        <ele>599.089</ele>
        <time>2011-07-07T12:06:47Z</time>
      </trkpt>
      <trkpt lat="63.133179" lon="12.901063">
        <ele>599.56</ele>
        <time>2011-07-07T12:06:53Z</time>
      </trkpt>
      <trkpt lat="63.133237" lon="12.901248">
        <ele>599.676</ele>
        <time>2011-07-07T12:06:57Z</time>
      </trkpt>
      <trkpt lat="63.133317" lon="12.901474">
        <ele>599.762</ele>
        <time>2011-07-07T12:07:02Z</time>
      </trkpt>
      <trkpt lat="63.133334" lon="12.901587">
        <ele>599.712</ele>
        <time>2011-07-07T12:07:04Z</time>
      </trkpt>
      <trkpt lat="63.133439" lon="12.901822">
        <ele>599.283</ele>
        <time>2011-07-07T12:07:10Z</time>
      </trkpt>
      <trkpt lat="63.133534" lon="12.902052">
        <ele>597.875</ele>
        <time>2011-07-07T12:07:16Z</time>
      </trkpt>
      <trkpt lat="63.133651" lon="12.902126">
        <ele>597.46</ele>
        <time>2011-07-07T12:07:21Z</time>
      </trkpt>
      <trkpt lat="63.133814" lon="12.9022">
        <ele>598.285</ele>
        <time>2011-07-07T12:07:28Z</time>
      </trkpt>
      <trkpt lat="63.133966" lon="12.902134">
        <ele>597.559</ele>
        <time>2011-07-07T12:07:34Z</time>
      </trkpt>
      <trkpt lat="63.134072" lon="12.902055">
        <ele>597.722</ele>
        <time>2011-07-07T12:07:39Z</time>
      </trkpt>
      <trkpt lat="63.13417" lon="12.901988">
        <ele>598.387</ele>
        <time>2011-07-07T12:07:43Z</time>
      </trkpt>
      <trkpt lat="63.134345" lon="12.901872">
        <ele>598.891</ele>
        <time>2011-07-07T12:07:50Z</time>
      </trkpt>
      <trkpt lat="63.134485" lon="12.901812">
        <ele>599.09</ele>
        <time>2011-07-07T12:07:56Z</time>
      </trkpt>
      <trkpt lat="63.134601" lon="12.901785">
        <ele>599.83</ele>
        <time>2011-07-07T12:08:01Z</time>
      </trkpt>
      <trkpt lat="63.13466" lon="12.901759">
        <ele>600.466</ele>
        <time>2011-07-07T12:08:06Z</time>
      </trkpt>
      <trkpt lat="63.134763" lon="12.901785">
        <ele>600.86</ele>
        <time>2011-07-07T12:08:12Z</time>
      </trkpt>
      <trkpt lat="63.134856" lon="12.901777">
        <ele>600.913</ele>
        <time>2011-07-07T12:08:19Z</time>
      </trkpt>
      <trkpt lat="63.134902" lon="12.901717">
        <ele>601.446</ele>
        <time>2011-07-07T12:08:25Z</time>
      </trkpt>
      <trkpt lat="63.134994" lon="12.9017">
        <ele>602.002</ele>
        <time>2011-07-07T12:08:32Z</time>
      </trkpt>
      <trkpt lat="63.135105" lon="12.901807">
        <ele>602.226</ele>
        <time>2011-07-07T12:08:40Z</time>
      </trkpt>
      <trkpt lat="63.135118" lon="12.901814">
        <ele>602.19</ele>
        <time>2011-07-07T12:08:41Z</time>
      </trkpt>
      <trkpt lat="63.135168" lon="12.901853">
        <ele>601.755</ele>
        <time>2011-07-07T12:08:45Z</time>
      </trkpt>
      <trkpt lat="63.135243" lon="12.90196">
        <ele>601.78</ele>
        <time>2011-07-07T12:08:53Z</time>
      </trkpt>
      <trkpt lat="63.135296" lon="12.90205">
        <ele>602.175</ele>
        <time>2011-07-07T12:09:00Z</time>
      </trkpt>
      <trkpt lat="63.13538" lon="12.902108">
        <ele>602.279</ele>
        <time>2011-07-07T12:09:06Z</time>
      </trkpt>
      <trkpt lat="63.135456" lon="12.902121">
        <ele>601.873</ele>
        <time>2011-07-07T12:09:12Z</time>
      </trkpt>
      <trkpt lat="63.135545" lon="12.902235">
        <ele>602.392</ele>
        <time>2011-07-07T12:09:20Z</time>
      </trkpt>
      <trkpt lat="63.135575" lon="12.902332">
        <ele>602.396</ele>
        <time>2011-07-07T12:09:24Z</time>
      </trkpt>
      <trkpt lat="63.135648" lon="12.902486">
        <ele>602.321</ele>
        <time>2011-07-07T12:09:30Z</time>
      </trkpt>
      <trkpt lat="63.13566" lon="12.902519">
        <ele>602.232</ele>
        <time>2011-07-07T12:09:31Z</time>
      </trkpt>
      <trkpt lat="63.135703" lon="12.902746">
        <ele>602.082</ele>
        <time>2011-07-07T12:09:36Z</time>
      </trkpt>
      <trkpt lat="63.135787" lon="12.90295">
        <ele>601.737</ele>
        <time>2011-07-07T12:09:42Z</time>
      </trkpt>
      <trkpt lat="63.135835" lon="12.903163">
        <ele>601.43</ele>
        <time>2011-07-07T12:09:47Z</time>
      </trkpt>
      <trkpt lat="63.135934" lon="12.903457">
        <ele>601.184</ele>
        <time>2011-07-07T12:09:53Z</time>
      </trkpt>
      <trkpt lat="63.135954" lon="12.903536">
        <ele>600.957</ele>
        <time>2011-07-07T12:09:55Z</time>
      </trkpt>
      <trkpt lat="63.135967" lon="12.903709">
        <ele>600.488</ele>
        <time>2011-07-07T12:09:59Z</time>
      </trkpt>
      <trkpt lat="63.13604" lon="12.904052">
        <ele>600.574</ele>
        <time>2011-07-07T12:10:06Z</time>
      </trkpt>
      <trkpt lat="63.136172" lon="12.904202">
        <ele>600.572</ele>
        <time>2011-07-07T12:10:12Z</time>
      </trkpt>
      <trkpt lat="63.136377" lon="12.904438">
        <ele>601.034</ele>
        <time>2011-07-07T12:10:21Z</time>
      </trkpt>
      <trkpt lat="63.136397" lon="12.904452">
        <ele>601.05</ele>
        <time>2011-07-07T12:10:22Z</time>
      </trkpt>
      <trkpt lat="63.136496" lon="12.904637">
        <ele>601.025</ele>
        <time>2011-07-07T12:10:27Z</time>
      </trkpt>
      <trkpt lat="63.136517" lon="12.904667">
        <ele>600.999</ele>
        <time>2011-07-07T12:10:28Z</time>
      </trkpt>
      <trkpt lat="63.136669" lon="12.904809">
        <ele>601.124</ele>
        <time>2011-07-07T12:10:35Z</time>
      </trkpt>
      <trkpt lat="63.136687" lon="12.904836">
        <ele>601.059</ele>
        <time>2011-07-07T12:10:36Z</time>
      </trkpt>
      <trkpt lat="63.136834" lon="12.905028">
        <ele>601.164</ele>
        <time>2011-07-07T12:10:42Z</time>
      </trkpt>
      <trkpt lat="63.136932" lon="12.905121">
        <ele>601.257</ele>
        <time>2011-07-07T12:10:46Z</time>
      </trkpt>
      <trkpt lat="63.136982" lon="12.905214">
        <ele>601.176</ele>
        <time>2011-07-07T12:10:49Z</time>
      </trkpt>
      <trkpt lat="63.137084" lon="12.90538">
        <ele>600.241</ele>
        <time>2011-07-07T12:10:54Z</time>
      </trkpt>
      <trkpt lat="63.1372" lon="12.905517">
        <ele>599.473</ele>
        <time>2011-07-07T12:11:00Z</time>
      </trkpt>
      <trkpt lat="63.137274" lon="12.905591">
        <ele>598.847</ele>
        <time>2011-07-07T12:11:03Z</time>
      </trkpt>
      <trkpt lat="63.137361" lon="12.905601">
        <ele>598.2</ele>
        <time>2011-07-07T12:11:07Z</time>
      </trkpt>
      <trkpt lat="63.137505" lon="12.905615">
        <ele>597.93</ele>
        <time>2011-07-07T12:11:14Z</time>
      </trkpt>
      <trkpt lat="63.137604" lon="12.905654">
        <ele>597.46</ele>
        <time>2011-07-07T12:11:20Z</time>
      </trkpt>
      <trkpt lat="63.137614" lon="12.90567">
        <ele>597.465</ele>
        <time>2011-07-07T12:11:21Z</time>
      </trkpt>
      <trkpt lat="63.137676" lon="12.905681">
        <ele>597.289</ele>
        <time>2011-07-07T12:11:25Z</time>
      </trkpt>
      <trkpt lat="63.137741" lon="12.905731">
        <ele>596.762</ele>
        <time>2011-07-07T12:11:30Z</time>
      </trkpt>
      <trkpt lat="63.13785" lon="12.905863">
        <ele>597.222</ele>
        <time>2011-07-07T12:11:39Z</time>
      </trkpt>
      <trkpt lat="63.137935" lon="12.906021">
        <ele>596.948</ele>
        <time>2011-07-07T12:11:46Z</time>
      </trkpt>
      <trkpt lat="63.138015" lon="12.906075">
        <ele>596.241</ele>
        <time>2011-07-07T12:11:51Z</time>
      </trkpt>
      <trkpt lat="63.138155" lon="12.906111">
        <ele>595.865</ele>
        <time>2011-07-07T12:11:57Z</time>
      </trkpt>
      <trkpt lat="63.138297" lon="12.906181">
        <ele>595.698</ele>
        <time>2011-07-07T12:12:02Z</time>
      </trkpt>
      <trkpt lat="63.138411" lon="12.906381">
        <ele>595.482</ele>
        <time>2011-07-07T12:12:08Z</time>
      </trkpt>
      <trkpt lat="63.138447" lon="12.906457">
        <ele>595.491</ele>
        <time>2011-07-07T12:12:10Z</time>
      </trkpt>
      <trkpt lat="63.138566" lon="12.906734">
        <ele>595.24</ele>
        <time>2011-07-07T12:12:18Z</time>
      </trkpt>
      <trkpt lat="63.138685" lon="12.906914">
        <ele>594.197</ele>
        <time>2011-07-07T12:12:23Z</time>
      </trkpt>
      <trkpt lat="63.138762" lon="12.906978">
        <ele>592.941</ele>
        <time>2011-07-07T12:12:27Z</time>
      </trkpt>
      <trkpt lat="63.138841" lon="12.90708">
        <ele>591.538</ele>
        <time>2011-07-07T12:12:33Z</time>
      </trkpt>
      <trkpt lat="63.138861" lon="12.907095">
        <ele>590.802</ele>
        <time>2011-07-07T12:12:36Z</time>
      </trkpt>
      <trkpt lat="63.138912" lon="12.90712">
        <ele>590.222</ele>
        <time>2011-07-07T12:12:42Z</time>
      </trkpt>
      <trkpt lat="63.138986" lon="12.907143">
        <ele>590.395</ele>
        <time>2011-07-07T12:12:51Z</time>
      </trkpt>
      <trkpt lat="63.139068" lon="12.907174">
        <ele>591.221</ele>
        <time>2011-07-07T12:12:58Z</time>
      </trkpt>
      <trkpt lat="63.139084" lon="12.907178">
        <ele>591.781</ele>
        <time>2011-07-07T12:13:00Z</time>
      </trkpt>
      <trkpt lat="63.139122" lon="12.907234">
        <ele>591.847</ele>
        <time>2011-07-07T12:13:04Z</time>
      </trkpt>
      <trkpt lat="63.139196" lon="12.90735">
        <ele>591.796</ele>
        <time>2011-07-07T12:13:11Z</time>
      </trkpt>
      <trkpt lat="63.139244" lon="12.907461">
        <ele>591.043</ele>
        <time>2011-07-07T12:13:16Z</time>
      </trkpt>
      <trkpt lat="63.139314" lon="12.907641">
        <ele>590.865</ele>
        <time>2011-07-07T12:13:23Z</time>
      </trkpt>
      <trkpt lat="63.139323" lon="12.907697">
        <ele>590.942</ele>
        <time>2011-07-07T12:13:25Z</time>
      </trkpt>
      <trkpt lat="63.139362" lon="12.907937">
        <ele>590.758</ele>
        <time>2011-07-07T12:13:35Z</time>
      </trkpt>
      <trkpt lat="63.139373" lon="12.908015">
        <ele>590.452</ele>
        <time>2011-07-07T12:13:38Z</time>
      </trkpt>
      <trkpt lat="63.13944" lon="12.908157">
        <ele>590.312</ele>
        <time>2011-07-07T12:13:44Z</time>
      </trkpt>
      <trkpt lat="63.139509" lon="12.908321">
        <ele>590.685</ele>
        <time>2011-07-07T12:13:50Z</time>
      </trkpt>
      <trkpt lat="63.139659" lon="12.908433">
        <ele>590.436</ele>
        <time>2011-07-07T12:13:58Z</time>
      </trkpt>
      <trkpt lat="63.139787" lon="12.908393">
        <ele>590.219</ele>
        <time>2011-07-07T12:14:04Z</time>
      </trkpt>
      <trkpt lat="63.139944" lon="12.908422">
        <ele>590.287</ele>
        <time>2011-07-07T12:14:10Z</time>
      </trkpt>
      <trkpt lat="63.140049" lon="12.908515">
        <ele>590.387</ele>
        <time>2011-07-07T12:14:15Z</time>
      </trkpt>
      <trkpt lat="63.140139" lon="12.90865">
        <ele>590.459</ele>
        <time>2011-07-07T12:14:19Z</time>
      </trkpt>
      <trkpt lat="63.140241" lon="12.908861">
        <ele>590.232</ele>
        <time>2011-07-07T12:14:24Z</time>
      </trkpt>
      <trkpt lat="63.140316" lon="12.908987">
        <ele>590.233</ele>
        <time>2011-07-07T12:14:28Z</time>
      </trkpt>
      <trkpt lat="63.140499" lon="12.909073">
        <ele>590.596</ele>
        <time>2011-07-07T12:14:36Z</time>
      </trkpt>
      <trkpt lat="63.140654" lon="12.909084">
        <ele>590.914</ele>
        <time>2011-07-07T12:14:42Z</time>
      </trkpt>
      <trkpt lat="63.140791" lon="12.909257">
        <ele>590.794</ele>
        <time>2011-07-07T12:14:48Z</time>
      </trkpt>
      <trkpt lat="63.140874" lon="12.90943">
        <ele>591.936</ele>
        <time>2011-07-07T12:14:54Z</time>
      </trkpt>
      <trkpt lat="63.140956" lon="12.909527">
        <ele>593.661</ele>
        <time>2011-07-07T12:15:01Z</time>
      </trkpt>
      <trkpt lat="63.141" lon="12.90966">
        <ele>595.146</ele>
        <time>2011-07-07T12:15:08Z</time>
      </trkpt>
      <trkpt lat="63.141031" lon="12.909738">
        <ele>595.267</ele>
        <time>2011-07-07T12:15:11Z</time>
      </trkpt>
      <trkpt lat="63.141048" lon="12.9098">
        <ele>595.241</ele>
        <time>2011-07-07T12:15:14Z</time>
      </trkpt>
      <trkpt lat="63.141088" lon="12.9099">
        <ele>595.108</ele>
        <time>2011-07-07T12:15:19Z</time>
      </trkpt>
      <trkpt lat="63.1411" lon="12.909957">
        <ele>595.111</ele>
        <time>2011-07-07T12:15:21Z</time>
      </trkpt>
      <trkpt lat="63.141192" lon="12.91014">
        <ele>595.538</ele>
        <time>2011-07-07T12:15:28Z</time>
      </trkpt>
      <trkpt lat="63.141256" lon="12.910326">
        <ele>595.211</ele>
        <time>2011-07-07T12:15:35Z</time>
      </trkpt>
      <trkpt lat="63.141321" lon="12.910469">
        <ele>595.244</ele>
        <time>2011-07-07T12:15:42Z</time>
      </trkpt>
      <trkpt lat="63.141379" lon="12.910662">
        <ele>594.964</ele>
        <time>2011-07-07T12:15:50Z</time>
      </trkpt>
      <trkpt lat="63.141413" lon="12.910848">
        <ele>595.205</ele>
        <time>2011-07-07T12:15:57Z</time>
      </trkpt>
      <trkpt lat="63.141426" lon="12.910932">
        <ele>595.638</ele>
        <time>2011-07-07T12:16:01Z</time>
      </trkpt>
      <trkpt lat="63.14141" lon="12.911093">
        <ele>595.056</ele>
        <time>2011-07-07T12:16:08Z</time>
      </trkpt>
      <trkpt lat="63.141398" lon="12.911265">
        <ele>595.246</ele>
        <time>2011-07-07T12:16:14Z</time>
      </trkpt>
      <trkpt lat="63.141356" lon="12.911437">
        <ele>594.509</ele>
        <time>2011-07-07T12:16:21Z</time>
      </trkpt>
      <trkpt lat="63.14133" lon="12.911583">
        <ele>594.376</ele>
        <time>2011-07-07T12:16:27Z</time>
      </trkpt>
      <trkpt lat="63.141302" lon="12.911743">
        <ele>594.943</ele>
        <time>2011-07-07T12:16:33Z</time>
      </trkpt>
      <trkpt lat="63.141302" lon="12.911916">
        <ele>594.866</ele>
        <time>2011-07-07T12:16:40Z</time>
      </trkpt>
      <trkpt lat="63.141302" lon="12.91194">
        <ele>595.01</ele>
        <time>2011-07-07T12:16:41Z</time>
      </trkpt>
      <trkpt lat="63.1413" lon="12.912096">
        <ele>594.801</ele>
        <time>2011-07-07T12:16:46Z</time>
      </trkpt>
      <trkpt lat="63.141307" lon="12.912146">
        <ele>594.729</ele>
        <time>2011-07-07T12:16:48Z</time>
      </trkpt>
      <trkpt lat="63.141296" lon="12.912206">
        <ele>594.684</ele>
        <time>2011-07-07T12:16:50Z</time>
      </trkpt>
      <trkpt lat="63.141286" lon="12.912436">
        <ele>594.984</ele>
        <time>2011-07-07T12:16:58Z</time>
      </trkpt>
      <trkpt lat="63.141296" lon="12.912549">
        <ele>594.275</ele>
        <time>2011-07-07T12:17:02Z</time>
      </trkpt>
      <trkpt lat="63.141298" lon="12.91265">
        <ele>594.443</ele>
        <time>2011-07-07T12:17:06Z</time>
      </trkpt>
      <trkpt lat="63.1413" lon="12.912871">
        <ele>594.211</ele>
        <time>2011-07-07T12:17:13Z</time>
      </trkpt>
      <trkpt lat="63.141318" lon="12.913049">
        <ele>593.851</ele>
        <time>2011-07-07T12:17:20Z</time>
      </trkpt>
      <trkpt lat="63.141321" lon="12.913095">
        <ele>593.91</ele>
        <time>2011-07-07T12:17:22Z</time>
      </trkpt>
      <trkpt lat="63.141333" lon="12.913347">
        <ele>593.275</ele>
        <time>2011-07-07T12:17:30Z</time>
      </trkpt>
      <trkpt lat="63.141326" lon="12.913418">
        <ele>592.847</ele>
        <time>2011-07-07T12:17:33Z</time>
      </trkpt>
      <trkpt lat="63.141312" lon="12.913602">
        <ele>592.528</ele>
        <time>2011-07-07T12:17:40Z</time>
      </trkpt>
      <trkpt lat="63.141328" lon="12.913688">
        <ele>592.142</ele>
        <time>2011-07-07T12:17:43Z</time>
      </trkpt>
      <trkpt lat="63.141351" lon="12.913923">
        <ele>592.095</ele>
        <time>2011-07-07T12:17:51Z</time>
      </trkpt>
      <trkpt lat="63.141318" lon="12.914158">
        <ele>592.364</ele>
        <time>2011-07-07T12:17:58Z</time>
      </trkpt>
      <trkpt lat="63.141326" lon="12.914212">
        <ele>592.34</ele>
        <time>2011-07-07T12:18:00Z</time>
      </trkpt>
      <trkpt lat="63.141327" lon="12.914315">
        <ele>592.218</ele>
        <time>2011-07-07T12:18:04Z</time>
      </trkpt>
      <trkpt lat="63.141311" lon="12.914521">
        <ele>592.436</ele>
        <time>2011-07-07T12:18:12Z</time>
      </trkpt>
      <trkpt lat="63.141296" lon="12.914697">
        <ele>592.367</ele>
        <time>2011-07-07T12:18:18Z</time>
      </trkpt>
      <trkpt lat="63.141294" lon="12.914907">
        <ele>591.946</ele>
        <time>2011-07-07T12:18:25Z</time>
      </trkpt>
      <trkpt lat="63.141313" lon="12.915074">
        <ele>592.031</ele>
        <time>2011-07-07T12:18:31Z</time>
      </trkpt>
      <trkpt lat="63.14134" lon="12.915277">
        <ele>591.827</ele>
        <time>2011-07-07T12:18:38Z</time>
      </trkpt>
      <trkpt lat="63.141375" lon="12.915476">
        <ele>591.824</ele>
        <time>2011-07-07T12:18:46Z</time>
      </trkpt>
      <trkpt lat="63.141415" lon="12.915604">
        <ele>591.773</ele>
        <time>2011-07-07T12:18:50Z</time>
      </trkpt>
      <trkpt lat="63.141491" lon="12.915771">
        <ele>592.419</ele>
        <time>2011-07-07T12:18:56Z</time>
      </trkpt>
      <trkpt lat="63.141557" lon="12.91601">
        <ele>592.328</ele>
        <time>2011-07-07T12:19:04Z</time>
      </trkpt>
      <trkpt lat="63.141593" lon="12.916139">
        <ele>592.438</ele>
        <time>2011-07-07T12:19:09Z</time>
      </trkpt>
      <trkpt lat="63.141592" lon="12.916245">
        <ele>592.077</ele>
        <time>2011-07-07T12:19:13Z</time>
      </trkpt>
      <trkpt lat="63.141605" lon="12.916333">
        <ele>592.281</ele>
        <time>2011-07-07T12:19:16Z</time>
      </trkpt>
      <trkpt lat="63.141602" lon="12.916492">
        <ele>591.341</ele>
        <time>2011-07-07T12:19:22Z</time>
      </trkpt>
      <trkpt lat="63.141622" lon="12.916569">
        <ele>591.432</ele>
        <time>2011-07-07T12:19:25Z</time>
      </trkpt>
      <trkpt lat="63.141642" lon="12.916769">
        <ele>591.378</ele>
        <time>2011-07-07T12:19:32Z</time>
      </trkpt>
      <trkpt lat="63.141667" lon="12.916936">
        <ele>591.523</ele>
        <time>2011-07-07T12:19:36Z</time>
      </trkpt>
      <trkpt lat="63.141728" lon="12.91723">
        <ele>591.428</ele>
        <time>2011-07-07T12:19:42Z</time>
      </trkpt>
      <trkpt lat="63.141782" lon="12.917495">
        <ele>591.082</ele>
        <time>2011-07-07T12:19:48Z</time>
      </trkpt>
      <trkpt lat="63.141845" lon="12.917694">
        <ele>590.805</ele>
        <time>2011-07-07T12:19:53Z</time>
      </trkpt>
      <trkpt lat="63.141957" lon="12.917893">
        <ele>590.466</ele>
        <time>2011-07-07T12:19:59Z</time>
      </trkpt>
      <trkpt lat="63.14197" lon="12.917914">
        <ele>590.586</ele>
        <time>2011-07-07T12:20:00Z</time>
      </trkpt>
      <trkpt lat="63.142048" lon="12.918213">
        <ele>591.395</ele>
        <time>2011-07-07T12:20:07Z</time>
      </trkpt>
      <trkpt lat="63.142115" lon="12.918475">
        <ele>591.623</ele>
        <time>2011-07-07T12:20:12Z</time>
      </trkpt>
      <trkpt lat="63.142169" lon="12.918674">
        <ele>591.657</ele>
        <time>2011-07-07T12:20:17Z</time>
      </trkpt>
      <trkpt lat="63.14221" lon="12.918755">
        <ele>592.065</ele>
        <time>2011-07-07T12:20:20Z</time>
      </trkpt>
      <trkpt lat="63.142298" lon="12.91895">
        <ele>592.787</ele>
        <time>2011-07-07T12:20:26Z</time>
      </trkpt>
      <trkpt lat="63.142411" lon="12.9192">
        <ele>593.12</ele>
        <time>2011-07-07T12:20:33Z</time>
      </trkpt>
      <trkpt lat="63.142474" lon="12.919441">
        <ele>592.9</ele>
        <time>2011-07-07T12:20:40Z</time>
      </trkpt>
      <trkpt lat="63.142493" lon="12.919561">
        <ele>592.945</ele>
        <time>2011-07-07T12:20:43Z</time>
      </trkpt>
      <trkpt lat="63.142501" lon="12.919803">
        <ele>593.008</ele>
        <time>2011-07-07T12:20:48Z</time>
      </trkpt>
      <trkpt lat="63.142481" lon="12.919951">
        <ele>593.023</ele>
        <time>2011-07-07T12:20:53Z</time>
      </trkpt>
      <trkpt lat="63.142446" lon="12.920109">
        <ele>592.968</ele>
        <time>2011-07-07T12:21:00Z</time>
      </trkpt>
      <trkpt lat="63.14241" lon="12.920227">
        <ele>593.215</ele>
        <time>2011-07-07T12:21:06Z</time>
      </trkpt>
      <trkpt lat="63.142372" lon="12.920408">
        <ele>592.992</ele>
        <time>2011-07-07T12:21:14Z</time>
      </trkpt>
      <trkpt lat="63.142347" lon="12.920546">
        <ele>593.577</ele>
        <time>2011-07-07T12:21:19Z</time>
      </trkpt>
      <trkpt lat="63.142335" lon="12.920794">
        <ele>592.583</ele>
        <time>2011-07-07T12:21:26Z</time>
      </trkpt>
      <trkpt lat="63.14231" lon="12.920975">
        <ele>592.84</ele>
        <time>2011-07-07T12:21:33Z</time>
      </trkpt>
      <trkpt lat="63.142306" lon="12.92114">
        <ele>593.129</ele>
        <time>2011-07-07T12:21:39Z</time>
      </trkpt>
      <trkpt lat="63.142321" lon="12.921301">
        <ele>593.626</ele>
        <time>2011-07-07T12:21:44Z</time>
      </trkpt>
      <trkpt lat="63.142368" lon="12.921553">
        <ele>593.495</ele>
        <time>2011-07-07T12:21:51Z</time>
      </trkpt>
      <trkpt lat="63.142382" lon="12.921635">
        <ele>593.562</ele>
        <time>2011-07-07T12:21:53Z</time>
      </trkpt>
      <trkpt lat="63.1425" lon="12.921918">
        <ele>595.836</ele>
        <time>2011-07-07T12:22:03Z</time>
      </trkpt>
      <trkpt lat="63.14251" lon="12.921945">
        <ele>596.105</ele>
        <time>2011-07-07T12:22:04Z</time>
      </trkpt>
      <trkpt lat="63.142554" lon="12.922065">
        <ele>596.658</ele>
        <time>2011-07-07T12:22:09Z</time>
      </trkpt>
      <trkpt lat="63.142575" lon="12.922115">
        <ele>596.808</ele>
        <time>2011-07-07T12:22:11Z</time>
      </trkpt>
      <trkpt lat="63.142605" lon="12.922298">
        <ele>597.604</ele>
        <time>2011-07-07T12:22:16Z</time>
      </trkpt>
      <trkpt lat="63.142554" lon="12.922597">
        <ele>597.855</ele>
        <time>2011-07-07T12:22:25Z</time>
      </trkpt>
      <trkpt lat="63.142535" lon="12.922744">
        <ele>597.925</ele>
        <time>2011-07-07T12:22:32Z</time>
      </trkpt>
      <trkpt lat="63.142562" lon="12.922933">
        <ele>596.522</ele>
        <time>2011-07-07T12:22:40Z</time>
      </trkpt>
      <trkpt lat="63.142583" lon="12.923077">
        <ele>595.246</ele>
        <time>2011-07-07T12:22:46Z</time>
      </trkpt>
      <trkpt lat="63.142657" lon="12.92322">
        <ele>594.716</ele>
        <time>2011-07-07T12:22:52Z</time>
      </trkpt>
      <trkpt lat="63.142756" lon="12.923402">
        <ele>594.557</ele>
        <time>2011-07-07T12:23:00Z</time>
      </trkpt>
      <trkpt lat="63.142813" lon="12.92359">
        <ele>595.061</ele>
        <time>2011-07-07T12:23:07Z</time>
      </trkpt>
      <trkpt lat="63.142866" lon="12.923699">
        <ele>595.764</ele>
        <time>2011-07-07T12:23:11Z</time>
      </trkpt>
      <trkpt lat="63.142905" lon="12.923892">
        <ele>596.82</ele>
        <time>2011-07-07T12:23:19Z</time>
      </trkpt>
      <trkpt lat="63.142938" lon="12.924024">
        <ele>597.454</ele>
        <time>2011-07-07T12:23:24Z</time>
      </trkpt>
      <trkpt lat="63.142947" lon="12.924044">
        <ele>597.339</ele>
        <time>2011-07-07T12:23:25Z</time>
      </trkpt>
      <trkpt lat="63.143009" lon="12.924153">
        <ele>597.432</ele>
        <time>2011-07-07T12:23:32Z</time>
      </trkpt>
      <trkpt lat="63.143032" lon="12.924228">
        <ele>597.254</ele>
        <time>2011-07-07T12:23:36Z</time>
      </trkpt>
      <trkpt lat="63.143133" lon="12.924356">
        <ele>596.687</ele>
        <time>2011-07-07T12:23:43Z</time>
      </trkpt>
      <trkpt lat="63.143195" lon="12.924484">
        <ele>596.287</ele>
        <time>2011-07-07T12:23:49Z</time>
      </trkpt>
      <trkpt lat="63.143246" lon="12.924672">
        <ele>595.811</ele>
        <time>2011-07-07T12:23:56Z</time>
      </trkpt>
      <trkpt lat="63.143268" lon="12.92484">
        <ele>597.016</ele>
        <time>2011-07-07T12:24:02Z</time>
      </trkpt>
      <trkpt lat="63.143302" lon="12.924924">
        <ele>595.344</ele>
        <time>2011-07-07T12:24:05Z</time>
      </trkpt>
      <trkpt lat="63.143343" lon="12.92504">
        <ele>597.023</ele>
        <time>2011-07-07T12:24:10Z</time>
      </trkpt>
      <trkpt lat="63.143418" lon="12.925277">
        <ele>598.012</ele>
        <time>2011-07-07T12:24:18Z</time>
      </trkpt>
      <trkpt lat="63.143496" lon="12.925434">
        <ele>598.716</ele>
        <time>2011-07-07T12:24:25Z</time>
      </trkpt>
      <trkpt lat="63.143541" lon="12.925524">
        <ele>598.44</ele>
        <time>2011-07-07T12:24:29Z</time>
      </trkpt>
      <trkpt lat="63.143581" lon="12.925701">
        <ele>598.509</ele>
        <time>2011-07-07T12:24:35Z</time>
      </trkpt>
      <trkpt lat="63.143641" lon="12.925854">
        <ele>598.486</ele>
        <time>2011-07-07T12:24:42Z</time>
      </trkpt>
      <trkpt lat="63.143669" lon="12.92603">
        <ele>598.676</ele>
        <time>2011-07-07T12:24:49Z</time>
      </trkpt>
      <trkpt lat="63.143703" lon="12.9262">
        <ele>598.744</ele>
        <time>2011-07-07T12:24:54Z</time>
      </trkpt>
      <trkpt lat="63.143805" lon="12.926411">
        <ele>598.151</ele>
        <time>2011-07-07T12:25:01Z</time>
      </trkpt>
      <trkpt lat="63.143907" lon="12.926583">
        <ele>597.094</ele>
        <time>2011-07-07T12:25:07Z</time>
      </trkpt>
      <trkpt lat="63.144002" lon="12.926824">
        <ele>595.888</ele>
        <time>2011-07-07T12:25:13Z</time>
      </trkpt>
      <trkpt lat="63.144055" lon="12.926955">
        <ele>595.956</ele>
        <time>2011-07-07T12:25:17Z</time>
      </trkpt>
      <trkpt lat="63.144118" lon="12.92715">
        <ele>595.12</ele>
        <time>2011-07-07T12:25:22Z</time>
      </trkpt>
      <trkpt lat="63.144205" lon="12.927331">
        <ele>595.05</ele>
        <time>2011-07-07T12:25:26Z</time>
      </trkpt>
      <trkpt lat="63.144268" lon="12.927663">
        <ele>594.549</ele>
        <time>2011-07-07T12:25:32Z</time>
      </trkpt>
      <trkpt lat="63.144278" lon="12.927717">
        <ele>594.601</ele>
        <time>2011-07-07T12:25:33Z</time>
      </trkpt>
      <trkpt lat="63.144333" lon="12.928077">
        <ele>594.869</ele>
        <time>2011-07-07T12:25:41Z</time>
      </trkpt>
      <trkpt lat="63.144359" lon="12.928196">
        <ele>594.319</ele>
        <time>2011-07-07T12:25:45Z</time>
      </trkpt>
      <trkpt lat="63.144357" lon="12.928269">
        <ele>593.989</ele>
        <time>2011-07-07T12:25:48Z</time>
      </trkpt>
      <trkpt lat="63.144347" lon="12.928545">
        <ele>592.881</ele>
        <time>2011-07-07T12:25:57Z</time>
      </trkpt>
      <trkpt lat="63.144381" lon="12.928838">
        <ele>592.096</ele>
        <time>2011-07-07T12:26:07Z</time>
      </trkpt>
      <trkpt lat="63.144385" lon="12.929008">
        <ele>591.772</ele>
        <time>2011-07-07T12:26:13Z</time>
      </trkpt>
      <trkpt lat="63.14439" lon="12.929082">
        <ele>591.198</ele>
        <time>2011-07-07T12:26:16Z</time>
      </trkpt>
      <trkpt lat="63.144434" lon="12.92931">
        <ele>589.99</ele>
        <time>2011-07-07T12:26:24Z</time>
      </trkpt>
      <trkpt lat="63.144474" lon="12.929463">
        <ele>589.353</ele>
        <time>2011-07-07T12:26:30Z</time>
      </trkpt>
      <trkpt lat="63.144497" lon="12.929511">
        <ele>589.086</ele>
        <time>2011-07-07T12:26:32Z</time>
      </trkpt>
      <trkpt lat="63.144545" lon="12.929695">
        <ele>588.462</ele>
        <time>2011-07-07T12:26:39Z</time>
      </trkpt>
      <trkpt lat="63.144543" lon="12.92993">
        <ele>588.621</ele>
        <time>2011-07-07T12:26:47Z</time>
      </trkpt>
      <trkpt lat="63.144556" lon="12.930127">
        <ele>588.282</ele>
        <time>2011-07-07T12:26:53Z</time>
      </trkpt>
      <trkpt lat="63.144551" lon="12.930306">
        <ele>587.822</ele>
        <time>2011-07-07T12:26:59Z</time>
      </trkpt>
      <trkpt lat="63.144511" lon="12.930504">
        <ele>586.725</ele>
        <time>2011-07-07T12:27:04Z</time>
      </trkpt>
      <trkpt lat="63.144455" lon="12.930807">
        <ele>586.325</ele>
        <time>2011-07-07T12:27:11Z</time>
      </trkpt>
      <trkpt lat="63.14439" lon="12.930989">
        <ele>586.167</ele>
        <time>2011-07-07T12:27:17Z</time>
      </trkpt>
      <trkpt lat="63.14432" lon="12.931207">
        <ele>586.106</ele>
        <time>2011-07-07T12:27:23Z</time>
      </trkpt>
      <trkpt lat="63.144259" lon="12.931426">
        <ele>586.103</ele>
        <time>2011-07-07T12:27:29Z</time>
      </trkpt>
      <trkpt lat="63.144184" lon="12.931642">
        <ele>585.919</ele>
        <time>2011-07-07T12:27:35Z</time>
      </trkpt>
      <trkpt lat="63.144106" lon="12.931856">
        <ele>586.267</ele>
        <time>2011-07-07T12:27:41Z</time>
      </trkpt>
      <trkpt lat="63.144044" lon="12.931973">
        <ele>586.622</ele>
        <time>2011-07-07T12:27:46Z</time>
      </trkpt>
      <trkpt lat="63.143973" lon="12.932111">
        <ele>586.018</ele>
        <time>2011-07-07T12:27:54Z</time>
      </trkpt>
      <trkpt lat="63.143903" lon="12.932243">
        <ele>586.098</ele>
        <time>2011-07-07T12:28:01Z</time>
      </trkpt>
      <trkpt lat="63.143893" lon="12.932263">
        <ele>586.319</ele>
        <time>2011-07-07T12:28:02Z</time>
      </trkpt>
      <trkpt lat="63.143824" lon="12.932456">
        <ele>586.107</ele>
        <time>2011-07-07T12:28:10Z</time>
      </trkpt>
      <trkpt lat="63.143776" lon="12.932632">
        <ele>586.549</ele>
        <time>2011-07-07T12:28:16Z</time>
      </trkpt>
      <trkpt lat="63.143731" lon="12.932902">
        <ele>586.568</ele>
        <time>2011-07-07T12:28:24Z</time>
      </trkpt>
      <trkpt lat="63.143707" lon="12.933158">
        <ele>586.493</ele>
        <time>2011-07-07T12:28:31Z</time>
      </trkpt>
      <trkpt lat="63.143677" lon="12.933357">
        <ele>586.36</ele>
        <time>2011-07-07T12:28:38Z</time>
      </trkpt>
      <trkpt lat="63.143658" lon="12.933553">
        <ele>586.288</ele>
        <time>2011-07-07T12:28:45Z</time>
      </trkpt>
      <trkpt lat="63.143621" lon="12.933689">
        <ele>585.985</ele>
        <time>2011-07-07T12:28:51Z</time>
      </trkpt>
      <trkpt lat="63.143598" lon="12.933942">
        <ele>586.279</ele>
        <time>2011-07-07T12:28:59Z</time>
      </trkpt>
      <trkpt lat="63.14358" lon="12.934144">
        <ele>586.648</ele>
        <time>2011-07-07T12:29:07Z</time>
      </trkpt>
      <trkpt lat="63.143558" lon="12.934236">
        <ele>587.051</ele>
        <time>2011-07-07T12:29:11Z</time>
      </trkpt>
      <trkpt lat="63.143518" lon="12.934553">
        <ele>586.268</ele>
        <time>2011-07-07T12:29:18Z</time>
      </trkpt>
      <trkpt lat="63.143503" lon="12.934704">
        <ele>586.842</ele>
        <time>2011-07-07T12:29:22Z</time>
      </trkpt>
      <trkpt lat="63.143487" lon="12.934808">
        <ele>586.64</ele>
        <time>2011-07-07T12:29:26Z</time>
      </trkpt>
      <trkpt lat="63.14349" lon="12.934985">
        <ele>587.086</ele>
        <time>2011-07-07T12:29:31Z</time>
      </trkpt>
      <trkpt lat="63.143489" lon="12.93509">
        <ele>586.343</ele>
        <time>2011-07-07T12:29:36Z</time>
      </trkpt>
      <trkpt lat="63.143477" lon="12.935282">
        <ele>584.246</ele>
        <time>2011-07-07T12:29:44Z</time>
      </trkpt>
      <trkpt lat="63.143479" lon="12.935348">
        <ele>583.605</ele>
        <time>2011-07-07T12:29:46Z</time>
      </trkpt>
      <trkpt lat="63.143489" lon="12.935456">
        <ele>582.471</ele>
        <time>2011-07-07T12:29:50Z</time>
      </trkpt>
      <trkpt lat="63.143527" lon="12.935644">
        <ele>582.632</ele>
        <time>2011-07-07T12:29:59Z</time>
      </trkpt>
      <trkpt lat="63.143521" lon="12.935834">
        <ele>582.461</ele>
        <time>2011-07-07T12:30:07Z</time>
      </trkpt>
      <trkpt lat="63.143512" lon="12.935962">
        <ele>582.173</ele>
        <time>2011-07-07T12:30:14Z</time>
      </trkpt>
      <trkpt lat="63.143483" lon="12.936056">
        <ele>582.413</ele>
        <time>2011-07-07T12:30:18Z</time>
      </trkpt>
      <trkpt lat="63.143468" lon="12.936112">
        <ele>582.311</ele>
        <time>2011-07-07T12:30:21Z</time>
      </trkpt>
      <trkpt lat="63.143478" lon="12.936335">
        <ele>582.555</ele>
        <time>2011-07-07T12:30:29Z</time>
      </trkpt>
      <trkpt lat="63.143489" lon="12.936485">
        <ele>582.287</ele>
        <time>2011-07-07T12:30:34Z</time>
      </trkpt>
      <trkpt lat="63.143493" lon="12.936747">
        <ele>582.587</ele>
        <time>2011-07-07T12:30:42Z</time>
      </trkpt>
      <trkpt lat="63.143539" lon="12.936978">
        <ele>581.968</ele>
        <time>2011-07-07T12:30:47Z</time>
      </trkpt>
      <trkpt lat="63.143644" lon="12.937231">
        <ele>582.038</ele>
        <time>2011-07-07T12:30:52Z</time>
      </trkpt>
      <trkpt lat="63.143735" lon="12.937386">
        <ele>581.993</ele>
        <time>2011-07-07T12:30:57Z</time>
      </trkpt>
      <trkpt lat="63.143807" lon="12.93755">
        <ele>581.787</ele>
        <time>2011-07-07T12:31:05Z</time>
      </trkpt>
      <trkpt lat="63.143897" lon="12.93779">
        <ele>581.93</ele>
        <time>2011-07-07T12:31:12Z</time>
      </trkpt>
      <trkpt lat="63.143891" lon="12.937993">
        <ele>581.729</ele>
        <time>2011-07-07T12:31:17Z</time>
      </trkpt>
      <trkpt lat="63.143842" lon="12.938216">
        <ele>581.197</ele>
        <time>2011-07-07T12:31:23Z</time>
      </trkpt>
      <trkpt lat="63.143872" lon="12.938369">
        <ele>581.966</ele>
        <time>2011-07-07T12:31:27Z</time>
      </trkpt>
      <trkpt lat="63.143975" lon="12.938633">
        <ele>582.392</ele>
        <time>2011-07-07T12:31:33Z</time>
      </trkpt>
      <trkpt lat="63.144091" lon="12.93891">
        <ele>582.085</ele>
        <time>2011-07-07T12:31:40Z</time>
      </trkpt>
      <trkpt lat="63.144203" lon="12.939101">
        <ele>582.169</ele>
        <time>2011-07-07T12:31:46Z</time>
      </trkpt>
      <trkpt lat="63.144282" lon="12.939285">
        <ele>581.821</ele>
        <time>2011-07-07T12:31:51Z</time>
      </trkpt>
      <trkpt lat="63.144352" lon="12.939469">
        <ele>581.574</ele>
        <time>2011-07-07T12:31:56Z</time>
      </trkpt>
      <trkpt lat="63.144451" lon="12.939613">
        <ele>582.015</ele>
        <time>2011-07-07T12:32:01Z</time>
      </trkpt>
      <trkpt lat="63.144475" lon="12.939657">
        <ele>581.763</ele>
        <time>2011-07-07T12:32:03Z</time>
      </trkpt>
      <trkpt lat="63.144507" lon="12.939739">
        <ele>581.435</ele>
        <time>2011-07-07T12:32:06Z</time>
      </trkpt>
      <trkpt lat="63.144547" lon="12.939838">
        <ele>581.802</ele>
        <time>2011-07-07T12:32:10Z</time>
      </trkpt>
      <trkpt lat="63.144625" lon="12.939954">
        <ele>581.606</ele>
        <time>2011-07-07T12:32:17Z</time>
      </trkpt>
      <trkpt lat="63.144642" lon="12.93999">
        <ele>581.587</ele>
        <time>2011-07-07T12:32:19Z</time>
      </trkpt>
      <trkpt lat="63.144702" lon="12.940176">
        <ele>581.571</ele>
        <time>2011-07-07T12:32:26Z</time>
      </trkpt>
      <trkpt lat="63.144747" lon="12.940405">
        <ele>581.689</ele>
        <time>2011-07-07T12:32:31Z</time>
      </trkpt>
      <trkpt lat="63.144832" lon="12.940659">
        <ele>581.807</ele>
        <time>2011-07-07T12:32:37Z</time>
      </trkpt>
      <trkpt lat="63.144889" lon="12.940835">
        <ele>581.782</ele>
        <time>2011-07-07T12:32:41Z</time>
      </trkpt>
      <trkpt lat="63.14495" lon="12.941123">
        <ele>581.683</ele>
        <time>2011-07-07T12:32:47Z</time>
      </trkpt>
      <trkpt lat="63.144967" lon="12.941346">
        <ele>581.423</ele>
        <time>2011-07-07T12:32:52Z</time>
      </trkpt>
      <trkpt lat="63.14501" lon="12.941657">
        <ele>581.63</ele>
        <time>2011-07-07T12:32:58Z</time>
      </trkpt>
      <trkpt lat="63.145011" lon="12.941988">
        <ele>581.725</ele>
        <time>2011-07-07T12:33:04Z</time>
      </trkpt>
      <trkpt lat="63.145028" lon="12.942342">
        <ele>581.656</ele>
        <time>2011-07-07T12:33:11Z</time>
      </trkpt>
      <trkpt lat="63.145069" lon="12.942613">
        <ele>581.768</ele>
        <time>2011-07-07T12:33:16Z</time>
      </trkpt>
      <trkpt lat="63.145094" lon="12.942819">
        <ele>581.522</ele>
        <time>2011-07-07T12:33:20Z</time>
      </trkpt>
      <trkpt lat="63.145106" lon="12.942937">
        <ele>581.613</ele>
        <time>2011-07-07T12:33:24Z</time>
      </trkpt>
      <trkpt lat="63.145123" lon="12.943149">
        <ele>581.628</ele>
        <time>2011-07-07T12:33:31Z</time>
      </trkpt>
      <trkpt lat="63.145161" lon="12.943364">
        <ele>581.097</ele>
        <time>2011-07-07T12:33:39Z</time>
      </trkpt>
      <trkpt lat="63.145173" lon="12.943549">
        <ele>581.484</ele>
        <time>2011-07-07T12:33:45Z</time>
      </trkpt>
      <trkpt lat="63.145197" lon="12.943696">
        <ele>581.305</ele>
        <time>2011-07-07T12:33:51Z</time>
      </trkpt>
      <trkpt lat="63.145226" lon="12.943869">
        <ele>581.188</ele>
        <time>2011-07-07T12:33:58Z</time>
      </trkpt>
      <trkpt lat="63.145261" lon="12.944081">
        <ele>581.294</ele>
        <time>2011-07-07T12:34:06Z</time>
      </trkpt>
      <trkpt lat="63.145288" lon="12.944329">
        <ele>581.285</ele>
        <time>2011-07-07T12:34:14Z</time>
      </trkpt>
      <trkpt lat="63.145292" lon="12.944553">
        <ele>581.112</ele>
        <time>2011-07-07T12:34:22Z</time>
      </trkpt>
      <trkpt lat="63.145289" lon="12.944776">
        <ele>581.016</ele>
        <time>2011-07-07T12:34:29Z</time>
      </trkpt>
      <trkpt lat="63.145276" lon="12.944954">
        <ele>581.175</ele>
        <time>2011-07-07T12:34:34Z</time>
      </trkpt>
      <trkpt lat="63.145281" lon="12.945172">
        <ele>580.91</ele>
        <time>2011-07-07T12:34:41Z</time>
      </trkpt>
      <trkpt lat="63.14528" lon="12.945199">
        <ele>580.889</ele>
        <time>2011-07-07T12:34:42Z</time>
      </trkpt>
      <trkpt lat="63.145313" lon="12.945299">
        <ele>580.354</ele>
        <time>2011-07-07T12:34:46Z</time>
      </trkpt>
      <trkpt lat="63.145369" lon="12.94546">
        <ele>580.504</ele>
        <time>2011-07-07T12:34:53Z</time>
      </trkpt>
      <trkpt lat="63.145359" lon="12.945626">
        <ele>580.56</ele>
        <time>2011-07-07T12:34:59Z</time>
      </trkpt>
      <trkpt lat="63.145334" lon="12.945811">
        <ele>580.378</ele>
        <time>2011-07-07T12:35:05Z</time>
      </trkpt>
      <trkpt lat="63.145319" lon="12.945977">
        <ele>580.629</ele>
        <time>2011-07-07T12:35:12Z</time>
      </trkpt>
      <trkpt lat="63.145299" lon="12.946213">
        <ele>580.534</ele>
        <time>2011-07-07T12:35:19Z</time>
      </trkpt>
      <trkpt lat="63.145283" lon="12.946493">
        <ele>580.819</ele>
        <time>2011-07-07T12:35:28Z</time>
      </trkpt>
      <trkpt lat="63.14527" lon="12.946671">
        <ele>580.543</ele>
        <time>2011-07-07T12:35:34Z</time>
      </trkpt>
      <trkpt lat="63.145272" lon="12.946839">
        <ele>580.262</ele>
        <time>2011-07-07T12:35:41Z</time>
      </trkpt>
      <trkpt lat="63.145262" lon="12.946949">
        <ele>580.702</ele>
        <time>2011-07-07T12:35:46Z</time>
      </trkpt>
      <trkpt lat="63.145248" lon="12.947135">
        <ele>580.241</ele>
        <time>2011-07-07T12:35:53Z</time>
      </trkpt>
      <trkpt lat="63.145202" lon="12.947376">
        <ele>580.385</ele>
        <time>2011-07-07T12:36:02Z</time>
      </trkpt>
      <trkpt lat="63.1452" lon="12.947404">
        <ele>580.386</ele>
        <time>2011-07-07T12:36:03Z</time>
      </trkpt>
      <trkpt lat="63.145139" lon="12.94764">
        <ele>579.964</ele>
        <time>2011-07-07T12:36:12Z</time>
      </trkpt>
      <trkpt lat="63.145084" lon="12.947785">
        <ele>580.706</ele>
        <time>2011-07-07T12:36:19Z</time>
      </trkpt>
      <trkpt lat="63.145025" lon="12.947937">
        <ele>580.568</ele>
        <time>2011-07-07T12:36:27Z</time>
      </trkpt>
      <trkpt lat="63.144969" lon="12.948103">
        <ele>579.963</ele>
        <time>2011-07-07T12:36:34Z</time>
      </trkpt>
      <trkpt lat="63.144921" lon="12.948222">
        <ele>580.472</ele>
        <time>2011-07-07T12:36:39Z</time>
      </trkpt>
      <trkpt lat="63.14486" lon="12.948422">
        <ele>581.374</ele>
        <time>2011-07-07T12:36:46Z</time>
      </trkpt>
      <trkpt lat="63.144854" lon="12.94859">
        <ele>581.852</ele>
        <time>2011-07-07T12:36:52Z</time>
      </trkpt>
      <trkpt lat="63.144859" lon="12.948817">
        <ele>581.519</ele>
        <time>2011-07-07T12:36:59Z</time>
      </trkpt>
      <trkpt lat="63.144854" lon="12.948976">
        <ele>581.693</ele>
        <time>2011-07-07T12:37:05Z</time>
      </trkpt>
      <trkpt lat="63.144841" lon="12.94918">
        <ele>581.942</ele>
        <time>2011-07-07T12:37:11Z</time>
      </trkpt>
      <trkpt lat="63.144848" lon="12.949454">
        <ele>581.069</ele>
        <time>2011-07-07T12:37:20Z</time>
      </trkpt>
      <trkpt lat="63.144852" lon="12.949631">
        <ele>580.808</ele>
        <time>2011-07-07T12:37:26Z</time>
      </trkpt>
      <trkpt lat="63.144864" lon="12.949822">
        <ele>581.142</ele>
        <time>2011-07-07T12:37:33Z</time>
      </trkpt>
      <trkpt lat="63.144862" lon="12.949881">
        <ele>581.111</ele>
        <time>2011-07-07T12:37:35Z</time>
      </trkpt>
      <trkpt lat="63.144884" lon="12.950127">
        <ele>581.419</ele>
        <time>2011-07-07T12:37:42Z</time>
      </trkpt>
      <trkpt lat="63.144935" lon="12.950385">
        <ele>581.19</ele>
        <time>2011-07-07T12:37:51Z</time>
      </trkpt>
      <trkpt lat="63.144938" lon="12.950461">
        <ele>581.342</ele>
        <time>2011-07-07T12:37:53Z</time>
      </trkpt>
      <trkpt lat="63.144958" lon="12.950675">
        <ele>581.26</ele>
        <time>2011-07-07T12:37:59Z</time>
      </trkpt>
      <trkpt lat="63.144993" lon="12.950873">
        <ele>581.114</ele>
        <time>2011-07-07T12:38:05Z</time>
      </trkpt>
      <trkpt lat="63.14502" lon="12.951077">
        <ele>581.397</ele>
        <time>2011-07-07T12:38:11Z</time>
      </trkpt>
      <trkpt lat="63.145057" lon="12.951224">
        <ele>581.191</ele>
        <time>2011-07-07T12:38:16Z</time>
      </trkpt>
      <trkpt lat="63.14509" lon="12.95137">
        <ele>581.763</ele>
        <time>2011-07-07T12:38:21Z</time>
      </trkpt>
      <trkpt lat="63.14512" lon="12.951525">
        <ele>581.493</ele>
        <time>2011-07-07T12:38:26Z</time>
      </trkpt>
      <trkpt lat="63.14515" lon="12.951706">
        <ele>581.307</ele>
        <time>2011-07-07T12:38:32Z</time>
      </trkpt>
      <trkpt lat="63.14519" lon="12.951887">
        <ele>580.921</ele>
        <time>2011-07-07T12:38:38Z</time>
      </trkpt>
      <trkpt lat="63.14527" lon="12.952066">
        <ele>579.737</ele>
        <time>2011-07-07T12:38:46Z</time>
      </trkpt>
      <trkpt lat="63.145279" lon="12.952157">
        <ele>579.985</ele>
        <time>2011-07-07T12:38:50Z</time>
      </trkpt>
      <trkpt lat="63.145272" lon="12.952433">
        <ele>579.998</ele>
        <time>2011-07-07T12:38:57Z</time>
      </trkpt>
      <trkpt lat="63.145322" lon="12.952697">
        <ele>580.876</ele>
        <time>2011-07-07T12:39:03Z</time>
      </trkpt>
      <trkpt lat="63.14533" lon="12.95275">
        <ele>580.995</ele>
        <time>2011-07-07T12:39:04Z</time>
      </trkpt>
      <trkpt lat="63.145367" lon="12.953017">
        <ele>581.775</ele>
        <time>2011-07-07T12:39:10Z</time>
      </trkpt>
      <trkpt lat="63.145372" lon="12.953078">
        <ele>582.192</ele>
        <time>2011-07-07T12:39:12Z</time>
      </trkpt>
      <trkpt lat="63.145373" lon="12.953276">
        <ele>583.249</ele>
        <time>2011-07-07T12:39:19Z</time>
      </trkpt>
      <trkpt lat="63.145388" lon="12.953372">
        <ele>584.463</ele>
        <time>2011-07-07T12:39:24Z</time>
      </trkpt>
      <trkpt lat="63.145398" lon="12.953537">
        <ele>587.076</ele>
        <time>2011-07-07T12:39:32Z</time>
      </trkpt>
      <trkpt lat="63.145419" lon="12.953641">
        <ele>588.474</ele>
        <time>2011-07-07T12:39:38Z</time>
      </trkpt>
      <trkpt lat="63.145424" lon="12.953743">
        <ele>589.508</ele>
        <time>2011-07-07T12:39:42Z</time>
      </trkpt>
      <trkpt lat="63.145401" lon="12.953972">
        <ele>590.148</ele>
        <time>2011-07-07T12:39:49Z</time>
      </trkpt>
      <trkpt lat="63.145401" lon="12.954002">
        <ele>590.301</ele>
        <time>2011-07-07T12:39:50Z</time>
      </trkpt>
      <trkpt lat="63.145401" lon="12.954142">
        <ele>590.508</ele>
        <time>2011-07-07T12:39:54Z</time>
      </trkpt>
      <trkpt lat="63.145424" lon="12.954225">
        <ele>590.619</ele>
        <time>2011-07-07T12:39:57Z</time>
      </trkpt>
      <trkpt lat="63.145471" lon="12.954398">
        <ele>590.915</ele>
        <time>2011-07-07T12:40:03Z</time>
      </trkpt>
      <trkpt lat="63.145515" lon="12.954611">
        <ele>590.792</ele>
        <time>2011-07-07T12:40:09Z</time>
      </trkpt>
      <trkpt lat="63.145539" lon="12.954814">
        <ele>590.829</ele>
        <time>2011-07-07T12:40:13Z</time>
      </trkpt>
      <trkpt lat="63.145546" lon="12.954874">
        <ele>590.77</ele>
        <time>2011-07-07T12:40:14Z</time>
      </trkpt>
      <trkpt lat="63.145529" lon="12.955274">
        <ele>590.84</ele>
        <time>2011-07-07T12:40:20Z</time>
      </trkpt>
      <trkpt lat="63.145544" lon="12.955578">
        <ele>590.897</ele>
        <time>2011-07-07T12:40:25Z</time>
      </trkpt>
      <trkpt lat="63.145549" lon="12.955869">
        <ele>590.781</ele>
        <time>2011-07-07T12:40:30Z</time>
      </trkpt>
      <trkpt lat="63.14556" lon="12.956179">
        <ele>590.795</ele>
        <time>2011-07-07T12:40:36Z</time>
      </trkpt>
      <trkpt lat="63.145541" lon="12.956474">
        <ele>590.787</ele>
        <time>2011-07-07T12:40:41Z</time>
      </trkpt>
      <trkpt lat="63.145543" lon="12.95682">
        <ele>590.625</ele>
        <time>2011-07-07T12:40:47Z</time>
      </trkpt>
      <trkpt lat="63.145541" lon="12.956929">
        <ele>590.635</ele>
        <time>2011-07-07T12:40:49Z</time>
      </trkpt>
      <trkpt lat="63.14552" lon="12.95703">
        <ele>590.543</ele>
        <time>2011-07-07T12:40:51Z</time>
      </trkpt>
      <trkpt lat="63.145494" lon="12.957237">
        <ele>590.398</ele>
        <time>2011-07-07T12:40:55Z</time>
      </trkpt>
      <trkpt lat="63.145463" lon="12.957623">
        <ele>590.636</ele>
        <time>2011-07-07T12:41:02Z</time>
      </trkpt>
      <trkpt lat="63.145458" lon="12.95785">
        <ele>590.605</ele>
        <time>2011-07-07T12:41:07Z</time>
      </trkpt>
      <trkpt lat="63.145453" lon="12.958194">
        <ele>590.599</ele>
        <time>2011-07-07T12:41:13Z</time>
      </trkpt>
      <trkpt lat="63.145432" lon="12.958477">
        <ele>590.51</ele>
        <time>2011-07-07T12:41:18Z</time>
      </trkpt>
      <trkpt lat="63.145429" lon="12.958627">
        <ele>590.478</ele>
        <time>2011-07-07T12:41:22Z</time>
      </trkpt>
      <trkpt lat="63.145443" lon="12.958734">
        <ele>590.628</ele>
        <time>2011-07-07T12:41:26Z</time>
      </trkpt>
      <trkpt lat="63.145425" lon="12.958913">
        <ele>590.55</ele>
        <time>2011-07-07T12:41:33Z</time>
      </trkpt>
      <trkpt lat="63.145419" lon="12.959194">
        <ele>590.417</ele>
        <time>2011-07-07T12:41:39Z</time>
      </trkpt>
      <trkpt lat="63.1454" lon="12.959459">
        <ele>589.763</ele>
        <time>2011-07-07T12:41:44Z</time>
      </trkpt>
      <trkpt lat="63.145386" lon="12.959726">
        <ele>588.993</ele>
        <time>2011-07-07T12:41:49Z</time>
      </trkpt>
      <trkpt lat="63.145384" lon="12.960006">
        <ele>588.365</ele>
        <time>2011-07-07T12:41:54Z</time>
      </trkpt>
      <trkpt lat="63.145367" lon="12.960252">
        <ele>588.817</ele>
        <time>2011-07-07T12:41:59Z</time>
      </trkpt>
      <trkpt lat="63.145382" lon="12.960573">
        <ele>588.557</ele>
        <time>2011-07-07T12:42:04Z</time>
      </trkpt>
      <trkpt lat="63.145377" lon="12.960865">
        <ele>588.497</ele>
        <time>2011-07-07T12:42:09Z</time>
      </trkpt>
      <trkpt lat="63.145399" lon="12.961205">
        <ele>588.277</ele>
        <time>2011-07-07T12:42:15Z</time>
      </trkpt>
      <trkpt lat="63.145415" lon="12.961494">
        <ele>588.362</ele>
        <time>2011-07-07T12:42:20Z</time>
      </trkpt>
      <trkpt lat="63.145464" lon="12.961862">
        <ele>588.214</ele>
        <time>2011-07-07T12:42:26Z</time>
      </trkpt>
      <trkpt lat="63.145509" lon="12.962122">
        <ele>588.327</ele>
        <time>2011-07-07T12:42:31Z</time>
      </trkpt>
      <trkpt lat="63.145558" lon="12.962463">
        <ele>588.653</ele>
        <time>2011-07-07T12:42:38Z</time>
      </trkpt>
      <trkpt lat="63.145583" lon="12.962742">
        <ele>588.684</ele>
        <time>2011-07-07T12:42:44Z</time>
      </trkpt>
      <trkpt lat="63.145655" lon="12.963167">
        <ele>588.838</ele>
        <time>2011-07-07T12:42:52Z</time>
      </trkpt>
      <trkpt lat="63.145792" lon="12.963478">
        <ele>588.175</ele>
        <time>2011-07-07T12:43:00Z</time>
      </trkpt>
      <trkpt lat="63.145916" lon="12.963626">
        <ele>586.715</ele>
        <time>2011-07-07T12:43:06Z</time>
      </trkpt>
      <trkpt lat="63.145956" lon="12.96372">
        <ele>586.41</ele>
        <time>2011-07-07T12:43:11Z</time>
      </trkpt>
      <trkpt lat="63.146015" lon="12.963808">
        <ele>586.434</ele>
        <time>2011-07-07T12:43:16Z</time>
      </trkpt>
      <trkpt lat="63.146124" lon="12.963936">
        <ele>587.048</ele>
        <time>2011-07-07T12:43:24Z</time>
      </trkpt>
      <trkpt lat="63.146161" lon="12.963999">
        <ele>587.758</ele>
        <time>2011-07-07T12:43:28Z</time>
      </trkpt>
      <trkpt lat="63.146276" lon="12.964094">
        <ele>589.067</ele>
        <time>2011-07-07T12:43:35Z</time>
      </trkpt>
      <trkpt lat="63.146327" lon="12.964169">
        <ele>590.191</ele>
        <time>2011-07-07T12:43:42Z</time>
      </trkpt>
      <trkpt lat="63.146398" lon="12.964218">
        <ele>591.374</ele>
        <time>2011-07-07T12:43:51Z</time>
      </trkpt>
      <trkpt lat="63.146445" lon="12.964238">
        <ele>591.987</ele>
        <time>2011-07-07T12:43:57Z</time>
      </trkpt>
      <trkpt lat="63.146484" lon="12.96426">
        <ele>592.236</ele>
        <time>2011-07-07T12:44:03Z</time>
      </trkpt>
      <trkpt lat="63.146533" lon="12.964295">
        <ele>592.888</ele>
        <time>2011-07-07T12:44:59Z</time>
      </trkpt>
      <trkpt lat="63.146625" lon="12.964289">
        <ele>593.25</ele>
        <time>2011-07-07T12:45:05Z</time>
      </trkpt>
      <trkpt lat="63.146696" lon="12.964278">
        <ele>593.069</ele>
        <time>2011-07-07T12:45:11Z</time>
      </trkpt>
      <trkpt lat="63.146728" lon="12.96427">
        <ele>593.076</ele>
        <time>2011-07-07T12:45:15Z</time>
      </trkpt>
      <trkpt lat="63.146845" lon="12.964234">
        <ele>593.076</ele>
        <time>2011-07-07T12:45:25Z</time>
      </trkpt>
      <trkpt lat="63.146941" lon="12.964224">
        <ele>593.026</ele>
        <time>2011-07-07T12:45:34Z</time>
      </trkpt>
      <trkpt lat="63.147032" lon="12.964164">
        <ele>593.483</ele>
        <time>2011-07-07T12:45:43Z</time>
      </trkpt>
      <trkpt lat="63.147145" lon="12.964121">
        <ele>594.044</ele>
        <time>2011-07-07T12:45:52Z</time>
      </trkpt>
      <trkpt lat="63.147279" lon="12.964056">
        <ele>594.32</ele>
        <time>2011-07-07T12:46:01Z</time>
      </trkpt>
      <trkpt lat="63.14735" lon="12.964013">
        <ele>595.05</ele>
        <time>2011-07-07T12:46:07Z</time>
      </trkpt>
      <trkpt lat="63.147439" lon="12.963966">
        <ele>595.417</ele>
        <time>2011-07-07T12:46:14Z</time>
      </trkpt>
      <trkpt lat="63.147515" lon="12.963927">
        <ele>595.937</ele>
        <time>2011-07-07T12:46:21Z</time>
      </trkpt>
      <trkpt lat="63.147595" lon="12.963857">
        <ele>596.182</ele>
        <time>2011-07-07T12:46:28Z</time>
      </trkpt>
      <trkpt lat="63.147662" lon="12.96378">
        <ele>596.854</ele>
        <time>2011-07-07T12:46:35Z</time>
      </trkpt>
      <trkpt lat="63.147703" lon="12.963689">
        <ele>597.102</ele>
        <time>2011-07-07T12:46:40Z</time>
      </trkpt>
      <trkpt lat="63.147786" lon="12.963588">
        <ele>597.46</ele>
        <time>2011-07-07T12:46:47Z</time>
      </trkpt>
      <trkpt lat="63.14784" lon="12.963525">
        <ele>597.803</ele>
        <time>2011-07-07T12:46:53Z</time>
      </trkpt>
      <trkpt lat="63.147952" lon="12.963514">
        <ele>598.464</ele>
        <time>2011-07-07T12:47:03Z</time>
      </trkpt>
      <trkpt lat="63.147961" lon="12.963516">
        <ele>598.662</ele>
        <time>2011-07-07T12:47:05Z</time>
      </trkpt>
      <trkpt lat="63.147986" lon="12.963512">
        <ele>598.489</ele>
        <time>2011-07-07T12:47:13Z</time>
      </trkpt>
      <trkpt lat="63.148097" lon="12.96357">
        <ele>599.324</ele>
        <time>2011-07-07T12:47:23Z</time>
      </trkpt>
      <trkpt lat="63.148099" lon="12.963571">
        <ele>599.364</ele>
        <time>2011-07-07T12:47:24Z</time>
      </trkpt>
      <trkpt lat="63.148065" lon="12.963548">
        <ele>599.146</ele>
        <time>2011-07-07T12:47:33Z</time>
      </trkpt>
      <trkpt lat="63.148065" lon="12.963549">
        <ele>599.101</ele>
        <time>2011-07-07T12:47:34Z</time>
      </trkpt>
      <trkpt lat="63.148111" lon="12.963586">
        <ele>598.882</ele>
        <time>2011-07-07T12:47:52Z</time>
      </trkpt>
      <trkpt lat="63.148157" lon="12.963589">
        <ele>599.164</ele>
        <time>2011-07-07T12:47:56Z</time>
      </trkpt>
      <trkpt lat="63.148205" lon="12.963625">
        <ele>599.479</ele>
        <time>2011-07-07T12:48:01Z</time>
      </trkpt>
      <trkpt lat="63.148309" lon="12.963587">
        <ele>600.222</ele>
        <time>2011-07-07T12:48:11Z</time>
      </trkpt>
      <trkpt lat="63.148388" lon="12.963687">
        <ele>600.141</ele>
        <time>2011-07-07T12:48:19Z</time>
      </trkpt>
      <trkpt lat="63.148471" lon="12.963907">
        <ele>599.984</ele>
        <time>2011-07-07T12:48:28Z</time>
      </trkpt>
      <trkpt lat="63.14851" lon="12.964086">
        <ele>600.178</ele>
        <time>2011-07-07T12:48:36Z</time>
      </trkpt>
      <trkpt lat="63.148519" lon="12.96418">
        <ele>600.161</ele>
        <time>2011-07-07T12:48:40Z</time>
      </trkpt>
      <trkpt lat="63.148585" lon="12.964503">
        <ele>600.485</ele>
        <time>2011-07-07T12:48:52Z</time>
      </trkpt>
      <trkpt lat="63.148642" lon="12.964796">
        <ele>600.289</ele>
        <time>2011-07-07T12:49:03Z</time>
      </trkpt>
      <trkpt lat="63.148682" lon="12.965023">
        <ele>600.065</ele>
        <time>2011-07-07T12:49:12Z</time>
      </trkpt>
      <trkpt lat="63.148711" lon="12.965208">
        <ele>600.151</ele>
        <time>2011-07-07T12:49:19Z</time>
      </trkpt>
      <trkpt lat="63.148734" lon="12.965363">
        <ele>600.015</ele>
        <time>2011-07-07T12:49:26Z</time>
      </trkpt>
      <trkpt lat="63.148765" lon="12.965583">
        <ele>599.978</ele>
        <time>2011-07-07T12:49:34Z</time>
      </trkpt>
      <trkpt lat="63.148812" lon="12.965798">
        <ele>599.984</ele>
        <time>2011-07-07T12:49:43Z</time>
      </trkpt>
      <trkpt lat="63.148836" lon="12.966016">
        <ele>600.019</ele>
        <time>2011-07-07T12:49:51Z</time>
      </trkpt>
      <trkpt lat="63.148835" lon="12.966107">
        <ele>600.119</ele>
        <time>2011-07-07T12:49:57Z</time>
      </trkpt>
      <trkpt lat="63.148836" lon="12.96616">
        <ele>599.357</ele>
        <time>2011-07-07T12:55:02Z</time>
      </trkpt>
      <trkpt lat="63.148835" lon="12.966172">
        <ele>599.544</ele>
        <time>2011-07-07T12:55:04Z</time>
      </trkpt>
      <trkpt lat="63.148838" lon="12.966266">
        <ele>599.974</ele>
        <time>2011-07-07T12:55:12Z</time>
      </trkpt>
      <trkpt lat="63.148828" lon="12.966264">
        <ele>600.184</ele>
        <time>2011-07-07T12:55:14Z</time>
      </trkpt>
      <trkpt lat="63.14878" lon="12.966235">
        <ele>600.366</ele>
        <time>2011-07-07T12:55:22Z</time>
      </trkpt>
      <trkpt lat="63.148437" lon="12.965927">
        <ele>600.432</ele>
        <time>2011-07-07T12:55:54Z</time>
      </trkpt>
      <trkpt lat="63.148509" lon="12.965835">
        <ele>600.351</ele>
        <time>2011-07-07T12:55:58Z</time>
      </trkpt>
      <trkpt lat="63.148507" lon="12.965822">
        <ele>600.265</ele>
        <time>2011-07-07T12:55:59Z</time>
      </trkpt>
      <trkpt lat="63.148546" lon="12.965785">
        <ele>599.953</ele>
        <time>2011-07-07T12:56:09Z</time>
      </trkpt>
      <trkpt lat="63.148572" lon="12.965878">
        <ele>599.935</ele>
        <time>2011-07-07T12:56:13Z</time>
      </trkpt>
      <trkpt lat="63.148968" lon="12.966303">
        <ele>600.056</ele>
        <time>2011-07-07T12:57:35Z</time>
      </trkpt>
      <trkpt lat="63.14896" lon="12.966312">
        <ele>599.824</ele>
        <time>2011-07-07T12:57:36Z</time>
      </trkpt>
      <trkpt lat="63.148838" lon="12.966309">
        <ele>599.543</ele>
        <time>2011-07-07T12:57:39Z</time>
      </trkpt>
      <trkpt lat="63.148881" lon="12.966549">
        <ele>599.8</ele>
        <time>2011-07-07T12:57:46Z</time>
      </trkpt>
      <trkpt lat="63.148861" lon="12.966657">
        <ele>599.356</ele>
        <time>2011-07-07T12:57:53Z</time>
      </trkpt>
      <trkpt lat="63.148858" lon="12.966661">
        <ele>599.254</ele>
        <time>2011-07-07T12:57:55Z</time>
      </trkpt>
      <trkpt lat="63.148845" lon="12.966755">
        <ele>599.512</ele>
        <time>2011-07-07T12:58:06Z</time>
      </trkpt>
      <trkpt lat="63.148814" lon="12.966867">
        <ele>599.163</ele>
        <time>2011-07-07T12:58:12Z</time>
      </trkpt>
      <trkpt lat="63.148812" lon="12.966905">
        <ele>598.924</ele>
        <time>2011-07-07T12:58:14Z</time>
      </trkpt>
      <trkpt lat="63.148862" lon="12.967073">
        <ele>599.062</ele>
        <time>2011-07-07T12:58:23Z</time>
      </trkpt>
      <trkpt lat="63.148932" lon="12.967136">
        <ele>599.411</ele>
        <time>2011-07-07T12:58:31Z</time>
      </trkpt>
      <trkpt lat="63.148934" lon="12.967149">
        <ele>599.513</ele>
        <time>2011-07-07T12:58:34Z</time>
      </trkpt>
      <trkpt lat="63.148929" lon="12.967111">
        <ele>599.721</ele>
        <time>2011-07-07T12:58:38Z</time>
      </trkpt>
      <trkpt lat="63.14894" lon="12.967039">
        <ele>599.785</ele>
        <time>2011-07-07T12:58:44Z</time>
      </trkpt>
      <trkpt lat="63.148935" lon="12.966974">
        <ele>599.655</ele>
        <time>2011-07-07T12:58:49Z</time>
      </trkpt>
      <trkpt lat="63.148952" lon="12.966975">
        <ele>599.677</ele>
        <time>2011-07-07T12:58:50Z</time>
      </trkpt>
      <trkpt lat="63.148976" lon="12.967086">
        <ele>599.801</ele>
        <time>2011-07-07T12:58:56Z</time>
      </trkpt>
      <trkpt lat="63.149018" lon="12.967186">
        <ele>599.176</ele>
        <time>2011-07-07T12:59:02Z</time>
      </trkpt>
      <trkpt lat="63.149023" lon="12.967189">
        <ele>599.224</ele>
        <time>2011-07-07T12:59:03Z</time>
      </trkpt>
      <trkpt lat="63.149005" lon="12.967136">
        <ele>599.37</ele>
        <time>2011-07-07T12:59:09Z</time>
      </trkpt>
      <trkpt lat="63.148929" lon="12.967304">
        <ele>599.212</ele>
        <time>2011-07-07T12:59:51Z</time>
      </trkpt>
      <trkpt lat="63.149059" lon="12.967221">
        <ele>599.144</ele>
        <time>2011-07-07T13:00:01Z</time>
      </trkpt>
      <trkpt lat="63.149157" lon="12.967133">
        <ele>599.08</ele>
        <time>2011-07-07T13:00:09Z</time>
      </trkpt>
      <trkpt lat="63.149121" lon="12.967151">
        <ele>599.173</ele>
        <time>2011-07-07T13:00:12Z</time>
      </trkpt>
      <trkpt lat="63.149129" lon="12.967147">
        <ele>599.064</ele>
        <time>2011-07-07T13:00:23Z</time>
      </trkpt>
      <trkpt lat="63.149082" lon="12.967168">
        <ele>599.096</ele>
        <time>2011-07-07T13:00:24Z</time>
      </trkpt>
      <trkpt lat="63.149077" lon="12.96715">
        <ele>599.197</ele>
        <time>2011-07-07T13:00:28Z</time>
      </trkpt>
      <trkpt lat="63.149024" lon="12.967016">
        <ele>599.347</ele>
        <time>2011-07-07T13:00:41Z</time>
      </trkpt>
      <trkpt lat="63.148971" lon="12.967062">
        <ele>599.645</ele>
        <time>2011-07-07T13:01:05Z</time>
      </trkpt>
      <trkpt lat="63.148956" lon="12.967064">
        <ele>599.47</ele>
        <time>2011-07-07T13:01:09Z</time>
      </trkpt>
      <trkpt lat="63.149008" lon="12.967098">
        <ele>599.444</ele>
        <time>2011-07-07T13:01:19Z</time>
      </trkpt>
      <trkpt lat="63.149021" lon="12.967093">
        <ele>599.459</ele>
        <time>2011-07-07T13:01:20Z</time>
      </trkpt>
      <trkpt lat="63.149077" lon="12.967108">
        <ele>599.464</ele>
        <time>2011-07-07T13:01:25Z</time>
      </trkpt>
      <trkpt lat="63.149104" lon="12.967093">
        <ele>599.179</ele>
        <time>2011-07-07T13:01:31Z</time>
      </trkpt>
      <trkpt lat="63.149155" lon="12.967121">
        <ele>598.987</ele>
        <time>2011-07-07T13:01:35Z</time>
      </trkpt>
      <trkpt lat="63.149189" lon="12.967111">
        <ele>599.068</ele>
        <time>2011-07-07T13:01:37Z</time>
      </trkpt>
      <trkpt lat="63.149196" lon="12.967071">
        <ele>599.14</ele>
        <time>2011-07-07T13:01:42Z</time>
      </trkpt>
      <trkpt lat="63.149218" lon="12.967016">
        <ele>599.516</ele>
        <time>2011-07-07T13:01:51Z</time>
      </trkpt>
      <trkpt lat="63.149288" lon="12.967088">
        <ele>599.674</ele>
        <time>2011-07-07T13:01:58Z</time>
      </trkpt>
      <trkpt lat="63.149219" lon="12.967019">
        <ele>599.837</ele>
        <time>2011-07-07T13:02:05Z</time>
      </trkpt>
      <trkpt lat="63.149226" lon="12.967024">
        <ele>600.04</ele>
        <time>2011-07-07T13:02:07Z</time>
      </trkpt>
      <trkpt lat="63.149175" lon="12.966989">
        <ele>600.103</ele>
        <time>2011-07-07T13:02:14Z</time>
      </trkpt>
      <trkpt lat="63.14898" lon="12.966999">
        <ele>600.355</ele>
        <time>2011-07-07T13:02:31Z</time>
      </trkpt>
      <trkpt lat="63.149002" lon="12.966928">
        <ele>600.397</ele>
        <time>2011-07-07T13:02:46Z</time>
      </trkpt>
      <trkpt lat="63.148987" lon="12.966858">
        <ele>600.893</ele>
        <time>2011-07-07T13:03:02Z</time>
      </trkpt>
      <trkpt lat="63.148974" lon="12.966844">
        <ele>600.886</ele>
        <time>2011-07-07T13:03:04Z</time>
      </trkpt>
      <trkpt lat="63.148898" lon="12.966883">
        <ele>600.791</ele>
        <time>2011-07-07T13:03:13Z</time>
      </trkpt>
      <trkpt lat="63.148852" lon="12.96694">
        <ele>600.578</ele>
        <time>2011-07-07T13:03:19Z</time>
      </trkpt>
      <trkpt lat="63.14886" lon="12.966943">
        <ele>600.586</ele>
        <time>2011-07-07T13:03:20Z</time>
      </trkpt>
      <trkpt lat="63.149043" lon="12.96698">
        <ele>601.042</ele>
        <time>2011-07-07T13:03:42Z</time>
      </trkpt>
      <trkpt lat="63.149112" lon="12.966989">
        <ele>601.412</ele>
        <time>2011-07-07T13:04:00Z</time>
      </trkpt>
      <trkpt lat="63.149125" lon="12.966999">
        <ele>601.288</ele>
        <time>2011-07-07T13:04:04Z</time>
      </trkpt>
      <trkpt lat="63.149028" lon="12.967059">
        <ele>601.207</ele>
        <time>2011-07-07T13:04:12Z</time>
      </trkpt>
      <trkpt lat="63.14896" lon="12.96712">
        <ele>601.063</ele>
        <time>2011-07-07T13:04:16Z</time>
      </trkpt>
      <trkpt lat="63.148873" lon="12.967134">
        <ele>600.885</ele>
        <time>2011-07-07T13:04:20Z</time>
      </trkpt>
      <trkpt lat="63.148831" lon="12.967182">
        <ele>600.581</ele>
        <time>2011-07-07T13:04:24Z</time>
      </trkpt>
      <trkpt lat="63.148724" lon="12.967209">
        <ele>600.371</ele>
        <time>2011-07-07T13:04:30Z</time>
      </trkpt>
      <trkpt lat="63.14871" lon="12.967248">
        <ele>600.171</ele>
        <time>2011-07-07T13:04:37Z</time>
      </trkpt>
      <trkpt lat="63.148721" lon="12.967232">
        <ele>599.925</ele>
        <time>2011-07-07T13:04:40Z</time>
      </trkpt>
      <trkpt lat="63.148696" lon="12.967233">
        <ele>599.883</ele>
        <time>2011-07-07T13:04:44Z</time>
      </trkpt>
      <trkpt lat="63.149027" lon="12.96705">
        <ele>598.648</ele>
        <time>2011-07-07T13:06:26Z</time>
      </trkpt>
      <trkpt lat="63.149036" lon="12.967042">
        <ele>598.668</ele>
        <time>2011-07-07T13:06:27Z</time>
      </trkpt>
      <trkpt lat="63.149043" lon="12.96698">
        <ele>598.716</ele>
        <time>2011-07-07T13:06:33Z</time>
      </trkpt>
      <trkpt lat="63.149036" lon="12.966977">
        <ele>598.627</ele>
        <time>2011-07-07T13:06:38Z</time>
      </trkpt>
      <trkpt lat="63.149085" lon="12.967023">
        <ele>598.688</ele>
        <time>2011-07-07T13:06:55Z</time>
      </trkpt>
      <trkpt lat="63.149091" lon="12.967034">
        <ele>598.835</ele>
        <time>2011-07-07T13:06:59Z</time>
      </trkpt>
      <trkpt lat="63.149141" lon="12.967052">
        <ele>599.076</ele>
        <time>2011-07-07T13:07:24Z</time>
      </trkpt>
      <trkpt lat="63.149015" lon="12.967167">
        <ele>599.369</ele>
        <time>2011-07-07T13:07:35Z</time>
      </trkpt>
      <trkpt lat="63.149063" lon="12.967051">
        <ele>599.5</ele>
        <time>2011-07-07T13:08:01Z</time>
      </trkpt>
      <trkpt lat="63.149094" lon="12.967067">
        <ele>599.469</ele>
        <time>2011-07-07T13:08:05Z</time>
      </trkpt>
      <trkpt lat="63.149066" lon="12.967051">
        <ele>599.941</ele>
        <time>2011-07-07T13:08:16Z</time>
      </trkpt>
      <trkpt lat="63.149065" lon="12.967068">
        <ele>599.677</ele>
        <time>2011-07-07T13:08:17Z</time>
      </trkpt>
      <trkpt lat="63.149059" lon="12.967033">
        <ele>599.731</ele>
        <time>2011-07-07T13:08:22Z</time>
      </trkpt>
      <trkpt lat="63.149025" lon="12.967023">
        <ele>600.349</ele>
        <time>2011-07-07T13:08:32Z</time>
      </trkpt>
      <trkpt lat="63.149028" lon="12.96704">
        <ele>600.379</ele>
        <time>2011-07-07T13:08:33Z</time>
      </trkpt>
      <trkpt lat="63.149011" lon="12.967017">
        <ele>600.351</ele>
        <time>2011-07-07T13:08:58Z</time>
      </trkpt>
      <trkpt lat="63.148963" lon="12.966946">
        <ele>600.546</ele>
        <time>2011-07-07T13:09:16Z</time>
      </trkpt>
      <trkpt lat="63.148955" lon="12.967021">
        <ele>600.49</ele>
        <time>2011-07-07T13:09:20Z</time>
      </trkpt>
      <trkpt lat="63.148973" lon="12.967047">
        <ele>600.835</ele>
        <time>2011-07-07T13:09:23Z</time>
      </trkpt>
      <trkpt lat="63.148962" lon="12.967106">
        <ele>600.776</ele>
        <time>2011-07-07T13:09:36Z</time>
      </trkpt>
      <trkpt lat="63.148923" lon="12.967162">
        <ele>600.789</ele>
        <time>2011-07-07T13:09:43Z</time>
      </trkpt>
      <trkpt lat="63.148933" lon="12.967098">
        <ele>600.026</ele>
        <time>2011-07-07T13:11:15Z</time>
      </trkpt>
      <trkpt lat="63.148985" lon="12.96709">
        <ele>599.951</ele>
        <time>2011-07-07T13:12:06Z</time>
      </trkpt>
      <trkpt lat="63.148911" lon="12.967086">
        <ele>599.58</ele>
        <time>2011-07-07T13:12:37Z</time>
      </trkpt>
      <trkpt lat="63.148882" lon="12.967069">
        <ele>599.625</ele>
        <time>2011-07-07T13:12:46Z</time>
      </trkpt>
      <trkpt lat="63.148963" lon="12.967119">
        <ele>599.943</ele>
        <time>2011-07-07T13:13:05Z</time>
      </trkpt>
      <trkpt lat="63.148993" lon="12.967098">
        <ele>599.549</ele>
        <time>2011-07-07T13:13:13Z</time>
      </trkpt>
      <trkpt lat="63.149002" lon="12.967222">
        <ele>600.08</ele>
        <time>2011-07-07T13:14:52Z</time>
      </trkpt>
      <trkpt lat="63.149008" lon="12.967211">
        <ele>600.038</ele>
        <time>2011-07-07T13:14:55Z</time>
      </trkpt>
      <trkpt lat="63.149001" lon="12.967125">
        <ele>600.038</ele>
        <time>2011-07-07T13:15:08Z</time>
      </trkpt>
      <trkpt lat="63.149014" lon="12.967118">
        <ele>600.04</ele>
        <time>2011-07-07T13:15:10Z</time>
      </trkpt>
      <trkpt lat="63.148927" lon="12.967205">
        <ele>600.26</ele>
        <time>2011-07-07T13:23:21Z</time>
      </trkpt>
      <trkpt lat="63.14892" lon="12.967157">
        <ele>600.312</ele>
        <time>2011-07-07T13:23:37Z</time>
      </trkpt>
      <trkpt lat="63.148912" lon="12.967049">
        <ele>601.145</ele>
        <time>2011-07-07T13:23:47Z</time>
      </trkpt>
      <trkpt lat="63.148856" lon="12.967057">
        <ele>600.57</ele>
        <time>2011-07-07T13:24:00Z</time>
      </trkpt>
      <trkpt lat="63.148811" lon="12.966917">
        <ele>600.153</ele>
        <time>2011-07-07T13:24:10Z</time>
      </trkpt>
      <trkpt lat="63.148809" lon="12.966756">
        <ele>599.872</ele>
        <time>2011-07-07T13:24:18Z</time>
      </trkpt>
      <trkpt lat="63.148832" lon="12.966555">
        <ele>600.513</ele>
        <time>2011-07-07T13:24:28Z</time>
      </trkpt>
      <trkpt lat="63.148849" lon="12.966396">
        <ele>601.006</ele>
        <time>2011-07-07T13:24:36Z</time>
      </trkpt>
      <trkpt lat="63.14885" lon="12.966352">
        <ele>600.777</ele>
        <time>2011-07-07T13:24:40Z</time>
      </trkpt>
      <trkpt lat="63.148998" lon="12.966208">
        <ele>604.116</ele>
        <time>2011-07-07T13:25:18Z</time>
      </trkpt>
      <trkpt lat="63.148995" lon="12.966234">
        <ele>604.121</ele>
        <time>2011-07-07T13:25:19Z</time>
      </trkpt>
      <trkpt lat="63.148976" lon="12.966135">
        <ele>603.809</ele>
        <time>2011-07-07T13:25:28Z</time>
      </trkpt>
      <trkpt lat="63.148955" lon="12.966112">
        <ele>602.62</ele>
        <time>2011-07-07T13:25:40Z</time>
      </trkpt>
      <trkpt lat="63.148952" lon="12.966171">
        <ele>602.627</ele>
        <time>2011-07-07T13:25:45Z</time>
      </trkpt>
      <trkpt lat="63.148952" lon="12.966165">
        <ele>602.519</ele>
        <time>2011-07-07T13:25:49Z</time>
      </trkpt>
      <trkpt lat="63.148953" lon="12.96617">
        <ele>602.436</ele>
        <time>2011-07-07T13:25:50Z</time>
      </trkpt>
      <trkpt lat="63.14898" lon="12.966091">
        <ele>602.543</ele>
        <time>2011-07-07T13:25:56Z</time>
      </trkpt>
      <trkpt lat="63.149001" lon="12.966052">
        <ele>602.433</ele>
        <time>2011-07-07T13:26:02Z</time>
      </trkpt>
      <trkpt lat="63.149017" lon="12.966324">
        <ele>602.309</ele>
        <time>2011-07-07T13:26:11Z</time>
      </trkpt>
      <trkpt lat="63.149007" lon="12.966457">
        <ele>602.062</ele>
        <time>2011-07-07T13:26:17Z</time>
      </trkpt>
      <trkpt lat="63.148978" lon="12.966102">
        <ele>601.766</ele>
        <time>2011-07-07T13:26:38Z</time>
      </trkpt>
      <trkpt lat="63.148965" lon="12.966141">
        <ele>601.827</ele>
        <time>2011-07-07T13:26:51Z</time>
      </trkpt>
      <trkpt lat="63.148944" lon="12.966114">
        <ele>601.54</ele>
        <time>2011-07-07T13:26:59Z</time>
      </trkpt>
      <trkpt lat="63.148939" lon="12.965811">
        <ele>601.999</ele>
        <time>2011-07-07T13:27:28Z</time>
      </trkpt>
      <trkpt lat="63.148887" lon="12.965865">
        <ele>602.288</ele>
        <time>2011-07-07T13:27:44Z</time>
      </trkpt>
      <trkpt lat="63.148882" lon="12.965772">
        <ele>602.359</ele>
        <time>2011-07-07T13:27:50Z</time>
      </trkpt>
      <trkpt lat="63.14887" lon="12.965804">
        <ele>602.21</ele>
        <time>2011-07-07T13:27:54Z</time>
      </trkpt>
      <trkpt lat="63.148871" lon="12.965797">
        <ele>601.937</ele>
        <time>2011-07-07T13:28:01Z</time>
      </trkpt>
      <trkpt lat="63.148894" lon="12.965948">
        <ele>602.14</ele>
        <time>2011-07-07T13:28:08Z</time>
      </trkpt>
      <trkpt lat="63.148904" lon="12.965957">
        <ele>602.04</ele>
        <time>2011-07-07T13:28:13Z</time>
      </trkpt>
      <trkpt lat="63.14891" lon="12.966003">
        <ele>601.881</ele>
        <time>2011-07-07T13:28:33Z</time>
      </trkpt>
      <trkpt lat="63.148909" lon="12.966168">
        <ele>601.958</ele>
        <time>2011-07-07T13:28:55Z</time>
      </trkpt>
      <trkpt lat="63.148918" lon="12.966183">
        <ele>601.561</ele>
        <time>2011-07-07T13:28:59Z</time>
      </trkpt>
      <trkpt lat="63.148939" lon="12.965904">
        <ele>601.399</ele>
        <time>2011-07-07T13:29:20Z</time>
      </trkpt>
      <trkpt lat="63.148935" lon="12.966018">
        <ele>601.355</ele>
        <time>2011-07-07T13:29:31Z</time>
      </trkpt>
      <trkpt lat="63.148945" lon="12.965739">
        <ele>600.911</ele>
        <time>2011-07-07T13:29:39Z</time>
      </trkpt>
      <trkpt lat="63.148968" lon="12.96552">
        <ele>600.928</ele>
        <time>2011-07-07T13:30:01Z</time>
      </trkpt>
      <trkpt lat="63.148897" lon="12.966095">
        <ele>600.648</ele>
        <time>2011-07-07T13:30:33Z</time>
      </trkpt>
      <trkpt lat="63.148895" lon="12.966125">
        <ele>600.52</ele>
        <time>2011-07-07T13:30:38Z</time>
      </trkpt>
      <trkpt lat="63.148917" lon="12.965722">
        <ele>600.619</ele>
        <time>2011-07-07T13:30:49Z</time>
      </trkpt>
      <trkpt lat="63.148936" lon="12.96568">
        <ele>600.664</ele>
        <time>2011-07-07T13:30:56Z</time>
      </trkpt>
      <trkpt lat="63.148945" lon="12.965627">
        <ele>600.53</ele>
        <time>2011-07-07T13:31:11Z</time>
      </trkpt>
      <trkpt lat="63.148929" lon="12.965974">
        <ele>600.187</ele>
        <time>2011-07-07T13:31:36Z</time>
      </trkpt>
      <trkpt lat="63.148927" lon="12.965959">
        <ele>600.159</ele>
        <time>2011-07-07T13:31:37Z</time>
      </trkpt>
      <trkpt lat="63.148882" lon="12.965608">
        <ele>600.316</ele>
        <time>2011-07-07T13:31:49Z</time>
      </trkpt>
      <trkpt lat="63.148879" lon="12.965565">
        <ele>600.304</ele>
        <time>2011-07-07T13:31:52Z</time>
      </trkpt>
      <trkpt lat="63.148902" lon="12.965577">
        <ele>600.364</ele>
        <time>2011-07-07T13:31:56Z</time>
      </trkpt>
      <trkpt lat="63.148934" lon="12.965642">
        <ele>600.503</ele>
        <time>2011-07-07T13:32:01Z</time>
      </trkpt>
      <trkpt lat="63.148945" lon="12.965631">
        <ele>600.634</ele>
        <time>2011-07-07T13:32:10Z</time>
      </trkpt>
      <trkpt lat="63.148955" lon="12.965645">
        <ele>600.676</ele>
        <time>2011-07-07T13:32:14Z</time>
      </trkpt>
      <trkpt lat="63.148973" lon="12.965766">
        <ele>600.684</ele>
        <time>2011-07-07T13:32:20Z</time>
      </trkpt>
      <trkpt lat="63.148984" lon="12.965768">
        <ele>600.529</ele>
        <time>2011-07-07T13:32:26Z</time>
      </trkpt>
      <trkpt lat="63.148983" lon="12.965773">
        <ele>600.435</ele>
        <time>2011-07-07T13:32:37Z</time>
      </trkpt>
      <trkpt lat="63.148968" lon="12.965778">
        <ele>600.363</ele>
        <time>2011-07-07T13:32:39Z</time>
      </trkpt>
      <trkpt lat="63.148959" lon="12.96576">
        <ele>600.502</ele>
        <time>2011-07-07T13:32:44Z</time>
      </trkpt>
      <trkpt lat="63.148926" lon="12.965622">
        <ele>600.62</ele>
        <time>2011-07-07T13:32:52Z</time>
      </trkpt>
      <trkpt lat="63.1489" lon="12.965669">
        <ele>600.913</ele>
        <time>2011-07-07T13:32:56Z</time>
      </trkpt>
      <trkpt lat="63.148884" lon="12.965939">
        <ele>601.391</ele>
        <time>2011-07-07T13:33:39Z</time>
      </trkpt>
      <trkpt lat="63.148975" lon="12.966058">
        <ele>601.6</ele>
        <time>2011-07-07T13:34:19Z</time>
      </trkpt>
      <trkpt lat="63.149029" lon="12.966186">
        <ele>601.606</ele>
        <time>2011-07-07T13:34:26Z</time>
      </trkpt>
      <trkpt lat="63.149058" lon="12.966235">
        <ele>601.284</ele>
        <time>2011-07-07T13:34:42Z</time>
      </trkpt>
      <trkpt lat="63.149035" lon="12.966182">
        <ele>601.151</ele>
        <time>2011-07-07T13:34:47Z</time>
      </trkpt>
      <trkpt lat="63.149011" lon="12.966201">
        <ele>601.134</ele>
        <time>2011-07-07T13:34:55Z</time>
      </trkpt>
      <trkpt lat="63.14899" lon="12.966276">
        <ele>600.941</ele>
        <time>2011-07-07T13:35:01Z</time>
      </trkpt>
      <trkpt lat="63.149019" lon="12.966306">
        <ele>601.049</ele>
        <time>2011-07-07T13:35:05Z</time>
      </trkpt>
      <trkpt lat="63.149002" lon="12.966249">
        <ele>600.881</ele>
        <time>2011-07-07T13:35:11Z</time>
      </trkpt>
      <trkpt lat="63.148822" lon="12.965763">
        <ele>601.003</ele>
        <time>2011-07-07T13:35:20Z</time>
      </trkpt>
      <trkpt lat="63.148863" lon="12.965768">
        <ele>600.916</ele>
        <time>2011-07-07T13:35:21Z</time>
      </trkpt>
      <trkpt lat="63.148981" lon="12.965486">
        <ele>600.778</ele>
        <time>2011-07-07T13:35:29Z</time>
      </trkpt>
      <trkpt lat="63.148939" lon="12.965497">
        <ele>600.8</ele>
        <time>2011-07-07T13:35:36Z</time>
      </trkpt>
      <trkpt lat="63.148914" lon="12.965445">
        <ele>600.731</ele>
        <time>2011-07-07T13:35:41Z</time>
      </trkpt>
      <trkpt lat="63.148903" lon="12.965429">
        <ele>600.738</ele>
        <time>2011-07-07T13:35:42Z</time>
      </trkpt>
      <trkpt lat="63.14892" lon="12.965425">
        <ele>600.586</ele>
        <time>2011-07-07T13:35:49Z</time>
      </trkpt>
      <trkpt lat="63.148931" lon="12.965562">
        <ele>600.588</ele>
        <time>2011-07-07T13:35:58Z</time>
      </trkpt>
      <trkpt lat="63.14895" lon="12.965644">
        <ele>600.643</ele>
        <time>2011-07-07T13:36:05Z</time>
      </trkpt>
      <trkpt lat="63.148939" lon="12.965749">
        <ele>600.766</ele>
        <time>2011-07-07T13:36:13Z</time>
      </trkpt>
      <trkpt lat="63.148979" lon="12.965816">
        <ele>601.038</ele>
        <time>2011-07-07T13:36:40Z</time>
      </trkpt>
      <trkpt lat="63.148968" lon="12.965845">
        <ele>600.975</ele>
        <time>2011-07-07T13:36:44Z</time>
      </trkpt>
      <trkpt lat="63.148979" lon="12.96609">
        <ele>601.118</ele>
        <time>2011-07-07T13:37:21Z</time>
      </trkpt>
      <trkpt lat="63.148928" lon="12.966076">
        <ele>601.227</ele>
        <time>2011-07-07T13:37:28Z</time>
      </trkpt>
      <trkpt lat="63.148914" lon="12.96597">
        <ele>601.157</ele>
        <time>2011-07-07T13:37:34Z</time>
      </trkpt>
      <trkpt lat="63.148925" lon="12.965956">
        <ele>600.561</ele>
        <time>2011-07-07T13:37:46Z</time>
      </trkpt>
      <trkpt lat="63.148953" lon="12.965945">
        <ele>600.594</ele>
        <time>2011-07-07T13:38:35Z</time>
      </trkpt>
      <trkpt lat="63.148946" lon="12.966008">
        <ele>600.826</ele>
        <time>2011-07-07T13:38:44Z</time>
      </trkpt>
      <trkpt lat="63.148947" lon="12.96602">
        <ele>600.549</ele>
        <time>2011-07-07T13:38:52Z</time>
      </trkpt>
      <trkpt lat="63.148981" lon="12.966071">
        <ele>600.739</ele>
        <time>2011-07-07T13:38:59Z</time>
      </trkpt>
      <trkpt lat="63.148986" lon="12.966128">
        <ele>600.425</ele>
        <time>2011-07-07T13:39:09Z</time>
      </trkpt>
      <trkpt lat="63.148984" lon="12.966141">
        <ele>600.418</ele>
        <time>2011-07-07T13:39:11Z</time>
      </trkpt>
      <trkpt lat="63.149002" lon="12.966353">
        <ele>599.807</ele>
        <time>2011-07-07T13:39:45Z</time>
      </trkpt>
      <trkpt lat="63.148949" lon="12.966122">
        <ele>599.707</ele>
        <time>2011-07-07T13:39:56Z</time>
      </trkpt>
      <trkpt lat="63.148975" lon="12.966175">
        <ele>599.771</ele>
        <time>2011-07-07T13:40:09Z</time>
      </trkpt>
      <trkpt lat="63.148935" lon="12.965911">
        <ele>599.733</ele>
        <time>2011-07-07T13:40:39Z</time>
      </trkpt>
      <trkpt lat="63.148916" lon="12.96589">
        <ele>599.907</ele>
        <time>2011-07-07T13:41:12Z</time>
      </trkpt>
      <trkpt lat="63.148928" lon="12.96595">
        <ele>599.561</ele>
        <time>2011-07-07T13:41:28Z</time>
      </trkpt>
      <trkpt lat="63.148933" lon="12.966129">
        <ele>599.69</ele>
        <time>2011-07-07T13:41:42Z</time>
      </trkpt>
      <trkpt lat="63.148959" lon="12.966092">
        <ele>599.49</ele>
        <time>2011-07-07T13:41:51Z</time>
      </trkpt>
      <trkpt lat="63.14893" lon="12.965986">
        <ele>599.448</ele>
        <time>2011-07-07T13:42:00Z</time>
      </trkpt>
      <trkpt lat="63.14893" lon="12.965875">
        <ele>599.433</ele>
        <time>2011-07-07T13:42:33Z</time>
      </trkpt>
      <trkpt lat="63.148935" lon="12.965835">
        <ele>599.459</ele>
        <time>2011-07-07T13:42:37Z</time>
      </trkpt>
      <trkpt lat="63.148937" lon="12.965819">
        <ele>599.475</ele>
        <time>2011-07-07T13:42:38Z</time>
      </trkpt>
      <trkpt lat="63.148913" lon="12.965699">
        <ele>599.427</ele>
        <time>2011-07-07T13:42:46Z</time>
      </trkpt>
      <trkpt lat="63.148886" lon="12.965666">
        <ele>599.349</ele>
        <time>2011-07-07T13:42:53Z</time>
      </trkpt>
      <trkpt lat="63.148888" lon="12.965533">
        <ele>599.372</ele>
        <time>2011-07-07T13:42:58Z</time>
      </trkpt>
      <trkpt lat="63.148887" lon="12.965513">
        <ele>599.387</ele>
        <time>2011-07-07T13:43:00Z</time>
      </trkpt>
      <trkpt lat="63.148872" lon="12.965792">
        <ele>599.477</ele>
        <time>2011-07-07T13:43:12Z</time>
      </trkpt>
      <trkpt lat="63.148906" lon="12.965881">
        <ele>599.314</ele>
        <time>2011-07-07T13:43:33Z</time>
      </trkpt>
      <trkpt lat="63.148909" lon="12.965816">
        <ele>599.35</ele>
        <time>2011-07-07T13:43:37Z</time>
      </trkpt>
      <trkpt lat="63.148932" lon="12.965829">
        <ele>599.444</ele>
        <time>2011-07-07T13:43:56Z</time>
      </trkpt>
      <trkpt lat="63.148933" lon="12.965848">
        <ele>599.272</ele>
        <time>2011-07-07T13:43:58Z</time>
      </trkpt>
      <trkpt lat="63.148945" lon="12.966069">
        <ele>599.317</ele>
        <time>2011-07-07T13:44:19Z</time>
      </trkpt>
      <trkpt lat="63.148936" lon="12.966019">
        <ele>599.411</ele>
        <time>2011-07-07T13:44:21Z</time>
      </trkpt>
      <trkpt lat="63.148892" lon="12.965968">
        <ele>599.35</ele>
        <time>2011-07-07T13:44:28Z</time>
      </trkpt>
      <trkpt lat="63.148907" lon="12.965885">
        <ele>599.491</ele>
        <time>2011-07-07T13:44:41Z</time>
      </trkpt>
      <trkpt lat="63.148901" lon="12.965941">
        <ele>599.398</ele>
        <time>2011-07-07T13:44:48Z</time>
      </trkpt>
      <trkpt lat="63.148888" lon="12.966016">
        <ele>599.424</ele>
        <time>2011-07-07T13:44:54Z</time>
      </trkpt>
      <trkpt lat="63.148908" lon="12.966153">
        <ele>599.372</ele>
        <time>2011-07-07T13:45:01Z</time>
      </trkpt>
      <trkpt lat="63.148913" lon="12.96611">
        <ele>599.208</ele>
        <time>2011-07-07T13:45:04Z</time>
      </trkpt>
      <trkpt lat="63.148974" lon="12.965794">
        <ele>599.393</ele>
        <time>2011-07-07T13:45:26Z</time>
      </trkpt>
      <trkpt lat="63.148972" lon="12.965891">
        <ele>599.128</ele>
        <time>2011-07-07T13:45:35Z</time>
      </trkpt>
      <trkpt lat="63.149056" lon="12.966137">
        <ele>598.827</ele>
        <time>2011-07-07T13:45:44Z</time>
      </trkpt>
      <trkpt lat="63.149089" lon="12.966186">
        <ele>599.072</ele>
        <time>2011-07-07T13:45:50Z</time>
      </trkpt>
      <trkpt lat="63.149108" lon="12.966196">
        <ele>599.291</ele>
        <time>2011-07-07T13:45:54Z</time>
      </trkpt>
      <trkpt lat="63.149095" lon="12.966181">
        <ele>599.414</ele>
        <time>2011-07-07T13:45:58Z</time>
      </trkpt>
      <trkpt lat="63.149001" lon="12.966">
        <ele>598.819</ele>
        <time>2011-07-07T13:46:06Z</time>
      </trkpt>
      <trkpt lat="63.149003" lon="12.966">
        <ele>598.772</ele>
        <time>2011-07-07T13:46:08Z</time>
      </trkpt>
      <trkpt lat="63.148817" lon="12.965931">
        <ele>598.492</ele>
        <time>2011-07-07T13:46:28Z</time>
      </trkpt>
      <trkpt lat="63.148787" lon="12.965852">
        <ele>598.324</ele>
        <time>2011-07-07T13:46:36Z</time>
      </trkpt>
      <trkpt lat="63.148726" lon="12.965678">
        <ele>598.116</ele>
        <time>2011-07-07T13:46:48Z</time>
      </trkpt>
      <trkpt lat="63.148755" lon="12.965793">
        <ele>598.29</ele>
        <time>2011-07-07T13:46:59Z</time>
      </trkpt>
      <trkpt lat="63.148889" lon="12.9659">
        <ele>597.935</ele>
        <time>2011-07-07T13:47:26Z</time>
      </trkpt>
      <trkpt lat="63.148928" lon="12.966023">
        <ele>597.911</ele>
        <time>2011-07-07T13:47:38Z</time>
      </trkpt>
      <trkpt lat="63.148928" lon="12.965471">
        <ele>598.18</ele>
        <time>2011-07-07T13:48:04Z</time>
      </trkpt>
      <trkpt lat="63.148933" lon="12.965514">
        <ele>598.261</ele>
        <time>2011-07-07T13:48:09Z</time>
      </trkpt>
      <trkpt lat="63.148934" lon="12.965526">
        <ele>598.234</ele>
        <time>2011-07-07T13:48:10Z</time>
      </trkpt>
      <trkpt lat="63.14894" lon="12.965682">
        <ele>598.08</ele>
        <time>2011-07-07T13:48:18Z</time>
      </trkpt>
      <trkpt lat="63.148936" lon="12.965878">
        <ele>598.138</ele>
        <time>2011-07-07T13:48:23Z</time>
      </trkpt>
      <trkpt lat="63.148947" lon="12.965922">
        <ele>598.337</ele>
        <time>2011-07-07T13:48:28Z</time>
      </trkpt>
      <trkpt lat="63.148937" lon="12.965974">
        <ele>598.461</ele>
        <time>2011-07-07T13:48:38Z</time>
      </trkpt>
      <trkpt lat="63.148942" lon="12.965967">
        <ele>598.343</ele>
        <time>2011-07-07T13:48:49Z</time>
      </trkpt>
      <trkpt lat="63.148921" lon="12.965765">
        <ele>598.526</ele>
        <time>2011-07-07T13:49:23Z</time>
      </trkpt>
      <trkpt lat="63.148888" lon="12.965685">
        <ele>598.314</ele>
        <time>2011-07-07T13:49:37Z</time>
      </trkpt>
      <trkpt lat="63.148894" lon="12.965806">
        <ele>598.229</ele>
        <time>2011-07-07T13:50:21Z</time>
      </trkpt>
      <trkpt lat="63.148925" lon="12.965892">
        <ele>598.211</ele>
        <time>2011-07-07T13:50:28Z</time>
      </trkpt>
      <trkpt lat="63.14894" lon="12.965954">
        <ele>598.306</ele>
        <time>2011-07-07T13:50:55Z</time>
      </trkpt>
      <trkpt lat="63.148931" lon="12.96595">
        <ele>598.04</ele>
        <time>2011-07-07T13:51:00Z</time>
      </trkpt>
      <trkpt lat="63.148931" lon="12.96585">
        <ele>597.96</ele>
        <time>2011-07-07T13:51:10Z</time>
      </trkpt>
      <trkpt lat="63.14892" lon="12.965932">
        <ele>597.946</ele>
        <time>2011-07-07T13:51:17Z</time>
      </trkpt>
      <trkpt lat="63.148923" lon="12.96593">
        <ele>598.006</ele>
        <time>2011-07-07T13:51:20Z</time>
      </trkpt>
      <trkpt lat="63.148913" lon="12.965684">
        <ele>597.834</ele>
        <time>2011-07-07T13:51:53Z</time>
      </trkpt>
      <trkpt lat="63.148897" lon="12.965799">
        <ele>598.101</ele>
        <time>2011-07-07T13:52:42Z</time>
      </trkpt>
      <trkpt lat="63.148926" lon="12.965933">
        <ele>597.984</ele>
        <time>2011-07-07T13:53:01Z</time>
      </trkpt>
      <trkpt lat="63.14893" lon="12.965887">
        <ele>598.104</ele>
        <time>2011-07-07T13:53:05Z</time>
      </trkpt>
      <trkpt lat="63.148928" lon="12.965846">
        <ele>598.192</ele>
        <time>2011-07-07T13:53:12Z</time>
      </trkpt>
      <trkpt lat="63.148894" lon="12.965786">
        <ele>598.326</ele>
        <time>2011-07-07T13:53:28Z</time>
      </trkpt>
      <trkpt lat="63.148903" lon="12.965953">
        <ele>598.144</ele>
        <time>2011-07-07T13:53:47Z</time>
      </trkpt>
      <trkpt lat="63.148942" lon="12.965992">
        <ele>598.373</ele>
        <time>2011-07-07T13:53:58Z</time>
      </trkpt>
      <trkpt lat="63.14893" lon="12.965886">
        <ele>598.721</ele>
        <time>2011-07-07T13:54:28Z</time>
      </trkpt>
      <trkpt lat="63.148928" lon="12.965903">
        <ele>598.741</ele>
        <time>2011-07-07T13:54:36Z</time>
      </trkpt>
      <trkpt lat="63.148964" lon="12.966121">
        <ele>598.759</ele>
        <time>2011-07-07T13:55:01Z</time>
      </trkpt>
      <trkpt lat="63.148973" lon="12.966051">
        <ele>598.83</ele>
        <time>2011-07-07T13:55:14Z</time>
      </trkpt>
      <trkpt lat="63.148957" lon="12.966323">
        <ele>599.093</ele>
        <time>2011-07-07T13:55:41Z</time>
      </trkpt>
      <trkpt lat="63.148956" lon="12.966541">
        <ele>599.03</ele>
        <time>2011-07-07T13:55:54Z</time>
      </trkpt>
      <trkpt lat="63.148963" lon="12.966419">
        <ele>598.923</ele>
        <time>2011-07-07T13:56:08Z</time>
      </trkpt>
      <trkpt lat="63.148954" lon="12.966318">
        <ele>598.608</ele>
        <time>2011-07-07T13:56:19Z</time>
      </trkpt>
      <trkpt lat="63.148975" lon="12.965971">
        <ele>598.656</ele>
        <time>2011-07-07T13:56:27Z</time>
      </trkpt>
      <trkpt lat="63.148977" lon="12.965969">
        <ele>598.432</ele>
        <time>2011-07-07T13:56:29Z</time>
      </trkpt>
      <trkpt lat="63.148974" lon="12.966251">
        <ele>597.927</ele>
        <time>2011-07-07T13:57:45Z</time>
      </trkpt>
      <trkpt lat="63.148947" lon="12.965953">
        <ele>598.718</ele>
        <time>2011-07-07T13:58:32Z</time>
      </trkpt>
      <trkpt lat="63.148944" lon="12.966053">
        <ele>599.356</ele>
        <time>2011-07-07T13:58:42Z</time>
      </trkpt>
      <trkpt lat="63.148933" lon="12.966044">
        <ele>599.389</ele>
        <time>2011-07-07T13:58:44Z</time>
      </trkpt>
      <trkpt lat="63.14903" lon="12.96621">
        <ele>599.324</ele>
        <time>2011-07-07T13:58:53Z</time>
      </trkpt>
      <trkpt lat="63.149075" lon="12.966413">
        <ele>599.432</ele>
        <time>2011-07-07T13:59:01Z</time>
      </trkpt>
      <trkpt lat="63.149038" lon="12.966394">
        <ele>599.334</ele>
        <time>2011-07-07T13:59:03Z</time>
      </trkpt>
      <trkpt lat="63.149073" lon="12.966344">
        <ele>598.423</ele>
        <time>2011-07-07T13:59:07Z</time>
      </trkpt>
      <trkpt lat="63.148922" lon="12.96637">
        <ele>596.877</ele>
        <time>2011-07-07T13:59:19Z</time>
      </trkpt>
      <trkpt lat="63.148872" lon="12.966322">
        <ele>597.174</ele>
        <time>2011-07-07T13:59:24Z</time>
      </trkpt>
      <trkpt lat="63.148852" lon="12.966233">
        <ele>596.711</ele>
        <time>2011-07-07T13:59:31Z</time>
      </trkpt>
      <trkpt lat="63.148901" lon="12.966296">
        <ele>595.58</ele>
        <time>2011-07-07T14:00:28Z</time>
      </trkpt>
    </trkseg>
  </trk>
</gpx>